<?xml version="1.0" encoding="UTF-8" standalone="no" ?>
<gpx xmlns="http://www.topografix.com/GPX/1/1" xmlns:xsi="http://www.w3.org/2001/XMLSchema-instance" xsi:schemaLocation="http://www.topografix.com/GPX/1/1 http://www.topografix.com/GPX/1/1/gpx.xsd" version="1.1" creator="VisuGPX - https://www.visugpx.com">
  <metadata>
    <name>En Calcat Lac du Lampy 37Km 1034 m D+ le 10/02/2019</name>
    <desc><![CDATA[Boucle en 8 très agreable. Départ et arrivée d'D'En Calcat (Dourgne) en passant par la croix de Fagasse, Arfons, le lac du Lampy et retour par les Escudiers.]]></desc>
  </metadata>
  <trk>
    <name><![CDATA[2019-02-10-08-38-00 on GPSies.com]]></name>
    <trkseg>
      <trkpt lat="43.4955" lon="2.15073">
        <ele>235</ele>
        <time>2019-02-10T08:38:00Z</time>
      </trkpt>
      <trkpt lat="43.4955" lon="2.15073">
        <ele>242</ele>
        <time>2019-02-10T08:38:01Z</time>
      </trkpt>
      <trkpt lat="43.49552" lon="2.15075">
        <ele>240</ele>
        <time>2019-02-10T08:38:31Z</time>
      </trkpt>
      <trkpt lat="43.49551" lon="2.15078">
        <ele>239</ele>
        <time>2019-02-10T08:38:34Z</time>
      </trkpt>
      <trkpt lat="43.4955" lon="2.15079">
        <ele>239</ele>
        <time>2019-02-10T08:38:35Z</time>
      </trkpt>
      <trkpt lat="43.49545" lon="2.15085">
        <ele>240</ele>
        <time>2019-02-10T08:38:41Z</time>
      </trkpt>
      <trkpt lat="43.4954" lon="2.15099">
        <ele>241</ele>
        <time>2019-02-10T08:38:47Z</time>
      </trkpt>
      <trkpt lat="43.49538" lon="2.15101">
        <ele>241</ele>
        <time>2019-02-10T08:38:48Z</time>
      </trkpt>
      <trkpt lat="43.49537" lon="2.15106">
        <ele>241</ele>
        <time>2019-02-10T08:38:50Z</time>
      </trkpt>
      <trkpt lat="43.49537" lon="2.15108">
        <ele>241</ele>
        <time>2019-02-10T08:38:51Z</time>
      </trkpt>
      <trkpt lat="43.49542" lon="2.15117">
        <ele>241</ele>
        <time>2019-02-10T08:38:55Z</time>
      </trkpt>
      <trkpt lat="43.49546" lon="2.15121">
        <ele>242</ele>
        <time>2019-02-10T08:38:57Z</time>
      </trkpt>
      <trkpt lat="43.49557" lon="2.15135">
        <ele>242</ele>
        <time>2019-02-10T08:39:04Z</time>
      </trkpt>
      <trkpt lat="43.49561" lon="2.1514">
        <ele>242</ele>
        <time>2019-02-10T08:39:06Z</time>
      </trkpt>
      <trkpt lat="43.49575" lon="2.15162">
        <ele>243</ele>
        <time>2019-02-10T08:39:15Z</time>
      </trkpt>
      <trkpt lat="43.49579" lon="2.15167">
        <ele>243</ele>
        <time>2019-02-10T08:39:17Z</time>
      </trkpt>
      <trkpt lat="43.49586" lon="2.15181">
        <ele>244</ele>
        <time>2019-02-10T08:39:22Z</time>
      </trkpt>
      <trkpt lat="43.49585" lon="2.15183">
        <ele>244</ele>
        <time>2019-02-10T08:39:23Z</time>
      </trkpt>
      <trkpt lat="43.4958" lon="2.15189">
        <ele>244</ele>
        <time>2019-02-10T08:39:26Z</time>
      </trkpt>
      <trkpt lat="43.49575" lon="2.15194">
        <ele>245</ele>
        <time>2019-02-10T08:39:29Z</time>
      </trkpt>
      <trkpt lat="43.49572" lon="2.15198">
        <ele>246</ele>
        <time>2019-02-10T08:39:31Z</time>
      </trkpt>
      <trkpt lat="43.49567" lon="2.15204">
        <ele>246</ele>
        <time>2019-02-10T08:39:34Z</time>
      </trkpt>
      <trkpt lat="43.49565" lon="2.15206">
        <ele>246</ele>
        <time>2019-02-10T08:39:35Z</time>
      </trkpt>
      <trkpt lat="43.49561" lon="2.15209">
        <ele>246</ele>
        <time>2019-02-10T08:39:37Z</time>
      </trkpt>
      <trkpt lat="43.49544" lon="2.15214">
        <ele>246</ele>
        <time>2019-02-10T08:39:43Z</time>
      </trkpt>
      <trkpt lat="43.49533" lon="2.1522">
        <ele>246</ele>
        <time>2019-02-10T08:39:47Z</time>
      </trkpt>
      <trkpt lat="43.49524" lon="2.15225">
        <ele>246</ele>
        <time>2019-02-10T08:39:50Z</time>
      </trkpt>
      <trkpt lat="43.49514" lon="2.15226">
        <ele>246</ele>
        <time>2019-02-10T08:39:53Z</time>
      </trkpt>
      <trkpt lat="43.49511" lon="2.15222">
        <ele>246</ele>
        <time>2019-02-10T08:39:54Z</time>
      </trkpt>
      <trkpt lat="43.49504" lon="2.15215">
        <ele>246</ele>
        <time>2019-02-10T08:39:56Z</time>
      </trkpt>
      <trkpt lat="43.49493" lon="2.15208">
        <ele>245</ele>
        <time>2019-02-10T08:39:59Z</time>
      </trkpt>
      <trkpt lat="43.49489" lon="2.15206">
        <ele>245</ele>
        <time>2019-02-10T08:40:00Z</time>
      </trkpt>
      <trkpt lat="43.49478" lon="2.15203">
        <ele>245</ele>
        <time>2019-02-10T08:40:03Z</time>
      </trkpt>
      <trkpt lat="43.49467" lon="2.15204">
        <ele>245</ele>
        <time>2019-02-10T08:40:06Z</time>
      </trkpt>
      <trkpt lat="43.49448" lon="2.15208">
        <ele>245</ele>
        <time>2019-02-10T08:40:11Z</time>
      </trkpt>
      <trkpt lat="43.49423" lon="2.15207">
        <ele>246</ele>
        <time>2019-02-10T08:40:18Z</time>
      </trkpt>
      <trkpt lat="43.4942" lon="2.152">
        <ele>245</ele>
        <time>2019-02-10T08:40:20Z</time>
      </trkpt>
      <trkpt lat="43.49419" lon="2.15194">
        <ele>246</ele>
        <time>2019-02-10T08:40:21Z</time>
      </trkpt>
      <trkpt lat="43.49417" lon="2.15163">
        <ele>245</ele>
        <time>2019-02-10T08:40:25Z</time>
      </trkpt>
      <trkpt lat="43.49414" lon="2.1514">
        <ele>244</ele>
        <time>2019-02-10T08:40:28Z</time>
      </trkpt>
      <trkpt lat="43.49412" lon="2.15133">
        <ele>243</ele>
        <time>2019-02-10T08:40:29Z</time>
      </trkpt>
      <trkpt lat="43.49409" lon="2.15127">
        <ele>243</ele>
        <time>2019-02-10T08:40:30Z</time>
      </trkpt>
      <trkpt lat="43.49398" lon="2.15114">
        <ele>243</ele>
        <time>2019-02-10T08:40:33Z</time>
      </trkpt>
      <trkpt lat="43.49395" lon="2.15112">
        <ele>244</ele>
        <time>2019-02-10T08:40:34Z</time>
      </trkpt>
      <trkpt lat="43.4939" lon="2.15107">
        <ele>244</ele>
        <time>2019-02-10T08:40:36Z</time>
      </trkpt>
      <trkpt lat="43.49379" lon="2.15098">
        <ele>246</ele>
        <time>2019-02-10T08:40:40Z</time>
      </trkpt>
      <trkpt lat="43.49376" lon="2.15097">
        <ele>246</ele>
        <time>2019-02-10T08:40:41Z</time>
      </trkpt>
      <trkpt lat="43.49368" lon="2.15092">
        <ele>247</ele>
        <time>2019-02-10T08:40:44Z</time>
      </trkpt>
      <trkpt lat="43.49358" lon="2.1509">
        <ele>247</ele>
        <time>2019-02-10T08:40:47Z</time>
      </trkpt>
      <trkpt lat="43.49353" lon="2.15089">
        <ele>248</ele>
        <time>2019-02-10T08:40:49Z</time>
      </trkpt>
      <trkpt lat="43.49339" lon="2.15087">
        <ele>249</ele>
        <time>2019-02-10T08:40:54Z</time>
      </trkpt>
      <trkpt lat="43.49336" lon="2.15087">
        <ele>249</ele>
        <time>2019-02-10T08:40:55Z</time>
      </trkpt>
      <trkpt lat="43.49333" lon="2.15087">
        <ele>249</ele>
        <time>2019-02-10T08:40:56Z</time>
      </trkpt>
      <trkpt lat="43.49322" lon="2.15087">
        <ele>250</ele>
        <time>2019-02-10T08:41:00Z</time>
      </trkpt>
      <trkpt lat="43.49307" lon="2.15088">
        <ele>251</ele>
        <time>2019-02-10T08:41:05Z</time>
      </trkpt>
      <trkpt lat="43.49304" lon="2.15088">
        <ele>252</ele>
        <time>2019-02-10T08:41:06Z</time>
      </trkpt>
      <trkpt lat="43.49289" lon="2.15087">
        <ele>252</ele>
        <time>2019-02-10T08:41:11Z</time>
      </trkpt>
      <trkpt lat="43.49282" lon="2.15087">
        <ele>252</ele>
        <time>2019-02-10T08:41:13Z</time>
      </trkpt>
      <trkpt lat="43.49264" lon="2.15086">
        <ele>253</ele>
        <time>2019-02-10T08:41:18Z</time>
      </trkpt>
      <trkpt lat="43.49253" lon="2.15088">
        <ele>252</ele>
        <time>2019-02-10T08:41:21Z</time>
      </trkpt>
      <trkpt lat="43.49245" lon="2.15089">
        <ele>252</ele>
        <time>2019-02-10T08:41:23Z</time>
      </trkpt>
      <trkpt lat="43.49233" lon="2.15089">
        <ele>252</ele>
        <time>2019-02-10T08:41:26Z</time>
      </trkpt>
      <trkpt lat="43.49228" lon="2.15089">
        <ele>252</ele>
        <time>2019-02-10T08:41:27Z</time>
      </trkpt>
      <trkpt lat="43.49206" lon="2.15087">
        <ele>252</ele>
        <time>2019-02-10T08:41:32Z</time>
      </trkpt>
      <trkpt lat="43.49201" lon="2.15088">
        <ele>252</ele>
        <time>2019-02-10T08:41:33Z</time>
      </trkpt>
      <trkpt lat="43.49197" lon="2.15088">
        <ele>252</ele>
        <time>2019-02-10T08:41:34Z</time>
      </trkpt>
      <trkpt lat="43.49179" lon="2.15091">
        <ele>252</ele>
        <time>2019-02-10T08:41:38Z</time>
      </trkpt>
      <trkpt lat="43.49174" lon="2.15092">
        <ele>252</ele>
        <time>2019-02-10T08:41:39Z</time>
      </trkpt>
      <trkpt lat="43.49162" lon="2.15095">
        <ele>252</ele>
        <time>2019-02-10T08:41:42Z</time>
      </trkpt>
      <trkpt lat="43.49153" lon="2.15098">
        <ele>253</ele>
        <time>2019-02-10T08:41:44Z</time>
      </trkpt>
      <trkpt lat="43.49144" lon="2.15101">
        <ele>253</ele>
        <time>2019-02-10T08:41:46Z</time>
      </trkpt>
      <trkpt lat="43.4914" lon="2.15101">
        <ele>253</ele>
        <time>2019-02-10T08:41:47Z</time>
      </trkpt>
      <trkpt lat="43.49136" lon="2.15103">
        <ele>253</ele>
        <time>2019-02-10T08:41:48Z</time>
      </trkpt>
      <trkpt lat="43.49132" lon="2.15104">
        <ele>253</ele>
        <time>2019-02-10T08:41:49Z</time>
      </trkpt>
      <trkpt lat="43.49118" lon="2.15109">
        <ele>253</ele>
        <time>2019-02-10T08:41:53Z</time>
      </trkpt>
      <trkpt lat="43.49099" lon="2.15116">
        <ele>253</ele>
        <time>2019-02-10T08:41:58Z</time>
      </trkpt>
      <trkpt lat="43.49091" lon="2.15119">
        <ele>253</ele>
        <time>2019-02-10T08:42:00Z</time>
      </trkpt>
      <trkpt lat="43.49074" lon="2.15125">
        <ele>253</ele>
        <time>2019-02-10T08:42:04Z</time>
      </trkpt>
      <trkpt lat="43.49051" lon="2.15127">
        <ele>254</ele>
        <time>2019-02-10T08:42:10Z</time>
      </trkpt>
      <trkpt lat="43.49038" lon="2.15114">
        <ele>254</ele>
        <time>2019-02-10T08:42:14Z</time>
      </trkpt>
      <trkpt lat="43.4902" lon="2.15083">
        <ele>254</ele>
        <time>2019-02-10T08:42:21Z</time>
      </trkpt>
      <trkpt lat="43.49017" lon="2.15079">
        <ele>254</ele>
        <time>2019-02-10T08:42:22Z</time>
      </trkpt>
      <trkpt lat="43.49005" lon="2.15058">
        <ele>255</ele>
        <time>2019-02-10T08:42:27Z</time>
      </trkpt>
      <trkpt lat="43.48999" lon="2.15045">
        <ele>255</ele>
        <time>2019-02-10T08:42:30Z</time>
      </trkpt>
      <trkpt lat="43.48992" lon="2.15034">
        <ele>256</ele>
        <time>2019-02-10T08:42:33Z</time>
      </trkpt>
      <trkpt lat="43.48983" lon="2.15012">
        <ele>256</ele>
        <time>2019-02-10T08:42:38Z</time>
      </trkpt>
      <trkpt lat="43.48977" lon="2.14996">
        <ele>257</ele>
        <time>2019-02-10T08:42:42Z</time>
      </trkpt>
      <trkpt lat="43.48973" lon="2.14987">
        <ele>257</ele>
        <time>2019-02-10T08:42:44Z</time>
      </trkpt>
      <trkpt lat="43.48963" lon="2.14963">
        <ele>258</ele>
        <time>2019-02-10T08:42:49Z</time>
      </trkpt>
      <trkpt lat="43.48946" lon="2.14926">
        <ele>258</ele>
        <time>2019-02-10T08:42:57Z</time>
      </trkpt>
      <trkpt lat="43.48938" lon="2.14907">
        <ele>259</ele>
        <time>2019-02-10T08:43:01Z</time>
      </trkpt>
      <trkpt lat="43.48932" lon="2.14894">
        <ele>259</ele>
        <time>2019-02-10T08:43:04Z</time>
      </trkpt>
      <trkpt lat="43.48925" lon="2.14879">
        <ele>260</ele>
        <time>2019-02-10T08:43:08Z</time>
      </trkpt>
      <trkpt lat="43.48923" lon="2.14873">
        <ele>260</ele>
        <time>2019-02-10T08:43:09Z</time>
      </trkpt>
      <trkpt lat="43.48909" lon="2.14836">
        <ele>259</ele>
        <time>2019-02-10T08:43:15Z</time>
      </trkpt>
      <trkpt lat="43.489" lon="2.14811">
        <ele>258</ele>
        <time>2019-02-10T08:43:19Z</time>
      </trkpt>
      <trkpt lat="43.48898" lon="2.14805">
        <ele>258</ele>
        <time>2019-02-10T08:43:20Z</time>
      </trkpt>
      <trkpt lat="43.48883" lon="2.14773">
        <ele>258</ele>
        <time>2019-02-10T08:43:26Z</time>
      </trkpt>
      <trkpt lat="43.48866" lon="2.14751">
        <ele>257</ele>
        <time>2019-02-10T08:43:31Z</time>
      </trkpt>
      <trkpt lat="43.48862" lon="2.14748">
        <ele>257</ele>
        <time>2019-02-10T08:43:32Z</time>
      </trkpt>
      <trkpt lat="43.48858" lon="2.14745">
        <ele>257</ele>
        <time>2019-02-10T08:43:33Z</time>
      </trkpt>
      <trkpt lat="43.48838" lon="2.14729">
        <ele>258</ele>
        <time>2019-02-10T08:43:39Z</time>
      </trkpt>
      <trkpt lat="43.48825" lon="2.14715">
        <ele>259</ele>
        <time>2019-02-10T08:43:43Z</time>
      </trkpt>
      <trkpt lat="43.48818" lon="2.14705">
        <ele>259</ele>
        <time>2019-02-10T08:43:45Z</time>
      </trkpt>
      <trkpt lat="43.48796" lon="2.14679">
        <ele>257</ele>
        <time>2019-02-10T08:43:50Z</time>
      </trkpt>
      <trkpt lat="43.48791" lon="2.14675">
        <ele>257</ele>
        <time>2019-02-10T08:43:51Z</time>
      </trkpt>
      <trkpt lat="43.48775" lon="2.14659">
        <ele>257</ele>
        <time>2019-02-10T08:43:55Z</time>
      </trkpt>
      <trkpt lat="43.48753" lon="2.14635">
        <ele>257</ele>
        <time>2019-02-10T08:44:01Z</time>
      </trkpt>
      <trkpt lat="43.48735" lon="2.14616">
        <ele>257</ele>
        <time>2019-02-10T08:44:06Z</time>
      </trkpt>
      <trkpt lat="43.48708" lon="2.14589">
        <ele>258</ele>
        <time>2019-02-10T08:44:14Z</time>
      </trkpt>
      <trkpt lat="43.48689" lon="2.14573">
        <ele>258</ele>
        <time>2019-02-10T08:44:19Z</time>
      </trkpt>
      <trkpt lat="43.48674" lon="2.1456">
        <ele>258</ele>
        <time>2019-02-10T08:44:23Z</time>
      </trkpt>
      <trkpt lat="43.48662" lon="2.1455">
        <ele>258</ele>
        <time>2019-02-10T08:44:26Z</time>
      </trkpt>
      <trkpt lat="43.48643" lon="2.14533">
        <ele>259</ele>
        <time>2019-02-10T08:44:31Z</time>
      </trkpt>
      <trkpt lat="43.48629" lon="2.1452">
        <ele>259</ele>
        <time>2019-02-10T08:44:35Z</time>
      </trkpt>
      <trkpt lat="43.48619" lon="2.14512">
        <ele>259</ele>
        <time>2019-02-10T08:44:38Z</time>
      </trkpt>
      <trkpt lat="43.48616" lon="2.14509">
        <ele>260</ele>
        <time>2019-02-10T08:44:39Z</time>
      </trkpt>
      <trkpt lat="43.48593" lon="2.14496">
        <ele>260</ele>
        <time>2019-02-10T08:44:45Z</time>
      </trkpt>
      <trkpt lat="43.48572" lon="2.14485">
        <ele>260</ele>
        <time>2019-02-10T08:44:50Z</time>
      </trkpt>
      <trkpt lat="43.48561" lon="2.14478">
        <ele>259</ele>
        <time>2019-02-10T08:44:53Z</time>
      </trkpt>
      <trkpt lat="43.48534" lon="2.14463">
        <ele>260</ele>
        <time>2019-02-10T08:45:00Z</time>
      </trkpt>
      <trkpt lat="43.48526" lon="2.14459">
        <ele>260</ele>
        <time>2019-02-10T08:45:02Z</time>
      </trkpt>
      <trkpt lat="43.48504" lon="2.14447">
        <ele>261</ele>
        <time>2019-02-10T08:45:09Z</time>
      </trkpt>
      <trkpt lat="43.48498" lon="2.14442">
        <ele>262</ele>
        <time>2019-02-10T08:45:14Z</time>
      </trkpt>
      <trkpt lat="43.48497" lon="2.1444">
        <ele>262</ele>
        <time>2019-02-10T08:45:15Z</time>
      </trkpt>
      <trkpt lat="43.48491" lon="2.14428">
        <ele>262</ele>
        <time>2019-02-10T08:45:18Z</time>
      </trkpt>
      <trkpt lat="43.48482" lon="2.14407">
        <ele>261</ele>
        <time>2019-02-10T08:45:22Z</time>
      </trkpt>
      <trkpt lat="43.48475" lon="2.14389">
        <ele>261</ele>
        <time>2019-02-10T08:45:25Z</time>
      </trkpt>
      <trkpt lat="43.48458" lon="2.14352">
        <ele>260</ele>
        <time>2019-02-10T08:45:32Z</time>
      </trkpt>
      <trkpt lat="43.48455" lon="2.14347">
        <ele>260</ele>
        <time>2019-02-10T08:45:33Z</time>
      </trkpt>
      <trkpt lat="43.48437" lon="2.1432">
        <ele>260</ele>
        <time>2019-02-10T08:45:39Z</time>
      </trkpt>
      <trkpt lat="43.48434" lon="2.14315">
        <ele>260</ele>
        <time>2019-02-10T08:45:40Z</time>
      </trkpt>
      <trkpt lat="43.48431" lon="2.14309">
        <ele>260</ele>
        <time>2019-02-10T08:45:41Z</time>
      </trkpt>
      <trkpt lat="43.48425" lon="2.14298">
        <ele>260</ele>
        <time>2019-02-10T08:45:43Z</time>
      </trkpt>
      <trkpt lat="43.48412" lon="2.14272">
        <ele>260</ele>
        <time>2019-02-10T08:45:48Z</time>
      </trkpt>
      <trkpt lat="43.48395" lon="2.14228">
        <ele>260</ele>
        <time>2019-02-10T08:45:56Z</time>
      </trkpt>
      <trkpt lat="43.48382" lon="2.14185">
        <ele>261</ele>
        <time>2019-02-10T08:46:04Z</time>
      </trkpt>
      <trkpt lat="43.48375" lon="2.14174">
        <ele>261</ele>
        <time>2019-02-10T08:46:07Z</time>
      </trkpt>
      <trkpt lat="43.48372" lon="2.14173">
        <ele>261</ele>
        <time>2019-02-10T08:46:08Z</time>
      </trkpt>
      <trkpt lat="43.48363" lon="2.14181">
        <ele>262</ele>
        <time>2019-02-10T08:46:11Z</time>
      </trkpt>
      <trkpt lat="43.4836" lon="2.14184">
        <ele>262</ele>
        <time>2019-02-10T08:46:12Z</time>
      </trkpt>
      <trkpt lat="43.48357" lon="2.14188">
        <ele>262</ele>
        <time>2019-02-10T08:46:13Z</time>
      </trkpt>
      <trkpt lat="43.48337" lon="2.14213">
        <ele>263</ele>
        <time>2019-02-10T08:46:20Z</time>
      </trkpt>
      <trkpt lat="43.48321" lon="2.14234">
        <ele>263</ele>
        <time>2019-02-10T08:46:26Z</time>
      </trkpt>
      <trkpt lat="43.48318" lon="2.14237">
        <ele>264</ele>
        <time>2019-02-10T08:46:27Z</time>
      </trkpt>
      <trkpt lat="43.48304" lon="2.14259">
        <ele>264</ele>
        <time>2019-02-10T08:46:33Z</time>
      </trkpt>
      <trkpt lat="43.48299" lon="2.14266">
        <ele>264</ele>
        <time>2019-02-10T08:46:35Z</time>
      </trkpt>
      <trkpt lat="43.48288" lon="2.14283">
        <ele>265</ele>
        <time>2019-02-10T08:46:40Z</time>
      </trkpt>
      <trkpt lat="43.48283" lon="2.14285">
        <ele>265</ele>
        <time>2019-02-10T08:46:42Z</time>
      </trkpt>
      <trkpt lat="43.4828" lon="2.14284">
        <ele>266</ele>
        <time>2019-02-10T08:46:43Z</time>
      </trkpt>
      <trkpt lat="43.48276" lon="2.14277">
        <ele>266</ele>
        <time>2019-02-10T08:46:45Z</time>
      </trkpt>
      <trkpt lat="43.48269" lon="2.14267">
        <ele>266</ele>
        <time>2019-02-10T08:46:48Z</time>
      </trkpt>
      <trkpt lat="43.48262" lon="2.14254">
        <ele>267</ele>
        <time>2019-02-10T08:46:52Z</time>
      </trkpt>
      <trkpt lat="43.48254" lon="2.1424">
        <ele>267</ele>
        <time>2019-02-10T08:46:56Z</time>
      </trkpt>
      <trkpt lat="43.48248" lon="2.14226">
        <ele>268</ele>
        <time>2019-02-10T08:47:00Z</time>
      </trkpt>
      <trkpt lat="43.48242" lon="2.14213">
        <ele>269</ele>
        <time>2019-02-10T08:47:04Z</time>
      </trkpt>
      <trkpt lat="43.48241" lon="2.1421">
        <ele>269</ele>
        <time>2019-02-10T08:47:05Z</time>
      </trkpt>
      <trkpt lat="43.48238" lon="2.14204">
        <ele>270</ele>
        <time>2019-02-10T08:47:07Z</time>
      </trkpt>
      <trkpt lat="43.48237" lon="2.14198">
        <ele>270</ele>
        <time>2019-02-10T08:47:09Z</time>
      </trkpt>
      <trkpt lat="43.48236" lon="2.1419">
        <ele>271</ele>
        <time>2019-02-10T08:47:12Z</time>
      </trkpt>
      <trkpt lat="43.48236" lon="2.14182">
        <ele>272</ele>
        <time>2019-02-10T08:47:14Z</time>
      </trkpt>
      <trkpt lat="43.48238" lon="2.14175">
        <ele>273</ele>
        <time>2019-02-10T08:47:16Z</time>
      </trkpt>
      <trkpt lat="43.48242" lon="2.14161">
        <ele>274</ele>
        <time>2019-02-10T08:47:20Z</time>
      </trkpt>
      <trkpt lat="43.48243" lon="2.14155">
        <ele>274</ele>
        <time>2019-02-10T08:47:22Z</time>
      </trkpt>
      <trkpt lat="43.48244" lon="2.14151">
        <ele>275</ele>
        <time>2019-02-10T08:47:23Z</time>
      </trkpt>
      <trkpt lat="43.48247" lon="2.14138">
        <ele>276</ele>
        <time>2019-02-10T08:47:27Z</time>
      </trkpt>
      <trkpt lat="43.48248" lon="2.14134">
        <ele>276</ele>
        <time>2019-02-10T08:47:28Z</time>
      </trkpt>
      <trkpt lat="43.4825" lon="2.14124">
        <ele>277</ele>
        <time>2019-02-10T08:47:31Z</time>
      </trkpt>
      <trkpt lat="43.48252" lon="2.14113">
        <ele>278</ele>
        <time>2019-02-10T08:47:35Z</time>
      </trkpt>
      <trkpt lat="43.48252" lon="2.1411">
        <ele>278</ele>
        <time>2019-02-10T08:47:36Z</time>
      </trkpt>
      <trkpt lat="43.48249" lon="2.14106">
        <ele>279</ele>
        <time>2019-02-10T08:47:39Z</time>
      </trkpt>
      <trkpt lat="43.48247" lon="2.14106">
        <ele>279</ele>
        <time>2019-02-10T08:47:40Z</time>
      </trkpt>
      <trkpt lat="43.48241" lon="2.14111">
        <ele>280</ele>
        <time>2019-02-10T08:47:43Z</time>
      </trkpt>
      <trkpt lat="43.48237" lon="2.14116">
        <ele>280</ele>
        <time>2019-02-10T08:47:45Z</time>
      </trkpt>
      <trkpt lat="43.48224" lon="2.14135">
        <ele>280</ele>
        <time>2019-02-10T08:47:52Z</time>
      </trkpt>
      <trkpt lat="43.4821" lon="2.14157">
        <ele>280</ele>
        <time>2019-02-10T08:47:59Z</time>
      </trkpt>
      <trkpt lat="43.48202" lon="2.14177">
        <ele>280</ele>
        <time>2019-02-10T08:48:05Z</time>
      </trkpt>
      <trkpt lat="43.48201" lon="2.14181">
        <ele>280</ele>
        <time>2019-02-10T08:48:06Z</time>
      </trkpt>
      <trkpt lat="43.48195" lon="2.14203">
        <ele>280</ele>
        <time>2019-02-10T08:48:12Z</time>
      </trkpt>
      <trkpt lat="43.48189" lon="2.1422">
        <ele>280</ele>
        <time>2019-02-10T08:48:17Z</time>
      </trkpt>
      <trkpt lat="43.48179" lon="2.14244">
        <ele>281</ele>
        <time>2019-02-10T08:48:23Z</time>
      </trkpt>
      <trkpt lat="43.48172" lon="2.14265">
        <ele>281</ele>
        <time>2019-02-10T08:48:28Z</time>
      </trkpt>
      <trkpt lat="43.48164" lon="2.14287">
        <ele>281</ele>
        <time>2019-02-10T08:48:33Z</time>
      </trkpt>
      <trkpt lat="43.48161" lon="2.14296">
        <ele>281</ele>
        <time>2019-02-10T08:48:35Z</time>
      </trkpt>
      <trkpt lat="43.48156" lon="2.14313">
        <ele>282</ele>
        <time>2019-02-10T08:48:39Z</time>
      </trkpt>
      <trkpt lat="43.48155" lon="2.14317">
        <ele>282</ele>
        <time>2019-02-10T08:48:40Z</time>
      </trkpt>
      <trkpt lat="43.48148" lon="2.14339">
        <ele>282</ele>
        <time>2019-02-10T08:48:45Z</time>
      </trkpt>
      <trkpt lat="43.4814" lon="2.1436">
        <ele>283</ele>
        <time>2019-02-10T08:48:50Z</time>
      </trkpt>
      <trkpt lat="43.48134" lon="2.14373">
        <ele>283</ele>
        <time>2019-02-10T08:48:53Z</time>
      </trkpt>
      <trkpt lat="43.48127" lon="2.14385">
        <ele>283</ele>
        <time>2019-02-10T08:48:56Z</time>
      </trkpt>
      <trkpt lat="43.48116" lon="2.14403">
        <ele>284</ele>
        <time>2019-02-10T08:49:01Z</time>
      </trkpt>
      <trkpt lat="43.48101" lon="2.14424">
        <ele>284</ele>
        <time>2019-02-10T08:49:07Z</time>
      </trkpt>
      <trkpt lat="43.48093" lon="2.14433">
        <ele>284</ele>
        <time>2019-02-10T08:49:10Z</time>
      </trkpt>
      <trkpt lat="43.48087" lon="2.14441">
        <ele>284</ele>
        <time>2019-02-10T08:49:12Z</time>
      </trkpt>
      <trkpt lat="43.48068" lon="2.14468">
        <ele>285</ele>
        <time>2019-02-10T08:49:19Z</time>
      </trkpt>
      <trkpt lat="43.48064" lon="2.14475">
        <ele>285</ele>
        <time>2019-02-10T08:49:21Z</time>
      </trkpt>
      <trkpt lat="43.48057" lon="2.14486">
        <ele>286</ele>
        <time>2019-02-10T08:49:24Z</time>
      </trkpt>
      <trkpt lat="43.48044" lon="2.14503">
        <ele>286</ele>
        <time>2019-02-10T08:49:29Z</time>
      </trkpt>
      <trkpt lat="43.4803" lon="2.14523">
        <ele>286</ele>
        <time>2019-02-10T08:49:34Z</time>
      </trkpt>
      <trkpt lat="43.48023" lon="2.14531">
        <ele>287</ele>
        <time>2019-02-10T08:49:37Z</time>
      </trkpt>
      <trkpt lat="43.48011" lon="2.14545">
        <ele>287</ele>
        <time>2019-02-10T08:49:42Z</time>
      </trkpt>
      <trkpt lat="43.4801" lon="2.14546">
        <ele>287</ele>
        <time>2019-02-10T08:49:43Z</time>
      </trkpt>
      <trkpt lat="43.48006" lon="2.14552">
        <ele>287</ele>
        <time>2019-02-10T08:49:46Z</time>
      </trkpt>
      <trkpt lat="43.48004" lon="2.14557">
        <ele>287</ele>
        <time>2019-02-10T08:49:48Z</time>
      </trkpt>
      <trkpt lat="43.47997" lon="2.14563">
        <ele>288</ele>
        <time>2019-02-10T08:49:52Z</time>
      </trkpt>
      <trkpt lat="43.47995" lon="2.14565">
        <ele>288</ele>
        <time>2019-02-10T08:49:53Z</time>
      </trkpt>
      <trkpt lat="43.47991" lon="2.1457">
        <ele>288</ele>
        <time>2019-02-10T08:49:55Z</time>
      </trkpt>
      <trkpt lat="43.47981" lon="2.14585">
        <ele>288</ele>
        <time>2019-02-10T08:50:00Z</time>
      </trkpt>
      <trkpt lat="43.47967" lon="2.14604">
        <ele>289</ele>
        <time>2019-02-10T08:50:07Z</time>
      </trkpt>
      <trkpt lat="43.47955" lon="2.1462">
        <ele>289</ele>
        <time>2019-02-10T08:50:13Z</time>
      </trkpt>
      <trkpt lat="43.47951" lon="2.14626">
        <ele>289</ele>
        <time>2019-02-10T08:50:15Z</time>
      </trkpt>
      <trkpt lat="43.47939" lon="2.14644">
        <ele>289</ele>
        <time>2019-02-10T08:50:21Z</time>
      </trkpt>
      <trkpt lat="43.47935" lon="2.14649">
        <ele>289</ele>
        <time>2019-02-10T08:50:23Z</time>
      </trkpt>
      <trkpt lat="43.47919" lon="2.14669">
        <ele>290</ele>
        <time>2019-02-10T08:50:30Z</time>
      </trkpt>
      <trkpt lat="43.47905" lon="2.14686">
        <ele>290</ele>
        <time>2019-02-10T08:50:36Z</time>
      </trkpt>
      <trkpt lat="43.47888" lon="2.14697">
        <ele>291</ele>
        <time>2019-02-10T08:50:42Z</time>
      </trkpt>
      <trkpt lat="43.47871" lon="2.14703">
        <ele>292</ele>
        <time>2019-02-10T08:50:48Z</time>
      </trkpt>
      <trkpt lat="43.47868" lon="2.14704">
        <ele>292</ele>
        <time>2019-02-10T08:50:49Z</time>
      </trkpt>
      <trkpt lat="43.47848" lon="2.14709">
        <ele>293</ele>
        <time>2019-02-10T08:50:56Z</time>
      </trkpt>
      <trkpt lat="43.47826" lon="2.14716">
        <ele>293</ele>
        <time>2019-02-10T08:51:04Z</time>
      </trkpt>
      <trkpt lat="43.47823" lon="2.14716">
        <ele>293</ele>
        <time>2019-02-10T08:51:05Z</time>
      </trkpt>
      <trkpt lat="43.47812" lon="2.1472">
        <ele>294</ele>
        <time>2019-02-10T08:51:09Z</time>
      </trkpt>
      <trkpt lat="43.47808" lon="2.14723">
        <ele>294</ele>
        <time>2019-02-10T08:51:11Z</time>
      </trkpt>
      <trkpt lat="43.47807" lon="2.14725">
        <ele>294</ele>
        <time>2019-02-10T08:51:12Z</time>
      </trkpt>
      <trkpt lat="43.47806" lon="2.14726">
        <ele>294</ele>
        <time>2019-02-10T08:51:13Z</time>
      </trkpt>
      <trkpt lat="43.47799" lon="2.14728">
        <ele>294</ele>
        <time>2019-02-10T08:51:17Z</time>
      </trkpt>
      <trkpt lat="43.47797" lon="2.14729">
        <ele>294</ele>
        <time>2019-02-10T08:51:19Z</time>
      </trkpt>
      <trkpt lat="43.47792" lon="2.1473">
        <ele>294</ele>
        <time>2019-02-10T08:51:22Z</time>
      </trkpt>
      <trkpt lat="43.47783" lon="2.14732">
        <ele>294</ele>
        <time>2019-02-10T08:51:28Z</time>
      </trkpt>
      <trkpt lat="43.47781" lon="2.14733">
        <ele>294</ele>
        <time>2019-02-10T08:51:29Z</time>
      </trkpt>
      <trkpt lat="43.47773" lon="2.14736">
        <ele>294</ele>
        <time>2019-02-10T08:51:35Z</time>
      </trkpt>
      <trkpt lat="43.47773" lon="2.14736">
        <ele>295</ele>
        <time>2019-02-10T08:51:37Z</time>
      </trkpt>
      <trkpt lat="43.47773" lon="2.14733">
        <ele>294</ele>
        <time>2019-02-10T08:54:30Z</time>
      </trkpt>
      <trkpt lat="43.47774" lon="2.14732">
        <ele>294</ele>
        <time>2019-02-10T08:54:31Z</time>
      </trkpt>
      <trkpt lat="43.47782" lon="2.14732">
        <ele>294</ele>
        <time>2019-02-10T08:54:34Z</time>
      </trkpt>
      <trkpt lat="43.47785" lon="2.14732">
        <ele>294</ele>
        <time>2019-02-10T08:54:35Z</time>
      </trkpt>
      <trkpt lat="43.47803" lon="2.14726">
        <ele>293</ele>
        <time>2019-02-10T08:54:40Z</time>
      </trkpt>
      <trkpt lat="43.47831" lon="2.14716">
        <ele>293</ele>
        <time>2019-02-10T08:54:47Z</time>
      </trkpt>
      <trkpt lat="43.47848" lon="2.14711">
        <ele>292</ele>
        <time>2019-02-10T08:54:51Z</time>
      </trkpt>
      <trkpt lat="43.47853" lon="2.14709">
        <ele>292</ele>
        <time>2019-02-10T08:54:52Z</time>
      </trkpt>
      <trkpt lat="43.47862" lon="2.14707">
        <ele>291</ele>
        <time>2019-02-10T08:54:54Z</time>
      </trkpt>
      <trkpt lat="43.47873" lon="2.14705">
        <ele>291</ele>
        <time>2019-02-10T08:54:56Z</time>
      </trkpt>
      <trkpt lat="43.47898" lon="2.14695">
        <ele>290</ele>
        <time>2019-02-10T08:55:01Z</time>
      </trkpt>
      <trkpt lat="43.4792" lon="2.1467">
        <ele>289</ele>
        <time>2019-02-10T08:55:06Z</time>
      </trkpt>
      <trkpt lat="43.47936" lon="2.14648">
        <ele>288</ele>
        <time>2019-02-10T08:55:10Z</time>
      </trkpt>
      <trkpt lat="43.47943" lon="2.14638">
        <ele>287</ele>
        <time>2019-02-10T08:55:12Z</time>
      </trkpt>
      <trkpt lat="43.47959" lon="2.14616">
        <ele>286</ele>
        <time>2019-02-10T08:55:16Z</time>
      </trkpt>
      <trkpt lat="43.47967" lon="2.14604">
        <ele>286</ele>
        <time>2019-02-10T08:55:18Z</time>
      </trkpt>
      <trkpt lat="43.47984" lon="2.14582">
        <ele>285</ele>
        <time>2019-02-10T08:55:22Z</time>
      </trkpt>
      <trkpt lat="43.47991" lon="2.14573">
        <ele>285</ele>
        <time>2019-02-10T08:55:24Z</time>
      </trkpt>
      <trkpt lat="43.47998" lon="2.14567">
        <ele>285</ele>
        <time>2019-02-10T08:55:27Z</time>
      </trkpt>
      <trkpt lat="43.47998" lon="2.14565">
        <ele>285</ele>
        <time>2019-02-10T08:55:30Z</time>
      </trkpt>
      <trkpt lat="43.47998" lon="2.14564">
        <ele>285</ele>
        <time>2019-02-10T08:55:32Z</time>
      </trkpt>
      <trkpt lat="43.47997" lon="2.14568">
        <ele>286</ele>
        <time>2019-02-10T08:55:49Z</time>
      </trkpt>
      <trkpt lat="43.47994" lon="2.1457">
        <ele>286</ele>
        <time>2019-02-10T08:55:51Z</time>
      </trkpt>
      <trkpt lat="43.47982" lon="2.14585">
        <ele>286</ele>
        <time>2019-02-10T08:55:58Z</time>
      </trkpt>
      <trkpt lat="43.47976" lon="2.14594">
        <ele>286</ele>
        <time>2019-02-10T08:56:01Z</time>
      </trkpt>
      <trkpt lat="43.47972" lon="2.14599">
        <ele>286</ele>
        <time>2019-02-10T08:56:03Z</time>
      </trkpt>
      <trkpt lat="43.4797" lon="2.14602">
        <ele>286</ele>
        <time>2019-02-10T08:56:04Z</time>
      </trkpt>
      <trkpt lat="43.47968" lon="2.14605">
        <ele>287</ele>
        <time>2019-02-10T08:56:05Z</time>
      </trkpt>
      <trkpt lat="43.47962" lon="2.14615">
        <ele>287</ele>
        <time>2019-02-10T08:56:08Z</time>
      </trkpt>
      <trkpt lat="43.4796" lon="2.14618">
        <ele>287</ele>
        <time>2019-02-10T08:56:09Z</time>
      </trkpt>
      <trkpt lat="43.47956" lon="2.14623">
        <ele>287</ele>
        <time>2019-02-10T08:56:11Z</time>
      </trkpt>
      <trkpt lat="43.47948" lon="2.14634">
        <ele>287</ele>
        <time>2019-02-10T08:56:14Z</time>
      </trkpt>
      <trkpt lat="43.47939" lon="2.14648">
        <ele>288</ele>
        <time>2019-02-10T08:56:18Z</time>
      </trkpt>
      <trkpt lat="43.47933" lon="2.14656">
        <ele>288</ele>
        <time>2019-02-10T08:56:20Z</time>
      </trkpt>
      <trkpt lat="43.47913" lon="2.14679">
        <ele>289</ele>
        <time>2019-02-10T08:56:26Z</time>
      </trkpt>
      <trkpt lat="43.47906" lon="2.14685">
        <ele>289</ele>
        <time>2019-02-10T08:56:28Z</time>
      </trkpt>
      <trkpt lat="43.47891" lon="2.14695">
        <ele>290</ele>
        <time>2019-02-10T08:56:32Z</time>
      </trkpt>
      <trkpt lat="43.47881" lon="2.14698">
        <ele>290</ele>
        <time>2019-02-10T08:56:35Z</time>
      </trkpt>
      <trkpt lat="43.47871" lon="2.14701">
        <ele>290</ele>
        <time>2019-02-10T08:56:38Z</time>
      </trkpt>
      <trkpt lat="43.47852" lon="2.14706">
        <ele>291</ele>
        <time>2019-02-10T08:56:43Z</time>
      </trkpt>
      <trkpt lat="43.47845" lon="2.14708">
        <ele>291</ele>
        <time>2019-02-10T08:56:45Z</time>
      </trkpt>
      <trkpt lat="43.47826" lon="2.14716">
        <ele>292</ele>
        <time>2019-02-10T08:56:50Z</time>
      </trkpt>
      <trkpt lat="43.47804" lon="2.14724">
        <ele>292</ele>
        <time>2019-02-10T08:56:56Z</time>
      </trkpt>
      <trkpt lat="43.47801" lon="2.14725">
        <ele>292</ele>
        <time>2019-02-10T08:56:57Z</time>
      </trkpt>
      <trkpt lat="43.47772" lon="2.14733">
        <ele>293</ele>
        <time>2019-02-10T08:57:05Z</time>
      </trkpt>
      <trkpt lat="43.47768" lon="2.14734">
        <ele>293</ele>
        <time>2019-02-10T08:57:06Z</time>
      </trkpt>
      <trkpt lat="43.47756" lon="2.14736">
        <ele>294</ele>
        <time>2019-02-10T08:57:10Z</time>
      </trkpt>
      <trkpt lat="43.47753" lon="2.14737">
        <ele>295</ele>
        <time>2019-02-10T08:57:11Z</time>
      </trkpt>
      <trkpt lat="43.47744" lon="2.14739">
        <ele>296</ele>
        <time>2019-02-10T08:57:14Z</time>
      </trkpt>
      <trkpt lat="43.47733" lon="2.14742">
        <ele>297</ele>
        <time>2019-02-10T08:57:18Z</time>
      </trkpt>
      <trkpt lat="43.4773" lon="2.14742">
        <ele>297</ele>
        <time>2019-02-10T08:57:19Z</time>
      </trkpt>
      <trkpt lat="43.47722" lon="2.14742">
        <ele>298</ele>
        <time>2019-02-10T08:57:22Z</time>
      </trkpt>
      <trkpt lat="43.47714" lon="2.14745">
        <ele>299</ele>
        <time>2019-02-10T08:57:25Z</time>
      </trkpt>
      <trkpt lat="43.47711" lon="2.14745">
        <ele>300</ele>
        <time>2019-02-10T08:57:26Z</time>
      </trkpt>
      <trkpt lat="43.47702" lon="2.14748">
        <ele>300</ele>
        <time>2019-02-10T08:57:30Z</time>
      </trkpt>
      <trkpt lat="43.477" lon="2.14747">
        <ele>301</ele>
        <time>2019-02-10T08:57:31Z</time>
      </trkpt>
      <trkpt lat="43.47688" lon="2.14743">
        <ele>302</ele>
        <time>2019-02-10T08:57:36Z</time>
      </trkpt>
      <trkpt lat="43.47685" lon="2.14742">
        <ele>302</ele>
        <time>2019-02-10T08:57:37Z</time>
      </trkpt>
      <trkpt lat="43.47676" lon="2.14739">
        <ele>303</ele>
        <time>2019-02-10T08:57:41Z</time>
      </trkpt>
      <trkpt lat="43.47672" lon="2.14738">
        <ele>304</ele>
        <time>2019-02-10T08:57:43Z</time>
      </trkpt>
      <trkpt lat="43.47665" lon="2.14735">
        <ele>304</ele>
        <time>2019-02-10T08:57:46Z</time>
      </trkpt>
      <trkpt lat="43.47655" lon="2.1473">
        <ele>305</ele>
        <time>2019-02-10T08:57:50Z</time>
      </trkpt>
      <trkpt lat="43.47647" lon="2.14723">
        <ele>307</ele>
        <time>2019-02-10T08:57:54Z</time>
      </trkpt>
      <trkpt lat="43.47642" lon="2.14716">
        <ele>307</ele>
        <time>2019-02-10T08:57:57Z</time>
      </trkpt>
      <trkpt lat="43.47638" lon="2.14712">
        <ele>308</ele>
        <time>2019-02-10T08:57:59Z</time>
      </trkpt>
      <trkpt lat="43.47636" lon="2.14707">
        <ele>308</ele>
        <time>2019-02-10T08:58:01Z</time>
      </trkpt>
      <trkpt lat="43.47634" lon="2.14702">
        <ele>309</ele>
        <time>2019-02-10T08:58:03Z</time>
      </trkpt>
      <trkpt lat="43.47634" lon="2.14688">
        <ele>310</ele>
        <time>2019-02-10T08:58:07Z</time>
      </trkpt>
      <trkpt lat="43.47634" lon="2.14685">
        <ele>310</ele>
        <time>2019-02-10T08:58:08Z</time>
      </trkpt>
      <trkpt lat="43.47637" lon="2.14668">
        <ele>311</ele>
        <time>2019-02-10T08:58:13Z</time>
      </trkpt>
      <trkpt lat="43.47641" lon="2.14664">
        <ele>311</ele>
        <time>2019-02-10T08:58:14Z</time>
      </trkpt>
      <trkpt lat="43.47637" lon="2.14656">
        <ele>312</ele>
        <time>2019-02-10T08:58:17Z</time>
      </trkpt>
      <trkpt lat="43.4763" lon="2.1465">
        <ele>313</ele>
        <time>2019-02-10T08:58:20Z</time>
      </trkpt>
      <trkpt lat="43.47625" lon="2.14649">
        <ele>314</ele>
        <time>2019-02-10T08:58:22Z</time>
      </trkpt>
      <trkpt lat="43.47618" lon="2.1465">
        <ele>314</ele>
        <time>2019-02-10T08:58:25Z</time>
      </trkpt>
      <trkpt lat="43.47614" lon="2.14649">
        <ele>315</ele>
        <time>2019-02-10T08:58:27Z</time>
      </trkpt>
      <trkpt lat="43.47604" lon="2.14649">
        <ele>316</ele>
        <time>2019-02-10T08:58:32Z</time>
      </trkpt>
      <trkpt lat="43.47603" lon="2.14649">
        <ele>316</ele>
        <time>2019-02-10T08:58:33Z</time>
      </trkpt>
      <trkpt lat="43.47593" lon="2.14649">
        <ele>317</ele>
        <time>2019-02-10T08:58:38Z</time>
      </trkpt>
      <trkpt lat="43.47586" lon="2.14649">
        <ele>318</ele>
        <time>2019-02-10T08:58:41Z</time>
      </trkpt>
      <trkpt lat="43.47584" lon="2.14649">
        <ele>319</ele>
        <time>2019-02-10T08:58:42Z</time>
      </trkpt>
      <trkpt lat="43.47579" lon="2.14646">
        <ele>320</ele>
        <time>2019-02-10T08:58:44Z</time>
      </trkpt>
      <trkpt lat="43.47565" lon="2.14646">
        <ele>321</ele>
        <time>2019-02-10T08:58:50Z</time>
      </trkpt>
      <trkpt lat="43.47563" lon="2.14646">
        <ele>321</ele>
        <time>2019-02-10T08:58:51Z</time>
      </trkpt>
      <trkpt lat="43.47558" lon="2.14644">
        <ele>322</ele>
        <time>2019-02-10T08:58:54Z</time>
      </trkpt>
      <trkpt lat="43.47553" lon="2.14642">
        <ele>323</ele>
        <time>2019-02-10T08:58:57Z</time>
      </trkpt>
      <trkpt lat="43.47551" lon="2.14641">
        <ele>323</ele>
        <time>2019-02-10T08:58:58Z</time>
      </trkpt>
      <trkpt lat="43.47547" lon="2.14641">
        <ele>324</ele>
        <time>2019-02-10T08:59:01Z</time>
      </trkpt>
      <trkpt lat="43.47544" lon="2.14641">
        <ele>324</ele>
        <time>2019-02-10T08:59:03Z</time>
      </trkpt>
      <trkpt lat="43.47539" lon="2.14642">
        <ele>325</ele>
        <time>2019-02-10T08:59:05Z</time>
      </trkpt>
      <trkpt lat="43.47537" lon="2.14642">
        <ele>325</ele>
        <time>2019-02-10T08:59:06Z</time>
      </trkpt>
      <trkpt lat="43.47534" lon="2.14642">
        <ele>326</ele>
        <time>2019-02-10T08:59:08Z</time>
      </trkpt>
      <trkpt lat="43.47532" lon="2.14642">
        <ele>326</ele>
        <time>2019-02-10T08:59:09Z</time>
      </trkpt>
      <trkpt lat="43.47529" lon="2.14642">
        <ele>326</ele>
        <time>2019-02-10T08:59:11Z</time>
      </trkpt>
      <trkpt lat="43.47525" lon="2.14642">
        <ele>327</ele>
        <time>2019-02-10T08:59:13Z</time>
      </trkpt>
      <trkpt lat="43.47514" lon="2.14643">
        <ele>327</ele>
        <time>2019-02-10T08:59:18Z</time>
      </trkpt>
      <trkpt lat="43.47512" lon="2.14642">
        <ele>328</ele>
        <time>2019-02-10T08:59:19Z</time>
      </trkpt>
      <trkpt lat="43.47504" lon="2.14639">
        <ele>328</ele>
        <time>2019-02-10T08:59:23Z</time>
      </trkpt>
      <trkpt lat="43.47502" lon="2.14639">
        <ele>329</ele>
        <time>2019-02-10T08:59:24Z</time>
      </trkpt>
      <trkpt lat="43.47495" lon="2.14637">
        <ele>330</ele>
        <time>2019-02-10T08:59:28Z</time>
      </trkpt>
      <trkpt lat="43.47488" lon="2.14634">
        <ele>331</ele>
        <time>2019-02-10T08:59:32Z</time>
      </trkpt>
      <trkpt lat="43.47485" lon="2.14631">
        <ele>332</ele>
        <time>2019-02-10T08:59:35Z</time>
      </trkpt>
      <trkpt lat="43.47483" lon="2.14631">
        <ele>332</ele>
        <time>2019-02-10T08:59:37Z</time>
      </trkpt>
      <trkpt lat="43.47482" lon="2.14633">
        <ele>333</ele>
        <time>2019-02-10T08:59:39Z</time>
      </trkpt>
      <trkpt lat="43.47482" lon="2.14636">
        <ele>333</ele>
        <time>2019-02-10T08:59:41Z</time>
      </trkpt>
      <trkpt lat="43.47485" lon="2.14643">
        <ele>334</ele>
        <time>2019-02-10T08:59:45Z</time>
      </trkpt>
      <trkpt lat="43.47486" lon="2.14644">
        <ele>334</ele>
        <time>2019-02-10T08:59:46Z</time>
      </trkpt>
      <trkpt lat="43.47492" lon="2.14647">
        <ele>335</ele>
        <time>2019-02-10T08:59:50Z</time>
      </trkpt>
      <trkpt lat="43.47493" lon="2.14649">
        <ele>335</ele>
        <time>2019-02-10T08:59:51Z</time>
      </trkpt>
      <trkpt lat="43.47497" lon="2.14652">
        <ele>336</ele>
        <time>2019-02-10T08:59:55Z</time>
      </trkpt>
      <trkpt lat="43.47502" lon="2.14656">
        <ele>336</ele>
        <time>2019-02-10T08:59:59Z</time>
      </trkpt>
      <trkpt lat="43.47508" lon="2.14659">
        <ele>337</ele>
        <time>2019-02-10T09:00:02Z</time>
      </trkpt>
      <trkpt lat="43.47511" lon="2.1466">
        <ele>337</ele>
        <time>2019-02-10T09:00:04Z</time>
      </trkpt>
      <trkpt lat="43.4752" lon="2.14663">
        <ele>338</ele>
        <time>2019-02-10T09:00:08Z</time>
      </trkpt>
      <trkpt lat="43.47528" lon="2.14666">
        <ele>339</ele>
        <time>2019-02-10T09:00:13Z</time>
      </trkpt>
      <trkpt lat="43.47529" lon="2.14668">
        <ele>339</ele>
        <time>2019-02-10T09:00:14Z</time>
      </trkpt>
      <trkpt lat="43.47533" lon="2.14671">
        <ele>339</ele>
        <time>2019-02-10T09:00:16Z</time>
      </trkpt>
      <trkpt lat="43.4754" lon="2.14674">
        <ele>340</ele>
        <time>2019-02-10T09:00:19Z</time>
      </trkpt>
      <trkpt lat="43.4755" lon="2.1468">
        <ele>340</ele>
        <time>2019-02-10T09:00:23Z</time>
      </trkpt>
      <trkpt lat="43.47555" lon="2.14684">
        <ele>341</ele>
        <time>2019-02-10T09:00:25Z</time>
      </trkpt>
      <trkpt lat="43.47556" lon="2.14687">
        <ele>341</ele>
        <time>2019-02-10T09:00:26Z</time>
      </trkpt>
      <trkpt lat="43.47556" lon="2.14689">
        <ele>341</ele>
        <time>2019-02-10T09:00:27Z</time>
      </trkpt>
      <trkpt lat="43.47555" lon="2.14691">
        <ele>342</ele>
        <time>2019-02-10T09:00:29Z</time>
      </trkpt>
      <trkpt lat="43.47551" lon="2.14689">
        <ele>343</ele>
        <time>2019-02-10T09:00:32Z</time>
      </trkpt>
      <trkpt lat="43.4755" lon="2.14688">
        <ele>343</ele>
        <time>2019-02-10T09:00:33Z</time>
      </trkpt>
      <trkpt lat="43.47549" lon="2.14687">
        <ele>343</ele>
        <time>2019-02-10T09:00:34Z</time>
      </trkpt>
      <trkpt lat="43.47544" lon="2.14685">
        <ele>344</ele>
        <time>2019-02-10T09:00:37Z</time>
      </trkpt>
      <trkpt lat="43.4754" lon="2.14683">
        <ele>344</ele>
        <time>2019-02-10T09:00:40Z</time>
      </trkpt>
      <trkpt lat="43.47537" lon="2.14683">
        <ele>345</ele>
        <time>2019-02-10T09:00:42Z</time>
      </trkpt>
      <trkpt lat="43.47528" lon="2.14682">
        <ele>346</ele>
        <time>2019-02-10T09:00:48Z</time>
      </trkpt>
      <trkpt lat="43.47527" lon="2.14682">
        <ele>346</ele>
        <time>2019-02-10T09:00:49Z</time>
      </trkpt>
      <trkpt lat="43.47519" lon="2.14682">
        <ele>347</ele>
        <time>2019-02-10T09:00:54Z</time>
      </trkpt>
      <trkpt lat="43.47518" lon="2.14682">
        <ele>347</ele>
        <time>2019-02-10T09:00:55Z</time>
      </trkpt>
      <trkpt lat="43.47511" lon="2.14683">
        <ele>348</ele>
        <time>2019-02-10T09:01:00Z</time>
      </trkpt>
      <trkpt lat="43.47508" lon="2.14683">
        <ele>348</ele>
        <time>2019-02-10T09:01:02Z</time>
      </trkpt>
      <trkpt lat="43.47507" lon="2.14683">
        <ele>349</ele>
        <time>2019-02-10T09:01:03Z</time>
      </trkpt>
      <trkpt lat="43.47501" lon="2.14682">
        <ele>349</ele>
        <time>2019-02-10T09:01:07Z</time>
      </trkpt>
      <trkpt lat="43.47496" lon="2.14681">
        <ele>350</ele>
        <time>2019-02-10T09:01:11Z</time>
      </trkpt>
      <trkpt lat="43.47495" lon="2.14681">
        <ele>350</ele>
        <time>2019-02-10T09:01:12Z</time>
      </trkpt>
      <trkpt lat="43.47491" lon="2.14681">
        <ele>351</ele>
        <time>2019-02-10T09:01:15Z</time>
      </trkpt>
      <trkpt lat="43.47489" lon="2.14681">
        <ele>351</ele>
        <time>2019-02-10T09:01:16Z</time>
      </trkpt>
      <trkpt lat="43.47487" lon="2.14681">
        <ele>352</ele>
        <time>2019-02-10T09:01:17Z</time>
      </trkpt>
      <trkpt lat="43.47482" lon="2.14681">
        <ele>353</ele>
        <time>2019-02-10T09:01:20Z</time>
      </trkpt>
      <trkpt lat="43.47474" lon="2.14679">
        <ele>353</ele>
        <time>2019-02-10T09:01:25Z</time>
      </trkpt>
      <trkpt lat="43.47473" lon="2.14679">
        <ele>354</ele>
        <time>2019-02-10T09:01:26Z</time>
      </trkpt>
      <trkpt lat="43.47471" lon="2.14679">
        <ele>354</ele>
        <time>2019-02-10T09:01:28Z</time>
      </trkpt>
      <trkpt lat="43.47466" lon="2.14678">
        <ele>355</ele>
        <time>2019-02-10T09:01:32Z</time>
      </trkpt>
      <trkpt lat="43.47464" lon="2.14677">
        <ele>355</ele>
        <time>2019-02-10T09:01:33Z</time>
      </trkpt>
      <trkpt lat="43.4746" lon="2.14674">
        <ele>355</ele>
        <time>2019-02-10T09:01:36Z</time>
      </trkpt>
      <trkpt lat="43.47456" lon="2.1467">
        <ele>356</ele>
        <time>2019-02-10T09:01:38Z</time>
      </trkpt>
      <trkpt lat="43.47452" lon="2.14666">
        <ele>356</ele>
        <time>2019-02-10T09:01:40Z</time>
      </trkpt>
      <trkpt lat="43.47444" lon="2.14659">
        <ele>357</ele>
        <time>2019-02-10T09:01:45Z</time>
      </trkpt>
      <trkpt lat="43.47443" lon="2.14657">
        <ele>357</ele>
        <time>2019-02-10T09:01:46Z</time>
      </trkpt>
      <trkpt lat="43.47436" lon="2.14648">
        <ele>358</ele>
        <time>2019-02-10T09:01:51Z</time>
      </trkpt>
      <trkpt lat="43.47434" lon="2.14644">
        <ele>358</ele>
        <time>2019-02-10T09:01:53Z</time>
      </trkpt>
      <trkpt lat="43.4743" lon="2.14635">
        <ele>359</ele>
        <time>2019-02-10T09:01:58Z</time>
      </trkpt>
      <trkpt lat="43.47426" lon="2.14628">
        <ele>360</ele>
        <time>2019-02-10T09:02:02Z</time>
      </trkpt>
      <trkpt lat="43.47424" lon="2.14622">
        <ele>360</ele>
        <time>2019-02-10T09:02:05Z</time>
      </trkpt>
      <trkpt lat="43.4742" lon="2.14612">
        <ele>361</ele>
        <time>2019-02-10T09:02:10Z</time>
      </trkpt>
      <trkpt lat="43.47419" lon="2.14609">
        <ele>362</ele>
        <time>2019-02-10T09:02:11Z</time>
      </trkpt>
      <trkpt lat="43.47414" lon="2.14603">
        <ele>363</ele>
        <time>2019-02-10T09:02:15Z</time>
      </trkpt>
      <trkpt lat="43.47411" lon="2.14599">
        <ele>363</ele>
        <time>2019-02-10T09:02:17Z</time>
      </trkpt>
      <trkpt lat="43.47409" lon="2.14596">
        <ele>364</ele>
        <time>2019-02-10T09:02:19Z</time>
      </trkpt>
      <trkpt lat="43.47406" lon="2.1459">
        <ele>365</ele>
        <time>2019-02-10T09:02:22Z</time>
      </trkpt>
      <trkpt lat="43.47403" lon="2.14583">
        <ele>365</ele>
        <time>2019-02-10T09:02:25Z</time>
      </trkpt>
      <trkpt lat="43.474" lon="2.14573">
        <ele>366</ele>
        <time>2019-02-10T09:02:30Z</time>
      </trkpt>
      <trkpt lat="43.474" lon="2.14571">
        <ele>366</ele>
        <time>2019-02-10T09:02:31Z</time>
      </trkpt>
      <trkpt lat="43.47397" lon="2.1456">
        <ele>367</ele>
        <time>2019-02-10T09:02:36Z</time>
      </trkpt>
      <trkpt lat="43.47397" lon="2.1455">
        <ele>367</ele>
        <time>2019-02-10T09:02:40Z</time>
      </trkpt>
      <trkpt lat="43.47398" lon="2.14543">
        <ele>368</ele>
        <time>2019-02-10T09:02:43Z</time>
      </trkpt>
      <trkpt lat="43.47398" lon="2.14541">
        <ele>368</ele>
        <time>2019-02-10T09:02:44Z</time>
      </trkpt>
      <trkpt lat="43.47398" lon="2.14536">
        <ele>368</ele>
        <time>2019-02-10T09:02:46Z</time>
      </trkpt>
      <trkpt lat="43.47397" lon="2.14524">
        <ele>370</ele>
        <time>2019-02-10T09:02:51Z</time>
      </trkpt>
      <trkpt lat="43.47392" lon="2.14516">
        <ele>371</ele>
        <time>2019-02-10T09:02:55Z</time>
      </trkpt>
      <trkpt lat="43.47389" lon="2.14511">
        <ele>371</ele>
        <time>2019-02-10T09:02:58Z</time>
      </trkpt>
      <trkpt lat="43.47387" lon="2.14508">
        <ele>372</ele>
        <time>2019-02-10T09:03:00Z</time>
      </trkpt>
      <trkpt lat="43.47381" lon="2.14501">
        <ele>373</ele>
        <time>2019-02-10T09:03:05Z</time>
      </trkpt>
      <trkpt lat="43.47373" lon="2.14496">
        <ele>374</ele>
        <time>2019-02-10T09:03:11Z</time>
      </trkpt>
      <trkpt lat="43.47371" lon="2.14493">
        <ele>374</ele>
        <time>2019-02-10T09:03:13Z</time>
      </trkpt>
      <trkpt lat="43.47366" lon="2.14489">
        <ele>375</ele>
        <time>2019-02-10T09:03:17Z</time>
      </trkpt>
      <trkpt lat="43.47361" lon="2.14483">
        <ele>376</ele>
        <time>2019-02-10T09:03:21Z</time>
      </trkpt>
      <trkpt lat="43.47357" lon="2.14479">
        <ele>376</ele>
        <time>2019-02-10T09:03:24Z</time>
      </trkpt>
      <trkpt lat="43.47351" lon="2.14473">
        <ele>377</ele>
        <time>2019-02-10T09:03:28Z</time>
      </trkpt>
      <trkpt lat="43.4735" lon="2.14471">
        <ele>377</ele>
        <time>2019-02-10T09:03:29Z</time>
      </trkpt>
      <trkpt lat="43.47349" lon="2.14462">
        <ele>378</ele>
        <time>2019-02-10T09:03:33Z</time>
      </trkpt>
      <trkpt lat="43.47348" lon="2.14455">
        <ele>378</ele>
        <time>2019-02-10T09:03:36Z</time>
      </trkpt>
      <trkpt lat="43.47345" lon="2.14448">
        <ele>379</ele>
        <time>2019-02-10T09:03:39Z</time>
      </trkpt>
      <trkpt lat="43.47344" lon="2.14446">
        <ele>380</ele>
        <time>2019-02-10T09:03:40Z</time>
      </trkpt>
      <trkpt lat="43.47343" lon="2.14445">
        <ele>380</ele>
        <time>2019-02-10T09:03:41Z</time>
      </trkpt>
      <trkpt lat="43.47336" lon="2.14443">
        <ele>380</ele>
        <time>2019-02-10T09:03:45Z</time>
      </trkpt>
      <trkpt lat="43.47333" lon="2.14444">
        <ele>381</ele>
        <time>2019-02-10T09:03:47Z</time>
      </trkpt>
      <trkpt lat="43.47325" lon="2.14444">
        <ele>382</ele>
        <time>2019-02-10T09:03:52Z</time>
      </trkpt>
      <trkpt lat="43.47322" lon="2.14444">
        <ele>382</ele>
        <time>2019-02-10T09:03:54Z</time>
      </trkpt>
      <trkpt lat="43.47316" lon="2.14443">
        <ele>383</ele>
        <time>2019-02-10T09:03:58Z</time>
      </trkpt>
      <trkpt lat="43.47312" lon="2.14443">
        <ele>383</ele>
        <time>2019-02-10T09:04:00Z</time>
      </trkpt>
      <trkpt lat="43.47307" lon="2.14443">
        <ele>384</ele>
        <time>2019-02-10T09:04:03Z</time>
      </trkpt>
      <trkpt lat="43.47304" lon="2.14443">
        <ele>384</ele>
        <time>2019-02-10T09:04:05Z</time>
      </trkpt>
      <trkpt lat="43.47301" lon="2.14444">
        <ele>384</ele>
        <time>2019-02-10T09:04:07Z</time>
      </trkpt>
      <trkpt lat="43.47296" lon="2.14443">
        <ele>385</ele>
        <time>2019-02-10T09:04:10Z</time>
      </trkpt>
      <trkpt lat="43.47294" lon="2.14443">
        <ele>386</ele>
        <time>2019-02-10T09:04:11Z</time>
      </trkpt>
      <trkpt lat="43.47284" lon="2.14445">
        <ele>386</ele>
        <time>2019-02-10T09:04:17Z</time>
      </trkpt>
      <trkpt lat="43.47282" lon="2.14445">
        <ele>386</ele>
        <time>2019-02-10T09:04:18Z</time>
      </trkpt>
      <trkpt lat="43.47274" lon="2.14447">
        <ele>387</ele>
        <time>2019-02-10T09:04:23Z</time>
      </trkpt>
      <trkpt lat="43.47272" lon="2.14447">
        <ele>387</ele>
        <time>2019-02-10T09:04:24Z</time>
      </trkpt>
      <trkpt lat="43.47261" lon="2.14453">
        <ele>388</ele>
        <time>2019-02-10T09:04:30Z</time>
      </trkpt>
      <trkpt lat="43.4726" lon="2.14455">
        <ele>389</ele>
        <time>2019-02-10T09:04:31Z</time>
      </trkpt>
      <trkpt lat="43.47251" lon="2.14462">
        <ele>390</ele>
        <time>2019-02-10T09:04:36Z</time>
      </trkpt>
      <trkpt lat="43.47249" lon="2.14464">
        <ele>390</ele>
        <time>2019-02-10T09:04:37Z</time>
      </trkpt>
      <trkpt lat="43.47241" lon="2.14473">
        <ele>391</ele>
        <time>2019-02-10T09:04:42Z</time>
      </trkpt>
      <trkpt lat="43.47239" lon="2.14474">
        <ele>391</ele>
        <time>2019-02-10T09:04:43Z</time>
      </trkpt>
      <trkpt lat="43.47232" lon="2.14482">
        <ele>392</ele>
        <time>2019-02-10T09:04:48Z</time>
      </trkpt>
      <trkpt lat="43.47228" lon="2.14489">
        <ele>393</ele>
        <time>2019-02-10T09:04:54Z</time>
      </trkpt>
      <trkpt lat="43.47226" lon="2.14493">
        <ele>393</ele>
        <time>2019-02-10T09:04:58Z</time>
      </trkpt>
      <trkpt lat="43.47224" lon="2.14498">
        <ele>394</ele>
        <time>2019-02-10T09:05:01Z</time>
      </trkpt>
      <trkpt lat="43.47224" lon="2.145">
        <ele>394</ele>
        <time>2019-02-10T09:05:02Z</time>
      </trkpt>
      <trkpt lat="43.47223" lon="2.14501">
        <ele>394</ele>
        <time>2019-02-10T09:05:03Z</time>
      </trkpt>
      <trkpt lat="43.47222" lon="2.14504">
        <ele>394</ele>
        <time>2019-02-10T09:05:04Z</time>
      </trkpt>
      <trkpt lat="43.47218" lon="2.14511">
        <ele>395</ele>
        <time>2019-02-10T09:05:08Z</time>
      </trkpt>
      <trkpt lat="43.47215" lon="2.14516">
        <ele>395</ele>
        <time>2019-02-10T09:05:11Z</time>
      </trkpt>
      <trkpt lat="43.47214" lon="2.14517">
        <ele>395</ele>
        <time>2019-02-10T09:05:12Z</time>
      </trkpt>
      <trkpt lat="43.47214" lon="2.14518">
        <ele>395</ele>
        <time>2019-02-10T09:05:13Z</time>
      </trkpt>
      <trkpt lat="43.47211" lon="2.14524">
        <ele>396</ele>
        <time>2019-02-10T09:05:18Z</time>
      </trkpt>
      <trkpt lat="43.4721" lon="2.14525">
        <ele>396</ele>
        <time>2019-02-10T09:05:19Z</time>
      </trkpt>
      <trkpt lat="43.47208" lon="2.14525">
        <ele>396</ele>
        <time>2019-02-10T09:05:21Z</time>
      </trkpt>
      <trkpt lat="43.47206" lon="2.14525">
        <ele>397</ele>
        <time>2019-02-10T09:05:23Z</time>
      </trkpt>
      <trkpt lat="43.47202" lon="2.14526">
        <ele>397</ele>
        <time>2019-02-10T09:05:26Z</time>
      </trkpt>
      <trkpt lat="43.47201" lon="2.14526">
        <ele>398</ele>
        <time>2019-02-10T09:05:27Z</time>
      </trkpt>
      <trkpt lat="43.47196" lon="2.14526">
        <ele>398</ele>
        <time>2019-02-10T09:05:30Z</time>
      </trkpt>
      <trkpt lat="43.47191" lon="2.14526">
        <ele>398</ele>
        <time>2019-02-10T09:05:33Z</time>
      </trkpt>
      <trkpt lat="43.47187" lon="2.14525">
        <ele>399</ele>
        <time>2019-02-10T09:05:36Z</time>
      </trkpt>
      <trkpt lat="43.47182" lon="2.14524">
        <ele>399</ele>
        <time>2019-02-10T09:05:39Z</time>
      </trkpt>
      <trkpt lat="43.47173" lon="2.14523">
        <ele>400</ele>
        <time>2019-02-10T09:05:44Z</time>
      </trkpt>
      <trkpt lat="43.47169" lon="2.14522">
        <ele>401</ele>
        <time>2019-02-10T09:05:46Z</time>
      </trkpt>
      <trkpt lat="43.47161" lon="2.14523">
        <ele>401</ele>
        <time>2019-02-10T09:05:51Z</time>
      </trkpt>
      <trkpt lat="43.47156" lon="2.14526">
        <ele>402</ele>
        <time>2019-02-10T09:05:54Z</time>
      </trkpt>
      <trkpt lat="43.4715" lon="2.14529">
        <ele>402</ele>
        <time>2019-02-10T09:05:58Z</time>
      </trkpt>
      <trkpt lat="43.47146" lon="2.14532">
        <ele>403</ele>
        <time>2019-02-10T09:06:01Z</time>
      </trkpt>
      <trkpt lat="43.4714" lon="2.14536">
        <ele>403</ele>
        <time>2019-02-10T09:06:05Z</time>
      </trkpt>
      <trkpt lat="43.47137" lon="2.14538">
        <ele>404</ele>
        <time>2019-02-10T09:06:07Z</time>
      </trkpt>
      <trkpt lat="43.4713" lon="2.14541">
        <ele>404</ele>
        <time>2019-02-10T09:06:11Z</time>
      </trkpt>
      <trkpt lat="43.47123" lon="2.14543">
        <ele>405</ele>
        <time>2019-02-10T09:06:15Z</time>
      </trkpt>
      <trkpt lat="43.4712" lon="2.14543">
        <ele>405</ele>
        <time>2019-02-10T09:06:17Z</time>
      </trkpt>
      <trkpt lat="43.47113" lon="2.14543">
        <ele>406</ele>
        <time>2019-02-10T09:06:21Z</time>
      </trkpt>
      <trkpt lat="43.47112" lon="2.14543">
        <ele>406</ele>
        <time>2019-02-10T09:06:22Z</time>
      </trkpt>
      <trkpt lat="43.47101" lon="2.14544">
        <ele>407</ele>
        <time>2019-02-10T09:06:28Z</time>
      </trkpt>
      <trkpt lat="43.47099" lon="2.14544">
        <ele>408</ele>
        <time>2019-02-10T09:06:29Z</time>
      </trkpt>
      <trkpt lat="43.47092" lon="2.14545">
        <ele>409</ele>
        <time>2019-02-10T09:06:33Z</time>
      </trkpt>
      <trkpt lat="43.47089" lon="2.14546">
        <ele>409</ele>
        <time>2019-02-10T09:06:35Z</time>
      </trkpt>
      <trkpt lat="43.47081" lon="2.14551">
        <ele>410</ele>
        <time>2019-02-10T09:06:40Z</time>
      </trkpt>
      <trkpt lat="43.4708" lon="2.14553">
        <ele>410</ele>
        <time>2019-02-10T09:06:41Z</time>
      </trkpt>
      <trkpt lat="43.47076" lon="2.1456">
        <ele>411</ele>
        <time>2019-02-10T09:06:45Z</time>
      </trkpt>
      <trkpt lat="43.47074" lon="2.14561">
        <ele>411</ele>
        <time>2019-02-10T09:06:46Z</time>
      </trkpt>
      <trkpt lat="43.4707" lon="2.14567">
        <ele>412</ele>
        <time>2019-02-10T09:06:50Z</time>
      </trkpt>
      <trkpt lat="43.47069" lon="2.14568">
        <ele>412</ele>
        <time>2019-02-10T09:06:51Z</time>
      </trkpt>
      <trkpt lat="43.47062" lon="2.14577">
        <ele>413</ele>
        <time>2019-02-10T09:06:57Z</time>
      </trkpt>
      <trkpt lat="43.47058" lon="2.14582">
        <ele>414</ele>
        <time>2019-02-10T09:07:00Z</time>
      </trkpt>
      <trkpt lat="43.47053" lon="2.14587">
        <ele>415</ele>
        <time>2019-02-10T09:07:04Z</time>
      </trkpt>
      <trkpt lat="43.47049" lon="2.14591">
        <ele>415</ele>
        <time>2019-02-10T09:07:07Z</time>
      </trkpt>
      <trkpt lat="43.47044" lon="2.14598">
        <ele>416</ele>
        <time>2019-02-10T09:07:11Z</time>
      </trkpt>
      <trkpt lat="43.47043" lon="2.146">
        <ele>416</ele>
        <time>2019-02-10T09:07:12Z</time>
      </trkpt>
      <trkpt lat="43.47035" lon="2.14607">
        <ele>417</ele>
        <time>2019-02-10T09:07:17Z</time>
      </trkpt>
      <trkpt lat="43.47027" lon="2.14614">
        <ele>419</ele>
        <time>2019-02-10T09:07:22Z</time>
      </trkpt>
      <trkpt lat="43.47024" lon="2.14617">
        <ele>419</ele>
        <time>2019-02-10T09:07:24Z</time>
      </trkpt>
      <trkpt lat="43.47021" lon="2.1462">
        <ele>420</ele>
        <time>2019-02-10T09:07:26Z</time>
      </trkpt>
      <trkpt lat="43.47014" lon="2.14625">
        <ele>421</ele>
        <time>2019-02-10T09:07:30Z</time>
      </trkpt>
      <trkpt lat="43.47009" lon="2.1463">
        <ele>421</ele>
        <time>2019-02-10T09:07:33Z</time>
      </trkpt>
      <trkpt lat="43.47006" lon="2.14633">
        <ele>422</ele>
        <time>2019-02-10T09:07:35Z</time>
      </trkpt>
      <trkpt lat="43.46997" lon="2.14641">
        <ele>423</ele>
        <time>2019-02-10T09:07:41Z</time>
      </trkpt>
      <trkpt lat="43.46996" lon="2.14642">
        <ele>423</ele>
        <time>2019-02-10T09:07:42Z</time>
      </trkpt>
      <trkpt lat="43.46993" lon="2.14645">
        <ele>424</ele>
        <time>2019-02-10T09:07:44Z</time>
      </trkpt>
      <trkpt lat="43.46987" lon="2.1465">
        <ele>425</ele>
        <time>2019-02-10T09:07:48Z</time>
      </trkpt>
      <trkpt lat="43.46982" lon="2.14654">
        <ele>425</ele>
        <time>2019-02-10T09:07:51Z</time>
      </trkpt>
      <trkpt lat="43.46976" lon="2.14656">
        <ele>426</ele>
        <time>2019-02-10T09:07:54Z</time>
      </trkpt>
      <trkpt lat="43.46974" lon="2.14658">
        <ele>427</ele>
        <time>2019-02-10T09:07:55Z</time>
      </trkpt>
      <trkpt lat="43.46958" lon="2.14666">
        <ele>420</ele>
        <time>2019-02-10T09:08:04Z</time>
      </trkpt>
      <trkpt lat="43.46956" lon="2.14667">
        <ele>428</ele>
        <time>2019-02-10T09:08:05Z</time>
      </trkpt>
      <trkpt lat="43.46948" lon="2.14672">
        <ele>429</ele>
        <time>2019-02-10T09:08:10Z</time>
      </trkpt>
      <trkpt lat="43.46945" lon="2.14674">
        <ele>429</ele>
        <time>2019-02-10T09:08:12Z</time>
      </trkpt>
      <trkpt lat="43.46936" lon="2.14681">
        <ele>430</ele>
        <time>2019-02-10T09:08:18Z</time>
      </trkpt>
      <trkpt lat="43.4693" lon="2.14687">
        <ele>431</ele>
        <time>2019-02-10T09:08:22Z</time>
      </trkpt>
      <trkpt lat="43.46925" lon="2.14691">
        <ele>431</ele>
        <time>2019-02-10T09:08:25Z</time>
      </trkpt>
      <trkpt lat="43.4692" lon="2.14694">
        <ele>432</ele>
        <time>2019-02-10T09:08:28Z</time>
      </trkpt>
      <trkpt lat="43.46914" lon="2.14696">
        <ele>432</ele>
        <time>2019-02-10T09:08:31Z</time>
      </trkpt>
      <trkpt lat="43.46904" lon="2.14698">
        <ele>433</ele>
        <time>2019-02-10T09:08:36Z</time>
      </trkpt>
      <trkpt lat="43.46902" lon="2.14698">
        <ele>433</ele>
        <time>2019-02-10T09:08:37Z</time>
      </trkpt>
      <trkpt lat="43.46894" lon="2.14698">
        <ele>434</ele>
        <time>2019-02-10T09:08:41Z</time>
      </trkpt>
      <trkpt lat="43.46888" lon="2.14698">
        <ele>435</ele>
        <time>2019-02-10T09:08:45Z</time>
      </trkpt>
      <trkpt lat="43.46887" lon="2.14698">
        <ele>436</ele>
        <time>2019-02-10T09:08:46Z</time>
      </trkpt>
      <trkpt lat="43.46877" lon="2.14697">
        <ele>437</ele>
        <time>2019-02-10T09:08:51Z</time>
      </trkpt>
      <trkpt lat="43.4687" lon="2.14695">
        <ele>438</ele>
        <time>2019-02-10T09:08:56Z</time>
      </trkpt>
      <trkpt lat="43.4687" lon="2.14693">
        <ele>438</ele>
        <time>2019-02-10T09:08:57Z</time>
      </trkpt>
      <trkpt lat="43.46869" lon="2.14687">
        <ele>438</ele>
        <time>2019-02-10T09:09:00Z</time>
      </trkpt>
      <trkpt lat="43.46869" lon="2.14685">
        <ele>439</ele>
        <time>2019-02-10T09:09:01Z</time>
      </trkpt>
      <trkpt lat="43.46869" lon="2.14683">
        <ele>439</ele>
        <time>2019-02-10T09:09:02Z</time>
      </trkpt>
      <trkpt lat="43.4687" lon="2.14667">
        <ele>440</ele>
        <time>2019-02-10T09:09:07Z</time>
      </trkpt>
      <trkpt lat="43.4687" lon="2.14664">
        <ele>440</ele>
        <time>2019-02-10T09:09:08Z</time>
      </trkpt>
      <trkpt lat="43.46869" lon="2.14659">
        <ele>441</ele>
        <time>2019-02-10T09:09:10Z</time>
      </trkpt>
      <trkpt lat="43.46866" lon="2.14655">
        <ele>441</ele>
        <time>2019-02-10T09:09:12Z</time>
      </trkpt>
      <trkpt lat="43.46864" lon="2.14653">
        <ele>441</ele>
        <time>2019-02-10T09:09:13Z</time>
      </trkpt>
      <trkpt lat="43.46862" lon="2.14652">
        <ele>441</ele>
        <time>2019-02-10T09:09:14Z</time>
      </trkpt>
      <trkpt lat="43.46852" lon="2.14651">
        <ele>442</ele>
        <time>2019-02-10T09:09:19Z</time>
      </trkpt>
      <trkpt lat="43.4685" lon="2.14651">
        <ele>442</ele>
        <time>2019-02-10T09:09:20Z</time>
      </trkpt>
      <trkpt lat="43.46838" lon="2.14657">
        <ele>443</ele>
        <time>2019-02-10T09:09:26Z</time>
      </trkpt>
      <trkpt lat="43.46837" lon="2.14658">
        <ele>443</ele>
        <time>2019-02-10T09:09:27Z</time>
      </trkpt>
      <trkpt lat="43.46829" lon="2.14664">
        <ele>444</ele>
        <time>2019-02-10T09:09:31Z</time>
      </trkpt>
      <trkpt lat="43.46828" lon="2.14665">
        <ele>444</ele>
        <time>2019-02-10T09:09:32Z</time>
      </trkpt>
      <trkpt lat="43.4682" lon="2.1467">
        <ele>445</ele>
        <time>2019-02-10T09:09:36Z</time>
      </trkpt>
      <trkpt lat="43.46815" lon="2.14673">
        <ele>446</ele>
        <time>2019-02-10T09:09:39Z</time>
      </trkpt>
      <trkpt lat="43.46814" lon="2.14674">
        <ele>447</ele>
        <time>2019-02-10T09:09:40Z</time>
      </trkpt>
      <trkpt lat="43.46804" lon="2.14677">
        <ele>447</ele>
        <time>2019-02-10T09:09:45Z</time>
      </trkpt>
      <trkpt lat="43.46803" lon="2.14677">
        <ele>448</ele>
        <time>2019-02-10T09:09:46Z</time>
      </trkpt>
      <trkpt lat="43.46789" lon="2.14675">
        <ele>449</ele>
        <time>2019-02-10T09:09:54Z</time>
      </trkpt>
      <trkpt lat="43.46787" lon="2.14674">
        <ele>449</ele>
        <time>2019-02-10T09:09:55Z</time>
      </trkpt>
      <trkpt lat="43.4678" lon="2.14671">
        <ele>450</ele>
        <time>2019-02-10T09:09:59Z</time>
      </trkpt>
      <trkpt lat="43.46773" lon="2.14667">
        <ele>451</ele>
        <time>2019-02-10T09:10:03Z</time>
      </trkpt>
      <trkpt lat="43.4677" lon="2.14664">
        <ele>451</ele>
        <time>2019-02-10T09:10:05Z</time>
      </trkpt>
      <trkpt lat="43.46764" lon="2.14656">
        <ele>452</ele>
        <time>2019-02-10T09:10:09Z</time>
      </trkpt>
      <trkpt lat="43.46759" lon="2.14651">
        <ele>453</ele>
        <time>2019-02-10T09:10:12Z</time>
      </trkpt>
      <trkpt lat="43.46756" lon="2.14647">
        <ele>453</ele>
        <time>2019-02-10T09:10:14Z</time>
      </trkpt>
      <trkpt lat="43.46749" lon="2.14641">
        <ele>454</ele>
        <time>2019-02-10T09:10:18Z</time>
      </trkpt>
      <trkpt lat="43.46746" lon="2.14637">
        <ele>455</ele>
        <time>2019-02-10T09:10:20Z</time>
      </trkpt>
      <trkpt lat="43.46742" lon="2.14633">
        <ele>455</ele>
        <time>2019-02-10T09:10:23Z</time>
      </trkpt>
      <trkpt lat="43.46741" lon="2.14631">
        <ele>456</ele>
        <time>2019-02-10T09:10:24Z</time>
      </trkpt>
      <trkpt lat="43.46731" lon="2.14622">
        <ele>457</ele>
        <time>2019-02-10T09:10:30Z</time>
      </trkpt>
      <trkpt lat="43.46724" lon="2.14613">
        <ele>458</ele>
        <time>2019-02-10T09:10:35Z</time>
      </trkpt>
      <trkpt lat="43.46723" lon="2.14611">
        <ele>458</ele>
        <time>2019-02-10T09:10:36Z</time>
      </trkpt>
      <trkpt lat="43.46715" lon="2.14602">
        <ele>459</ele>
        <time>2019-02-10T09:10:41Z</time>
      </trkpt>
      <trkpt lat="43.46715" lon="2.146">
        <ele>459</ele>
        <time>2019-02-10T09:10:42Z</time>
      </trkpt>
      <trkpt lat="43.46709" lon="2.14593">
        <ele>460</ele>
        <time>2019-02-10T09:10:46Z</time>
      </trkpt>
      <trkpt lat="43.46705" lon="2.14586">
        <ele>460</ele>
        <time>2019-02-10T09:10:49Z</time>
      </trkpt>
      <trkpt lat="43.46699" lon="2.1458">
        <ele>461</ele>
        <time>2019-02-10T09:10:53Z</time>
      </trkpt>
      <trkpt lat="43.46696" lon="2.14578">
        <ele>461</ele>
        <time>2019-02-10T09:10:55Z</time>
      </trkpt>
      <trkpt lat="43.4669" lon="2.14573">
        <ele>462</ele>
        <time>2019-02-10T09:10:58Z</time>
      </trkpt>
      <trkpt lat="43.46684" lon="2.14567">
        <ele>463</ele>
        <time>2019-02-10T09:11:02Z</time>
      </trkpt>
      <trkpt lat="43.46682" lon="2.14565">
        <ele>463</ele>
        <time>2019-02-10T09:11:03Z</time>
      </trkpt>
      <trkpt lat="43.46681" lon="2.14563">
        <ele>463</ele>
        <time>2019-02-10T09:11:04Z</time>
      </trkpt>
      <trkpt lat="43.46677" lon="2.14554">
        <ele>464</ele>
        <time>2019-02-10T09:11:08Z</time>
      </trkpt>
      <trkpt lat="43.46677" lon="2.14548">
        <ele>465</ele>
        <time>2019-02-10T09:11:11Z</time>
      </trkpt>
      <trkpt lat="43.46678" lon="2.14544">
        <ele>465</ele>
        <time>2019-02-10T09:11:13Z</time>
      </trkpt>
      <trkpt lat="43.46679" lon="2.14539">
        <ele>466</ele>
        <time>2019-02-10T09:11:16Z</time>
      </trkpt>
      <trkpt lat="43.4668" lon="2.14536">
        <ele>466</ele>
        <time>2019-02-10T09:11:18Z</time>
      </trkpt>
      <trkpt lat="43.46681" lon="2.1453">
        <ele>467</ele>
        <time>2019-02-10T09:11:21Z</time>
      </trkpt>
      <trkpt lat="43.46682" lon="2.14526">
        <ele>467</ele>
        <time>2019-02-10T09:11:23Z</time>
      </trkpt>
      <trkpt lat="43.46682" lon="2.14524">
        <ele>468</ele>
        <time>2019-02-10T09:11:24Z</time>
      </trkpt>
      <trkpt lat="43.46684" lon="2.14516">
        <ele>469</ele>
        <time>2019-02-10T09:11:29Z</time>
      </trkpt>
      <trkpt lat="43.46684" lon="2.14514">
        <ele>469</ele>
        <time>2019-02-10T09:11:30Z</time>
      </trkpt>
      <trkpt lat="43.46684" lon="2.14512">
        <ele>469</ele>
        <time>2019-02-10T09:11:31Z</time>
      </trkpt>
      <trkpt lat="43.46686" lon="2.14503">
        <ele>470</ele>
        <time>2019-02-10T09:11:37Z</time>
      </trkpt>
      <trkpt lat="43.46687" lon="2.145">
        <ele>470</ele>
        <time>2019-02-10T09:11:40Z</time>
      </trkpt>
      <trkpt lat="43.46688" lon="2.14497">
        <ele>471</ele>
        <time>2019-02-10T09:11:42Z</time>
      </trkpt>
      <trkpt lat="43.46688" lon="2.14495">
        <ele>471</ele>
        <time>2019-02-10T09:11:43Z</time>
      </trkpt>
      <trkpt lat="43.46688" lon="2.14494">
        <ele>471</ele>
        <time>2019-02-10T09:11:44Z</time>
      </trkpt>
      <trkpt lat="43.46689" lon="2.1448">
        <ele>471</ele>
        <time>2019-02-10T09:11:52Z</time>
      </trkpt>
      <trkpt lat="43.4669" lon="2.14468">
        <ele>471</ele>
        <time>2019-02-10T09:11:59Z</time>
      </trkpt>
      <trkpt lat="43.46689" lon="2.14465">
        <ele>471</ele>
        <time>2019-02-10T09:12:03Z</time>
      </trkpt>
      <trkpt lat="43.46689" lon="2.14467">
        <ele>471</ele>
        <time>2019-02-10T09:14:23Z</time>
      </trkpt>
      <trkpt lat="43.4669" lon="2.14466">
        <ele>471</ele>
        <time>2019-02-10T09:14:24Z</time>
      </trkpt>
      <trkpt lat="43.46692" lon="2.14463">
        <ele>472</ele>
        <time>2019-02-10T09:14:27Z</time>
      </trkpt>
      <trkpt lat="43.46693" lon="2.14461">
        <ele>472</ele>
        <time>2019-02-10T09:14:28Z</time>
      </trkpt>
      <trkpt lat="43.46694" lon="2.14457">
        <ele>472</ele>
        <time>2019-02-10T09:14:30Z</time>
      </trkpt>
      <trkpt lat="43.46694" lon="2.14455">
        <ele>472</ele>
        <time>2019-02-10T09:14:31Z</time>
      </trkpt>
      <trkpt lat="43.46695" lon="2.14454">
        <ele>472</ele>
        <time>2019-02-10T09:14:32Z</time>
      </trkpt>
      <trkpt lat="43.46697" lon="2.14446">
        <ele>473</ele>
        <time>2019-02-10T09:14:36Z</time>
      </trkpt>
      <trkpt lat="43.46697" lon="2.14444">
        <ele>474</ele>
        <time>2019-02-10T09:14:38Z</time>
      </trkpt>
      <trkpt lat="43.46697" lon="2.14441">
        <ele>474</ele>
        <time>2019-02-10T09:14:40Z</time>
      </trkpt>
      <trkpt lat="43.46696" lon="2.14438">
        <ele>475</ele>
        <time>2019-02-10T09:14:42Z</time>
      </trkpt>
      <trkpt lat="43.46697" lon="2.14436">
        <ele>475</ele>
        <time>2019-02-10T09:14:43Z</time>
      </trkpt>
      <trkpt lat="43.46696" lon="2.14434">
        <ele>475</ele>
        <time>2019-02-10T09:14:44Z</time>
      </trkpt>
      <trkpt lat="43.46697" lon="2.14432">
        <ele>476</ele>
        <time>2019-02-10T09:14:45Z</time>
      </trkpt>
      <trkpt lat="43.46696" lon="2.14426">
        <ele>476</ele>
        <time>2019-02-10T09:14:49Z</time>
      </trkpt>
      <trkpt lat="43.46696" lon="2.14424">
        <ele>477</ele>
        <time>2019-02-10T09:14:50Z</time>
      </trkpt>
      <trkpt lat="43.46696" lon="2.14423">
        <ele>477</ele>
        <time>2019-02-10T09:14:51Z</time>
      </trkpt>
      <trkpt lat="43.46695" lon="2.14419">
        <ele>478</ele>
        <time>2019-02-10T09:14:53Z</time>
      </trkpt>
      <trkpt lat="43.46694" lon="2.14418">
        <ele>478</ele>
        <time>2019-02-10T09:14:54Z</time>
      </trkpt>
      <trkpt lat="43.46692" lon="2.14412">
        <ele>479</ele>
        <time>2019-02-10T09:14:57Z</time>
      </trkpt>
      <trkpt lat="43.46691" lon="2.14409">
        <ele>479</ele>
        <time>2019-02-10T09:14:58Z</time>
      </trkpt>
      <trkpt lat="43.46689" lon="2.14405">
        <ele>480</ele>
        <time>2019-02-10T09:15:00Z</time>
      </trkpt>
      <trkpt lat="43.46688" lon="2.144">
        <ele>480</ele>
        <time>2019-02-10T09:15:02Z</time>
      </trkpt>
      <trkpt lat="43.46686" lon="2.14392">
        <ele>481</ele>
        <time>2019-02-10T09:15:05Z</time>
      </trkpt>
      <trkpt lat="43.46686" lon="2.1439">
        <ele>482</ele>
        <time>2019-02-10T09:15:06Z</time>
      </trkpt>
      <trkpt lat="43.46683" lon="2.14388">
        <ele>482</ele>
        <time>2019-02-10T09:15:09Z</time>
      </trkpt>
      <trkpt lat="43.46681" lon="2.14384">
        <ele>483</ele>
        <time>2019-02-10T09:15:12Z</time>
      </trkpt>
      <trkpt lat="43.46678" lon="2.14377">
        <ele>484</ele>
        <time>2019-02-10T09:15:16Z</time>
      </trkpt>
      <trkpt lat="43.46677" lon="2.14375">
        <ele>484</ele>
        <time>2019-02-10T09:15:17Z</time>
      </trkpt>
      <trkpt lat="43.46677" lon="2.1437">
        <ele>485</ele>
        <time>2019-02-10T09:15:19Z</time>
      </trkpt>
      <trkpt lat="43.46675" lon="2.14366">
        <ele>485</ele>
        <time>2019-02-10T09:15:21Z</time>
      </trkpt>
      <trkpt lat="43.46673" lon="2.1436">
        <ele>486</ele>
        <time>2019-02-10T09:15:24Z</time>
      </trkpt>
      <trkpt lat="43.46673" lon="2.14359">
        <ele>486</ele>
        <time>2019-02-10T09:15:25Z</time>
      </trkpt>
      <trkpt lat="43.46669" lon="2.14351">
        <ele>488</ele>
        <time>2019-02-10T09:15:30Z</time>
      </trkpt>
      <trkpt lat="43.46668" lon="2.14349">
        <ele>488</ele>
        <time>2019-02-10T09:15:31Z</time>
      </trkpt>
      <trkpt lat="43.46666" lon="2.14346">
        <ele>489</ele>
        <time>2019-02-10T09:15:33Z</time>
      </trkpt>
      <trkpt lat="43.46665" lon="2.14345">
        <ele>489</ele>
        <time>2019-02-10T09:15:34Z</time>
      </trkpt>
      <trkpt lat="43.46664" lon="2.14346">
        <ele>489</ele>
        <time>2019-02-10T09:15:35Z</time>
      </trkpt>
      <trkpt lat="43.46662" lon="2.14347">
        <ele>489</ele>
        <time>2019-02-10T09:15:37Z</time>
      </trkpt>
      <trkpt lat="43.46661" lon="2.14348">
        <ele>490</ele>
        <time>2019-02-10T09:15:38Z</time>
      </trkpt>
      <trkpt lat="43.4666" lon="2.1435">
        <ele>490</ele>
        <time>2019-02-10T09:15:40Z</time>
      </trkpt>
      <trkpt lat="43.46656" lon="2.1435">
        <ele>491</ele>
        <time>2019-02-10T09:15:43Z</time>
      </trkpt>
      <trkpt lat="43.46651" lon="2.14353">
        <ele>492</ele>
        <time>2019-02-10T09:15:47Z</time>
      </trkpt>
      <trkpt lat="43.46646" lon="2.14355">
        <ele>492</ele>
        <time>2019-02-10T09:15:50Z</time>
      </trkpt>
      <trkpt lat="43.46641" lon="2.14354">
        <ele>493</ele>
        <time>2019-02-10T09:15:53Z</time>
      </trkpt>
      <trkpt lat="43.4664" lon="2.14354">
        <ele>493</ele>
        <time>2019-02-10T09:15:54Z</time>
      </trkpt>
      <trkpt lat="43.4663" lon="2.14355">
        <ele>494</ele>
        <time>2019-02-10T09:16:00Z</time>
      </trkpt>
      <trkpt lat="43.46628" lon="2.14355">
        <ele>495</ele>
        <time>2019-02-10T09:16:01Z</time>
      </trkpt>
      <trkpt lat="43.46625" lon="2.14353">
        <ele>495</ele>
        <time>2019-02-10T09:16:04Z</time>
      </trkpt>
      <trkpt lat="43.46625" lon="2.1435">
        <ele>495</ele>
        <time>2019-02-10T09:16:06Z</time>
      </trkpt>
      <trkpt lat="43.46628" lon="2.14348">
        <ele>495</ele>
        <time>2019-02-10T09:16:09Z</time>
      </trkpt>
      <trkpt lat="43.4663" lon="2.14348">
        <ele>496</ele>
        <time>2019-02-10T09:16:11Z</time>
      </trkpt>
      <trkpt lat="43.46632" lon="2.14346">
        <ele>496</ele>
        <time>2019-02-10T09:16:13Z</time>
      </trkpt>
      <trkpt lat="43.46634" lon="2.14345">
        <ele>497</ele>
        <time>2019-02-10T09:16:14Z</time>
      </trkpt>
      <trkpt lat="43.46637" lon="2.14344">
        <ele>498</ele>
        <time>2019-02-10T09:16:17Z</time>
      </trkpt>
      <trkpt lat="43.46638" lon="2.14344">
        <ele>498</ele>
        <time>2019-02-10T09:16:18Z</time>
      </trkpt>
      <trkpt lat="43.46641" lon="2.14343">
        <ele>499</ele>
        <time>2019-02-10T09:16:20Z</time>
      </trkpt>
      <trkpt lat="43.46643" lon="2.14341">
        <ele>499</ele>
        <time>2019-02-10T09:16:22Z</time>
      </trkpt>
      <trkpt lat="43.46648" lon="2.14333">
        <ele>499</ele>
        <time>2019-02-10T09:16:27Z</time>
      </trkpt>
      <trkpt lat="43.46654" lon="2.14322">
        <ele>501</ele>
        <time>2019-02-10T09:16:34Z</time>
      </trkpt>
      <trkpt lat="43.46656" lon="2.14315">
        <ele>501</ele>
        <time>2019-02-10T09:16:38Z</time>
      </trkpt>
      <trkpt lat="43.46657" lon="2.14312">
        <ele>502</ele>
        <time>2019-02-10T09:16:40Z</time>
      </trkpt>
      <trkpt lat="43.46659" lon="2.14307">
        <ele>502</ele>
        <time>2019-02-10T09:16:43Z</time>
      </trkpt>
      <trkpt lat="43.46662" lon="2.14302">
        <ele>503</ele>
        <time>2019-02-10T09:16:46Z</time>
      </trkpt>
      <trkpt lat="43.46664" lon="2.143">
        <ele>503</ele>
        <time>2019-02-10T09:16:48Z</time>
      </trkpt>
      <trkpt lat="43.46666" lon="2.14297">
        <ele>503</ele>
        <time>2019-02-10T09:16:50Z</time>
      </trkpt>
      <trkpt lat="43.46669" lon="2.14298">
        <ele>504</ele>
        <time>2019-02-10T09:16:52Z</time>
      </trkpt>
      <trkpt lat="43.46673" lon="2.14301">
        <ele>504</ele>
        <time>2019-02-10T09:16:55Z</time>
      </trkpt>
      <trkpt lat="43.46675" lon="2.14305">
        <ele>504</ele>
        <time>2019-02-10T09:16:57Z</time>
      </trkpt>
      <trkpt lat="43.46676" lon="2.14306">
        <ele>504</ele>
        <time>2019-02-10T09:16:58Z</time>
      </trkpt>
      <trkpt lat="43.46682" lon="2.14312">
        <ele>505</ele>
        <time>2019-02-10T09:17:03Z</time>
      </trkpt>
      <trkpt lat="43.46683" lon="2.14315">
        <ele>505</ele>
        <time>2019-02-10T09:17:05Z</time>
      </trkpt>
      <trkpt lat="43.46688" lon="2.14321">
        <ele>506</ele>
        <time>2019-02-10T09:17:09Z</time>
      </trkpt>
      <trkpt lat="43.46689" lon="2.14322">
        <ele>506</ele>
        <time>2019-02-10T09:17:10Z</time>
      </trkpt>
      <trkpt lat="43.46691" lon="2.14323">
        <ele>506</ele>
        <time>2019-02-10T09:17:11Z</time>
      </trkpt>
      <trkpt lat="43.46695" lon="2.14324">
        <ele>507</ele>
        <time>2019-02-10T09:17:14Z</time>
      </trkpt>
      <trkpt lat="43.46697" lon="2.14325">
        <ele>508</ele>
        <time>2019-02-10T09:17:15Z</time>
      </trkpt>
      <trkpt lat="43.46698" lon="2.14326">
        <ele>508</ele>
        <time>2019-02-10T09:17:16Z</time>
      </trkpt>
      <trkpt lat="43.46706" lon="2.14329">
        <ele>509</ele>
        <time>2019-02-10T09:17:20Z</time>
      </trkpt>
      <trkpt lat="43.46708" lon="2.1433">
        <ele>509</ele>
        <time>2019-02-10T09:17:21Z</time>
      </trkpt>
      <trkpt lat="43.46713" lon="2.14334">
        <ele>510</ele>
        <time>2019-02-10T09:17:24Z</time>
      </trkpt>
      <trkpt lat="43.46718" lon="2.14337">
        <ele>510</ele>
        <time>2019-02-10T09:17:27Z</time>
      </trkpt>
      <trkpt lat="43.46722" lon="2.14341">
        <ele>511</ele>
        <time>2019-02-10T09:17:30Z</time>
      </trkpt>
      <trkpt lat="43.46726" lon="2.14345">
        <ele>512</ele>
        <time>2019-02-10T09:17:33Z</time>
      </trkpt>
      <trkpt lat="43.46734" lon="2.14349">
        <ele>512</ele>
        <time>2019-02-10T09:17:38Z</time>
      </trkpt>
      <trkpt lat="43.46737" lon="2.14351">
        <ele>512</ele>
        <time>2019-02-10T09:17:40Z</time>
      </trkpt>
      <trkpt lat="43.4674" lon="2.14354">
        <ele>513</ele>
        <time>2019-02-10T09:17:42Z</time>
      </trkpt>
      <trkpt lat="43.46745" lon="2.14358">
        <ele>513</ele>
        <time>2019-02-10T09:17:46Z</time>
      </trkpt>
      <trkpt lat="43.46748" lon="2.1436">
        <ele>514</ele>
        <time>2019-02-10T09:17:48Z</time>
      </trkpt>
      <trkpt lat="43.46753" lon="2.14365">
        <ele>515</ele>
        <time>2019-02-10T09:17:52Z</time>
      </trkpt>
      <trkpt lat="43.46754" lon="2.14365">
        <ele>515</ele>
        <time>2019-02-10T09:17:53Z</time>
      </trkpt>
      <trkpt lat="43.46761" lon="2.14373">
        <ele>516</ele>
        <time>2019-02-10T09:17:58Z</time>
      </trkpt>
      <trkpt lat="43.46762" lon="2.14375">
        <ele>516</ele>
        <time>2019-02-10T09:17:59Z</time>
      </trkpt>
      <trkpt lat="43.46768" lon="2.14383">
        <ele>517</ele>
        <time>2019-02-10T09:18:04Z</time>
      </trkpt>
      <trkpt lat="43.4677" lon="2.14384">
        <ele>517</ele>
        <time>2019-02-10T09:18:05Z</time>
      </trkpt>
      <trkpt lat="43.46774" lon="2.14389">
        <ele>518</ele>
        <time>2019-02-10T09:18:08Z</time>
      </trkpt>
      <trkpt lat="43.46775" lon="2.14392">
        <ele>519</ele>
        <time>2019-02-10T09:18:09Z</time>
      </trkpt>
      <trkpt lat="43.46776" lon="2.14394">
        <ele>519</ele>
        <time>2019-02-10T09:18:10Z</time>
      </trkpt>
      <trkpt lat="43.4678" lon="2.14404">
        <ele>520</ele>
        <time>2019-02-10T09:18:15Z</time>
      </trkpt>
      <trkpt lat="43.46785" lon="2.14414">
        <ele>521</ele>
        <time>2019-02-10T09:18:20Z</time>
      </trkpt>
      <trkpt lat="43.46785" lon="2.14416">
        <ele>521</ele>
        <time>2019-02-10T09:18:21Z</time>
      </trkpt>
      <trkpt lat="43.46792" lon="2.14427">
        <ele>522</ele>
        <time>2019-02-10T09:18:27Z</time>
      </trkpt>
      <trkpt lat="43.46795" lon="2.14432">
        <ele>523</ele>
        <time>2019-02-10T09:18:30Z</time>
      </trkpt>
      <trkpt lat="43.468" lon="2.14435">
        <ele>523</ele>
        <time>2019-02-10T09:18:33Z</time>
      </trkpt>
      <trkpt lat="43.46805" lon="2.14433">
        <ele>524</ele>
        <time>2019-02-10T09:18:37Z</time>
      </trkpt>
      <trkpt lat="43.46808" lon="2.1443">
        <ele>525</ele>
        <time>2019-02-10T09:18:39Z</time>
      </trkpt>
      <trkpt lat="43.46811" lon="2.14423">
        <ele>526</ele>
        <time>2019-02-10T09:18:44Z</time>
      </trkpt>
      <trkpt lat="43.46811" lon="2.14421">
        <ele>526</ele>
        <time>2019-02-10T09:18:45Z</time>
      </trkpt>
      <trkpt lat="43.46811" lon="2.14418">
        <ele>527</ele>
        <time>2019-02-10T09:18:47Z</time>
      </trkpt>
      <trkpt lat="43.46811" lon="2.14416">
        <ele>527</ele>
        <time>2019-02-10T09:18:48Z</time>
      </trkpt>
      <trkpt lat="43.46812" lon="2.14413">
        <ele>528</ele>
        <time>2019-02-10T09:18:50Z</time>
      </trkpt>
      <trkpt lat="43.46813" lon="2.14412">
        <ele>528</ele>
        <time>2019-02-10T09:18:51Z</time>
      </trkpt>
      <trkpt lat="43.46816" lon="2.14407">
        <ele>529</ele>
        <time>2019-02-10T09:18:54Z</time>
      </trkpt>
      <trkpt lat="43.4682" lon="2.144">
        <ele>530</ele>
        <time>2019-02-10T09:18:58Z</time>
      </trkpt>
      <trkpt lat="43.46822" lon="2.14399">
        <ele>530</ele>
        <time>2019-02-10T09:18:59Z</time>
      </trkpt>
      <trkpt lat="43.46826" lon="2.14393">
        <ele>531</ele>
        <time>2019-02-10T09:19:03Z</time>
      </trkpt>
      <trkpt lat="43.4683" lon="2.14387">
        <ele>532</ele>
        <time>2019-02-10T09:19:07Z</time>
      </trkpt>
      <trkpt lat="43.46832" lon="2.14384">
        <ele>532</ele>
        <time>2019-02-10T09:19:09Z</time>
      </trkpt>
      <trkpt lat="43.46835" lon="2.1438">
        <ele>533</ele>
        <time>2019-02-10T09:19:12Z</time>
      </trkpt>
      <trkpt lat="43.46835" lon="2.14377">
        <ele>533</ele>
        <time>2019-02-10T09:19:14Z</time>
      </trkpt>
      <trkpt lat="43.46836" lon="2.14375">
        <ele>533</ele>
        <time>2019-02-10T09:19:15Z</time>
      </trkpt>
      <trkpt lat="43.46837" lon="2.14372">
        <ele>534</ele>
        <time>2019-02-10T09:19:17Z</time>
      </trkpt>
      <trkpt lat="43.46838" lon="2.1437">
        <ele>535</ele>
        <time>2019-02-10T09:19:19Z</time>
      </trkpt>
      <trkpt lat="43.46842" lon="2.14365">
        <ele>535</ele>
        <time>2019-02-10T09:19:24Z</time>
      </trkpt>
      <trkpt lat="43.46844" lon="2.14362">
        <ele>535</ele>
        <time>2019-02-10T09:19:26Z</time>
      </trkpt>
      <trkpt lat="43.46847" lon="2.14359">
        <ele>535</ele>
        <time>2019-02-10T09:19:29Z</time>
      </trkpt>
      <trkpt lat="43.46849" lon="2.14356">
        <ele>535</ele>
        <time>2019-02-10T09:19:31Z</time>
      </trkpt>
      <trkpt lat="43.46849" lon="2.14354">
        <ele>535</ele>
        <time>2019-02-10T09:19:32Z</time>
      </trkpt>
      <trkpt lat="43.46853" lon="2.1435">
        <ele>536</ele>
        <time>2019-02-10T09:19:35Z</time>
      </trkpt>
      <trkpt lat="43.46859" lon="2.14341">
        <ele>536</ele>
        <time>2019-02-10T09:19:41Z</time>
      </trkpt>
      <trkpt lat="43.46864" lon="2.14334">
        <ele>536</ele>
        <time>2019-02-10T09:19:45Z</time>
      </trkpt>
      <trkpt lat="43.46865" lon="2.14331">
        <ele>537</ele>
        <time>2019-02-10T09:19:47Z</time>
      </trkpt>
      <trkpt lat="43.46867" lon="2.14323">
        <ele>537</ele>
        <time>2019-02-10T09:19:51Z</time>
      </trkpt>
      <trkpt lat="43.46869" lon="2.14316">
        <ele>538</ele>
        <time>2019-02-10T09:19:54Z</time>
      </trkpt>
      <trkpt lat="43.46872" lon="2.14308">
        <ele>539</ele>
        <time>2019-02-10T09:19:58Z</time>
      </trkpt>
      <trkpt lat="43.46875" lon="2.14305">
        <ele>539</ele>
        <time>2019-02-10T09:20:00Z</time>
      </trkpt>
      <trkpt lat="43.46882" lon="2.14301">
        <ele>539</ele>
        <time>2019-02-10T09:20:06Z</time>
      </trkpt>
      <trkpt lat="43.46886" lon="2.143">
        <ele>539</ele>
        <time>2019-02-10T09:20:09Z</time>
      </trkpt>
      <trkpt lat="43.46889" lon="2.14298">
        <ele>539</ele>
        <time>2019-02-10T09:20:12Z</time>
      </trkpt>
      <trkpt lat="43.46893" lon="2.14295">
        <ele>538</ele>
        <time>2019-02-10T09:20:16Z</time>
      </trkpt>
      <trkpt lat="43.46894" lon="2.14292">
        <ele>539</ele>
        <time>2019-02-10T09:20:18Z</time>
      </trkpt>
      <trkpt lat="43.46893" lon="2.14287">
        <ele>539</ele>
        <time>2019-02-10T09:20:22Z</time>
      </trkpt>
      <trkpt lat="43.46892" lon="2.14285">
        <ele>539</ele>
        <time>2019-02-10T09:20:24Z</time>
      </trkpt>
      <trkpt lat="43.46892" lon="2.14285">
        <ele>539</ele>
        <time>2019-02-10T09:20:25Z</time>
      </trkpt>
      <trkpt lat="43.4689" lon="2.14284">
        <ele>538</ele>
        <time>2019-02-10T09:21:42Z</time>
      </trkpt>
      <trkpt lat="43.46889" lon="2.14283">
        <ele>538</ele>
        <time>2019-02-10T09:21:43Z</time>
      </trkpt>
      <trkpt lat="43.46886" lon="2.14282">
        <ele>538</ele>
        <time>2019-02-10T09:21:46Z</time>
      </trkpt>
      <trkpt lat="43.46879" lon="2.1428">
        <ele>538</ele>
        <time>2019-02-10T09:21:51Z</time>
      </trkpt>
      <trkpt lat="43.46878" lon="2.1428">
        <ele>538</ele>
        <time>2019-02-10T09:21:52Z</time>
      </trkpt>
      <trkpt lat="43.46873" lon="2.14275">
        <ele>539</ele>
        <time>2019-02-10T09:21:56Z</time>
      </trkpt>
      <trkpt lat="43.46871" lon="2.14273">
        <ele>539</ele>
        <time>2019-02-10T09:21:58Z</time>
      </trkpt>
      <trkpt lat="43.46867" lon="2.1427">
        <ele>539</ele>
        <time>2019-02-10T09:22:01Z</time>
      </trkpt>
      <trkpt lat="43.46865" lon="2.14265">
        <ele>539</ele>
        <time>2019-02-10T09:22:04Z</time>
      </trkpt>
      <trkpt lat="43.46861" lon="2.1426">
        <ele>539</ele>
        <time>2019-02-10T09:22:07Z</time>
      </trkpt>
      <trkpt lat="43.46852" lon="2.14247">
        <ele>539</ele>
        <time>2019-02-10T09:22:13Z</time>
      </trkpt>
      <trkpt lat="43.46845" lon="2.14234">
        <ele>539</ele>
        <time>2019-02-10T09:22:18Z</time>
      </trkpt>
      <trkpt lat="43.46831" lon="2.14225">
        <ele>539</ele>
        <time>2019-02-10T09:22:23Z</time>
      </trkpt>
      <trkpt lat="43.46826" lon="2.14221">
        <ele>540</ele>
        <time>2019-02-10T09:22:25Z</time>
      </trkpt>
      <trkpt lat="43.4682" lon="2.14216">
        <ele>539</ele>
        <time>2019-02-10T09:22:28Z</time>
      </trkpt>
      <trkpt lat="43.46816" lon="2.14214">
        <ele>539</ele>
        <time>2019-02-10T09:22:30Z</time>
      </trkpt>
      <trkpt lat="43.46814" lon="2.1421">
        <ele>539</ele>
        <time>2019-02-10T09:22:32Z</time>
      </trkpt>
      <trkpt lat="43.46807" lon="2.14199">
        <ele>540</ele>
        <time>2019-02-10T09:22:37Z</time>
      </trkpt>
      <trkpt lat="43.46799" lon="2.1419">
        <ele>540</ele>
        <time>2019-02-10T09:22:41Z</time>
      </trkpt>
      <trkpt lat="43.46795" lon="2.14177">
        <ele>540</ele>
        <time>2019-02-10T09:22:46Z</time>
      </trkpt>
      <trkpt lat="43.46789" lon="2.1417">
        <ele>541</ele>
        <time>2019-02-10T09:22:49Z</time>
      </trkpt>
      <trkpt lat="43.46786" lon="2.14168">
        <ele>541</ele>
        <time>2019-02-10T09:22:51Z</time>
      </trkpt>
      <trkpt lat="43.46785" lon="2.14167">
        <ele>541</ele>
        <time>2019-02-10T09:22:54Z</time>
      </trkpt>
      <trkpt lat="43.46784" lon="2.14165">
        <ele>541</ele>
        <time>2019-02-10T09:22:56Z</time>
      </trkpt>
      <trkpt lat="43.46783" lon="2.14161">
        <ele>541</ele>
        <time>2019-02-10T09:22:59Z</time>
      </trkpt>
      <trkpt lat="43.46778" lon="2.14151">
        <ele>541</ele>
        <time>2019-02-10T09:23:05Z</time>
      </trkpt>
      <trkpt lat="43.46777" lon="2.1415">
        <ele>541</ele>
        <time>2019-02-10T09:23:06Z</time>
      </trkpt>
      <trkpt lat="43.46767" lon="2.14147">
        <ele>542</ele>
        <time>2019-02-10T09:23:10Z</time>
      </trkpt>
      <trkpt lat="43.46764" lon="2.14148">
        <ele>542</ele>
        <time>2019-02-10T09:23:11Z</time>
      </trkpt>
      <trkpt lat="43.46752" lon="2.14149">
        <ele>541</ele>
        <time>2019-02-10T09:23:16Z</time>
      </trkpt>
      <trkpt lat="43.46744" lon="2.14152">
        <ele>541</ele>
        <time>2019-02-10T09:23:19Z</time>
      </trkpt>
      <trkpt lat="43.46742" lon="2.14154">
        <ele>541</ele>
        <time>2019-02-10T09:23:20Z</time>
      </trkpt>
      <trkpt lat="43.46736" lon="2.14159">
        <ele>540</ele>
        <time>2019-02-10T09:23:23Z</time>
      </trkpt>
      <trkpt lat="43.46732" lon="2.14159">
        <ele>539</ele>
        <time>2019-02-10T09:23:24Z</time>
      </trkpt>
      <trkpt lat="43.46725" lon="2.14154">
        <ele>539</ele>
        <time>2019-02-10T09:23:28Z</time>
      </trkpt>
      <trkpt lat="43.46722" lon="2.14146">
        <ele>541</ele>
        <time>2019-02-10T09:23:33Z</time>
      </trkpt>
      <trkpt lat="43.46719" lon="2.14145">
        <ele>541</ele>
        <time>2019-02-10T09:23:35Z</time>
      </trkpt>
      <trkpt lat="43.46713" lon="2.14136">
        <ele>543</ele>
        <time>2019-02-10T09:23:40Z</time>
      </trkpt>
      <trkpt lat="43.46708" lon="2.14131">
        <ele>544</ele>
        <time>2019-02-10T09:23:44Z</time>
      </trkpt>
      <trkpt lat="43.46707" lon="2.1413">
        <ele>544</ele>
        <time>2019-02-10T09:23:45Z</time>
      </trkpt>
      <trkpt lat="43.46705" lon="2.14128">
        <ele>544</ele>
        <time>2019-02-10T09:23:47Z</time>
      </trkpt>
      <trkpt lat="43.46701" lon="2.14125">
        <ele>545</ele>
        <time>2019-02-10T09:23:50Z</time>
      </trkpt>
      <trkpt lat="43.46697" lon="2.14122">
        <ele>546</ele>
        <time>2019-02-10T09:23:53Z</time>
      </trkpt>
      <trkpt lat="43.46692" lon="2.1412">
        <ele>547</ele>
        <time>2019-02-10T09:23:56Z</time>
      </trkpt>
      <trkpt lat="43.46687" lon="2.14118">
        <ele>548</ele>
        <time>2019-02-10T09:23:59Z</time>
      </trkpt>
      <trkpt lat="43.46686" lon="2.14117">
        <ele>548</ele>
        <time>2019-02-10T09:24:00Z</time>
      </trkpt>
      <trkpt lat="43.46684" lon="2.14113">
        <ele>550</ele>
        <time>2019-02-10T09:24:03Z</time>
      </trkpt>
      <trkpt lat="43.46683" lon="2.14111">
        <ele>551</ele>
        <time>2019-02-10T09:24:05Z</time>
      </trkpt>
      <trkpt lat="43.46681" lon="2.14103">
        <ele>552</ele>
        <time>2019-02-10T09:24:10Z</time>
      </trkpt>
      <trkpt lat="43.4668" lon="2.14101">
        <ele>552</ele>
        <time>2019-02-10T09:24:12Z</time>
      </trkpt>
      <trkpt lat="43.46676" lon="2.14093">
        <ele>553</ele>
        <time>2019-02-10T09:24:16Z</time>
      </trkpt>
      <trkpt lat="43.46675" lon="2.14091">
        <ele>553</ele>
        <time>2019-02-10T09:24:17Z</time>
      </trkpt>
      <trkpt lat="43.46672" lon="2.14089">
        <ele>554</ele>
        <time>2019-02-10T09:24:19Z</time>
      </trkpt>
      <trkpt lat="43.46669" lon="2.14085">
        <ele>555</ele>
        <time>2019-02-10T09:24:22Z</time>
      </trkpt>
      <trkpt lat="43.46663" lon="2.14079">
        <ele>555</ele>
        <time>2019-02-10T09:24:27Z</time>
      </trkpt>
      <trkpt lat="43.46661" lon="2.14079">
        <ele>555</ele>
        <time>2019-02-10T09:24:28Z</time>
      </trkpt>
      <trkpt lat="43.46657" lon="2.14076">
        <ele>556</ele>
        <time>2019-02-10T09:24:32Z</time>
      </trkpt>
      <trkpt lat="43.46654" lon="2.14073">
        <ele>556</ele>
        <time>2019-02-10T09:24:34Z</time>
      </trkpt>
      <trkpt lat="43.46653" lon="2.14069">
        <ele>557</ele>
        <time>2019-02-10T09:24:37Z</time>
      </trkpt>
      <trkpt lat="43.46652" lon="2.14066">
        <ele>557</ele>
        <time>2019-02-10T09:24:39Z</time>
      </trkpt>
      <trkpt lat="43.46651" lon="2.14062">
        <ele>557</ele>
        <time>2019-02-10T09:24:41Z</time>
      </trkpt>
      <trkpt lat="43.4665" lon="2.14051">
        <ele>558</ele>
        <time>2019-02-10T09:24:46Z</time>
      </trkpt>
      <trkpt lat="43.46649" lon="2.14048">
        <ele>558</ele>
        <time>2019-02-10T09:24:47Z</time>
      </trkpt>
      <trkpt lat="43.46647" lon="2.14046">
        <ele>558</ele>
        <time>2019-02-10T09:24:48Z</time>
      </trkpt>
      <trkpt lat="43.46643" lon="2.14042">
        <ele>558</ele>
        <time>2019-02-10T09:24:51Z</time>
      </trkpt>
      <trkpt lat="43.46641" lon="2.14041">
        <ele>558</ele>
        <time>2019-02-10T09:24:52Z</time>
      </trkpt>
      <trkpt lat="43.46636" lon="2.14038">
        <ele>558</ele>
        <time>2019-02-10T09:24:55Z</time>
      </trkpt>
      <trkpt lat="43.46634" lon="2.14037">
        <ele>558</ele>
        <time>2019-02-10T09:24:56Z</time>
      </trkpt>
      <trkpt lat="43.46625" lon="2.14035">
        <ele>558</ele>
        <time>2019-02-10T09:25:02Z</time>
      </trkpt>
      <trkpt lat="43.46621" lon="2.14034">
        <ele>558</ele>
        <time>2019-02-10T09:25:04Z</time>
      </trkpt>
      <trkpt lat="43.46617" lon="2.14036">
        <ele>558</ele>
        <time>2019-02-10T09:25:07Z</time>
      </trkpt>
      <trkpt lat="43.4661" lon="2.14039">
        <ele>557</ele>
        <time>2019-02-10T09:25:12Z</time>
      </trkpt>
      <trkpt lat="43.46607" lon="2.1404">
        <ele>557</ele>
        <time>2019-02-10T09:25:13Z</time>
      </trkpt>
      <trkpt lat="43.46601" lon="2.14036">
        <ele>557</ele>
        <time>2019-02-10T09:25:16Z</time>
      </trkpt>
      <trkpt lat="43.46595" lon="2.14033">
        <ele>557</ele>
        <time>2019-02-10T09:25:18Z</time>
      </trkpt>
      <trkpt lat="43.46593" lon="2.14032">
        <ele>556</ele>
        <time>2019-02-10T09:25:19Z</time>
      </trkpt>
      <trkpt lat="43.46591" lon="2.14032">
        <ele>556</ele>
        <time>2019-02-10T09:25:20Z</time>
      </trkpt>
      <trkpt lat="43.46586" lon="2.1403">
        <ele>555</ele>
        <time>2019-02-10T09:25:23Z</time>
      </trkpt>
      <trkpt lat="43.46585" lon="2.14028">
        <ele>555</ele>
        <time>2019-02-10T09:25:24Z</time>
      </trkpt>
      <trkpt lat="43.46577" lon="2.14023">
        <ele>554</ele>
        <time>2019-02-10T09:25:28Z</time>
      </trkpt>
      <trkpt lat="43.46572" lon="2.14021">
        <ele>554</ele>
        <time>2019-02-10T09:25:30Z</time>
      </trkpt>
      <trkpt lat="43.46567" lon="2.14021">
        <ele>554</ele>
        <time>2019-02-10T09:25:32Z</time>
      </trkpt>
      <trkpt lat="43.46564" lon="2.14018">
        <ele>554</ele>
        <time>2019-02-10T09:25:34Z</time>
      </trkpt>
      <trkpt lat="43.46556" lon="2.14017">
        <ele>554</ele>
        <time>2019-02-10T09:25:37Z</time>
      </trkpt>
      <trkpt lat="43.46554" lon="2.14016">
        <ele>554</ele>
        <time>2019-02-10T09:25:38Z</time>
      </trkpt>
      <trkpt lat="43.46541" lon="2.14008">
        <ele>555</ele>
        <time>2019-02-10T09:25:45Z</time>
      </trkpt>
      <trkpt lat="43.46535" lon="2.14002">
        <ele>555</ele>
        <time>2019-02-10T09:25:49Z</time>
      </trkpt>
      <trkpt lat="43.46533" lon="2.14">
        <ele>555</ele>
        <time>2019-02-10T09:25:50Z</time>
      </trkpt>
      <trkpt lat="43.46527" lon="2.13998">
        <ele>556</ele>
        <time>2019-02-10T09:25:54Z</time>
      </trkpt>
      <trkpt lat="43.46524" lon="2.13996">
        <ele>556</ele>
        <time>2019-02-10T09:25:56Z</time>
      </trkpt>
      <trkpt lat="43.4652" lon="2.13993">
        <ele>556</ele>
        <time>2019-02-10T09:26:01Z</time>
      </trkpt>
      <trkpt lat="43.46518" lon="2.13993">
        <ele>557</ele>
        <time>2019-02-10T09:26:04Z</time>
      </trkpt>
      <trkpt lat="43.46518" lon="2.13993">
        <ele>557</ele>
        <time>2019-02-10T09:26:06Z</time>
      </trkpt>
      <trkpt lat="43.46515" lon="2.13993">
        <ele>557</ele>
        <time>2019-02-10T09:26:13Z</time>
      </trkpt>
      <trkpt lat="43.46513" lon="2.13991">
        <ele>558</ele>
        <time>2019-02-10T09:26:16Z</time>
      </trkpt>
      <trkpt lat="43.46511" lon="2.13986">
        <ele>558</ele>
        <time>2019-02-10T09:26:21Z</time>
      </trkpt>
      <trkpt lat="43.46509" lon="2.1398">
        <ele>558</ele>
        <time>2019-02-10T09:26:24Z</time>
      </trkpt>
      <trkpt lat="43.46505" lon="2.13976">
        <ele>559</ele>
        <time>2019-02-10T09:26:27Z</time>
      </trkpt>
      <trkpt lat="43.46503" lon="2.13973">
        <ele>560</ele>
        <time>2019-02-10T09:26:30Z</time>
      </trkpt>
      <trkpt lat="43.46502" lon="2.13972">
        <ele>560</ele>
        <time>2019-02-10T09:26:31Z</time>
      </trkpt>
      <trkpt lat="43.46498" lon="2.13966">
        <ele>561</ele>
        <time>2019-02-10T09:26:35Z</time>
      </trkpt>
      <trkpt lat="43.46495" lon="2.13964">
        <ele>561</ele>
        <time>2019-02-10T09:26:37Z</time>
      </trkpt>
      <trkpt lat="43.4649" lon="2.13961">
        <ele>562</ele>
        <time>2019-02-10T09:26:41Z</time>
      </trkpt>
      <trkpt lat="43.4649" lon="2.1396">
        <ele>562</ele>
        <time>2019-02-10T09:26:42Z</time>
      </trkpt>
      <trkpt lat="43.46488" lon="2.13959">
        <ele>563</ele>
        <time>2019-02-10T09:26:45Z</time>
      </trkpt>
      <trkpt lat="43.46483" lon="2.13956">
        <ele>565</ele>
        <time>2019-02-10T09:26:50Z</time>
      </trkpt>
      <trkpt lat="43.46482" lon="2.13956">
        <ele>565</ele>
        <time>2019-02-10T09:26:52Z</time>
      </trkpt>
      <trkpt lat="43.46481" lon="2.13955">
        <ele>565</ele>
        <time>2019-02-10T09:26:54Z</time>
      </trkpt>
      <trkpt lat="43.4648" lon="2.13953">
        <ele>566</ele>
        <time>2019-02-10T09:26:56Z</time>
      </trkpt>
      <trkpt lat="43.46476" lon="2.13953">
        <ele>566</ele>
        <time>2019-02-10T09:27:00Z</time>
      </trkpt>
      <trkpt lat="43.46473" lon="2.13955">
        <ele>567</ele>
        <time>2019-02-10T09:27:03Z</time>
      </trkpt>
      <trkpt lat="43.46469" lon="2.13957">
        <ele>568</ele>
        <time>2019-02-10T09:27:08Z</time>
      </trkpt>
      <trkpt lat="43.46469" lon="2.13957">
        <ele>568</ele>
        <time>2019-02-10T09:27:09Z</time>
      </trkpt>
      <trkpt lat="43.46467" lon="2.13958">
        <ele>568</ele>
        <time>2019-02-10T09:27:13Z</time>
      </trkpt>
      <trkpt lat="43.46466" lon="2.13958">
        <ele>568</ele>
        <time>2019-02-10T09:27:15Z</time>
      </trkpt>
      <trkpt lat="43.46464" lon="2.13959">
        <ele>568</ele>
        <time>2019-02-10T09:27:19Z</time>
      </trkpt>
      <trkpt lat="43.46463" lon="2.1396">
        <ele>569</ele>
        <time>2019-02-10T09:27:20Z</time>
      </trkpt>
      <trkpt lat="43.46461" lon="2.13963">
        <ele>569</ele>
        <time>2019-02-10T09:27:24Z</time>
      </trkpt>
      <trkpt lat="43.46457" lon="2.13966">
        <ele>570</ele>
        <time>2019-02-10T09:27:27Z</time>
      </trkpt>
      <trkpt lat="43.46453" lon="2.13968">
        <ele>570</ele>
        <time>2019-02-10T09:27:31Z</time>
      </trkpt>
      <trkpt lat="43.46452" lon="2.13968">
        <ele>570</ele>
        <time>2019-02-10T09:27:32Z</time>
      </trkpt>
      <trkpt lat="43.46451" lon="2.13969">
        <ele>570</ele>
        <time>2019-02-10T09:27:33Z</time>
      </trkpt>
      <trkpt lat="43.46447" lon="2.13974">
        <ele>571</ele>
        <time>2019-02-10T09:27:38Z</time>
      </trkpt>
      <trkpt lat="43.46445" lon="2.13976">
        <ele>571</ele>
        <time>2019-02-10T09:27:40Z</time>
      </trkpt>
      <trkpt lat="43.46444" lon="2.13977">
        <ele>572</ele>
        <time>2019-02-10T09:27:41Z</time>
      </trkpt>
      <trkpt lat="43.46436" lon="2.13987">
        <ele>572</ele>
        <time>2019-02-10T09:27:49Z</time>
      </trkpt>
      <trkpt lat="43.46432" lon="2.13991">
        <ele>572</ele>
        <time>2019-02-10T09:27:52Z</time>
      </trkpt>
      <trkpt lat="43.4643" lon="2.13993">
        <ele>573</ele>
        <time>2019-02-10T09:27:54Z</time>
      </trkpt>
      <trkpt lat="43.46429" lon="2.13997">
        <ele>574</ele>
        <time>2019-02-10T09:27:57Z</time>
      </trkpt>
      <trkpt lat="43.46427" lon="2.14">
        <ele>574</ele>
        <time>2019-02-10T09:28:00Z</time>
      </trkpt>
      <trkpt lat="43.46423" lon="2.14003">
        <ele>574</ele>
        <time>2019-02-10T09:28:05Z</time>
      </trkpt>
      <trkpt lat="43.4642" lon="2.14003">
        <ele>573</ele>
        <time>2019-02-10T09:29:15Z</time>
      </trkpt>
      <trkpt lat="43.46418" lon="2.14002">
        <ele>573</ele>
        <time>2019-02-10T09:29:16Z</time>
      </trkpt>
      <trkpt lat="43.46413" lon="2.14002">
        <ele>573</ele>
        <time>2019-02-10T09:29:21Z</time>
      </trkpt>
      <trkpt lat="43.46403" lon="2.14007">
        <ele>573</ele>
        <time>2019-02-10T09:29:27Z</time>
      </trkpt>
      <trkpt lat="43.46397" lon="2.14012">
        <ele>574</ele>
        <time>2019-02-10T09:29:32Z</time>
      </trkpt>
      <trkpt lat="43.46388" lon="2.14012">
        <ele>574</ele>
        <time>2019-02-10T09:29:37Z</time>
      </trkpt>
      <trkpt lat="43.46386" lon="2.14011">
        <ele>574</ele>
        <time>2019-02-10T09:29:38Z</time>
      </trkpt>
      <trkpt lat="43.46379" lon="2.1401">
        <ele>574</ele>
        <time>2019-02-10T09:29:41Z</time>
      </trkpt>
      <trkpt lat="43.46377" lon="2.14007">
        <ele>574</ele>
        <time>2019-02-10T09:29:43Z</time>
      </trkpt>
      <trkpt lat="43.46372" lon="2.14009">
        <ele>574</ele>
        <time>2019-02-10T09:29:47Z</time>
      </trkpt>
      <trkpt lat="43.46368" lon="2.14013">
        <ele>574</ele>
        <time>2019-02-10T09:29:50Z</time>
      </trkpt>
      <trkpt lat="43.46364" lon="2.14015">
        <ele>574</ele>
        <time>2019-02-10T09:29:52Z</time>
      </trkpt>
      <trkpt lat="43.46352" lon="2.14018">
        <ele>575</ele>
        <time>2019-02-10T09:29:58Z</time>
      </trkpt>
      <trkpt lat="43.46349" lon="2.14019">
        <ele>575</ele>
        <time>2019-02-10T09:29:59Z</time>
      </trkpt>
      <trkpt lat="43.46336" lon="2.1402">
        <ele>575</ele>
        <time>2019-02-10T09:30:05Z</time>
      </trkpt>
      <trkpt lat="43.46332" lon="2.14025">
        <ele>576</ele>
        <time>2019-02-10T09:30:08Z</time>
      </trkpt>
      <trkpt lat="43.46331" lon="2.14024">
        <ele>576</ele>
        <time>2019-02-10T09:30:09Z</time>
      </trkpt>
      <trkpt lat="43.46328" lon="2.1402">
        <ele>576</ele>
        <time>2019-02-10T09:30:14Z</time>
      </trkpt>
      <trkpt lat="43.46323" lon="2.14018">
        <ele>576</ele>
        <time>2019-02-10T09:30:20Z</time>
      </trkpt>
      <trkpt lat="43.46322" lon="2.14018">
        <ele>576</ele>
        <time>2019-02-10T09:30:22Z</time>
      </trkpt>
      <trkpt lat="43.46322" lon="2.14017">
        <ele>576</ele>
        <time>2019-02-10T09:30:24Z</time>
      </trkpt>
      <trkpt lat="43.4632" lon="2.14018">
        <ele>576</ele>
        <time>2019-02-10T09:30:29Z</time>
      </trkpt>
      <trkpt lat="43.46319" lon="2.14018">
        <ele>576</ele>
        <time>2019-02-10T09:30:31Z</time>
      </trkpt>
      <trkpt lat="43.46317" lon="2.14016">
        <ele>576</ele>
        <time>2019-02-10T09:30:35Z</time>
      </trkpt>
      <trkpt lat="43.46315" lon="2.14015">
        <ele>576</ele>
        <time>2019-02-10T09:30:38Z</time>
      </trkpt>
      <trkpt lat="43.46314" lon="2.14013">
        <ele>577</ele>
        <time>2019-02-10T09:30:43Z</time>
      </trkpt>
      <trkpt lat="43.46312" lon="2.14012">
        <ele>577</ele>
        <time>2019-02-10T09:31:02Z</time>
      </trkpt>
      <trkpt lat="43.46311" lon="2.14012">
        <ele>577</ele>
        <time>2019-02-10T09:31:03Z</time>
      </trkpt>
      <trkpt lat="43.46302" lon="2.14009">
        <ele>576</ele>
        <time>2019-02-10T09:31:09Z</time>
      </trkpt>
      <trkpt lat="43.463" lon="2.14009">
        <ele>577</ele>
        <time>2019-02-10T09:31:10Z</time>
      </trkpt>
      <trkpt lat="43.46291" lon="2.14007">
        <ele>577</ele>
        <time>2019-02-10T09:31:15Z</time>
      </trkpt>
      <trkpt lat="43.46282" lon="2.14006">
        <ele>576</ele>
        <time>2019-02-10T09:31:19Z</time>
      </trkpt>
      <trkpt lat="43.46268" lon="2.14007">
        <ele>575</ele>
        <time>2019-02-10T09:31:24Z</time>
      </trkpt>
      <trkpt lat="43.46265" lon="2.14007">
        <ele>575</ele>
        <time>2019-02-10T09:31:25Z</time>
      </trkpt>
      <trkpt lat="43.46258" lon="2.14007">
        <ele>575</ele>
        <time>2019-02-10T09:31:27Z</time>
      </trkpt>
      <trkpt lat="43.4624" lon="2.14008">
        <ele>574</ele>
        <time>2019-02-10T09:31:32Z</time>
      </trkpt>
      <trkpt lat="43.46233" lon="2.14009">
        <ele>574</ele>
        <time>2019-02-10T09:31:34Z</time>
      </trkpt>
      <trkpt lat="43.46216" lon="2.1401">
        <ele>573</ele>
        <time>2019-02-10T09:31:41Z</time>
      </trkpt>
      <trkpt lat="43.46195" lon="2.14006">
        <ele>573</ele>
        <time>2019-02-10T09:31:50Z</time>
      </trkpt>
      <trkpt lat="43.46181" lon="2.13995">
        <ele>574</ele>
        <time>2019-02-10T09:31:57Z</time>
      </trkpt>
      <trkpt lat="43.46167" lon="2.13983">
        <ele>573</ele>
        <time>2019-02-10T09:32:04Z</time>
      </trkpt>
      <trkpt lat="43.4615" lon="2.13979">
        <ele>574</ele>
        <time>2019-02-10T09:32:11Z</time>
      </trkpt>
      <trkpt lat="43.46144" lon="2.13979">
        <ele>575</ele>
        <time>2019-02-10T09:32:14Z</time>
      </trkpt>
      <trkpt lat="43.46133" lon="2.13981">
        <ele>576</ele>
        <time>2019-02-10T09:32:19Z</time>
      </trkpt>
      <trkpt lat="43.46129" lon="2.13983">
        <ele>576</ele>
        <time>2019-02-10T09:32:21Z</time>
      </trkpt>
      <trkpt lat="43.46117" lon="2.13984">
        <ele>577</ele>
        <time>2019-02-10T09:32:27Z</time>
      </trkpt>
      <trkpt lat="43.46105" lon="2.13981">
        <ele>577</ele>
        <time>2019-02-10T09:32:32Z</time>
      </trkpt>
      <trkpt lat="43.46097" lon="2.13979">
        <ele>578</ele>
        <time>2019-02-10T09:32:36Z</time>
      </trkpt>
      <trkpt lat="43.46091" lon="2.13977">
        <ele>578</ele>
        <time>2019-02-10T09:32:39Z</time>
      </trkpt>
      <trkpt lat="43.46079" lon="2.13972">
        <ele>579</ele>
        <time>2019-02-10T09:32:46Z</time>
      </trkpt>
      <trkpt lat="43.46072" lon="2.1397">
        <ele>581</ele>
        <time>2019-02-10T09:32:50Z</time>
      </trkpt>
      <trkpt lat="43.46066" lon="2.13968">
        <ele>581</ele>
        <time>2019-02-10T09:32:54Z</time>
      </trkpt>
      <trkpt lat="43.46062" lon="2.13967">
        <ele>582</ele>
        <time>2019-02-10T09:32:56Z</time>
      </trkpt>
      <trkpt lat="43.46053" lon="2.13964">
        <ele>583</ele>
        <time>2019-02-10T09:33:02Z</time>
      </trkpt>
      <trkpt lat="43.46049" lon="2.13963">
        <ele>584</ele>
        <time>2019-02-10T09:33:05Z</time>
      </trkpt>
      <trkpt lat="43.46047" lon="2.13963">
        <ele>584</ele>
        <time>2019-02-10T09:33:06Z</time>
      </trkpt>
      <trkpt lat="43.4604" lon="2.13961">
        <ele>585</ele>
        <time>2019-02-10T09:33:11Z</time>
      </trkpt>
      <trkpt lat="43.46035" lon="2.13958">
        <ele>586</ele>
        <time>2019-02-10T09:33:15Z</time>
      </trkpt>
      <trkpt lat="43.46032" lon="2.13957">
        <ele>586</ele>
        <time>2019-02-10T09:33:17Z</time>
      </trkpt>
      <trkpt lat="43.46027" lon="2.13953">
        <ele>587</ele>
        <time>2019-02-10T09:33:21Z</time>
      </trkpt>
      <trkpt lat="43.46026" lon="2.13953">
        <ele>588</ele>
        <time>2019-02-10T09:33:22Z</time>
      </trkpt>
      <trkpt lat="43.4602" lon="2.13949">
        <ele>589</ele>
        <time>2019-02-10T09:33:27Z</time>
      </trkpt>
      <trkpt lat="43.46017" lon="2.13947">
        <ele>589</ele>
        <time>2019-02-10T09:33:30Z</time>
      </trkpt>
      <trkpt lat="43.46016" lon="2.13946">
        <ele>590</ele>
        <time>2019-02-10T09:33:31Z</time>
      </trkpt>
      <trkpt lat="43.46012" lon="2.13943">
        <ele>590</ele>
        <time>2019-02-10T09:33:35Z</time>
      </trkpt>
      <trkpt lat="43.46011" lon="2.13942">
        <ele>591</ele>
        <time>2019-02-10T09:33:36Z</time>
      </trkpt>
      <trkpt lat="43.46009" lon="2.13942">
        <ele>591</ele>
        <time>2019-02-10T09:33:38Z</time>
      </trkpt>
      <trkpt lat="43.46008" lon="2.13941">
        <ele>592</ele>
        <time>2019-02-10T09:33:39Z</time>
      </trkpt>
      <trkpt lat="43.46005" lon="2.1394">
        <ele>593</ele>
        <time>2019-02-10T09:33:43Z</time>
      </trkpt>
      <trkpt lat="43.46003" lon="2.1394">
        <ele>593</ele>
        <time>2019-02-10T09:33:44Z</time>
      </trkpt>
      <trkpt lat="43.45998" lon="2.13938">
        <ele>594</ele>
        <time>2019-02-10T09:33:49Z</time>
      </trkpt>
      <trkpt lat="43.45996" lon="2.13937">
        <ele>594</ele>
        <time>2019-02-10T09:33:51Z</time>
      </trkpt>
      <trkpt lat="43.45991" lon="2.13936">
        <ele>595</ele>
        <time>2019-02-10T09:33:55Z</time>
      </trkpt>
      <trkpt lat="43.4599" lon="2.13935">
        <ele>595</ele>
        <time>2019-02-10T09:33:56Z</time>
      </trkpt>
      <trkpt lat="43.45986" lon="2.13933">
        <ele>595</ele>
        <time>2019-02-10T09:33:59Z</time>
      </trkpt>
      <trkpt lat="43.45983" lon="2.13931">
        <ele>596</ele>
        <time>2019-02-10T09:34:02Z</time>
      </trkpt>
      <trkpt lat="43.4598" lon="2.13931">
        <ele>597</ele>
        <time>2019-02-10T09:34:05Z</time>
      </trkpt>
      <trkpt lat="43.45978" lon="2.1393">
        <ele>597</ele>
        <time>2019-02-10T09:34:07Z</time>
      </trkpt>
      <trkpt lat="43.45971" lon="2.13927">
        <ele>598</ele>
        <time>2019-02-10T09:34:13Z</time>
      </trkpt>
      <trkpt lat="43.4597" lon="2.13927">
        <ele>598</ele>
        <time>2019-02-10T09:34:14Z</time>
      </trkpt>
      <trkpt lat="43.4596" lon="2.13921">
        <ele>599</ele>
        <time>2019-02-10T09:34:22Z</time>
      </trkpt>
      <trkpt lat="43.45958" lon="2.13919">
        <ele>599</ele>
        <time>2019-02-10T09:34:24Z</time>
      </trkpt>
      <trkpt lat="43.4595" lon="2.13912">
        <ele>600</ele>
        <time>2019-02-10T09:34:31Z</time>
      </trkpt>
      <trkpt lat="43.45943" lon="2.13907">
        <ele>601</ele>
        <time>2019-02-10T09:34:36Z</time>
      </trkpt>
      <trkpt lat="43.45938" lon="2.13903">
        <ele>601</ele>
        <time>2019-02-10T09:34:40Z</time>
      </trkpt>
      <trkpt lat="43.45929" lon="2.13895">
        <ele>601</ele>
        <time>2019-02-10T09:34:47Z</time>
      </trkpt>
      <trkpt lat="43.45922" lon="2.13887">
        <ele>602</ele>
        <time>2019-02-10T09:34:54Z</time>
      </trkpt>
      <trkpt lat="43.4592" lon="2.13885">
        <ele>603</ele>
        <time>2019-02-10T09:34:56Z</time>
      </trkpt>
      <trkpt lat="43.45914" lon="2.13882">
        <ele>603</ele>
        <time>2019-02-10T09:35:01Z</time>
      </trkpt>
      <trkpt lat="43.45909" lon="2.13884">
        <ele>604</ele>
        <time>2019-02-10T09:35:05Z</time>
      </trkpt>
      <trkpt lat="43.45907" lon="2.13886">
        <ele>604</ele>
        <time>2019-02-10T09:35:07Z</time>
      </trkpt>
      <trkpt lat="43.45904" lon="2.13889">
        <ele>605</ele>
        <time>2019-02-10T09:35:11Z</time>
      </trkpt>
      <trkpt lat="43.45903" lon="2.1389">
        <ele>605</ele>
        <time>2019-02-10T09:35:13Z</time>
      </trkpt>
      <trkpt lat="43.45898" lon="2.13892">
        <ele>606</ele>
        <time>2019-02-10T09:35:20Z</time>
      </trkpt>
      <trkpt lat="43.45893" lon="2.13889">
        <ele>607</ele>
        <time>2019-02-10T09:35:26Z</time>
      </trkpt>
      <trkpt lat="43.45892" lon="2.13888">
        <ele>607</ele>
        <time>2019-02-10T09:35:28Z</time>
      </trkpt>
      <trkpt lat="43.4589" lon="2.13889">
        <ele>607</ele>
        <time>2019-02-10T09:35:31Z</time>
      </trkpt>
      <trkpt lat="43.45888" lon="2.13888">
        <ele>607</ele>
        <time>2019-02-10T09:35:48Z</time>
      </trkpt>
      <trkpt lat="43.45886" lon="2.13885">
        <ele>607</ele>
        <time>2019-02-10T09:35:50Z</time>
      </trkpt>
      <trkpt lat="43.45878" lon="2.1388">
        <ele>607</ele>
        <time>2019-02-10T09:35:55Z</time>
      </trkpt>
      <trkpt lat="43.45863" lon="2.13883">
        <ele>608</ele>
        <time>2019-02-10T09:36:02Z</time>
      </trkpt>
      <trkpt lat="43.45854" lon="2.13885">
        <ele>608</ele>
        <time>2019-02-10T09:36:07Z</time>
      </trkpt>
      <trkpt lat="43.4585" lon="2.13886">
        <ele>608</ele>
        <time>2019-02-10T09:36:09Z</time>
      </trkpt>
      <trkpt lat="43.45839" lon="2.13891">
        <ele>609</ele>
        <time>2019-02-10T09:36:16Z</time>
      </trkpt>
      <trkpt lat="43.45827" lon="2.13898">
        <ele>610</ele>
        <time>2019-02-10T09:36:24Z</time>
      </trkpt>
      <trkpt lat="43.45817" lon="2.13903">
        <ele>611</ele>
        <time>2019-02-10T09:36:31Z</time>
      </trkpt>
      <trkpt lat="43.45813" lon="2.13905">
        <ele>611</ele>
        <time>2019-02-10T09:36:33Z</time>
      </trkpt>
      <trkpt lat="43.45806" lon="2.13909">
        <ele>612</ele>
        <time>2019-02-10T09:36:38Z</time>
      </trkpt>
      <trkpt lat="43.45803" lon="2.1391">
        <ele>612</ele>
        <time>2019-02-10T09:36:40Z</time>
      </trkpt>
      <trkpt lat="43.45796" lon="2.13914">
        <ele>613</ele>
        <time>2019-02-10T09:36:45Z</time>
      </trkpt>
      <trkpt lat="43.4579" lon="2.13917">
        <ele>614</ele>
        <time>2019-02-10T09:36:49Z</time>
      </trkpt>
      <trkpt lat="43.45786" lon="2.13919">
        <ele>614</ele>
        <time>2019-02-10T09:36:52Z</time>
      </trkpt>
      <trkpt lat="43.4578" lon="2.13923">
        <ele>615</ele>
        <time>2019-02-10T09:36:57Z</time>
      </trkpt>
      <trkpt lat="43.45777" lon="2.13924">
        <ele>615</ele>
        <time>2019-02-10T09:36:59Z</time>
      </trkpt>
      <trkpt lat="43.45768" lon="2.13929">
        <ele>616</ele>
        <time>2019-02-10T09:37:06Z</time>
      </trkpt>
      <trkpt lat="43.45766" lon="2.13929">
        <ele>616</ele>
        <time>2019-02-10T09:37:07Z</time>
      </trkpt>
      <trkpt lat="43.45763" lon="2.13932">
        <ele>617</ele>
        <time>2019-02-10T09:37:10Z</time>
      </trkpt>
      <trkpt lat="43.45757" lon="2.13935">
        <ele>618</ele>
        <time>2019-02-10T09:37:14Z</time>
      </trkpt>
      <trkpt lat="43.45752" lon="2.13936">
        <ele>618</ele>
        <time>2019-02-10T09:37:18Z</time>
      </trkpt>
      <trkpt lat="43.45748" lon="2.13937">
        <ele>619</ele>
        <time>2019-02-10T09:37:21Z</time>
      </trkpt>
      <trkpt lat="43.45745" lon="2.13938">
        <ele>619</ele>
        <time>2019-02-10T09:37:23Z</time>
      </trkpt>
      <trkpt lat="43.45737" lon="2.1394">
        <ele>620</ele>
        <time>2019-02-10T09:37:29Z</time>
      </trkpt>
      <trkpt lat="43.45732" lon="2.1394">
        <ele>620</ele>
        <time>2019-02-10T09:37:33Z</time>
      </trkpt>
      <trkpt lat="43.45729" lon="2.13941">
        <ele>621</ele>
        <time>2019-02-10T09:37:36Z</time>
      </trkpt>
      <trkpt lat="43.45724" lon="2.13941">
        <ele>621</ele>
        <time>2019-02-10T09:37:40Z</time>
      </trkpt>
      <trkpt lat="43.4572" lon="2.13943">
        <ele>622</ele>
        <time>2019-02-10T09:37:44Z</time>
      </trkpt>
      <trkpt lat="43.45716" lon="2.13945">
        <ele>623</ele>
        <time>2019-02-10T09:37:48Z</time>
      </trkpt>
      <trkpt lat="43.45713" lon="2.13946">
        <ele>623</ele>
        <time>2019-02-10T09:37:51Z</time>
      </trkpt>
      <trkpt lat="43.45706" lon="2.13947">
        <ele>623</ele>
        <time>2019-02-10T09:37:57Z</time>
      </trkpt>
      <trkpt lat="43.45705" lon="2.13946">
        <ele>624</ele>
        <time>2019-02-10T09:37:58Z</time>
      </trkpt>
      <trkpt lat="43.45703" lon="2.13947">
        <ele>624</ele>
        <time>2019-02-10T09:38:03Z</time>
      </trkpt>
      <trkpt lat="43.45703" lon="2.13948">
        <ele>624</ele>
        <time>2019-02-10T09:38:06Z</time>
      </trkpt>
      <trkpt lat="43.457" lon="2.13952">
        <ele>624</ele>
        <time>2019-02-10T09:38:12Z</time>
      </trkpt>
      <trkpt lat="43.457" lon="2.13953">
        <ele>625</ele>
        <time>2019-02-10T09:38:14Z</time>
      </trkpt>
      <trkpt lat="43.45699" lon="2.13956">
        <ele>625</ele>
        <time>2019-02-10T09:38:20Z</time>
      </trkpt>
      <trkpt lat="43.45698" lon="2.13956">
        <ele>625</ele>
        <time>2019-02-10T09:38:21Z</time>
      </trkpt>
      <trkpt lat="43.45697" lon="2.13956">
        <ele>626</ele>
        <time>2019-02-10T09:38:24Z</time>
      </trkpt>
      <trkpt lat="43.45694" lon="2.13954">
        <ele>626</ele>
        <time>2019-02-10T09:38:30Z</time>
      </trkpt>
      <trkpt lat="43.45693" lon="2.13954">
        <ele>626</ele>
        <time>2019-02-10T09:38:31Z</time>
      </trkpt>
      <trkpt lat="43.45691" lon="2.13958">
        <ele>627</ele>
        <time>2019-02-10T09:38:39Z</time>
      </trkpt>
      <trkpt lat="43.45691" lon="2.13962">
        <ele>627</ele>
        <time>2019-02-10T09:39:13Z</time>
      </trkpt>
      <trkpt lat="43.45692" lon="2.13963">
        <ele>627</ele>
        <time>2019-02-10T09:39:14Z</time>
      </trkpt>
      <trkpt lat="43.45694" lon="2.13966">
        <ele>627</ele>
        <time>2019-02-10T09:39:17Z</time>
      </trkpt>
      <trkpt lat="43.45695" lon="2.13973">
        <ele>628</ele>
        <time>2019-02-10T09:39:21Z</time>
      </trkpt>
      <trkpt lat="43.45696" lon="2.13976">
        <ele>628</ele>
        <time>2019-02-10T09:39:23Z</time>
      </trkpt>
      <trkpt lat="43.45698" lon="2.13979">
        <ele>628</ele>
        <time>2019-02-10T09:39:25Z</time>
      </trkpt>
      <trkpt lat="43.45698" lon="2.1398">
        <ele>628</ele>
        <time>2019-02-10T09:39:26Z</time>
      </trkpt>
      <trkpt lat="43.457" lon="2.13983">
        <ele>628</ele>
        <time>2019-02-10T09:39:28Z</time>
      </trkpt>
      <trkpt lat="43.457" lon="2.13984">
        <ele>628</ele>
        <time>2019-02-10T09:39:29Z</time>
      </trkpt>
      <trkpt lat="43.45703" lon="2.1399">
        <ele>629</ele>
        <time>2019-02-10T09:39:32Z</time>
      </trkpt>
      <trkpt lat="43.45707" lon="2.13994">
        <ele>629</ele>
        <time>2019-02-10T09:39:35Z</time>
      </trkpt>
      <trkpt lat="43.45713" lon="2.14005">
        <ele>629</ele>
        <time>2019-02-10T09:39:40Z</time>
      </trkpt>
      <trkpt lat="43.45715" lon="2.14009">
        <ele>630</ele>
        <time>2019-02-10T09:39:42Z</time>
      </trkpt>
      <trkpt lat="43.45726" lon="2.14026">
        <ele>630</ele>
        <time>2019-02-10T09:39:50Z</time>
      </trkpt>
      <trkpt lat="43.45729" lon="2.1403">
        <ele>630</ele>
        <time>2019-02-10T09:39:52Z</time>
      </trkpt>
      <trkpt lat="43.45734" lon="2.14039">
        <ele>631</ele>
        <time>2019-02-10T09:39:56Z</time>
      </trkpt>
      <trkpt lat="43.45737" lon="2.14048">
        <ele>631</ele>
        <time>2019-02-10T09:39:59Z</time>
      </trkpt>
      <trkpt lat="43.45741" lon="2.14061">
        <ele>632</ele>
        <time>2019-02-10T09:40:04Z</time>
      </trkpt>
      <trkpt lat="43.4574" lon="2.14071">
        <ele>632</ele>
        <time>2019-02-10T09:40:08Z</time>
      </trkpt>
      <trkpt lat="43.4574" lon="2.14075">
        <ele>633</ele>
        <time>2019-02-10T09:40:10Z</time>
      </trkpt>
      <trkpt lat="43.45737" lon="2.14083">
        <ele>633</ele>
        <time>2019-02-10T09:40:14Z</time>
      </trkpt>
      <trkpt lat="43.45734" lon="2.14086">
        <ele>633</ele>
        <time>2019-02-10T09:40:16Z</time>
      </trkpt>
      <trkpt lat="43.45729" lon="2.1409">
        <ele>634</ele>
        <time>2019-02-10T09:40:19Z</time>
      </trkpt>
      <trkpt lat="43.45723" lon="2.14093">
        <ele>634</ele>
        <time>2019-02-10T09:40:22Z</time>
      </trkpt>
      <trkpt lat="43.45713" lon="2.14095">
        <ele>635</ele>
        <time>2019-02-10T09:40:27Z</time>
      </trkpt>
      <trkpt lat="43.45703" lon="2.14095">
        <ele>637</ele>
        <time>2019-02-10T09:40:32Z</time>
      </trkpt>
      <trkpt lat="43.45699" lon="2.14094">
        <ele>637</ele>
        <time>2019-02-10T09:40:35Z</time>
      </trkpt>
      <trkpt lat="43.45689" lon="2.14086">
        <ele>638</ele>
        <time>2019-02-10T09:40:41Z</time>
      </trkpt>
      <trkpt lat="43.45687" lon="2.14084">
        <ele>638</ele>
        <time>2019-02-10T09:40:42Z</time>
      </trkpt>
      <trkpt lat="43.45681" lon="2.14073">
        <ele>639</ele>
        <time>2019-02-10T09:40:47Z</time>
      </trkpt>
      <trkpt lat="43.45678" lon="2.14066">
        <ele>639</ele>
        <time>2019-02-10T09:40:50Z</time>
      </trkpt>
      <trkpt lat="43.45666" lon="2.14047">
        <ele>640</ele>
        <time>2019-02-10T09:40:58Z</time>
      </trkpt>
      <trkpt lat="43.45658" lon="2.14037">
        <ele>641</ele>
        <time>2019-02-10T09:41:03Z</time>
      </trkpt>
      <trkpt lat="43.45653" lon="2.14033">
        <ele>641</ele>
        <time>2019-02-10T09:41:06Z</time>
      </trkpt>
      <trkpt lat="43.45642" lon="2.14025">
        <ele>642</ele>
        <time>2019-02-10T09:41:12Z</time>
      </trkpt>
      <trkpt lat="43.4564" lon="2.14024">
        <ele>642</ele>
        <time>2019-02-10T09:41:13Z</time>
      </trkpt>
      <trkpt lat="43.45638" lon="2.14024">
        <ele>642</ele>
        <time>2019-02-10T09:41:14Z</time>
      </trkpt>
      <trkpt lat="43.45635" lon="2.14029">
        <ele>642</ele>
        <time>2019-02-10T09:41:17Z</time>
      </trkpt>
      <trkpt lat="43.45634" lon="2.14043">
        <ele>643</ele>
        <time>2019-02-10T09:41:22Z</time>
      </trkpt>
      <trkpt lat="43.45634" lon="2.14049">
        <ele>643</ele>
        <time>2019-02-10T09:41:24Z</time>
      </trkpt>
      <trkpt lat="43.45634" lon="2.1406">
        <ele>644</ele>
        <time>2019-02-10T09:41:28Z</time>
      </trkpt>
      <trkpt lat="43.45634" lon="2.14071">
        <ele>645</ele>
        <time>2019-02-10T09:41:32Z</time>
      </trkpt>
      <trkpt lat="43.45633" lon="2.14077">
        <ele>645</ele>
        <time>2019-02-10T09:41:34Z</time>
      </trkpt>
      <trkpt lat="43.45632" lon="2.1409">
        <ele>646</ele>
        <time>2019-02-10T09:41:39Z</time>
      </trkpt>
      <trkpt lat="43.45632" lon="2.14093">
        <ele>646</ele>
        <time>2019-02-10T09:41:40Z</time>
      </trkpt>
      <trkpt lat="43.4563" lon="2.14101">
        <ele>647</ele>
        <time>2019-02-10T09:41:43Z</time>
      </trkpt>
      <trkpt lat="43.4563" lon="2.14106">
        <ele>647</ele>
        <time>2019-02-10T09:41:45Z</time>
      </trkpt>
      <trkpt lat="43.4563" lon="2.14119">
        <ele>647</ele>
        <time>2019-02-10T09:41:50Z</time>
      </trkpt>
      <trkpt lat="43.4563" lon="2.14124">
        <ele>648</ele>
        <time>2019-02-10T09:41:52Z</time>
      </trkpt>
      <trkpt lat="43.45632" lon="2.14137">
        <ele>648</ele>
        <time>2019-02-10T09:41:57Z</time>
      </trkpt>
      <trkpt lat="43.45632" lon="2.14139">
        <ele>649</ele>
        <time>2019-02-10T09:41:58Z</time>
      </trkpt>
      <trkpt lat="43.45632" lon="2.14153">
        <ele>649</ele>
        <time>2019-02-10T09:42:03Z</time>
      </trkpt>
      <trkpt lat="43.45633" lon="2.14159">
        <ele>650</ele>
        <time>2019-02-10T09:42:05Z</time>
      </trkpt>
      <trkpt lat="43.45633" lon="2.14167">
        <ele>650</ele>
        <time>2019-02-10T09:42:08Z</time>
      </trkpt>
      <trkpt lat="43.45634" lon="2.14172">
        <ele>651</ele>
        <time>2019-02-10T09:42:10Z</time>
      </trkpt>
      <trkpt lat="43.45633" lon="2.14183">
        <ele>651</ele>
        <time>2019-02-10T09:42:14Z</time>
      </trkpt>
      <trkpt lat="43.45634" lon="2.14186">
        <ele>652</ele>
        <time>2019-02-10T09:42:15Z</time>
      </trkpt>
      <trkpt lat="43.45634" lon="2.14188">
        <ele>652</ele>
        <time>2019-02-10T09:42:16Z</time>
      </trkpt>
      <trkpt lat="43.45634" lon="2.142">
        <ele>652</ele>
        <time>2019-02-10T09:42:21Z</time>
      </trkpt>
      <trkpt lat="43.45635" lon="2.14206">
        <ele>653</ele>
        <time>2019-02-10T09:42:23Z</time>
      </trkpt>
      <trkpt lat="43.45635" lon="2.14208">
        <ele>653</ele>
        <time>2019-02-10T09:42:24Z</time>
      </trkpt>
      <trkpt lat="43.45635" lon="2.14213">
        <ele>653</ele>
        <time>2019-02-10T09:42:26Z</time>
      </trkpt>
      <trkpt lat="43.45636" lon="2.14221">
        <ele>653</ele>
        <time>2019-02-10T09:42:29Z</time>
      </trkpt>
      <trkpt lat="43.45636" lon="2.14223">
        <ele>654</ele>
        <time>2019-02-10T09:42:30Z</time>
      </trkpt>
      <trkpt lat="43.45636" lon="2.14226">
        <ele>654</ele>
        <time>2019-02-10T09:42:31Z</time>
      </trkpt>
      <trkpt lat="43.45636" lon="2.14238">
        <ele>655</ele>
        <time>2019-02-10T09:42:35Z</time>
      </trkpt>
      <trkpt lat="43.45636" lon="2.14244">
        <ele>655</ele>
        <time>2019-02-10T09:42:37Z</time>
      </trkpt>
      <trkpt lat="43.45636" lon="2.14259">
        <ele>656</ele>
        <time>2019-02-10T09:42:42Z</time>
      </trkpt>
      <trkpt lat="43.45636" lon="2.14262">
        <ele>656</ele>
        <time>2019-02-10T09:42:43Z</time>
      </trkpt>
      <trkpt lat="43.45637" lon="2.14279">
        <ele>657</ele>
        <time>2019-02-10T09:42:49Z</time>
      </trkpt>
      <trkpt lat="43.45637" lon="2.14294">
        <ele>658</ele>
        <time>2019-02-10T09:42:55Z</time>
      </trkpt>
      <trkpt lat="43.45638" lon="2.14304">
        <ele>658</ele>
        <time>2019-02-10T09:42:59Z</time>
      </trkpt>
      <trkpt lat="43.45637" lon="2.1431">
        <ele>659</ele>
        <time>2019-02-10T09:43:01Z</time>
      </trkpt>
      <trkpt lat="43.45635" lon="2.14324">
        <ele>659</ele>
        <time>2019-02-10T09:43:06Z</time>
      </trkpt>
      <trkpt lat="43.45635" lon="2.1433">
        <ele>659</ele>
        <time>2019-02-10T09:43:08Z</time>
      </trkpt>
      <trkpt lat="43.45634" lon="2.1434">
        <ele>660</ele>
        <time>2019-02-10T09:43:12Z</time>
      </trkpt>
      <trkpt lat="43.45633" lon="2.14344">
        <ele>660</ele>
        <time>2019-02-10T09:43:14Z</time>
      </trkpt>
      <trkpt lat="43.45632" lon="2.14349">
        <ele>660</ele>
        <time>2019-02-10T09:43:16Z</time>
      </trkpt>
      <trkpt lat="43.45631" lon="2.14352">
        <ele>661</ele>
        <time>2019-02-10T09:43:17Z</time>
      </trkpt>
      <trkpt lat="43.45631" lon="2.14356">
        <ele>661</ele>
        <time>2019-02-10T09:43:19Z</time>
      </trkpt>
      <trkpt lat="43.45631" lon="2.14366">
        <ele>662</ele>
        <time>2019-02-10T09:43:23Z</time>
      </trkpt>
      <trkpt lat="43.45631" lon="2.14377">
        <ele>663</ele>
        <time>2019-02-10T09:43:28Z</time>
      </trkpt>
      <trkpt lat="43.45629" lon="2.1439">
        <ele>663</ele>
        <time>2019-02-10T09:43:33Z</time>
      </trkpt>
      <trkpt lat="43.45628" lon="2.14393">
        <ele>663</ele>
        <time>2019-02-10T09:43:34Z</time>
      </trkpt>
      <trkpt lat="43.45626" lon="2.14404">
        <ele>664</ele>
        <time>2019-02-10T09:43:38Z</time>
      </trkpt>
      <trkpt lat="43.45623" lon="2.14411">
        <ele>664</ele>
        <time>2019-02-10T09:43:40Z</time>
      </trkpt>
      <trkpt lat="43.45623" lon="2.14417">
        <ele>664</ele>
        <time>2019-02-10T09:43:42Z</time>
      </trkpt>
      <trkpt lat="43.45621" lon="2.14424">
        <ele>665</ele>
        <time>2019-02-10T09:43:45Z</time>
      </trkpt>
      <trkpt lat="43.45621" lon="2.14426">
        <ele>665</ele>
        <time>2019-02-10T09:43:46Z</time>
      </trkpt>
      <trkpt lat="43.4562" lon="2.14434">
        <ele>666</ele>
        <time>2019-02-10T09:43:49Z</time>
      </trkpt>
      <trkpt lat="43.4562" lon="2.14439">
        <ele>666</ele>
        <time>2019-02-10T09:43:51Z</time>
      </trkpt>
      <trkpt lat="43.4562" lon="2.14444">
        <ele>667</ele>
        <time>2019-02-10T09:43:53Z</time>
      </trkpt>
      <trkpt lat="43.4562" lon="2.14446">
        <ele>667</ele>
        <time>2019-02-10T09:43:54Z</time>
      </trkpt>
      <trkpt lat="43.4562" lon="2.14452">
        <ele>667</ele>
        <time>2019-02-10T09:43:56Z</time>
      </trkpt>
      <trkpt lat="43.45618" lon="2.14472">
        <ele>668</ele>
        <time>2019-02-10T09:44:02Z</time>
      </trkpt>
      <trkpt lat="43.45616" lon="2.14485">
        <ele>669</ele>
        <time>2019-02-10T09:44:06Z</time>
      </trkpt>
      <trkpt lat="43.45616" lon="2.14488">
        <ele>669</ele>
        <time>2019-02-10T09:44:07Z</time>
      </trkpt>
      <trkpt lat="43.45616" lon="2.14492">
        <ele>669</ele>
        <time>2019-02-10T09:44:08Z</time>
      </trkpt>
      <trkpt lat="43.45615" lon="2.14509">
        <ele>670</ele>
        <time>2019-02-10T09:44:13Z</time>
      </trkpt>
      <trkpt lat="43.45614" lon="2.14519">
        <ele>671</ele>
        <time>2019-02-10T09:44:16Z</time>
      </trkpt>
      <trkpt lat="43.45614" lon="2.14528">
        <ele>671</ele>
        <time>2019-02-10T09:44:19Z</time>
      </trkpt>
      <trkpt lat="43.45613" lon="2.14547">
        <ele>672</ele>
        <time>2019-02-10T09:44:25Z</time>
      </trkpt>
      <trkpt lat="43.45613" lon="2.14549">
        <ele>672</ele>
        <time>2019-02-10T09:44:26Z</time>
      </trkpt>
      <trkpt lat="43.45612" lon="2.14567">
        <ele>673</ele>
        <time>2019-02-10T09:44:32Z</time>
      </trkpt>
      <trkpt lat="43.45611" lon="2.14587">
        <ele>674</ele>
        <time>2019-02-10T09:44:39Z</time>
      </trkpt>
      <trkpt lat="43.4561" lon="2.14601">
        <ele>675</ele>
        <time>2019-02-10T09:44:44Z</time>
      </trkpt>
      <trkpt lat="43.4561" lon="2.14604">
        <ele>675</ele>
        <time>2019-02-10T09:44:45Z</time>
      </trkpt>
      <trkpt lat="43.45609" lon="2.14623">
        <ele>676</ele>
        <time>2019-02-10T09:44:52Z</time>
      </trkpt>
      <trkpt lat="43.45609" lon="2.14627">
        <ele>676</ele>
        <time>2019-02-10T09:44:54Z</time>
      </trkpt>
      <trkpt lat="43.45609" lon="2.1463">
        <ele>676</ele>
        <time>2019-02-10T09:44:55Z</time>
      </trkpt>
      <trkpt lat="43.45606" lon="2.14637">
        <ele>677</ele>
        <time>2019-02-10T09:44:58Z</time>
      </trkpt>
      <trkpt lat="43.45605" lon="2.14643">
        <ele>677</ele>
        <time>2019-02-10T09:45:01Z</time>
      </trkpt>
      <trkpt lat="43.45605" lon="2.14648">
        <ele>678</ele>
        <time>2019-02-10T09:45:04Z</time>
      </trkpt>
      <trkpt lat="43.45603" lon="2.14653">
        <ele>678</ele>
        <time>2019-02-10T09:45:06Z</time>
      </trkpt>
      <trkpt lat="43.45598" lon="2.14664">
        <ele>679</ele>
        <time>2019-02-10T09:45:10Z</time>
      </trkpt>
      <trkpt lat="43.45596" lon="2.14671">
        <ele>680</ele>
        <time>2019-02-10T09:45:12Z</time>
      </trkpt>
      <trkpt lat="43.45596" lon="2.1468">
        <ele>680</ele>
        <time>2019-02-10T09:45:15Z</time>
      </trkpt>
      <trkpt lat="43.45596" lon="2.14684">
        <ele>680</ele>
        <time>2019-02-10T09:45:16Z</time>
      </trkpt>
      <trkpt lat="43.45599" lon="2.147">
        <ele>680</ele>
        <time>2019-02-10T09:45:20Z</time>
      </trkpt>
      <trkpt lat="43.45606" lon="2.14705">
        <ele>680</ele>
        <time>2019-02-10T09:45:24Z</time>
      </trkpt>
      <trkpt lat="43.45608" lon="2.14706">
        <ele>681</ele>
        <time>2019-02-10T09:45:25Z</time>
      </trkpt>
      <trkpt lat="43.45616" lon="2.14705">
        <ele>681</ele>
        <time>2019-02-10T09:45:28Z</time>
      </trkpt>
      <trkpt lat="43.45618" lon="2.14705">
        <ele>682</ele>
        <time>2019-02-10T09:45:29Z</time>
      </trkpt>
      <trkpt lat="43.45633" lon="2.14701">
        <ele>682</ele>
        <time>2019-02-10T09:45:35Z</time>
      </trkpt>
      <trkpt lat="43.45635" lon="2.14701">
        <ele>683</ele>
        <time>2019-02-10T09:45:36Z</time>
      </trkpt>
      <trkpt lat="43.45654" lon="2.14697">
        <ele>683</ele>
        <time>2019-02-10T09:45:44Z</time>
      </trkpt>
      <trkpt lat="43.45657" lon="2.14696">
        <ele>684</ele>
        <time>2019-02-10T09:45:45Z</time>
      </trkpt>
      <trkpt lat="43.45668" lon="2.14694">
        <ele>684</ele>
        <time>2019-02-10T09:45:50Z</time>
      </trkpt>
      <trkpt lat="43.45678" lon="2.14693">
        <ele>685</ele>
        <time>2019-02-10T09:45:54Z</time>
      </trkpt>
      <trkpt lat="43.45692" lon="2.14693">
        <ele>686</ele>
        <time>2019-02-10T09:46:00Z</time>
      </trkpt>
      <trkpt lat="43.45694" lon="2.14693">
        <ele>686</ele>
        <time>2019-02-10T09:46:01Z</time>
      </trkpt>
      <trkpt lat="43.45707" lon="2.14692">
        <ele>687</ele>
        <time>2019-02-10T09:46:06Z</time>
      </trkpt>
      <trkpt lat="43.45713" lon="2.14693">
        <ele>687</ele>
        <time>2019-02-10T09:46:09Z</time>
      </trkpt>
      <trkpt lat="43.45725" lon="2.14694">
        <ele>688</ele>
        <time>2019-02-10T09:46:14Z</time>
      </trkpt>
      <trkpt lat="43.45727" lon="2.14694">
        <ele>688</ele>
        <time>2019-02-10T09:46:15Z</time>
      </trkpt>
      <trkpt lat="43.45737" lon="2.14697">
        <ele>689</ele>
        <time>2019-02-10T09:46:19Z</time>
      </trkpt>
      <trkpt lat="43.45743" lon="2.14699">
        <ele>689</ele>
        <time>2019-02-10T09:46:22Z</time>
      </trkpt>
      <trkpt lat="43.45746" lon="2.147">
        <ele>689</ele>
        <time>2019-02-10T09:46:23Z</time>
      </trkpt>
      <trkpt lat="43.45762" lon="2.1471">
        <ele>689</ele>
        <time>2019-02-10T09:46:30Z</time>
      </trkpt>
      <trkpt lat="43.45767" lon="2.14714">
        <ele>689</ele>
        <time>2019-02-10T09:46:32Z</time>
      </trkpt>
      <trkpt lat="43.45773" lon="2.14722">
        <ele>689</ele>
        <time>2019-02-10T09:46:36Z</time>
      </trkpt>
      <trkpt lat="43.45777" lon="2.14731">
        <ele>690</ele>
        <time>2019-02-10T09:46:39Z</time>
      </trkpt>
      <trkpt lat="43.45781" lon="2.1474">
        <ele>690</ele>
        <time>2019-02-10T09:46:42Z</time>
      </trkpt>
      <trkpt lat="43.45794" lon="2.14764">
        <ele>690</ele>
        <time>2019-02-10T09:46:48Z</time>
      </trkpt>
      <trkpt lat="43.45806" lon="2.14783">
        <ele>691</ele>
        <time>2019-02-10T09:46:53Z</time>
      </trkpt>
      <trkpt lat="43.45807" lon="2.14786">
        <ele>691</ele>
        <time>2019-02-10T09:46:54Z</time>
      </trkpt>
      <trkpt lat="43.45809" lon="2.14804">
        <ele>691</ele>
        <time>2019-02-10T09:46:59Z</time>
      </trkpt>
      <trkpt lat="43.45809" lon="2.14823">
        <ele>692</ele>
        <time>2019-02-10T09:47:04Z</time>
      </trkpt>
      <trkpt lat="43.45809" lon="2.14827">
        <ele>692</ele>
        <time>2019-02-10T09:47:05Z</time>
      </trkpt>
      <trkpt lat="43.45809" lon="2.1485">
        <ele>693</ele>
        <time>2019-02-10T09:47:11Z</time>
      </trkpt>
      <trkpt lat="43.4581" lon="2.14857">
        <ele>693</ele>
        <time>2019-02-10T09:47:13Z</time>
      </trkpt>
      <trkpt lat="43.45811" lon="2.1487">
        <ele>693</ele>
        <time>2019-02-10T09:47:17Z</time>
      </trkpt>
      <trkpt lat="43.45812" lon="2.14882">
        <ele>694</ele>
        <time>2019-02-10T09:47:21Z</time>
      </trkpt>
      <trkpt lat="43.45813" lon="2.14886">
        <ele>694</ele>
        <time>2019-02-10T09:47:22Z</time>
      </trkpt>
      <trkpt lat="43.45814" lon="2.149">
        <ele>695</ele>
        <time>2019-02-10T09:47:26Z</time>
      </trkpt>
      <trkpt lat="43.45814" lon="2.14903">
        <ele>695</ele>
        <time>2019-02-10T09:47:27Z</time>
      </trkpt>
      <trkpt lat="43.45815" lon="2.14926">
        <ele>696</ele>
        <time>2019-02-10T09:47:33Z</time>
      </trkpt>
      <trkpt lat="43.45817" lon="2.14958">
        <ele>696</ele>
        <time>2019-02-10T09:47:41Z</time>
      </trkpt>
      <trkpt lat="43.45817" lon="2.14966">
        <ele>696</ele>
        <time>2019-02-10T09:47:43Z</time>
      </trkpt>
      <trkpt lat="43.45818" lon="2.14988">
        <ele>697</ele>
        <time>2019-02-10T09:47:49Z</time>
      </trkpt>
      <trkpt lat="43.4582" lon="2.15002">
        <ele>697</ele>
        <time>2019-02-10T09:47:53Z</time>
      </trkpt>
      <trkpt lat="43.4582" lon="2.15005">
        <ele>697</ele>
        <time>2019-02-10T09:47:54Z</time>
      </trkpt>
      <trkpt lat="43.45822" lon="2.15027">
        <ele>698</ele>
        <time>2019-02-10T09:48:00Z</time>
      </trkpt>
      <trkpt lat="43.45823" lon="2.15031">
        <ele>698</ele>
        <time>2019-02-10T09:48:01Z</time>
      </trkpt>
      <trkpt lat="43.45825" lon="2.1505">
        <ele>699</ele>
        <time>2019-02-10T09:48:06Z</time>
      </trkpt>
      <trkpt lat="43.45825" lon="2.15069">
        <ele>699</ele>
        <time>2019-02-10T09:48:11Z</time>
      </trkpt>
      <trkpt lat="43.45825" lon="2.1508">
        <ele>699</ele>
        <time>2019-02-10T09:48:14Z</time>
      </trkpt>
      <trkpt lat="43.45827" lon="2.15098">
        <ele>700</ele>
        <time>2019-02-10T09:48:19Z</time>
      </trkpt>
      <trkpt lat="43.45827" lon="2.15102">
        <ele>700</ele>
        <time>2019-02-10T09:48:20Z</time>
      </trkpt>
      <trkpt lat="43.45833" lon="2.15122">
        <ele>701</ele>
        <time>2019-02-10T09:48:26Z</time>
      </trkpt>
      <trkpt lat="43.45834" lon="2.15125">
        <ele>701</ele>
        <time>2019-02-10T09:48:27Z</time>
      </trkpt>
      <trkpt lat="43.45843" lon="2.15139">
        <ele>703</ele>
        <time>2019-02-10T09:48:32Z</time>
      </trkpt>
      <trkpt lat="43.45847" lon="2.15144">
        <ele>703</ele>
        <time>2019-02-10T09:48:34Z</time>
      </trkpt>
      <trkpt lat="43.45859" lon="2.15159">
        <ele>704</ele>
        <time>2019-02-10T09:48:40Z</time>
      </trkpt>
      <trkpt lat="43.45861" lon="2.15162">
        <ele>704</ele>
        <time>2019-02-10T09:48:41Z</time>
      </trkpt>
      <trkpt lat="43.45871" lon="2.15178">
        <ele>705</ele>
        <time>2019-02-10T09:48:47Z</time>
      </trkpt>
      <trkpt lat="43.45873" lon="2.15181">
        <ele>705</ele>
        <time>2019-02-10T09:48:48Z</time>
      </trkpt>
      <trkpt lat="43.45886" lon="2.15206">
        <ele>705</ele>
        <time>2019-02-10T09:48:56Z</time>
      </trkpt>
      <trkpt lat="43.45892" lon="2.15227">
        <ele>705</ele>
        <time>2019-02-10T09:49:02Z</time>
      </trkpt>
      <trkpt lat="43.45895" lon="2.1525">
        <ele>704</ele>
        <time>2019-02-10T09:49:07Z</time>
      </trkpt>
      <trkpt lat="43.45896" lon="2.1526">
        <ele>704</ele>
        <time>2019-02-10T09:49:09Z</time>
      </trkpt>
      <trkpt lat="43.45895" lon="2.15267">
        <ele>704</ele>
        <time>2019-02-10T09:49:10Z</time>
      </trkpt>
      <trkpt lat="43.45894" lon="2.15279">
        <ele>703</ele>
        <time>2019-02-10T09:49:12Z</time>
      </trkpt>
      <trkpt lat="43.45893" lon="2.15285">
        <ele>702</ele>
        <time>2019-02-10T09:49:13Z</time>
      </trkpt>
      <trkpt lat="43.45888" lon="2.15304">
        <ele>702</ele>
        <time>2019-02-10T09:49:16Z</time>
      </trkpt>
      <trkpt lat="43.45881" lon="2.15313">
        <ele>701</ele>
        <time>2019-02-10T09:49:18Z</time>
      </trkpt>
      <trkpt lat="43.45874" lon="2.15319">
        <ele>701</ele>
        <time>2019-02-10T09:49:20Z</time>
      </trkpt>
      <trkpt lat="43.4586" lon="2.15336">
        <ele>701</ele>
        <time>2019-02-10T09:49:25Z</time>
      </trkpt>
      <trkpt lat="43.45855" lon="2.15348">
        <ele>702</ele>
        <time>2019-02-10T09:49:29Z</time>
      </trkpt>
      <trkpt lat="43.4585" lon="2.15367">
        <ele>702</ele>
        <time>2019-02-10T09:49:34Z</time>
      </trkpt>
      <trkpt lat="43.45849" lon="2.1537">
        <ele>702</ele>
        <time>2019-02-10T09:49:35Z</time>
      </trkpt>
      <trkpt lat="43.45845" lon="2.15389">
        <ele>702</ele>
        <time>2019-02-10T09:49:40Z</time>
      </trkpt>
      <trkpt lat="43.45843" lon="2.15406">
        <ele>703</ele>
        <time>2019-02-10T09:49:45Z</time>
      </trkpt>
      <trkpt lat="43.45842" lon="2.15409">
        <ele>703</ele>
        <time>2019-02-10T09:49:46Z</time>
      </trkpt>
      <trkpt lat="43.45841" lon="2.15417">
        <ele>703</ele>
        <time>2019-02-10T09:49:48Z</time>
      </trkpt>
      <trkpt lat="43.45839" lon="2.15432">
        <ele>703</ele>
        <time>2019-02-10T09:49:52Z</time>
      </trkpt>
      <trkpt lat="43.45836" lon="2.15451">
        <ele>704</ele>
        <time>2019-02-10T09:49:57Z</time>
      </trkpt>
      <trkpt lat="43.45833" lon="2.15468">
        <ele>704</ele>
        <time>2019-02-10T09:50:01Z</time>
      </trkpt>
      <trkpt lat="43.45832" lon="2.15472">
        <ele>704</ele>
        <time>2019-02-10T09:50:02Z</time>
      </trkpt>
      <trkpt lat="43.45825" lon="2.15491">
        <ele>704</ele>
        <time>2019-02-10T09:50:06Z</time>
      </trkpt>
      <trkpt lat="43.45819" lon="2.15506">
        <ele>705</ele>
        <time>2019-02-10T09:50:10Z</time>
      </trkpt>
      <trkpt lat="43.45811" lon="2.15525">
        <ele>705</ele>
        <time>2019-02-10T09:50:15Z</time>
      </trkpt>
      <trkpt lat="43.4581" lon="2.15528">
        <ele>705</ele>
        <time>2019-02-10T09:50:16Z</time>
      </trkpt>
      <trkpt lat="43.45802" lon="2.15546">
        <ele>705</ele>
        <time>2019-02-10T09:50:21Z</time>
      </trkpt>
      <trkpt lat="43.45792" lon="2.15561">
        <ele>705</ele>
        <time>2019-02-10T09:50:26Z</time>
      </trkpt>
      <trkpt lat="43.45786" lon="2.15562">
        <ele>706</ele>
        <time>2019-02-10T09:50:28Z</time>
      </trkpt>
      <trkpt lat="43.45781" lon="2.15561">
        <ele>706</ele>
        <time>2019-02-10T09:50:30Z</time>
      </trkpt>
      <trkpt lat="43.45775" lon="2.15559">
        <ele>706</ele>
        <time>2019-02-10T09:50:32Z</time>
      </trkpt>
      <trkpt lat="43.45765" lon="2.15553">
        <ele>706</ele>
        <time>2019-02-10T09:50:36Z</time>
      </trkpt>
      <trkpt lat="43.45752" lon="2.15554">
        <ele>706</ele>
        <time>2019-02-10T09:50:40Z</time>
      </trkpt>
      <trkpt lat="43.45739" lon="2.15568">
        <ele>707</ele>
        <time>2019-02-10T09:50:45Z</time>
      </trkpt>
      <trkpt lat="43.45735" lon="2.15575">
        <ele>707</ele>
        <time>2019-02-10T09:50:47Z</time>
      </trkpt>
      <trkpt lat="43.45725" lon="2.15593">
        <ele>707</ele>
        <time>2019-02-10T09:50:52Z</time>
      </trkpt>
      <trkpt lat="43.45709" lon="2.15613">
        <ele>708</ele>
        <time>2019-02-10T09:50:59Z</time>
      </trkpt>
      <trkpt lat="43.45695" lon="2.15608">
        <ele>708</ele>
        <time>2019-02-10T09:51:03Z</time>
      </trkpt>
      <trkpt lat="43.45691" lon="2.15606">
        <ele>708</ele>
        <time>2019-02-10T09:51:04Z</time>
      </trkpt>
      <trkpt lat="43.45678" lon="2.15606">
        <ele>707</ele>
        <time>2019-02-10T09:51:08Z</time>
      </trkpt>
      <trkpt lat="43.45677" lon="2.15609">
        <ele>707</ele>
        <time>2019-02-10T09:51:09Z</time>
      </trkpt>
      <trkpt lat="43.45675" lon="2.1562">
        <ele>707</ele>
        <time>2019-02-10T09:51:11Z</time>
      </trkpt>
      <trkpt lat="43.45678" lon="2.15644">
        <ele>707</ele>
        <time>2019-02-10T09:51:16Z</time>
      </trkpt>
      <trkpt lat="43.45683" lon="2.15669">
        <ele>708</ele>
        <time>2019-02-10T09:51:22Z</time>
      </trkpt>
      <trkpt lat="43.45689" lon="2.15692">
        <ele>708</ele>
        <time>2019-02-10T09:51:27Z</time>
      </trkpt>
      <trkpt lat="43.45699" lon="2.1571">
        <ele>708</ele>
        <time>2019-02-10T09:51:32Z</time>
      </trkpt>
      <trkpt lat="43.45716" lon="2.15724">
        <ele>709</ele>
        <time>2019-02-10T09:51:38Z</time>
      </trkpt>
      <trkpt lat="43.45723" lon="2.15728">
        <ele>709</ele>
        <time>2019-02-10T09:51:40Z</time>
      </trkpt>
      <trkpt lat="43.45734" lon="2.15738">
        <ele>709</ele>
        <time>2019-02-10T09:51:44Z</time>
      </trkpt>
      <trkpt lat="43.45747" lon="2.15753">
        <ele>709</ele>
        <time>2019-02-10T09:51:49Z</time>
      </trkpt>
      <trkpt lat="43.45752" lon="2.15761">
        <ele>710</ele>
        <time>2019-02-10T09:51:52Z</time>
      </trkpt>
      <trkpt lat="43.45754" lon="2.15764">
        <ele>710</ele>
        <time>2019-02-10T09:51:53Z</time>
      </trkpt>
      <trkpt lat="43.45764" lon="2.15776">
        <ele>711</ele>
        <time>2019-02-10T09:51:57Z</time>
      </trkpt>
      <trkpt lat="43.45768" lon="2.15781">
        <ele>711</ele>
        <time>2019-02-10T09:51:59Z</time>
      </trkpt>
      <trkpt lat="43.45784" lon="2.15796">
        <ele>712</ele>
        <time>2019-02-10T09:52:05Z</time>
      </trkpt>
      <trkpt lat="43.45787" lon="2.15797">
        <ele>712</ele>
        <time>2019-02-10T09:52:06Z</time>
      </trkpt>
      <trkpt lat="43.458" lon="2.15808">
        <ele>713</ele>
        <time>2019-02-10T09:52:11Z</time>
      </trkpt>
      <trkpt lat="43.45802" lon="2.1581">
        <ele>713</ele>
        <time>2019-02-10T09:52:12Z</time>
      </trkpt>
      <trkpt lat="43.45816" lon="2.15822">
        <ele>713</ele>
        <time>2019-02-10T09:52:18Z</time>
      </trkpt>
      <trkpt lat="43.45823" lon="2.15829">
        <ele>714</ele>
        <time>2019-02-10T09:52:21Z</time>
      </trkpt>
      <trkpt lat="43.45834" lon="2.1584">
        <ele>715</ele>
        <time>2019-02-10T09:52:25Z</time>
      </trkpt>
      <trkpt lat="43.45846" lon="2.15858">
        <ele>716</ele>
        <time>2019-02-10T09:52:31Z</time>
      </trkpt>
      <trkpt lat="43.4585" lon="2.1587">
        <ele>716</ele>
        <time>2019-02-10T09:52:34Z</time>
      </trkpt>
      <trkpt lat="43.45854" lon="2.15885">
        <ele>717</ele>
        <time>2019-02-10T09:52:38Z</time>
      </trkpt>
      <trkpt lat="43.45857" lon="2.15895">
        <ele>717</ele>
        <time>2019-02-10T09:52:41Z</time>
      </trkpt>
      <trkpt lat="43.45858" lon="2.15903">
        <ele>717</ele>
        <time>2019-02-10T09:52:43Z</time>
      </trkpt>
      <trkpt lat="43.45861" lon="2.15918">
        <ele>718</ele>
        <time>2019-02-10T09:52:47Z</time>
      </trkpt>
      <trkpt lat="43.45861" lon="2.15921">
        <ele>718</ele>
        <time>2019-02-10T09:52:48Z</time>
      </trkpt>
      <trkpt lat="43.4586" lon="2.1594">
        <ele>719</ele>
        <time>2019-02-10T09:52:54Z</time>
      </trkpt>
      <trkpt lat="43.45858" lon="2.15951">
        <ele>719</ele>
        <time>2019-02-10T09:52:57Z</time>
      </trkpt>
      <trkpt lat="43.45856" lon="2.15963">
        <ele>719</ele>
        <time>2019-02-10T09:53:00Z</time>
      </trkpt>
      <trkpt lat="43.45854" lon="2.15975">
        <ele>720</ele>
        <time>2019-02-10T09:53:03Z</time>
      </trkpt>
      <trkpt lat="43.45854" lon="2.15991">
        <ele>721</ele>
        <time>2019-02-10T09:53:07Z</time>
      </trkpt>
      <trkpt lat="43.45853" lon="2.16008">
        <ele>721</ele>
        <time>2019-02-10T09:53:11Z</time>
      </trkpt>
      <trkpt lat="43.45855" lon="2.1603">
        <ele>722</ele>
        <time>2019-02-10T09:53:16Z</time>
      </trkpt>
      <trkpt lat="43.45858" lon="2.1605">
        <ele>722</ele>
        <time>2019-02-10T09:53:21Z</time>
      </trkpt>
      <trkpt lat="43.45861" lon="2.16069">
        <ele>723</ele>
        <time>2019-02-10T09:53:26Z</time>
      </trkpt>
      <trkpt lat="43.45861" lon="2.16073">
        <ele>723</ele>
        <time>2019-02-10T09:53:27Z</time>
      </trkpt>
      <trkpt lat="43.45864" lon="2.16098">
        <ele>724</ele>
        <time>2019-02-10T09:53:34Z</time>
      </trkpt>
      <trkpt lat="43.45863" lon="2.16112">
        <ele>724</ele>
        <time>2019-02-10T09:53:38Z</time>
      </trkpt>
      <trkpt lat="43.45863" lon="2.16122">
        <ele>725</ele>
        <time>2019-02-10T09:53:41Z</time>
      </trkpt>
      <trkpt lat="43.45861" lon="2.16135">
        <ele>725</ele>
        <time>2019-02-10T09:53:45Z</time>
      </trkpt>
      <trkpt lat="43.4586" lon="2.16144">
        <ele>726</ele>
        <time>2019-02-10T09:53:48Z</time>
      </trkpt>
      <trkpt lat="43.45859" lon="2.16147">
        <ele>727</ele>
        <time>2019-02-10T09:53:49Z</time>
      </trkpt>
      <trkpt lat="43.45855" lon="2.16168">
        <ele>727</ele>
        <time>2019-02-10T09:53:55Z</time>
      </trkpt>
      <trkpt lat="43.45851" lon="2.16178">
        <ele>728</ele>
        <time>2019-02-10T09:53:58Z</time>
      </trkpt>
      <trkpt lat="43.45846" lon="2.1619">
        <ele>729</ele>
        <time>2019-02-10T09:54:02Z</time>
      </trkpt>
      <trkpt lat="43.45837" lon="2.1621">
        <ele>729</ele>
        <time>2019-02-10T09:54:09Z</time>
      </trkpt>
      <trkpt lat="43.45835" lon="2.16213">
        <ele>729</ele>
        <time>2019-02-10T09:54:10Z</time>
      </trkpt>
      <trkpt lat="43.45827" lon="2.16226">
        <ele>730</ele>
        <time>2019-02-10T09:54:15Z</time>
      </trkpt>
      <trkpt lat="43.45824" lon="2.16231">
        <ele>730</ele>
        <time>2019-02-10T09:54:17Z</time>
      </trkpt>
      <trkpt lat="43.45818" lon="2.16241">
        <ele>731</ele>
        <time>2019-02-10T09:54:21Z</time>
      </trkpt>
      <trkpt lat="43.4581" lon="2.16253">
        <ele>731</ele>
        <time>2019-02-10T09:54:26Z</time>
      </trkpt>
      <trkpt lat="43.45808" lon="2.16255">
        <ele>731</ele>
        <time>2019-02-10T09:54:27Z</time>
      </trkpt>
      <trkpt lat="43.45795" lon="2.16266">
        <ele>732</ele>
        <time>2019-02-10T09:54:33Z</time>
      </trkpt>
      <trkpt lat="43.45792" lon="2.1627">
        <ele>732</ele>
        <time>2019-02-10T09:54:35Z</time>
      </trkpt>
      <trkpt lat="43.45784" lon="2.16278">
        <ele>733</ele>
        <time>2019-02-10T09:54:39Z</time>
      </trkpt>
      <trkpt lat="43.45782" lon="2.1628">
        <ele>733</ele>
        <time>2019-02-10T09:54:40Z</time>
      </trkpt>
      <trkpt lat="43.45773" lon="2.16287">
        <ele>734</ele>
        <time>2019-02-10T09:54:44Z</time>
      </trkpt>
      <trkpt lat="43.45764" lon="2.16294">
        <ele>734</ele>
        <time>2019-02-10T09:54:48Z</time>
      </trkpt>
      <trkpt lat="43.45763" lon="2.16295">
        <ele>735</ele>
        <time>2019-02-10T09:54:49Z</time>
      </trkpt>
      <trkpt lat="43.45748" lon="2.16309">
        <ele>735</ele>
        <time>2019-02-10T09:54:55Z</time>
      </trkpt>
      <trkpt lat="43.45738" lon="2.16318">
        <ele>736</ele>
        <time>2019-02-10T09:54:59Z</time>
      </trkpt>
      <trkpt lat="43.45729" lon="2.16326">
        <ele>736</ele>
        <time>2019-02-10T09:55:03Z</time>
      </trkpt>
      <trkpt lat="43.45726" lon="2.1633">
        <ele>736</ele>
        <time>2019-02-10T09:55:04Z</time>
      </trkpt>
      <trkpt lat="43.45718" lon="2.16342">
        <ele>737</ele>
        <time>2019-02-10T09:55:08Z</time>
      </trkpt>
      <trkpt lat="43.45711" lon="2.16353">
        <ele>737</ele>
        <time>2019-02-10T09:55:11Z</time>
      </trkpt>
      <trkpt lat="43.45707" lon="2.16359">
        <ele>738</ele>
        <time>2019-02-10T09:55:13Z</time>
      </trkpt>
      <trkpt lat="43.45696" lon="2.16378">
        <ele>738</ele>
        <time>2019-02-10T09:55:19Z</time>
      </trkpt>
      <trkpt lat="43.45684" lon="2.16399">
        <ele>740</ele>
        <time>2019-02-10T09:55:26Z</time>
      </trkpt>
      <trkpt lat="43.45682" lon="2.16402">
        <ele>740</ele>
        <time>2019-02-10T09:55:27Z</time>
      </trkpt>
      <trkpt lat="43.45673" lon="2.1642">
        <ele>740</ele>
        <time>2019-02-10T09:55:33Z</time>
      </trkpt>
      <trkpt lat="43.45663" lon="2.16437">
        <ele>741</ele>
        <time>2019-02-10T09:55:39Z</time>
      </trkpt>
      <trkpt lat="43.45659" lon="2.16446">
        <ele>741</ele>
        <time>2019-02-10T09:55:42Z</time>
      </trkpt>
      <trkpt lat="43.45655" lon="2.16464">
        <ele>742</ele>
        <time>2019-02-10T09:55:47Z</time>
      </trkpt>
      <trkpt lat="43.45654" lon="2.16481">
        <ele>743</ele>
        <time>2019-02-10T09:55:52Z</time>
      </trkpt>
      <trkpt lat="43.45654" lon="2.16498">
        <ele>744</ele>
        <time>2019-02-10T09:55:57Z</time>
      </trkpt>
      <trkpt lat="43.45654" lon="2.16501">
        <ele>744</ele>
        <time>2019-02-10T09:55:58Z</time>
      </trkpt>
      <trkpt lat="43.45657" lon="2.16515">
        <ele>744</ele>
        <time>2019-02-10T09:56:02Z</time>
      </trkpt>
      <trkpt lat="43.45659" lon="2.16529">
        <ele>744</ele>
        <time>2019-02-10T09:56:06Z</time>
      </trkpt>
      <trkpt lat="43.45659" lon="2.16534">
        <ele>745</ele>
        <time>2019-02-10T09:56:08Z</time>
      </trkpt>
      <trkpt lat="43.45658" lon="2.16548">
        <ele>745</ele>
        <time>2019-02-10T09:56:12Z</time>
      </trkpt>
      <trkpt lat="43.45657" lon="2.16555">
        <ele>746</ele>
        <time>2019-02-10T09:56:14Z</time>
      </trkpt>
      <trkpt lat="43.45653" lon="2.16567">
        <ele>746</ele>
        <time>2019-02-10T09:56:18Z</time>
      </trkpt>
      <trkpt lat="43.45651" lon="2.16573">
        <ele>747</ele>
        <time>2019-02-10T09:56:20Z</time>
      </trkpt>
      <trkpt lat="43.45647" lon="2.16585">
        <ele>747</ele>
        <time>2019-02-10T09:56:24Z</time>
      </trkpt>
      <trkpt lat="43.4564" lon="2.16601">
        <ele>748</ele>
        <time>2019-02-10T09:56:30Z</time>
      </trkpt>
      <trkpt lat="43.45639" lon="2.16603">
        <ele>748</ele>
        <time>2019-02-10T09:56:31Z</time>
      </trkpt>
      <trkpt lat="43.45633" lon="2.16616">
        <ele>748</ele>
        <time>2019-02-10T09:56:36Z</time>
      </trkpt>
      <trkpt lat="43.45628" lon="2.16623">
        <ele>749</ele>
        <time>2019-02-10T09:56:40Z</time>
      </trkpt>
      <trkpt lat="43.45627" lon="2.16627">
        <ele>749</ele>
        <time>2019-02-10T09:56:42Z</time>
      </trkpt>
      <trkpt lat="43.45622" lon="2.16629">
        <ele>750</ele>
        <time>2019-02-10T09:56:46Z</time>
      </trkpt>
      <trkpt lat="43.45622" lon="2.16628">
        <ele>750</ele>
        <time>2019-02-10T09:56:49Z</time>
      </trkpt>
      <trkpt lat="43.45622" lon="2.16628">
        <ele>750</ele>
        <time>2019-02-10T10:03:04Z</time>
      </trkpt>
      <trkpt lat="43.45621" lon="2.16627">
        <ele>750</ele>
        <time>2019-02-10T10:03:05Z</time>
      </trkpt>
      <trkpt lat="43.4562" lon="2.16623">
        <ele>750</ele>
        <time>2019-02-10T10:03:08Z</time>
      </trkpt>
      <trkpt lat="43.45619" lon="2.16619">
        <ele>749</ele>
        <time>2019-02-10T10:03:10Z</time>
      </trkpt>
      <trkpt lat="43.45619" lon="2.16617">
        <ele>749</ele>
        <time>2019-02-10T10:03:11Z</time>
      </trkpt>
      <trkpt lat="43.45618" lon="2.16598">
        <ele>749</ele>
        <time>2019-02-10T10:03:17Z</time>
      </trkpt>
      <trkpt lat="43.45617" lon="2.16583">
        <ele>749</ele>
        <time>2019-02-10T10:03:23Z</time>
      </trkpt>
      <trkpt lat="43.45618" lon="2.16575">
        <ele>749</ele>
        <time>2019-02-10T10:03:29Z</time>
      </trkpt>
      <trkpt lat="43.45619" lon="2.1657">
        <ele>749</ele>
        <time>2019-02-10T10:04:12Z</time>
      </trkpt>
      <trkpt lat="43.45618" lon="2.16567">
        <ele>749</ele>
        <time>2019-02-10T10:04:13Z</time>
      </trkpt>
      <trkpt lat="43.45617" lon="2.16564">
        <ele>749</ele>
        <time>2019-02-10T10:04:14Z</time>
      </trkpt>
      <trkpt lat="43.45614" lon="2.16554">
        <ele>749</ele>
        <time>2019-02-10T10:04:17Z</time>
      </trkpt>
      <trkpt lat="43.45611" lon="2.16543">
        <ele>749</ele>
        <time>2019-02-10T10:04:20Z</time>
      </trkpt>
      <trkpt lat="43.45605" lon="2.16529">
        <ele>749</ele>
        <time>2019-02-10T10:04:24Z</time>
      </trkpt>
      <trkpt lat="43.45601" lon="2.16524">
        <ele>749</ele>
        <time>2019-02-10T10:04:26Z</time>
      </trkpt>
      <trkpt lat="43.45597" lon="2.16517">
        <ele>750</ele>
        <time>2019-02-10T10:04:29Z</time>
      </trkpt>
      <trkpt lat="43.4559" lon="2.1651">
        <ele>751</ele>
        <time>2019-02-10T10:04:32Z</time>
      </trkpt>
      <trkpt lat="43.45587" lon="2.16509">
        <ele>751</ele>
        <time>2019-02-10T10:04:33Z</time>
      </trkpt>
      <trkpt lat="43.45582" lon="2.16507">
        <ele>751</ele>
        <time>2019-02-10T10:04:35Z</time>
      </trkpt>
      <trkpt lat="43.45575" lon="2.16503">
        <ele>752</ele>
        <time>2019-02-10T10:04:38Z</time>
      </trkpt>
      <trkpt lat="43.45569" lon="2.16496">
        <ele>753</ele>
        <time>2019-02-10T10:04:41Z</time>
      </trkpt>
      <trkpt lat="43.45564" lon="2.16489">
        <ele>753</ele>
        <time>2019-02-10T10:04:44Z</time>
      </trkpt>
      <trkpt lat="43.45561" lon="2.16482">
        <ele>755</ele>
        <time>2019-02-10T10:04:47Z</time>
      </trkpt>
      <trkpt lat="43.45558" lon="2.16477">
        <ele>755</ele>
        <time>2019-02-10T10:04:49Z</time>
      </trkpt>
      <trkpt lat="43.45556" lon="2.16475">
        <ele>755</ele>
        <time>2019-02-10T10:04:50Z</time>
      </trkpt>
      <trkpt lat="43.45549" lon="2.16464">
        <ele>756</ele>
        <time>2019-02-10T10:04:54Z</time>
      </trkpt>
      <trkpt lat="43.45547" lon="2.16462">
        <ele>756</ele>
        <time>2019-02-10T10:04:55Z</time>
      </trkpt>
      <trkpt lat="43.45542" lon="2.16455">
        <ele>757</ele>
        <time>2019-02-10T10:04:58Z</time>
      </trkpt>
      <trkpt lat="43.45538" lon="2.16451">
        <ele>757</ele>
        <time>2019-02-10T10:05:00Z</time>
      </trkpt>
      <trkpt lat="43.45529" lon="2.16441">
        <ele>758</ele>
        <time>2019-02-10T10:05:05Z</time>
      </trkpt>
      <trkpt lat="43.45527" lon="2.1644">
        <ele>758</ele>
        <time>2019-02-10T10:05:06Z</time>
      </trkpt>
      <trkpt lat="43.45525" lon="2.16438">
        <ele>759</ele>
        <time>2019-02-10T10:05:07Z</time>
      </trkpt>
      <trkpt lat="43.45519" lon="2.16432">
        <ele>759</ele>
        <time>2019-02-10T10:05:10Z</time>
      </trkpt>
      <trkpt lat="43.45513" lon="2.16426">
        <ele>760</ele>
        <time>2019-02-10T10:05:13Z</time>
      </trkpt>
      <trkpt lat="43.45504" lon="2.16419">
        <ele>760</ele>
        <time>2019-02-10T10:05:18Z</time>
      </trkpt>
      <trkpt lat="43.45502" lon="2.16418">
        <ele>761</ele>
        <time>2019-02-10T10:05:19Z</time>
      </trkpt>
      <trkpt lat="43.45491" lon="2.16408">
        <ele>761</ele>
        <time>2019-02-10T10:05:25Z</time>
      </trkpt>
      <trkpt lat="43.45489" lon="2.16406">
        <ele>761</ele>
        <time>2019-02-10T10:05:26Z</time>
      </trkpt>
      <trkpt lat="43.45481" lon="2.16396">
        <ele>763</ele>
        <time>2019-02-10T10:05:31Z</time>
      </trkpt>
      <trkpt lat="43.45478" lon="2.16393">
        <ele>763</ele>
        <time>2019-02-10T10:05:33Z</time>
      </trkpt>
      <trkpt lat="43.45476" lon="2.1639">
        <ele>763</ele>
        <time>2019-02-10T10:05:34Z</time>
      </trkpt>
      <trkpt lat="43.45471" lon="2.16382">
        <ele>763</ele>
        <time>2019-02-10T10:05:39Z</time>
      </trkpt>
      <trkpt lat="43.4547" lon="2.16381">
        <ele>764</ele>
        <time>2019-02-10T10:05:40Z</time>
      </trkpt>
      <trkpt lat="43.45468" lon="2.1638">
        <ele>764</ele>
        <time>2019-02-10T10:05:41Z</time>
      </trkpt>
      <trkpt lat="43.45464" lon="2.16375">
        <ele>764</ele>
        <time>2019-02-10T10:05:44Z</time>
      </trkpt>
      <trkpt lat="43.45455" lon="2.16363">
        <ele>764</ele>
        <time>2019-02-10T10:05:50Z</time>
      </trkpt>
      <trkpt lat="43.45439" lon="2.16349">
        <ele>764</ele>
        <time>2019-02-10T10:05:57Z</time>
      </trkpt>
      <trkpt lat="43.45429" lon="2.16337">
        <ele>764</ele>
        <time>2019-02-10T10:06:02Z</time>
      </trkpt>
      <trkpt lat="43.45422" lon="2.16324">
        <ele>764</ele>
        <time>2019-02-10T10:06:08Z</time>
      </trkpt>
      <trkpt lat="43.45422" lon="2.16324">
        <ele>764</ele>
        <time>2019-02-10T10:06:09Z</time>
      </trkpt>
      <trkpt lat="43.45419" lon="2.16325">
        <ele>765</ele>
        <time>2019-02-10T10:06:27Z</time>
      </trkpt>
      <trkpt lat="43.45416" lon="2.16326">
        <ele>765</ele>
        <time>2019-02-10T10:06:29Z</time>
      </trkpt>
      <trkpt lat="43.45414" lon="2.16326">
        <ele>765</ele>
        <time>2019-02-10T10:06:30Z</time>
      </trkpt>
      <trkpt lat="43.4541" lon="2.16324">
        <ele>764</ele>
        <time>2019-02-10T10:06:32Z</time>
      </trkpt>
      <trkpt lat="43.45403" lon="2.16322">
        <ele>762</ele>
        <time>2019-02-10T10:06:34Z</time>
      </trkpt>
      <trkpt lat="43.454" lon="2.16319">
        <ele>762</ele>
        <time>2019-02-10T10:06:35Z</time>
      </trkpt>
      <trkpt lat="43.45392" lon="2.16313">
        <ele>761</ele>
        <time>2019-02-10T10:06:37Z</time>
      </trkpt>
      <trkpt lat="43.45388" lon="2.1631">
        <ele>761</ele>
        <time>2019-02-10T10:06:38Z</time>
      </trkpt>
      <trkpt lat="43.45384" lon="2.16308">
        <ele>761</ele>
        <time>2019-02-10T10:06:39Z</time>
      </trkpt>
      <trkpt lat="43.45374" lon="2.16303">
        <ele>760</ele>
        <time>2019-02-10T10:06:41Z</time>
      </trkpt>
      <trkpt lat="43.45366" lon="2.16295">
        <ele>759</ele>
        <time>2019-02-10T10:06:43Z</time>
      </trkpt>
      <trkpt lat="43.45362" lon="2.16292">
        <ele>759</ele>
        <time>2019-02-10T10:06:45Z</time>
      </trkpt>
      <trkpt lat="43.45354" lon="2.16289">
        <ele>759</ele>
        <time>2019-02-10T10:06:48Z</time>
      </trkpt>
      <trkpt lat="43.45353" lon="2.16282">
        <ele>758</ele>
        <time>2019-02-10T10:06:50Z</time>
      </trkpt>
      <trkpt lat="43.45352" lon="2.16279">
        <ele>758</ele>
        <time>2019-02-10T10:06:51Z</time>
      </trkpt>
      <trkpt lat="43.45342" lon="2.16273">
        <ele>757</ele>
        <time>2019-02-10T10:06:54Z</time>
      </trkpt>
      <trkpt lat="43.45338" lon="2.1627">
        <ele>757</ele>
        <time>2019-02-10T10:06:55Z</time>
      </trkpt>
      <trkpt lat="43.45331" lon="2.16266">
        <ele>756</ele>
        <time>2019-02-10T10:06:57Z</time>
      </trkpt>
      <trkpt lat="43.45327" lon="2.16267">
        <ele>755</ele>
        <time>2019-02-10T10:06:58Z</time>
      </trkpt>
      <trkpt lat="43.45323" lon="2.16269">
        <ele>754</ele>
        <time>2019-02-10T10:06:59Z</time>
      </trkpt>
      <trkpt lat="43.45317" lon="2.1627">
        <ele>753</ele>
        <time>2019-02-10T10:07:00Z</time>
      </trkpt>
      <trkpt lat="43.45312" lon="2.16271">
        <ele>752</ele>
        <time>2019-02-10T10:07:01Z</time>
      </trkpt>
      <trkpt lat="43.45306" lon="2.16271">
        <ele>750</ele>
        <time>2019-02-10T10:07:02Z</time>
      </trkpt>
      <trkpt lat="43.45295" lon="2.16268">
        <ele>749</ele>
        <time>2019-02-10T10:07:04Z</time>
      </trkpt>
      <trkpt lat="43.45282" lon="2.16266">
        <ele>748</ele>
        <time>2019-02-10T10:07:06Z</time>
      </trkpt>
      <trkpt lat="43.45274" lon="2.16266">
        <ele>746</ele>
        <time>2019-02-10T10:07:07Z</time>
      </trkpt>
      <trkpt lat="43.45266" lon="2.16266">
        <ele>744</ele>
        <time>2019-02-10T10:07:08Z</time>
      </trkpt>
      <trkpt lat="43.45259" lon="2.16265">
        <ele>743</ele>
        <time>2019-02-10T10:07:09Z</time>
      </trkpt>
      <trkpt lat="43.45247" lon="2.16262">
        <ele>741</ele>
        <time>2019-02-10T10:07:11Z</time>
      </trkpt>
      <trkpt lat="43.45239" lon="2.16262">
        <ele>741</ele>
        <time>2019-02-10T10:07:12Z</time>
      </trkpt>
      <trkpt lat="43.45232" lon="2.16263">
        <ele>740</ele>
        <time>2019-02-10T10:07:13Z</time>
      </trkpt>
      <trkpt lat="43.45226" lon="2.16264">
        <ele>739</ele>
        <time>2019-02-10T10:07:14Z</time>
      </trkpt>
      <trkpt lat="43.45215" lon="2.16267">
        <ele>737</ele>
        <time>2019-02-10T10:07:16Z</time>
      </trkpt>
      <trkpt lat="43.45203" lon="2.16269">
        <ele>736</ele>
        <time>2019-02-10T10:07:18Z</time>
      </trkpt>
      <trkpt lat="43.45197" lon="2.16268">
        <ele>736</ele>
        <time>2019-02-10T10:07:19Z</time>
      </trkpt>
      <trkpt lat="43.45191" lon="2.16266">
        <ele>735</ele>
        <time>2019-02-10T10:07:20Z</time>
      </trkpt>
      <trkpt lat="43.45186" lon="2.16265">
        <ele>734</ele>
        <time>2019-02-10T10:07:21Z</time>
      </trkpt>
      <trkpt lat="43.45179" lon="2.16265">
        <ele>734</ele>
        <time>2019-02-10T10:07:22Z</time>
      </trkpt>
      <trkpt lat="43.45172" lon="2.16264">
        <ele>733</ele>
        <time>2019-02-10T10:07:23Z</time>
      </trkpt>
      <trkpt lat="43.45166" lon="2.16262">
        <ele>733</ele>
        <time>2019-02-10T10:07:24Z</time>
      </trkpt>
      <trkpt lat="43.45154" lon="2.16253">
        <ele>732</ele>
        <time>2019-02-10T10:07:26Z</time>
      </trkpt>
      <trkpt lat="43.45149" lon="2.16249">
        <ele>731</ele>
        <time>2019-02-10T10:07:27Z</time>
      </trkpt>
      <trkpt lat="43.45137" lon="2.16243">
        <ele>730</ele>
        <time>2019-02-10T10:07:29Z</time>
      </trkpt>
      <trkpt lat="43.45131" lon="2.16242">
        <ele>729</ele>
        <time>2019-02-10T10:07:30Z</time>
      </trkpt>
      <trkpt lat="43.45118" lon="2.16239">
        <ele>728</ele>
        <time>2019-02-10T10:07:32Z</time>
      </trkpt>
      <trkpt lat="43.45107" lon="2.16238">
        <ele>727</ele>
        <time>2019-02-10T10:07:34Z</time>
      </trkpt>
      <trkpt lat="43.45101" lon="2.16236">
        <ele>726</ele>
        <time>2019-02-10T10:07:35Z</time>
      </trkpt>
      <trkpt lat="43.45095" lon="2.16234">
        <ele>725</ele>
        <time>2019-02-10T10:07:36Z</time>
      </trkpt>
      <trkpt lat="43.45083" lon="2.16232">
        <ele>724</ele>
        <time>2019-02-10T10:07:38Z</time>
      </trkpt>
      <trkpt lat="43.45071" lon="2.16232">
        <ele>723</ele>
        <time>2019-02-10T10:07:40Z</time>
      </trkpt>
      <trkpt lat="43.45068" lon="2.16233">
        <ele>722</ele>
        <time>2019-02-10T10:07:41Z</time>
      </trkpt>
      <trkpt lat="43.45064" lon="2.16233">
        <ele>721</ele>
        <time>2019-02-10T10:07:42Z</time>
      </trkpt>
      <trkpt lat="43.45056" lon="2.16233">
        <ele>721</ele>
        <time>2019-02-10T10:07:45Z</time>
      </trkpt>
      <trkpt lat="43.45048" lon="2.16238">
        <ele>720</ele>
        <time>2019-02-10T10:07:48Z</time>
      </trkpt>
      <trkpt lat="43.45045" lon="2.16239">
        <ele>720</ele>
        <time>2019-02-10T10:07:49Z</time>
      </trkpt>
      <trkpt lat="43.45032" lon="2.1624">
        <ele>720</ele>
        <time>2019-02-10T10:07:52Z</time>
      </trkpt>
      <trkpt lat="43.45026" lon="2.1624">
        <ele>720</ele>
        <time>2019-02-10T10:07:53Z</time>
      </trkpt>
      <trkpt lat="43.45016" lon="2.16238">
        <ele>720</ele>
        <time>2019-02-10T10:07:55Z</time>
      </trkpt>
      <trkpt lat="43.45001" lon="2.16234">
        <ele>719</ele>
        <time>2019-02-10T10:07:58Z</time>
      </trkpt>
      <trkpt lat="43.4499" lon="2.16234">
        <ele>719</ele>
        <time>2019-02-10T10:08:00Z</time>
      </trkpt>
      <trkpt lat="43.44974" lon="2.16238">
        <ele>718</ele>
        <time>2019-02-10T10:08:03Z</time>
      </trkpt>
      <trkpt lat="43.44968" lon="2.16238">
        <ele>718</ele>
        <time>2019-02-10T10:08:04Z</time>
      </trkpt>
      <trkpt lat="43.44962" lon="2.16238">
        <ele>718</ele>
        <time>2019-02-10T10:08:05Z</time>
      </trkpt>
      <trkpt lat="43.44951" lon="2.1624">
        <ele>717</ele>
        <time>2019-02-10T10:08:07Z</time>
      </trkpt>
      <trkpt lat="43.44943" lon="2.16244">
        <ele>717</ele>
        <time>2019-02-10T10:08:09Z</time>
      </trkpt>
      <trkpt lat="43.44931" lon="2.16248">
        <ele>717</ele>
        <time>2019-02-10T10:08:12Z</time>
      </trkpt>
      <trkpt lat="43.44926" lon="2.1625">
        <ele>717</ele>
        <time>2019-02-10T10:08:13Z</time>
      </trkpt>
      <trkpt lat="43.44914" lon="2.16258">
        <ele>718</ele>
        <time>2019-02-10T10:08:16Z</time>
      </trkpt>
      <trkpt lat="43.44911" lon="2.1626">
        <ele>718</ele>
        <time>2019-02-10T10:08:17Z</time>
      </trkpt>
      <trkpt lat="43.44904" lon="2.16266">
        <ele>719</ele>
        <time>2019-02-10T10:08:19Z</time>
      </trkpt>
      <trkpt lat="43.44899" lon="2.16269">
        <ele>720</ele>
        <time>2019-02-10T10:08:21Z</time>
      </trkpt>
      <trkpt lat="43.44889" lon="2.16279">
        <ele>721</ele>
        <time>2019-02-10T10:08:24Z</time>
      </trkpt>
      <trkpt lat="43.44887" lon="2.16284">
        <ele>721</ele>
        <time>2019-02-10T10:08:25Z</time>
      </trkpt>
      <trkpt lat="43.44877" lon="2.16299">
        <ele>722</ele>
        <time>2019-02-10T10:08:29Z</time>
      </trkpt>
      <trkpt lat="43.44865" lon="2.16322">
        <ele>723</ele>
        <time>2019-02-10T10:08:33Z</time>
      </trkpt>
      <trkpt lat="43.44862" lon="2.16326">
        <ele>723</ele>
        <time>2019-02-10T10:08:34Z</time>
      </trkpt>
      <trkpt lat="43.44858" lon="2.16334">
        <ele>724</ele>
        <time>2019-02-10T10:08:36Z</time>
      </trkpt>
      <trkpt lat="43.44855" lon="2.16343">
        <ele>725</ele>
        <time>2019-02-10T10:08:38Z</time>
      </trkpt>
      <trkpt lat="43.44852" lon="2.16351">
        <ele>725</ele>
        <time>2019-02-10T10:08:40Z</time>
      </trkpt>
      <trkpt lat="43.44851" lon="2.16355">
        <ele>725</ele>
        <time>2019-02-10T10:08:41Z</time>
      </trkpt>
      <trkpt lat="43.44849" lon="2.16361">
        <ele>726</ele>
        <time>2019-02-10T10:08:42Z</time>
      </trkpt>
      <trkpt lat="43.44846" lon="2.16373">
        <ele>726</ele>
        <time>2019-02-10T10:08:45Z</time>
      </trkpt>
      <trkpt lat="43.44844" lon="2.16378">
        <ele>727</ele>
        <time>2019-02-10T10:08:46Z</time>
      </trkpt>
      <trkpt lat="43.44843" lon="2.16385">
        <ele>727</ele>
        <time>2019-02-10T10:08:48Z</time>
      </trkpt>
      <trkpt lat="43.44842" lon="2.16395">
        <ele>728</ele>
        <time>2019-02-10T10:08:51Z</time>
      </trkpt>
      <trkpt lat="43.44842" lon="2.16399">
        <ele>728</ele>
        <time>2019-02-10T10:08:52Z</time>
      </trkpt>
      <trkpt lat="43.44841" lon="2.1641">
        <ele>729</ele>
        <time>2019-02-10T10:08:55Z</time>
      </trkpt>
      <trkpt lat="43.4484" lon="2.16419">
        <ele>730</ele>
        <time>2019-02-10T10:08:57Z</time>
      </trkpt>
      <trkpt lat="43.44839" lon="2.16427">
        <ele>730</ele>
        <time>2019-02-10T10:08:59Z</time>
      </trkpt>
      <trkpt lat="43.4484" lon="2.1644">
        <ele>730</ele>
        <time>2019-02-10T10:09:03Z</time>
      </trkpt>
      <trkpt lat="43.44841" lon="2.16449">
        <ele>730</ele>
        <time>2019-02-10T10:09:05Z</time>
      </trkpt>
      <trkpt lat="43.44842" lon="2.1646">
        <ele>731</ele>
        <time>2019-02-10T10:09:08Z</time>
      </trkpt>
      <trkpt lat="43.44841" lon="2.16468">
        <ele>731</ele>
        <time>2019-02-10T10:09:10Z</time>
      </trkpt>
      <trkpt lat="43.4484" lon="2.16481">
        <ele>731</ele>
        <time>2019-02-10T10:09:13Z</time>
      </trkpt>
      <trkpt lat="43.4484" lon="2.16484">
        <ele>731</ele>
        <time>2019-02-10T10:09:14Z</time>
      </trkpt>
      <trkpt lat="43.4484" lon="2.16491">
        <ele>732</ele>
        <time>2019-02-10T10:09:16Z</time>
      </trkpt>
      <trkpt lat="43.44839" lon="2.16495">
        <ele>732</ele>
        <time>2019-02-10T10:09:17Z</time>
      </trkpt>
      <trkpt lat="43.44836" lon="2.16511">
        <ele>733</ele>
        <time>2019-02-10T10:09:22Z</time>
      </trkpt>
      <trkpt lat="43.44838" lon="2.16525">
        <ele>734</ele>
        <time>2019-02-10T10:09:27Z</time>
      </trkpt>
      <trkpt lat="43.44837" lon="2.16542">
        <ele>735</ele>
        <time>2019-02-10T10:09:31Z</time>
      </trkpt>
      <trkpt lat="43.44837" lon="2.16547">
        <ele>735</ele>
        <time>2019-02-10T10:09:33Z</time>
      </trkpt>
      <trkpt lat="43.44835" lon="2.16552">
        <ele>735</ele>
        <time>2019-02-10T10:09:35Z</time>
      </trkpt>
      <trkpt lat="43.44835" lon="2.16553">
        <ele>735</ele>
        <time>2019-02-10T10:09:36Z</time>
      </trkpt>
      <trkpt lat="43.44829" lon="2.16555">
        <ele>736</ele>
        <time>2019-02-10T10:09:40Z</time>
      </trkpt>
      <trkpt lat="43.44822" lon="2.16556">
        <ele>736</ele>
        <time>2019-02-10T10:09:45Z</time>
      </trkpt>
      <trkpt lat="43.44814" lon="2.16556">
        <ele>736</ele>
        <time>2019-02-10T10:09:50Z</time>
      </trkpt>
      <trkpt lat="43.44812" lon="2.16556">
        <ele>736</ele>
        <time>2019-02-10T10:09:51Z</time>
      </trkpt>
      <trkpt lat="43.44796" lon="2.16554">
        <ele>736</ele>
        <time>2019-02-10T10:09:59Z</time>
      </trkpt>
      <trkpt lat="43.44787" lon="2.16548">
        <ele>737</ele>
        <time>2019-02-10T10:10:05Z</time>
      </trkpt>
      <trkpt lat="43.44778" lon="2.16542">
        <ele>737</ele>
        <time>2019-02-10T10:10:10Z</time>
      </trkpt>
      <trkpt lat="43.44777" lon="2.16542">
        <ele>737</ele>
        <time>2019-02-10T10:10:11Z</time>
      </trkpt>
      <trkpt lat="43.44763" lon="2.16534">
        <ele>737</ele>
        <time>2019-02-10T10:10:17Z</time>
      </trkpt>
      <trkpt lat="43.44752" lon="2.16526">
        <ele>737</ele>
        <time>2019-02-10T10:10:21Z</time>
      </trkpt>
      <trkpt lat="43.44739" lon="2.16516">
        <ele>736</ele>
        <time>2019-02-10T10:10:25Z</time>
      </trkpt>
      <trkpt lat="43.44724" lon="2.16516">
        <ele>736</ele>
        <time>2019-02-10T10:10:28Z</time>
      </trkpt>
      <trkpt lat="43.44718" lon="2.16515">
        <ele>735</ele>
        <time>2019-02-10T10:10:29Z</time>
      </trkpt>
      <trkpt lat="43.44711" lon="2.16514">
        <ele>734</ele>
        <time>2019-02-10T10:10:30Z</time>
      </trkpt>
      <trkpt lat="43.44695" lon="2.16513">
        <ele>732</ele>
        <time>2019-02-10T10:10:32Z</time>
      </trkpt>
      <trkpt lat="43.44678" lon="2.16511">
        <ele>731</ele>
        <time>2019-02-10T10:10:34Z</time>
      </trkpt>
      <trkpt lat="43.44661" lon="2.16509">
        <ele>729</ele>
        <time>2019-02-10T10:10:36Z</time>
      </trkpt>
      <trkpt lat="43.44646" lon="2.16505">
        <ele>728</ele>
        <time>2019-02-10T10:10:38Z</time>
      </trkpt>
      <trkpt lat="43.44623" lon="2.16501">
        <ele>728</ele>
        <time>2019-02-10T10:10:41Z</time>
      </trkpt>
      <trkpt lat="43.44617" lon="2.16499">
        <ele>728</ele>
        <time>2019-02-10T10:10:42Z</time>
      </trkpt>
      <trkpt lat="43.44606" lon="2.16491">
        <ele>728</ele>
        <time>2019-02-10T10:10:44Z</time>
      </trkpt>
      <trkpt lat="43.44595" lon="2.16486">
        <ele>727</ele>
        <time>2019-02-10T10:10:46Z</time>
      </trkpt>
      <trkpt lat="43.44589" lon="2.16486">
        <ele>726</ele>
        <time>2019-02-10T10:10:47Z</time>
      </trkpt>
      <trkpt lat="43.44584" lon="2.16487">
        <ele>724</ele>
        <time>2019-02-10T10:10:48Z</time>
      </trkpt>
      <trkpt lat="43.44574" lon="2.16489">
        <ele>722</ele>
        <time>2019-02-10T10:10:50Z</time>
      </trkpt>
      <trkpt lat="43.44567" lon="2.16489">
        <ele>721</ele>
        <time>2019-02-10T10:10:51Z</time>
      </trkpt>
      <trkpt lat="43.44555" lon="2.1649">
        <ele>719</ele>
        <time>2019-02-10T10:10:53Z</time>
      </trkpt>
      <trkpt lat="43.44549" lon="2.16492">
        <ele>718</ele>
        <time>2019-02-10T10:10:54Z</time>
      </trkpt>
      <trkpt lat="43.44544" lon="2.16497">
        <ele>716</ele>
        <time>2019-02-10T10:10:55Z</time>
      </trkpt>
      <trkpt lat="43.44539" lon="2.16501">
        <ele>715</ele>
        <time>2019-02-10T10:10:56Z</time>
      </trkpt>
      <trkpt lat="43.44528" lon="2.16512">
        <ele>713</ele>
        <time>2019-02-10T10:10:58Z</time>
      </trkpt>
      <trkpt lat="43.44522" lon="2.16517">
        <ele>712</ele>
        <time>2019-02-10T10:10:59Z</time>
      </trkpt>
      <trkpt lat="43.44516" lon="2.16521">
        <ele>711</ele>
        <time>2019-02-10T10:11:00Z</time>
      </trkpt>
      <trkpt lat="43.44501" lon="2.16527">
        <ele>711</ele>
        <time>2019-02-10T10:11:02Z</time>
      </trkpt>
      <trkpt lat="43.44493" lon="2.16528">
        <ele>711</ele>
        <time>2019-02-10T10:11:03Z</time>
      </trkpt>
      <trkpt lat="43.44486" lon="2.16529">
        <ele>710</ele>
        <time>2019-02-10T10:11:04Z</time>
      </trkpt>
      <trkpt lat="43.44465" lon="2.16527">
        <ele>710</ele>
        <time>2019-02-10T10:11:07Z</time>
      </trkpt>
      <trkpt lat="43.44458" lon="2.16527">
        <ele>710</ele>
        <time>2019-02-10T10:11:08Z</time>
      </trkpt>
      <trkpt lat="43.44443" lon="2.16528">
        <ele>710</ele>
        <time>2019-02-10T10:11:10Z</time>
      </trkpt>
      <trkpt lat="43.44435" lon="2.16526">
        <ele>710</ele>
        <time>2019-02-10T10:11:11Z</time>
      </trkpt>
      <trkpt lat="43.44413" lon="2.16515">
        <ele>708</ele>
        <time>2019-02-10T10:11:14Z</time>
      </trkpt>
      <trkpt lat="43.44406" lon="2.16512">
        <ele>708</ele>
        <time>2019-02-10T10:11:15Z</time>
      </trkpt>
      <trkpt lat="43.44392" lon="2.16508">
        <ele>707</ele>
        <time>2019-02-10T10:11:17Z</time>
      </trkpt>
      <trkpt lat="43.44377" lon="2.16504">
        <ele>706</ele>
        <time>2019-02-10T10:11:19Z</time>
      </trkpt>
      <trkpt lat="43.44369" lon="2.16504">
        <ele>704</ele>
        <time>2019-02-10T10:11:20Z</time>
      </trkpt>
      <trkpt lat="43.4436" lon="2.16503">
        <ele>703</ele>
        <time>2019-02-10T10:11:21Z</time>
      </trkpt>
      <trkpt lat="43.44352" lon="2.16506">
        <ele>702</ele>
        <time>2019-02-10T10:11:22Z</time>
      </trkpt>
      <trkpt lat="43.44347" lon="2.1651">
        <ele>700</ele>
        <time>2019-02-10T10:11:23Z</time>
      </trkpt>
      <trkpt lat="43.44342" lon="2.16515">
        <ele>700</ele>
        <time>2019-02-10T10:11:24Z</time>
      </trkpt>
      <trkpt lat="43.44337" lon="2.1652">
        <ele>699</ele>
        <time>2019-02-10T10:11:25Z</time>
      </trkpt>
      <trkpt lat="43.44324" lon="2.16525">
        <ele>698</ele>
        <time>2019-02-10T10:11:27Z</time>
      </trkpt>
      <trkpt lat="43.44305" lon="2.1653">
        <ele>697</ele>
        <time>2019-02-10T10:11:30Z</time>
      </trkpt>
      <trkpt lat="43.44297" lon="2.16531">
        <ele>697</ele>
        <time>2019-02-10T10:11:31Z</time>
      </trkpt>
      <trkpt lat="43.44263" lon="2.16545">
        <ele>696</ele>
        <time>2019-02-10T10:11:36Z</time>
      </trkpt>
      <trkpt lat="43.44248" lon="2.16546">
        <ele>696</ele>
        <time>2019-02-10T10:11:38Z</time>
      </trkpt>
      <trkpt lat="43.44232" lon="2.16547">
        <ele>695</ele>
        <time>2019-02-10T10:11:40Z</time>
      </trkpt>
      <trkpt lat="43.44225" lon="2.16547">
        <ele>695</ele>
        <time>2019-02-10T10:11:41Z</time>
      </trkpt>
      <trkpt lat="43.44214" lon="2.16549">
        <ele>693</ele>
        <time>2019-02-10T10:11:43Z</time>
      </trkpt>
      <trkpt lat="43.44208" lon="2.16552">
        <ele>693</ele>
        <time>2019-02-10T10:11:44Z</time>
      </trkpt>
      <trkpt lat="43.44196" lon="2.16555">
        <ele>692</ele>
        <time>2019-02-10T10:11:46Z</time>
      </trkpt>
      <trkpt lat="43.44191" lon="2.16556">
        <ele>691</ele>
        <time>2019-02-10T10:11:47Z</time>
      </trkpt>
      <trkpt lat="43.44187" lon="2.16555">
        <ele>690</ele>
        <time>2019-02-10T10:11:48Z</time>
      </trkpt>
      <trkpt lat="43.44178" lon="2.16551">
        <ele>690</ele>
        <time>2019-02-10T10:11:51Z</time>
      </trkpt>
      <trkpt lat="43.4417" lon="2.16548">
        <ele>690</ele>
        <time>2019-02-10T10:11:53Z</time>
      </trkpt>
      <trkpt lat="43.44166" lon="2.16546">
        <ele>689</ele>
        <time>2019-02-10T10:11:54Z</time>
      </trkpt>
      <trkpt lat="43.44161" lon="2.16544">
        <ele>689</ele>
        <time>2019-02-10T10:11:55Z</time>
      </trkpt>
      <trkpt lat="43.44155" lon="2.16543">
        <ele>689</ele>
        <time>2019-02-10T10:11:56Z</time>
      </trkpt>
      <trkpt lat="43.44141" lon="2.16544">
        <ele>688</ele>
        <time>2019-02-10T10:11:58Z</time>
      </trkpt>
      <trkpt lat="43.44133" lon="2.16545">
        <ele>688</ele>
        <time>2019-02-10T10:11:59Z</time>
      </trkpt>
      <trkpt lat="43.44119" lon="2.16545">
        <ele>687</ele>
        <time>2019-02-10T10:12:01Z</time>
      </trkpt>
      <trkpt lat="43.44106" lon="2.16543">
        <ele>685</ele>
        <time>2019-02-10T10:12:03Z</time>
      </trkpt>
      <trkpt lat="43.441" lon="2.16541">
        <ele>684</ele>
        <time>2019-02-10T10:12:04Z</time>
      </trkpt>
      <trkpt lat="43.44091" lon="2.16535">
        <ele>682</ele>
        <time>2019-02-10T10:12:06Z</time>
      </trkpt>
      <trkpt lat="43.44087" lon="2.16532">
        <ele>681</ele>
        <time>2019-02-10T10:12:07Z</time>
      </trkpt>
      <trkpt lat="43.44084" lon="2.16528">
        <ele>679</ele>
        <time>2019-02-10T10:12:08Z</time>
      </trkpt>
      <trkpt lat="43.44079" lon="2.16522">
        <ele>678</ele>
        <time>2019-02-10T10:12:10Z</time>
      </trkpt>
      <trkpt lat="43.44076" lon="2.16516">
        <ele>677</ele>
        <time>2019-02-10T10:12:11Z</time>
      </trkpt>
      <trkpt lat="43.44072" lon="2.1651">
        <ele>677</ele>
        <time>2019-02-10T10:12:12Z</time>
      </trkpt>
      <trkpt lat="43.44065" lon="2.16498">
        <ele>675</ele>
        <time>2019-02-10T10:12:14Z</time>
      </trkpt>
      <trkpt lat="43.44057" lon="2.1649">
        <ele>674</ele>
        <time>2019-02-10T10:12:16Z</time>
      </trkpt>
      <trkpt lat="43.44039" lon="2.16479">
        <ele>673</ele>
        <time>2019-02-10T10:12:19Z</time>
      </trkpt>
      <trkpt lat="43.44034" lon="2.16474">
        <ele>673</ele>
        <time>2019-02-10T10:12:20Z</time>
      </trkpt>
      <trkpt lat="43.44028" lon="2.1647">
        <ele>672</ele>
        <time>2019-02-10T10:12:21Z</time>
      </trkpt>
      <trkpt lat="43.44021" lon="2.16466">
        <ele>671</ele>
        <time>2019-02-10T10:12:22Z</time>
      </trkpt>
      <trkpt lat="43.44015" lon="2.16461">
        <ele>670</ele>
        <time>2019-02-10T10:12:23Z</time>
      </trkpt>
      <trkpt lat="43.44009" lon="2.16456">
        <ele>669</ele>
        <time>2019-02-10T10:12:24Z</time>
      </trkpt>
      <trkpt lat="43.43989" lon="2.16446">
        <ele>668</ele>
        <time>2019-02-10T10:12:27Z</time>
      </trkpt>
      <trkpt lat="43.43983" lon="2.16444">
        <ele>668</ele>
        <time>2019-02-10T10:12:28Z</time>
      </trkpt>
      <trkpt lat="43.43976" lon="2.16442">
        <ele>667</ele>
        <time>2019-02-10T10:12:29Z</time>
      </trkpt>
      <trkpt lat="43.43969" lon="2.16441">
        <ele>666</ele>
        <time>2019-02-10T10:12:30Z</time>
      </trkpt>
      <trkpt lat="43.43956" lon="2.16444">
        <ele>666</ele>
        <time>2019-02-10T10:12:32Z</time>
      </trkpt>
      <trkpt lat="43.4395" lon="2.16446">
        <ele>665</ele>
        <time>2019-02-10T10:12:33Z</time>
      </trkpt>
      <trkpt lat="43.4394" lon="2.16451">
        <ele>665</ele>
        <time>2019-02-10T10:12:35Z</time>
      </trkpt>
      <trkpt lat="43.43934" lon="2.16454">
        <ele>665</ele>
        <time>2019-02-10T10:12:36Z</time>
      </trkpt>
      <trkpt lat="43.43923" lon="2.16458">
        <ele>665</ele>
        <time>2019-02-10T10:12:38Z</time>
      </trkpt>
      <trkpt lat="43.43911" lon="2.1646">
        <ele>664</ele>
        <time>2019-02-10T10:12:40Z</time>
      </trkpt>
      <trkpt lat="43.43905" lon="2.16461">
        <ele>664</ele>
        <time>2019-02-10T10:12:41Z</time>
      </trkpt>
      <trkpt lat="43.43889" lon="2.16464">
        <ele>664</ele>
        <time>2019-02-10T10:12:44Z</time>
      </trkpt>
      <trkpt lat="43.43872" lon="2.16464">
        <ele>664</ele>
        <time>2019-02-10T10:12:47Z</time>
      </trkpt>
      <trkpt lat="43.43866" lon="2.16465">
        <ele>664</ele>
        <time>2019-02-10T10:12:48Z</time>
      </trkpt>
      <trkpt lat="43.43856" lon="2.16465">
        <ele>663</ele>
        <time>2019-02-10T10:12:50Z</time>
      </trkpt>
      <trkpt lat="43.43839" lon="2.16465">
        <ele>663</ele>
        <time>2019-02-10T10:12:53Z</time>
      </trkpt>
      <trkpt lat="43.43832" lon="2.16467">
        <ele>663</ele>
        <time>2019-02-10T10:12:54Z</time>
      </trkpt>
      <trkpt lat="43.43819" lon="2.16472">
        <ele>661</ele>
        <time>2019-02-10T10:12:56Z</time>
      </trkpt>
      <trkpt lat="43.43813" lon="2.16474">
        <ele>661</ele>
        <time>2019-02-10T10:12:57Z</time>
      </trkpt>
      <trkpt lat="43.43806" lon="2.16478">
        <ele>660</ele>
        <time>2019-02-10T10:12:58Z</time>
      </trkpt>
      <trkpt lat="43.43792" lon="2.16484">
        <ele>659</ele>
        <time>2019-02-10T10:13:00Z</time>
      </trkpt>
      <trkpt lat="43.43784" lon="2.16487">
        <ele>658</ele>
        <time>2019-02-10T10:13:01Z</time>
      </trkpt>
      <trkpt lat="43.43777" lon="2.16491">
        <ele>657</ele>
        <time>2019-02-10T10:13:02Z</time>
      </trkpt>
      <trkpt lat="43.43765" lon="2.16498">
        <ele>655</ele>
        <time>2019-02-10T10:13:04Z</time>
      </trkpt>
      <trkpt lat="43.4376" lon="2.16503">
        <ele>654</ele>
        <time>2019-02-10T10:13:05Z</time>
      </trkpt>
      <trkpt lat="43.43756" lon="2.16507">
        <ele>654</ele>
        <time>2019-02-10T10:13:06Z</time>
      </trkpt>
      <trkpt lat="43.43742" lon="2.16518">
        <ele>652</ele>
        <time>2019-02-10T10:13:08Z</time>
      </trkpt>
      <trkpt lat="43.43735" lon="2.16522">
        <ele>652</ele>
        <time>2019-02-10T10:13:09Z</time>
      </trkpt>
      <trkpt lat="43.43714" lon="2.16529">
        <ele>651</ele>
        <time>2019-02-10T10:13:12Z</time>
      </trkpt>
      <trkpt lat="43.43706" lon="2.1653">
        <ele>651</ele>
        <time>2019-02-10T10:13:13Z</time>
      </trkpt>
      <trkpt lat="43.43686" lon="2.16534">
        <ele>651</ele>
        <time>2019-02-10T10:13:16Z</time>
      </trkpt>
      <trkpt lat="43.4368" lon="2.16536">
        <ele>651</ele>
        <time>2019-02-10T10:13:17Z</time>
      </trkpt>
      <trkpt lat="43.43666" lon="2.16544">
        <ele>650</ele>
        <time>2019-02-10T10:13:20Z</time>
      </trkpt>
      <trkpt lat="43.43661" lon="2.16546">
        <ele>650</ele>
        <time>2019-02-10T10:13:21Z</time>
      </trkpt>
      <trkpt lat="43.43655" lon="2.1655">
        <ele>649</ele>
        <time>2019-02-10T10:13:22Z</time>
      </trkpt>
      <trkpt lat="43.43643" lon="2.16557">
        <ele>649</ele>
        <time>2019-02-10T10:13:24Z</time>
      </trkpt>
      <trkpt lat="43.43637" lon="2.16561">
        <ele>648</ele>
        <time>2019-02-10T10:13:25Z</time>
      </trkpt>
      <trkpt lat="43.43615" lon="2.16572">
        <ele>648</ele>
        <time>2019-02-10T10:13:29Z</time>
      </trkpt>
      <trkpt lat="43.4361" lon="2.16573">
        <ele>647</ele>
        <time>2019-02-10T10:13:30Z</time>
      </trkpt>
      <trkpt lat="43.43583" lon="2.16581">
        <ele>648</ele>
        <time>2019-02-10T10:13:35Z</time>
      </trkpt>
      <trkpt lat="43.4356" lon="2.16586">
        <ele>647</ele>
        <time>2019-02-10T10:13:40Z</time>
      </trkpt>
      <trkpt lat="43.43555" lon="2.16588">
        <ele>647</ele>
        <time>2019-02-10T10:13:41Z</time>
      </trkpt>
      <trkpt lat="43.4354" lon="2.16591">
        <ele>647</ele>
        <time>2019-02-10T10:13:44Z</time>
      </trkpt>
      <trkpt lat="43.4352" lon="2.16595">
        <ele>647</ele>
        <time>2019-02-10T10:13:48Z</time>
      </trkpt>
      <trkpt lat="43.43514" lon="2.16596">
        <ele>647</ele>
        <time>2019-02-10T10:13:49Z</time>
      </trkpt>
      <trkpt lat="43.43496" lon="2.166">
        <ele>647</ele>
        <time>2019-02-10T10:13:53Z</time>
      </trkpt>
      <trkpt lat="43.43492" lon="2.166">
        <ele>647</ele>
        <time>2019-02-10T10:13:54Z</time>
      </trkpt>
      <trkpt lat="43.43478" lon="2.16598">
        <ele>647</ele>
        <time>2019-02-10T10:13:57Z</time>
      </trkpt>
      <trkpt lat="43.43469" lon="2.16596">
        <ele>647</ele>
        <time>2019-02-10T10:13:59Z</time>
      </trkpt>
      <trkpt lat="43.43451" lon="2.16592">
        <ele>647</ele>
        <time>2019-02-10T10:14:03Z</time>
      </trkpt>
      <trkpt lat="43.43443" lon="2.16589">
        <ele>647</ele>
        <time>2019-02-10T10:14:05Z</time>
      </trkpt>
      <trkpt lat="43.43424" lon="2.16576">
        <ele>647</ele>
        <time>2019-02-10T10:14:10Z</time>
      </trkpt>
      <trkpt lat="43.43417" lon="2.16568">
        <ele>647</ele>
        <time>2019-02-10T10:14:12Z</time>
      </trkpt>
      <trkpt lat="43.43402" lon="2.16551">
        <ele>647</ele>
        <time>2019-02-10T10:14:17Z</time>
      </trkpt>
      <trkpt lat="43.43393" lon="2.16544">
        <ele>647</ele>
        <time>2019-02-10T10:14:20Z</time>
      </trkpt>
      <trkpt lat="43.43385" lon="2.1654">
        <ele>647</ele>
        <time>2019-02-10T10:14:22Z</time>
      </trkpt>
      <trkpt lat="43.43366" lon="2.16538">
        <ele>647</ele>
        <time>2019-02-10T10:14:27Z</time>
      </trkpt>
      <trkpt lat="43.43346" lon="2.16535">
        <ele>646</ele>
        <time>2019-02-10T10:14:32Z</time>
      </trkpt>
      <trkpt lat="43.43337" lon="2.16534">
        <ele>646</ele>
        <time>2019-02-10T10:14:34Z</time>
      </trkpt>
      <trkpt lat="43.43303" lon="2.16535">
        <ele>646</ele>
        <time>2019-02-10T10:14:42Z</time>
      </trkpt>
      <trkpt lat="43.43291" lon="2.16538">
        <ele>646</ele>
        <time>2019-02-10T10:14:47Z</time>
      </trkpt>
      <trkpt lat="43.43276" lon="2.16541">
        <ele>646</ele>
        <time>2019-02-10T10:14:53Z</time>
      </trkpt>
      <trkpt lat="43.43267" lon="2.16542">
        <ele>645</ele>
        <time>2019-02-10T10:14:55Z</time>
      </trkpt>
      <trkpt lat="43.43263" lon="2.16543">
        <ele>644</ele>
        <time>2019-02-10T10:14:56Z</time>
      </trkpt>
      <trkpt lat="43.43252" lon="2.16543">
        <ele>644</ele>
        <time>2019-02-10T10:14:59Z</time>
      </trkpt>
      <trkpt lat="43.43245" lon="2.16547">
        <ele>642</ele>
        <time>2019-02-10T10:15:03Z</time>
      </trkpt>
      <trkpt lat="43.43244" lon="2.16547">
        <ele>642</ele>
        <time>2019-02-10T10:15:04Z</time>
      </trkpt>
      <trkpt lat="43.43242" lon="2.16548">
        <ele>642</ele>
        <time>2019-02-10T10:15:06Z</time>
      </trkpt>
      <trkpt lat="43.43241" lon="2.16548">
        <ele>642</ele>
        <time>2019-02-10T10:15:23Z</time>
      </trkpt>
      <trkpt lat="43.4324" lon="2.16547">
        <ele>642</ele>
        <time>2019-02-10T10:15:24Z</time>
      </trkpt>
      <trkpt lat="43.43228" lon="2.16539">
        <ele>642</ele>
        <time>2019-02-10T10:15:29Z</time>
      </trkpt>
      <trkpt lat="43.43212" lon="2.16531">
        <ele>641</ele>
        <time>2019-02-10T10:15:34Z</time>
      </trkpt>
      <trkpt lat="43.43204" lon="2.16529">
        <ele>641</ele>
        <time>2019-02-10T10:15:36Z</time>
      </trkpt>
      <trkpt lat="43.43187" lon="2.16528">
        <ele>642</ele>
        <time>2019-02-10T10:15:41Z</time>
      </trkpt>
      <trkpt lat="43.43183" lon="2.16528">
        <ele>642</ele>
        <time>2019-02-10T10:15:42Z</time>
      </trkpt>
      <trkpt lat="43.4318" lon="2.16528">
        <ele>642</ele>
        <time>2019-02-10T10:15:43Z</time>
      </trkpt>
      <trkpt lat="43.43167" lon="2.16527">
        <ele>643</ele>
        <time>2019-02-10T10:15:47Z</time>
      </trkpt>
      <trkpt lat="43.43164" lon="2.16527">
        <ele>644</ele>
        <time>2019-02-10T10:15:48Z</time>
      </trkpt>
      <trkpt lat="43.43161" lon="2.16527">
        <ele>644</ele>
        <time>2019-02-10T10:15:49Z</time>
      </trkpt>
      <trkpt lat="43.43151" lon="2.16527">
        <ele>645</ele>
        <time>2019-02-10T10:15:52Z</time>
      </trkpt>
      <trkpt lat="43.43148" lon="2.16527">
        <ele>645</ele>
        <time>2019-02-10T10:15:53Z</time>
      </trkpt>
      <trkpt lat="43.43138" lon="2.16527">
        <ele>646</ele>
        <time>2019-02-10T10:15:57Z</time>
      </trkpt>
      <trkpt lat="43.43135" lon="2.16528">
        <ele>646</ele>
        <time>2019-02-10T10:15:58Z</time>
      </trkpt>
      <trkpt lat="43.43127" lon="2.16528">
        <ele>647</ele>
        <time>2019-02-10T10:16:02Z</time>
      </trkpt>
      <trkpt lat="43.43124" lon="2.16529">
        <ele>647</ele>
        <time>2019-02-10T10:16:03Z</time>
      </trkpt>
      <trkpt lat="43.43122" lon="2.16529">
        <ele>648</ele>
        <time>2019-02-10T10:16:04Z</time>
      </trkpt>
      <trkpt lat="43.43115" lon="2.16529">
        <ele>649</ele>
        <time>2019-02-10T10:16:07Z</time>
      </trkpt>
      <trkpt lat="43.43108" lon="2.16531">
        <ele>649</ele>
        <time>2019-02-10T10:16:10Z</time>
      </trkpt>
      <trkpt lat="43.43103" lon="2.16532">
        <ele>650</ele>
        <time>2019-02-10T10:16:12Z</time>
      </trkpt>
      <trkpt lat="43.43095" lon="2.16533">
        <ele>651</ele>
        <time>2019-02-10T10:16:16Z</time>
      </trkpt>
      <trkpt lat="43.43093" lon="2.16534">
        <ele>651</ele>
        <time>2019-02-10T10:16:17Z</time>
      </trkpt>
      <trkpt lat="43.4309" lon="2.16535">
        <ele>652</ele>
        <time>2019-02-10T10:16:19Z</time>
      </trkpt>
      <trkpt lat="43.43082" lon="2.16538">
        <ele>653</ele>
        <time>2019-02-10T10:16:23Z</time>
      </trkpt>
      <trkpt lat="43.4308" lon="2.16539">
        <ele>653</ele>
        <time>2019-02-10T10:16:24Z</time>
      </trkpt>
      <trkpt lat="43.43072" lon="2.16542">
        <ele>654</ele>
        <time>2019-02-10T10:16:28Z</time>
      </trkpt>
      <trkpt lat="43.43069" lon="2.16542">
        <ele>654</ele>
        <time>2019-02-10T10:16:30Z</time>
      </trkpt>
      <trkpt lat="43.43058" lon="2.16544">
        <ele>654</ele>
        <time>2019-02-10T10:16:37Z</time>
      </trkpt>
      <trkpt lat="43.4305" lon="2.16546">
        <ele>654</ele>
        <time>2019-02-10T10:16:41Z</time>
      </trkpt>
      <trkpt lat="43.43049" lon="2.16549">
        <ele>654</ele>
        <time>2019-02-10T10:16:42Z</time>
      </trkpt>
      <trkpt lat="43.43042" lon="2.16569">
        <ele>655</ele>
        <time>2019-02-10T10:16:49Z</time>
      </trkpt>
      <trkpt lat="43.43037" lon="2.1658">
        <ele>655</ele>
        <time>2019-02-10T10:16:53Z</time>
      </trkpt>
      <trkpt lat="43.43034" lon="2.16586">
        <ele>655</ele>
        <time>2019-02-10T10:16:55Z</time>
      </trkpt>
      <trkpt lat="43.43017" lon="2.16607">
        <ele>655</ele>
        <time>2019-02-10T10:17:03Z</time>
      </trkpt>
      <trkpt lat="43.42998" lon="2.16618">
        <ele>654</ele>
        <time>2019-02-10T10:17:08Z</time>
      </trkpt>
      <trkpt lat="43.42994" lon="2.16619">
        <ele>654</ele>
        <time>2019-02-10T10:17:09Z</time>
      </trkpt>
      <trkpt lat="43.42989" lon="2.16622">
        <ele>654</ele>
        <time>2019-02-10T10:17:10Z</time>
      </trkpt>
      <trkpt lat="43.42978" lon="2.1663">
        <ele>653</ele>
        <time>2019-02-10T10:17:12Z</time>
      </trkpt>
      <trkpt lat="43.4297" lon="2.16633">
        <ele>653</ele>
        <time>2019-02-10T10:17:14Z</time>
      </trkpt>
      <trkpt lat="43.42958" lon="2.1664">
        <ele>653</ele>
        <time>2019-02-10T10:17:17Z</time>
      </trkpt>
      <trkpt lat="43.42954" lon="2.16643">
        <ele>653</ele>
        <time>2019-02-10T10:17:18Z</time>
      </trkpt>
      <trkpt lat="43.42947" lon="2.16653">
        <ele>653</ele>
        <time>2019-02-10T10:17:21Z</time>
      </trkpt>
      <trkpt lat="43.4294" lon="2.16669">
        <ele>654</ele>
        <time>2019-02-10T10:17:25Z</time>
      </trkpt>
      <trkpt lat="43.42936" lon="2.16681">
        <ele>654</ele>
        <time>2019-02-10T10:17:28Z</time>
      </trkpt>
      <trkpt lat="43.42924" lon="2.16714">
        <ele>654</ele>
        <time>2019-02-10T10:17:36Z</time>
      </trkpt>
      <trkpt lat="43.42912" lon="2.16745">
        <ele>654</ele>
        <time>2019-02-10T10:17:43Z</time>
      </trkpt>
      <trkpt lat="43.42905" lon="2.16765">
        <ele>654</ele>
        <time>2019-02-10T10:17:47Z</time>
      </trkpt>
      <trkpt lat="43.42901" lon="2.16774">
        <ele>654</ele>
        <time>2019-02-10T10:17:49Z</time>
      </trkpt>
      <trkpt lat="43.4289" lon="2.16807">
        <ele>653</ele>
        <time>2019-02-10T10:17:55Z</time>
      </trkpt>
      <trkpt lat="43.42888" lon="2.16813">
        <ele>653</ele>
        <time>2019-02-10T10:17:56Z</time>
      </trkpt>
      <trkpt lat="43.42883" lon="2.16825">
        <ele>652</ele>
        <time>2019-02-10T10:17:58Z</time>
      </trkpt>
      <trkpt lat="43.42873" lon="2.16851">
        <ele>652</ele>
        <time>2019-02-10T10:18:02Z</time>
      </trkpt>
      <trkpt lat="43.42865" lon="2.16869">
        <ele>651</ele>
        <time>2019-02-10T10:18:05Z</time>
      </trkpt>
      <trkpt lat="43.42858" lon="2.1688">
        <ele>651</ele>
        <time>2019-02-10T10:18:07Z</time>
      </trkpt>
      <trkpt lat="43.42854" lon="2.16885">
        <ele>651</ele>
        <time>2019-02-10T10:18:08Z</time>
      </trkpt>
      <trkpt lat="43.42841" lon="2.16901">
        <ele>650</ele>
        <time>2019-02-10T10:18:11Z</time>
      </trkpt>
      <trkpt lat="43.42822" lon="2.16922">
        <ele>649</ele>
        <time>2019-02-10T10:18:15Z</time>
      </trkpt>
      <trkpt lat="43.42817" lon="2.16928">
        <ele>648</ele>
        <time>2019-02-10T10:18:16Z</time>
      </trkpt>
      <trkpt lat="43.42807" lon="2.16939">
        <ele>648</ele>
        <time>2019-02-10T10:18:18Z</time>
      </trkpt>
      <trkpt lat="43.42802" lon="2.16945">
        <ele>648</ele>
        <time>2019-02-10T10:18:19Z</time>
      </trkpt>
      <trkpt lat="43.42792" lon="2.16956">
        <ele>647</ele>
        <time>2019-02-10T10:18:21Z</time>
      </trkpt>
      <trkpt lat="43.42786" lon="2.16963">
        <ele>646</ele>
        <time>2019-02-10T10:18:22Z</time>
      </trkpt>
      <trkpt lat="43.4277" lon="2.16982">
        <ele>645</ele>
        <time>2019-02-10T10:18:25Z</time>
      </trkpt>
      <trkpt lat="43.42754" lon="2.17002">
        <ele>644</ele>
        <time>2019-02-10T10:18:28Z</time>
      </trkpt>
      <trkpt lat="43.42742" lon="2.17015">
        <ele>643</ele>
        <time>2019-02-10T10:18:30Z</time>
      </trkpt>
      <trkpt lat="43.42732" lon="2.17028">
        <ele>642</ele>
        <time>2019-02-10T10:18:32Z</time>
      </trkpt>
      <trkpt lat="43.42718" lon="2.17045">
        <ele>641</ele>
        <time>2019-02-10T10:18:35Z</time>
      </trkpt>
      <trkpt lat="43.42712" lon="2.17052">
        <ele>640</ele>
        <time>2019-02-10T10:18:36Z</time>
      </trkpt>
      <trkpt lat="43.42701" lon="2.17062">
        <ele>640</ele>
        <time>2019-02-10T10:18:38Z</time>
      </trkpt>
      <trkpt lat="43.42694" lon="2.17065">
        <ele>640</ele>
        <time>2019-02-10T10:18:39Z</time>
      </trkpt>
      <trkpt lat="43.42679" lon="2.17069">
        <ele>639</ele>
        <time>2019-02-10T10:18:41Z</time>
      </trkpt>
      <trkpt lat="43.42671" lon="2.17069">
        <ele>638</ele>
        <time>2019-02-10T10:18:42Z</time>
      </trkpt>
      <trkpt lat="43.42663" lon="2.17069">
        <ele>637</ele>
        <time>2019-02-10T10:18:43Z</time>
      </trkpt>
      <trkpt lat="43.42647" lon="2.17072">
        <ele>636</ele>
        <time>2019-02-10T10:18:45Z</time>
      </trkpt>
      <trkpt lat="43.42639" lon="2.17074">
        <ele>636</ele>
        <time>2019-02-10T10:18:46Z</time>
      </trkpt>
      <trkpt lat="43.42631" lon="2.17077">
        <ele>635</ele>
        <time>2019-02-10T10:18:47Z</time>
      </trkpt>
      <trkpt lat="43.42622" lon="2.1708">
        <ele>635</ele>
        <time>2019-02-10T10:18:48Z</time>
      </trkpt>
      <trkpt lat="43.42613" lon="2.17084">
        <ele>634</ele>
        <time>2019-02-10T10:18:49Z</time>
      </trkpt>
      <trkpt lat="43.42604" lon="2.17087">
        <ele>633</ele>
        <time>2019-02-10T10:18:50Z</time>
      </trkpt>
      <trkpt lat="43.42586" lon="2.17092">
        <ele>632</ele>
        <time>2019-02-10T10:18:52Z</time>
      </trkpt>
      <trkpt lat="43.4256" lon="2.17097">
        <ele>631</ele>
        <time>2019-02-10T10:18:55Z</time>
      </trkpt>
      <trkpt lat="43.42545" lon="2.17096">
        <ele>631</ele>
        <time>2019-02-10T10:18:57Z</time>
      </trkpt>
      <trkpt lat="43.42532" lon="2.17094">
        <ele>632</ele>
        <time>2019-02-10T10:18:59Z</time>
      </trkpt>
      <trkpt lat="43.42522" lon="2.17091">
        <ele>633</ele>
        <time>2019-02-10T10:19:01Z</time>
      </trkpt>
      <trkpt lat="43.42507" lon="2.17085">
        <ele>634</ele>
        <time>2019-02-10T10:19:04Z</time>
      </trkpt>
      <trkpt lat="43.42503" lon="2.17083">
        <ele>635</ele>
        <time>2019-02-10T10:19:05Z</time>
      </trkpt>
      <trkpt lat="43.42489" lon="2.17073">
        <ele>636</ele>
        <time>2019-02-10T10:19:08Z</time>
      </trkpt>
      <trkpt lat="43.4248" lon="2.17067">
        <ele>636</ele>
        <time>2019-02-10T10:19:10Z</time>
      </trkpt>
      <trkpt lat="43.42467" lon="2.17058">
        <ele>637</ele>
        <time>2019-02-10T10:19:13Z</time>
      </trkpt>
      <trkpt lat="43.42454" lon="2.17049">
        <ele>638</ele>
        <time>2019-02-10T10:19:16Z</time>
      </trkpt>
      <trkpt lat="43.4245" lon="2.17046">
        <ele>638</ele>
        <time>2019-02-10T10:19:17Z</time>
      </trkpt>
      <trkpt lat="43.42446" lon="2.17043">
        <ele>638</ele>
        <time>2019-02-10T10:19:18Z</time>
      </trkpt>
      <trkpt lat="43.42425" lon="2.17028">
        <ele>639</ele>
        <time>2019-02-10T10:19:23Z</time>
      </trkpt>
      <trkpt lat="43.42414" lon="2.1702">
        <ele>639</ele>
        <time>2019-02-10T10:19:26Z</time>
      </trkpt>
      <trkpt lat="43.4241" lon="2.17018">
        <ele>639</ele>
        <time>2019-02-10T10:19:27Z</time>
      </trkpt>
      <trkpt lat="43.42395" lon="2.17009">
        <ele>640</ele>
        <time>2019-02-10T10:19:31Z</time>
      </trkpt>
      <trkpt lat="43.42385" lon="2.17004">
        <ele>641</ele>
        <time>2019-02-10T10:19:34Z</time>
      </trkpt>
      <trkpt lat="43.42379" lon="2.17001">
        <ele>641</ele>
        <time>2019-02-10T10:19:36Z</time>
      </trkpt>
      <trkpt lat="43.42372" lon="2.17001">
        <ele>641</ele>
        <time>2019-02-10T10:19:38Z</time>
      </trkpt>
      <trkpt lat="43.42354" lon="2.17002">
        <ele>642</ele>
        <time>2019-02-10T10:19:43Z</time>
      </trkpt>
      <trkpt lat="43.42351" lon="2.17003">
        <ele>642</ele>
        <time>2019-02-10T10:19:44Z</time>
      </trkpt>
      <trkpt lat="43.42334" lon="2.16995">
        <ele>642</ele>
        <time>2019-02-10T10:19:49Z</time>
      </trkpt>
      <trkpt lat="43.42333" lon="2.16981">
        <ele>642</ele>
        <time>2019-02-10T10:19:52Z</time>
      </trkpt>
      <trkpt lat="43.42335" lon="2.16962">
        <ele>643</ele>
        <time>2019-02-10T10:19:56Z</time>
      </trkpt>
      <trkpt lat="43.42334" lon="2.16958">
        <ele>643</ele>
        <time>2019-02-10T10:19:57Z</time>
      </trkpt>
      <trkpt lat="43.4233" lon="2.16935">
        <ele>644</ele>
        <time>2019-02-10T10:20:02Z</time>
      </trkpt>
      <trkpt lat="43.42326" lon="2.16927">
        <ele>644</ele>
        <time>2019-02-10T10:20:04Z</time>
      </trkpt>
      <trkpt lat="43.42324" lon="2.16923">
        <ele>644</ele>
        <time>2019-02-10T10:20:05Z</time>
      </trkpt>
      <trkpt lat="43.42322" lon="2.1692">
        <ele>644</ele>
        <time>2019-02-10T10:20:06Z</time>
      </trkpt>
      <trkpt lat="43.42308" lon="2.16904">
        <ele>645</ele>
        <time>2019-02-10T10:20:11Z</time>
      </trkpt>
      <trkpt lat="43.423" lon="2.16897">
        <ele>645</ele>
        <time>2019-02-10T10:20:14Z</time>
      </trkpt>
      <trkpt lat="43.42296" lon="2.16895">
        <ele>645</ele>
        <time>2019-02-10T10:20:15Z</time>
      </trkpt>
      <trkpt lat="43.42282" lon="2.16888">
        <ele>646</ele>
        <time>2019-02-10T10:20:20Z</time>
      </trkpt>
      <trkpt lat="43.42279" lon="2.16886">
        <ele>646</ele>
        <time>2019-02-10T10:20:21Z</time>
      </trkpt>
      <trkpt lat="43.42262" lon="2.16882">
        <ele>647</ele>
        <time>2019-02-10T10:20:26Z</time>
      </trkpt>
      <trkpt lat="43.42252" lon="2.16884">
        <ele>647</ele>
        <time>2019-02-10T10:20:29Z</time>
      </trkpt>
      <trkpt lat="43.42249" lon="2.16884">
        <ele>647</ele>
        <time>2019-02-10T10:20:30Z</time>
      </trkpt>
      <trkpt lat="43.42235" lon="2.16889">
        <ele>648</ele>
        <time>2019-02-10T10:20:34Z</time>
      </trkpt>
      <trkpt lat="43.42222" lon="2.16893">
        <ele>648</ele>
        <time>2019-02-10T10:20:38Z</time>
      </trkpt>
      <trkpt lat="43.42205" lon="2.16896">
        <ele>649</ele>
        <time>2019-02-10T10:20:43Z</time>
      </trkpt>
      <trkpt lat="43.42201" lon="2.16896">
        <ele>649</ele>
        <time>2019-02-10T10:20:44Z</time>
      </trkpt>
      <trkpt lat="43.42185" lon="2.16894">
        <ele>650</ele>
        <time>2019-02-10T10:20:49Z</time>
      </trkpt>
      <trkpt lat="43.42165" lon="2.16885">
        <ele>651</ele>
        <time>2019-02-10T10:20:55Z</time>
      </trkpt>
      <trkpt lat="43.42162" lon="2.16884">
        <ele>651</ele>
        <time>2019-02-10T10:20:56Z</time>
      </trkpt>
      <trkpt lat="43.42153" lon="2.16878">
        <ele>652</ele>
        <time>2019-02-10T10:20:59Z</time>
      </trkpt>
      <trkpt lat="43.42144" lon="2.16868">
        <ele>652</ele>
        <time>2019-02-10T10:21:03Z</time>
      </trkpt>
      <trkpt lat="43.42133" lon="2.16853">
        <ele>653</ele>
        <time>2019-02-10T10:21:08Z</time>
      </trkpt>
      <trkpt lat="43.42127" lon="2.16844">
        <ele>653</ele>
        <time>2019-02-10T10:21:11Z</time>
      </trkpt>
      <trkpt lat="43.42122" lon="2.16835">
        <ele>654</ele>
        <time>2019-02-10T10:21:14Z</time>
      </trkpt>
      <trkpt lat="43.42117" lon="2.16825">
        <ele>654</ele>
        <time>2019-02-10T10:21:17Z</time>
      </trkpt>
      <trkpt lat="43.42113" lon="2.16823">
        <ele>654</ele>
        <time>2019-02-10T10:21:18Z</time>
      </trkpt>
      <trkpt lat="43.42107" lon="2.16825">
        <ele>654</ele>
        <time>2019-02-10T10:21:20Z</time>
      </trkpt>
      <trkpt lat="43.42106" lon="2.16827">
        <ele>655</ele>
        <time>2019-02-10T10:21:21Z</time>
      </trkpt>
      <trkpt lat="43.42105" lon="2.16834">
        <ele>655</ele>
        <time>2019-02-10T10:21:23Z</time>
      </trkpt>
      <trkpt lat="43.42107" lon="2.16837">
        <ele>656</ele>
        <time>2019-02-10T10:21:24Z</time>
      </trkpt>
      <trkpt lat="43.42108" lon="2.1684">
        <ele>656</ele>
        <time>2019-02-10T10:21:25Z</time>
      </trkpt>
      <trkpt lat="43.42111" lon="2.1685">
        <ele>657</ele>
        <time>2019-02-10T10:21:28Z</time>
      </trkpt>
      <trkpt lat="43.42114" lon="2.16858">
        <ele>658</ele>
        <time>2019-02-10T10:21:31Z</time>
      </trkpt>
      <trkpt lat="43.42115" lon="2.16861">
        <ele>658</ele>
        <time>2019-02-10T10:21:32Z</time>
      </trkpt>
      <trkpt lat="43.42121" lon="2.16877">
        <ele>658</ele>
        <time>2019-02-10T10:21:38Z</time>
      </trkpt>
      <trkpt lat="43.42124" lon="2.16885">
        <ele>659</ele>
        <time>2019-02-10T10:21:41Z</time>
      </trkpt>
      <trkpt lat="43.42127" lon="2.16892">
        <ele>659</ele>
        <time>2019-02-10T10:21:44Z</time>
      </trkpt>
      <trkpt lat="43.42131" lon="2.169">
        <ele>660</ele>
        <time>2019-02-10T10:21:47Z</time>
      </trkpt>
      <trkpt lat="43.42133" lon="2.16903">
        <ele>660</ele>
        <time>2019-02-10T10:21:48Z</time>
      </trkpt>
      <trkpt lat="43.4214" lon="2.16911">
        <ele>661</ele>
        <time>2019-02-10T10:21:53Z</time>
      </trkpt>
      <trkpt lat="43.42144" lon="2.16916">
        <ele>662</ele>
        <time>2019-02-10T10:21:56Z</time>
      </trkpt>
      <trkpt lat="43.42147" lon="2.16917">
        <ele>663</ele>
        <time>2019-02-10T10:21:57Z</time>
      </trkpt>
      <trkpt lat="43.42148" lon="2.16918">
        <ele>663</ele>
        <time>2019-02-10T10:21:58Z</time>
      </trkpt>
      <trkpt lat="43.42157" lon="2.16923">
        <ele>663</ele>
        <time>2019-02-10T10:22:02Z</time>
      </trkpt>
      <trkpt lat="43.42159" lon="2.16924">
        <ele>664</ele>
        <time>2019-02-10T10:22:03Z</time>
      </trkpt>
      <trkpt lat="43.42167" lon="2.16929">
        <ele>664</ele>
        <time>2019-02-10T10:22:07Z</time>
      </trkpt>
      <trkpt lat="43.42174" lon="2.16933">
        <ele>665</ele>
        <time>2019-02-10T10:22:10Z</time>
      </trkpt>
      <trkpt lat="43.42178" lon="2.16934">
        <ele>665</ele>
        <time>2019-02-10T10:22:12Z</time>
      </trkpt>
      <trkpt lat="43.42187" lon="2.16936">
        <ele>666</ele>
        <time>2019-02-10T10:22:16Z</time>
      </trkpt>
      <trkpt lat="43.42191" lon="2.16938">
        <ele>666</ele>
        <time>2019-02-10T10:22:18Z</time>
      </trkpt>
      <trkpt lat="43.42204" lon="2.16944">
        <ele>667</ele>
        <time>2019-02-10T10:22:23Z</time>
      </trkpt>
      <trkpt lat="43.42206" lon="2.16945">
        <ele>667</ele>
        <time>2019-02-10T10:22:24Z</time>
      </trkpt>
      <trkpt lat="43.42213" lon="2.16949">
        <ele>668</ele>
        <time>2019-02-10T10:22:28Z</time>
      </trkpt>
      <trkpt lat="43.42215" lon="2.16952">
        <ele>668</ele>
        <time>2019-02-10T10:22:29Z</time>
      </trkpt>
      <trkpt lat="43.42221" lon="2.16958">
        <ele>669</ele>
        <time>2019-02-10T10:22:32Z</time>
      </trkpt>
      <trkpt lat="43.42223" lon="2.1696">
        <ele>669</ele>
        <time>2019-02-10T10:22:33Z</time>
      </trkpt>
      <trkpt lat="43.42224" lon="2.16962">
        <ele>669</ele>
        <time>2019-02-10T10:22:34Z</time>
      </trkpt>
      <trkpt lat="43.42226" lon="2.16967">
        <ele>669</ele>
        <time>2019-02-10T10:22:36Z</time>
      </trkpt>
      <trkpt lat="43.42228" lon="2.16972">
        <ele>670</ele>
        <time>2019-02-10T10:22:38Z</time>
      </trkpt>
      <trkpt lat="43.42232" lon="2.16988">
        <ele>670</ele>
        <time>2019-02-10T10:22:43Z</time>
      </trkpt>
      <trkpt lat="43.42231" lon="2.17002">
        <ele>671</ele>
        <time>2019-02-10T10:22:48Z</time>
      </trkpt>
      <trkpt lat="43.42232" lon="2.17004">
        <ele>671</ele>
        <time>2019-02-10T10:22:49Z</time>
      </trkpt>
      <trkpt lat="43.42231" lon="2.17012">
        <ele>672</ele>
        <time>2019-02-10T10:22:52Z</time>
      </trkpt>
      <trkpt lat="43.4223" lon="2.1702">
        <ele>672</ele>
        <time>2019-02-10T10:22:55Z</time>
      </trkpt>
      <trkpt lat="43.42229" lon="2.17022">
        <ele>673</ele>
        <time>2019-02-10T10:22:56Z</time>
      </trkpt>
      <trkpt lat="43.42227" lon="2.17031">
        <ele>673</ele>
        <time>2019-02-10T10:22:59Z</time>
      </trkpt>
      <trkpt lat="43.42227" lon="2.17033">
        <ele>673</ele>
        <time>2019-02-10T10:23:00Z</time>
      </trkpt>
      <trkpt lat="43.42226" lon="2.17035">
        <ele>673</ele>
        <time>2019-02-10T10:23:01Z</time>
      </trkpt>
      <trkpt lat="43.42224" lon="2.17045">
        <ele>674</ele>
        <time>2019-02-10T10:23:04Z</time>
      </trkpt>
      <trkpt lat="43.42223" lon="2.17052">
        <ele>675</ele>
        <time>2019-02-10T10:23:06Z</time>
      </trkpt>
      <trkpt lat="43.42221" lon="2.17061">
        <ele>675</ele>
        <time>2019-02-10T10:23:09Z</time>
      </trkpt>
      <trkpt lat="43.42218" lon="2.17071">
        <ele>676</ele>
        <time>2019-02-10T10:23:12Z</time>
      </trkpt>
      <trkpt lat="43.42215" lon="2.17078">
        <ele>676</ele>
        <time>2019-02-10T10:23:14Z</time>
      </trkpt>
      <trkpt lat="43.42211" lon="2.17091">
        <ele>677</ele>
        <time>2019-02-10T10:23:19Z</time>
      </trkpt>
      <trkpt lat="43.4221" lon="2.17094">
        <ele>677</ele>
        <time>2019-02-10T10:23:20Z</time>
      </trkpt>
      <trkpt lat="43.42209" lon="2.17107">
        <ele>678</ele>
        <time>2019-02-10T10:23:25Z</time>
      </trkpt>
      <trkpt lat="43.42205" lon="2.17119">
        <ele>679</ele>
        <time>2019-02-10T10:23:29Z</time>
      </trkpt>
      <trkpt lat="43.42203" lon="2.17126">
        <ele>680</ele>
        <time>2019-02-10T10:23:31Z</time>
      </trkpt>
      <trkpt lat="43.42203" lon="2.17131">
        <ele>680</ele>
        <time>2019-02-10T10:23:33Z</time>
      </trkpt>
      <trkpt lat="43.42201" lon="2.17138">
        <ele>680</ele>
        <time>2019-02-10T10:23:36Z</time>
      </trkpt>
      <trkpt lat="43.42201" lon="2.17143">
        <ele>681</ele>
        <time>2019-02-10T10:23:38Z</time>
      </trkpt>
      <trkpt lat="43.422" lon="2.17147">
        <ele>681</ele>
        <time>2019-02-10T10:23:39Z</time>
      </trkpt>
      <trkpt lat="43.42198" lon="2.1715">
        <ele>681</ele>
        <time>2019-02-10T10:23:40Z</time>
      </trkpt>
      <trkpt lat="43.42197" lon="2.1716">
        <ele>682</ele>
        <time>2019-02-10T10:23:44Z</time>
      </trkpt>
      <trkpt lat="43.42198" lon="2.17162">
        <ele>682</ele>
        <time>2019-02-10T10:23:45Z</time>
      </trkpt>
      <trkpt lat="43.42196" lon="2.1717">
        <ele>682</ele>
        <time>2019-02-10T10:23:48Z</time>
      </trkpt>
      <trkpt lat="43.42194" lon="2.17177">
        <ele>682</ele>
        <time>2019-02-10T10:23:50Z</time>
      </trkpt>
      <trkpt lat="43.42194" lon="2.1718">
        <ele>683</ele>
        <time>2019-02-10T10:23:51Z</time>
      </trkpt>
      <trkpt lat="43.42194" lon="2.17186">
        <ele>683</ele>
        <time>2019-02-10T10:23:53Z</time>
      </trkpt>
      <trkpt lat="43.42196" lon="2.17188">
        <ele>683</ele>
        <time>2019-02-10T10:23:54Z</time>
      </trkpt>
      <trkpt lat="43.42198" lon="2.17203">
        <ele>684</ele>
        <time>2019-02-10T10:23:58Z</time>
      </trkpt>
      <trkpt lat="43.422" lon="2.17221">
        <ele>685</ele>
        <time>2019-02-10T10:24:03Z</time>
      </trkpt>
      <trkpt lat="43.42202" lon="2.17224">
        <ele>685</ele>
        <time>2019-02-10T10:24:04Z</time>
      </trkpt>
      <trkpt lat="43.42204" lon="2.17227">
        <ele>685</ele>
        <time>2019-02-10T10:24:05Z</time>
      </trkpt>
      <trkpt lat="43.42209" lon="2.17232">
        <ele>686</ele>
        <time>2019-02-10T10:24:07Z</time>
      </trkpt>
      <trkpt lat="43.42224" lon="2.17233">
        <ele>686</ele>
        <time>2019-02-10T10:24:12Z</time>
      </trkpt>
      <trkpt lat="43.42237" lon="2.17232">
        <ele>687</ele>
        <time>2019-02-10T10:24:17Z</time>
      </trkpt>
      <trkpt lat="43.42243" lon="2.17227">
        <ele>687</ele>
        <time>2019-02-10T10:24:21Z</time>
      </trkpt>
      <trkpt lat="43.42245" lon="2.17225">
        <ele>688</ele>
        <time>2019-02-10T10:24:22Z</time>
      </trkpt>
      <trkpt lat="43.42253" lon="2.17223">
        <ele>688</ele>
        <time>2019-02-10T10:24:25Z</time>
      </trkpt>
      <trkpt lat="43.42255" lon="2.17223">
        <ele>688</ele>
        <time>2019-02-10T10:24:26Z</time>
      </trkpt>
      <trkpt lat="43.42261" lon="2.17221">
        <ele>689</ele>
        <time>2019-02-10T10:24:28Z</time>
      </trkpt>
      <trkpt lat="43.42272" lon="2.1722">
        <ele>689</ele>
        <time>2019-02-10T10:24:32Z</time>
      </trkpt>
      <trkpt lat="43.4228" lon="2.17221">
        <ele>690</ele>
        <time>2019-02-10T10:24:35Z</time>
      </trkpt>
      <trkpt lat="43.42285" lon="2.17222">
        <ele>690</ele>
        <time>2019-02-10T10:24:37Z</time>
      </trkpt>
      <trkpt lat="43.42297" lon="2.17224">
        <ele>691</ele>
        <time>2019-02-10T10:24:42Z</time>
      </trkpt>
      <trkpt lat="43.423" lon="2.17225">
        <ele>691</ele>
        <time>2019-02-10T10:24:44Z</time>
      </trkpt>
      <trkpt lat="43.42304" lon="2.17225">
        <ele>692</ele>
        <time>2019-02-10T10:24:47Z</time>
      </trkpt>
      <trkpt lat="43.42306" lon="2.17225">
        <ele>692</ele>
        <time>2019-02-10T10:24:49Z</time>
      </trkpt>
      <trkpt lat="43.4231" lon="2.17227">
        <ele>693</ele>
        <time>2019-02-10T10:24:52Z</time>
      </trkpt>
      <trkpt lat="43.42306" lon="2.17233">
        <ele>693</ele>
        <time>2019-02-10T10:24:56Z</time>
      </trkpt>
      <trkpt lat="43.42305" lon="2.17233">
        <ele>693</ele>
        <time>2019-02-10T10:24:57Z</time>
      </trkpt>
      <trkpt lat="43.423" lon="2.17235">
        <ele>693</ele>
        <time>2019-02-10T10:25:00Z</time>
      </trkpt>
      <trkpt lat="43.42297" lon="2.17236">
        <ele>694</ele>
        <time>2019-02-10T10:25:02Z</time>
      </trkpt>
      <trkpt lat="43.42293" lon="2.17237">
        <ele>694</ele>
        <time>2019-02-10T10:25:05Z</time>
      </trkpt>
      <trkpt lat="43.42291" lon="2.17238">
        <ele>695</ele>
        <time>2019-02-10T10:25:06Z</time>
      </trkpt>
      <trkpt lat="43.4229" lon="2.17238">
        <ele>695</ele>
        <time>2019-02-10T10:25:07Z</time>
      </trkpt>
      <trkpt lat="43.42284" lon="2.17242">
        <ele>696</ele>
        <time>2019-02-10T10:25:12Z</time>
      </trkpt>
      <trkpt lat="43.42278" lon="2.17246">
        <ele>697</ele>
        <time>2019-02-10T10:25:17Z</time>
      </trkpt>
      <trkpt lat="43.42276" lon="2.17247">
        <ele>697</ele>
        <time>2019-02-10T10:25:18Z</time>
      </trkpt>
      <trkpt lat="43.42271" lon="2.17251">
        <ele>698</ele>
        <time>2019-02-10T10:25:22Z</time>
      </trkpt>
      <trkpt lat="43.42268" lon="2.17255">
        <ele>699</ele>
        <time>2019-02-10T10:25:26Z</time>
      </trkpt>
      <trkpt lat="43.42265" lon="2.17258">
        <ele>699</ele>
        <time>2019-02-10T10:25:29Z</time>
      </trkpt>
      <trkpt lat="43.4226" lon="2.17262">
        <ele>700</ele>
        <time>2019-02-10T10:25:32Z</time>
      </trkpt>
      <trkpt lat="43.42254" lon="2.17268">
        <ele>700</ele>
        <time>2019-02-10T10:25:35Z</time>
      </trkpt>
      <trkpt lat="43.42251" lon="2.1727">
        <ele>701</ele>
        <time>2019-02-10T10:25:37Z</time>
      </trkpt>
      <trkpt lat="43.42246" lon="2.17275">
        <ele>701</ele>
        <time>2019-02-10T10:25:40Z</time>
      </trkpt>
      <trkpt lat="43.42239" lon="2.17282">
        <ele>702</ele>
        <time>2019-02-10T10:25:44Z</time>
      </trkpt>
      <trkpt lat="43.42238" lon="2.17283">
        <ele>702</ele>
        <time>2019-02-10T10:25:45Z</time>
      </trkpt>
      <trkpt lat="43.42231" lon="2.17293">
        <ele>703</ele>
        <time>2019-02-10T10:25:50Z</time>
      </trkpt>
      <trkpt lat="43.4223" lon="2.17294">
        <ele>703</ele>
        <time>2019-02-10T10:25:51Z</time>
      </trkpt>
      <trkpt lat="43.42228" lon="2.17296">
        <ele>703</ele>
        <time>2019-02-10T10:25:52Z</time>
      </trkpt>
      <trkpt lat="43.42222" lon="2.17301">
        <ele>704</ele>
        <time>2019-02-10T10:25:57Z</time>
      </trkpt>
      <trkpt lat="43.42218" lon="2.17305">
        <ele>704</ele>
        <time>2019-02-10T10:25:59Z</time>
      </trkpt>
      <trkpt lat="43.42213" lon="2.17309">
        <ele>705</ele>
        <time>2019-02-10T10:26:02Z</time>
      </trkpt>
      <trkpt lat="43.4221" lon="2.17312">
        <ele>705</ele>
        <time>2019-02-10T10:26:04Z</time>
      </trkpt>
      <trkpt lat="43.42208" lon="2.17315">
        <ele>705</ele>
        <time>2019-02-10T10:26:06Z</time>
      </trkpt>
      <trkpt lat="43.42207" lon="2.17316">
        <ele>705</ele>
        <time>2019-02-10T10:26:07Z</time>
      </trkpt>
      <trkpt lat="43.42203" lon="2.17319">
        <ele>706</ele>
        <time>2019-02-10T10:26:10Z</time>
      </trkpt>
      <trkpt lat="43.42202" lon="2.17319">
        <ele>706</ele>
        <time>2019-02-10T10:26:11Z</time>
      </trkpt>
      <trkpt lat="43.42198" lon="2.17323">
        <ele>707</ele>
        <time>2019-02-10T10:26:14Z</time>
      </trkpt>
      <trkpt lat="43.42196" lon="2.17327">
        <ele>708</ele>
        <time>2019-02-10T10:26:16Z</time>
      </trkpt>
      <trkpt lat="43.42191" lon="2.17331">
        <ele>708</ele>
        <time>2019-02-10T10:26:20Z</time>
      </trkpt>
      <trkpt lat="43.42189" lon="2.17333">
        <ele>709</ele>
        <time>2019-02-10T10:26:22Z</time>
      </trkpt>
      <trkpt lat="43.42189" lon="2.17334">
        <ele>710</ele>
        <time>2019-02-10T10:26:23Z</time>
      </trkpt>
      <trkpt lat="43.42183" lon="2.17341">
        <ele>711</ele>
        <time>2019-02-10T10:26:30Z</time>
      </trkpt>
      <trkpt lat="43.4218" lon="2.17343">
        <ele>711</ele>
        <time>2019-02-10T10:26:32Z</time>
      </trkpt>
      <trkpt lat="43.42178" lon="2.17346">
        <ele>712</ele>
        <time>2019-02-10T10:26:34Z</time>
      </trkpt>
      <trkpt lat="43.42175" lon="2.17348">
        <ele>712</ele>
        <time>2019-02-10T10:26:36Z</time>
      </trkpt>
      <trkpt lat="43.42172" lon="2.17351">
        <ele>713</ele>
        <time>2019-02-10T10:26:39Z</time>
      </trkpt>
      <trkpt lat="43.42171" lon="2.17352">
        <ele>713</ele>
        <time>2019-02-10T10:26:40Z</time>
      </trkpt>
      <trkpt lat="43.4217" lon="2.17352">
        <ele>713</ele>
        <time>2019-02-10T10:26:41Z</time>
      </trkpt>
      <trkpt lat="43.42169" lon="2.17353">
        <ele>714</ele>
        <time>2019-02-10T10:26:42Z</time>
      </trkpt>
      <trkpt lat="43.42164" lon="2.17356">
        <ele>714</ele>
        <time>2019-02-10T10:26:46Z</time>
      </trkpt>
      <trkpt lat="43.4216" lon="2.17359">
        <ele>714</ele>
        <time>2019-02-10T10:26:48Z</time>
      </trkpt>
      <trkpt lat="43.42156" lon="2.17361">
        <ele>715</ele>
        <time>2019-02-10T10:26:52Z</time>
      </trkpt>
      <trkpt lat="43.42155" lon="2.17362">
        <ele>715</ele>
        <time>2019-02-10T10:26:53Z</time>
      </trkpt>
      <trkpt lat="43.4215" lon="2.17366">
        <ele>716</ele>
        <time>2019-02-10T10:26:58Z</time>
      </trkpt>
      <trkpt lat="43.42149" lon="2.17367">
        <ele>717</ele>
        <time>2019-02-10T10:26:59Z</time>
      </trkpt>
      <trkpt lat="43.42146" lon="2.17371">
        <ele>718</ele>
        <time>2019-02-10T10:27:03Z</time>
      </trkpt>
      <trkpt lat="43.42143" lon="2.17374">
        <ele>718</ele>
        <time>2019-02-10T10:27:06Z</time>
      </trkpt>
      <trkpt lat="43.42139" lon="2.17375">
        <ele>719</ele>
        <time>2019-02-10T10:27:09Z</time>
      </trkpt>
      <trkpt lat="43.42136" lon="2.17376">
        <ele>719</ele>
        <time>2019-02-10T10:27:13Z</time>
      </trkpt>
      <trkpt lat="43.42132" lon="2.17377">
        <ele>720</ele>
        <time>2019-02-10T10:27:17Z</time>
      </trkpt>
      <trkpt lat="43.4213" lon="2.17377">
        <ele>721</ele>
        <time>2019-02-10T10:27:20Z</time>
      </trkpt>
      <trkpt lat="43.4213" lon="2.17378">
        <ele>721</ele>
        <time>2019-02-10T10:27:21Z</time>
      </trkpt>
      <trkpt lat="43.42128" lon="2.17377">
        <ele>721</ele>
        <time>2019-02-10T10:27:23Z</time>
      </trkpt>
      <trkpt lat="43.42127" lon="2.17377">
        <ele>721</ele>
        <time>2019-02-10T10:27:24Z</time>
      </trkpt>
      <trkpt lat="43.42124" lon="2.17377">
        <ele>722</ele>
        <time>2019-02-10T10:27:26Z</time>
      </trkpt>
      <trkpt lat="43.42118" lon="2.17376">
        <ele>722</ele>
        <time>2019-02-10T10:27:30Z</time>
      </trkpt>
      <trkpt lat="43.42116" lon="2.17376">
        <ele>723</ele>
        <time>2019-02-10T10:27:32Z</time>
      </trkpt>
      <trkpt lat="43.42113" lon="2.17376">
        <ele>724</ele>
        <time>2019-02-10T10:27:34Z</time>
      </trkpt>
      <trkpt lat="43.42108" lon="2.17377">
        <ele>724</ele>
        <time>2019-02-10T10:27:38Z</time>
      </trkpt>
      <trkpt lat="43.42106" lon="2.17377">
        <ele>725</ele>
        <time>2019-02-10T10:27:40Z</time>
      </trkpt>
      <trkpt lat="43.42099" lon="2.17375">
        <ele>726</ele>
        <time>2019-02-10T10:27:44Z</time>
      </trkpt>
      <trkpt lat="43.42098" lon="2.17375">
        <ele>727</ele>
        <time>2019-02-10T10:27:45Z</time>
      </trkpt>
      <trkpt lat="43.42093" lon="2.17374">
        <ele>727</ele>
        <time>2019-02-10T10:27:48Z</time>
      </trkpt>
      <trkpt lat="43.4209" lon="2.17373">
        <ele>727</ele>
        <time>2019-02-10T10:27:50Z</time>
      </trkpt>
      <trkpt lat="43.42089" lon="2.1737">
        <ele>728</ele>
        <time>2019-02-10T10:27:52Z</time>
      </trkpt>
      <trkpt lat="43.42087" lon="2.17367">
        <ele>728</ele>
        <time>2019-02-10T10:27:54Z</time>
      </trkpt>
      <trkpt lat="43.42084" lon="2.17361">
        <ele>728</ele>
        <time>2019-02-10T10:27:58Z</time>
      </trkpt>
      <trkpt lat="43.42084" lon="2.17359">
        <ele>728</ele>
        <time>2019-02-10T10:27:59Z</time>
      </trkpt>
      <trkpt lat="43.42081" lon="2.17348">
        <ele>729</ele>
        <time>2019-02-10T10:28:05Z</time>
      </trkpt>
      <trkpt lat="43.42077" lon="2.17333">
        <ele>729</ele>
        <time>2019-02-10T10:28:13Z</time>
      </trkpt>
      <trkpt lat="43.42074" lon="2.17321">
        <ele>729</ele>
        <time>2019-02-10T10:28:19Z</time>
      </trkpt>
      <trkpt lat="43.42073" lon="2.1732">
        <ele>729</ele>
        <time>2019-02-10T10:28:20Z</time>
      </trkpt>
      <trkpt lat="43.42068" lon="2.17309">
        <ele>729</ele>
        <time>2019-02-10T10:28:26Z</time>
      </trkpt>
      <trkpt lat="43.42063" lon="2.17301">
        <ele>730</ele>
        <time>2019-02-10T10:28:32Z</time>
      </trkpt>
      <trkpt lat="43.42061" lon="2.17294">
        <ele>730</ele>
        <time>2019-02-10T10:28:36Z</time>
      </trkpt>
      <trkpt lat="43.42057" lon="2.17287">
        <ele>730</ele>
        <time>2019-02-10T10:28:40Z</time>
      </trkpt>
      <trkpt lat="43.42057" lon="2.17285">
        <ele>730</ele>
        <time>2019-02-10T10:28:41Z</time>
      </trkpt>
      <trkpt lat="43.42055" lon="2.17281">
        <ele>730</ele>
        <time>2019-02-10T10:28:43Z</time>
      </trkpt>
      <trkpt lat="43.4205" lon="2.17268">
        <ele>731</ele>
        <time>2019-02-10T10:28:49Z</time>
      </trkpt>
      <trkpt lat="43.42044" lon="2.17251">
        <ele>730</ele>
        <time>2019-02-10T10:28:56Z</time>
      </trkpt>
      <trkpt lat="43.42038" lon="2.17234">
        <ele>731</ele>
        <time>2019-02-10T10:29:03Z</time>
      </trkpt>
      <trkpt lat="43.42031" lon="2.1722">
        <ele>731</ele>
        <time>2019-02-10T10:29:09Z</time>
      </trkpt>
      <trkpt lat="43.4203" lon="2.17218">
        <ele>731</ele>
        <time>2019-02-10T10:29:10Z</time>
      </trkpt>
      <trkpt lat="43.42023" lon="2.17206">
        <ele>732</ele>
        <time>2019-02-10T10:29:16Z</time>
      </trkpt>
      <trkpt lat="43.42021" lon="2.17202">
        <ele>732</ele>
        <time>2019-02-10T10:29:18Z</time>
      </trkpt>
      <trkpt lat="43.42015" lon="2.17194">
        <ele>732</ele>
        <time>2019-02-10T10:29:25Z</time>
      </trkpt>
      <trkpt lat="43.42013" lon="2.17193">
        <ele>733</ele>
        <time>2019-02-10T10:29:26Z</time>
      </trkpt>
      <trkpt lat="43.42007" lon="2.1719">
        <ele>733</ele>
        <time>2019-02-10T10:29:30Z</time>
      </trkpt>
      <trkpt lat="43.42006" lon="2.1719">
        <ele>733</ele>
        <time>2019-02-10T10:29:31Z</time>
      </trkpt>
      <trkpt lat="43.41998" lon="2.17194">
        <ele>733</ele>
        <time>2019-02-10T10:29:36Z</time>
      </trkpt>
      <trkpt lat="43.41988" lon="2.17197">
        <ele>733</ele>
        <time>2019-02-10T10:29:42Z</time>
      </trkpt>
      <trkpt lat="43.41981" lon="2.17195">
        <ele>733</ele>
        <time>2019-02-10T10:29:47Z</time>
      </trkpt>
      <trkpt lat="43.41974" lon="2.17194">
        <ele>733</ele>
        <time>2019-02-10T10:29:52Z</time>
      </trkpt>
      <trkpt lat="43.41973" lon="2.17194">
        <ele>733</ele>
        <time>2019-02-10T10:29:53Z</time>
      </trkpt>
      <trkpt lat="43.41968" lon="2.17195">
        <ele>734</ele>
        <time>2019-02-10T10:29:57Z</time>
      </trkpt>
      <trkpt lat="43.41963" lon="2.17194">
        <ele>734</ele>
        <time>2019-02-10T10:30:01Z</time>
      </trkpt>
      <trkpt lat="43.41961" lon="2.17193">
        <ele>735</ele>
        <time>2019-02-10T10:30:03Z</time>
      </trkpt>
      <trkpt lat="43.41955" lon="2.17192">
        <ele>735</ele>
        <time>2019-02-10T10:30:08Z</time>
      </trkpt>
      <trkpt lat="43.41954" lon="2.17192">
        <ele>735</ele>
        <time>2019-02-10T10:30:09Z</time>
      </trkpt>
      <trkpt lat="43.41946" lon="2.1719">
        <ele>735</ele>
        <time>2019-02-10T10:30:14Z</time>
      </trkpt>
      <trkpt lat="43.41942" lon="2.17189">
        <ele>734</ele>
        <time>2019-02-10T10:30:17Z</time>
      </trkpt>
      <trkpt lat="43.4194" lon="2.17188">
        <ele>734</ele>
        <time>2019-02-10T10:30:18Z</time>
      </trkpt>
      <trkpt lat="43.41935" lon="2.17188">
        <ele>733</ele>
        <time>2019-02-10T10:30:21Z</time>
      </trkpt>
      <trkpt lat="43.41935" lon="2.17188">
        <ele>733</ele>
        <time>2019-02-10T10:30:22Z</time>
      </trkpt>
      <trkpt lat="43.41934" lon="2.17188">
        <ele>733</ele>
        <time>2019-02-10T10:30:23Z</time>
      </trkpt>
      <trkpt lat="43.41928" lon="2.1719">
        <ele>732</ele>
        <time>2019-02-10T10:30:46Z</time>
      </trkpt>
      <trkpt lat="43.41925" lon="2.17198">
        <ele>732</ele>
        <time>2019-02-10T10:30:49Z</time>
      </trkpt>
      <trkpt lat="43.41923" lon="2.17199">
        <ele>732</ele>
        <time>2019-02-10T10:30:50Z</time>
      </trkpt>
      <trkpt lat="43.41922" lon="2.172">
        <ele>732</ele>
        <time>2019-02-10T10:30:51Z</time>
      </trkpt>
      <trkpt lat="43.41919" lon="2.17201">
        <ele>731</ele>
        <time>2019-02-10T10:30:53Z</time>
      </trkpt>
      <trkpt lat="43.41917" lon="2.17202">
        <ele>731</ele>
        <time>2019-02-10T10:30:54Z</time>
      </trkpt>
      <trkpt lat="43.41914" lon="2.17203">
        <ele>731</ele>
        <time>2019-02-10T10:30:56Z</time>
      </trkpt>
      <trkpt lat="43.41909" lon="2.17204">
        <ele>729</ele>
        <time>2019-02-10T10:30:59Z</time>
      </trkpt>
      <trkpt lat="43.41908" lon="2.17204">
        <ele>729</ele>
        <time>2019-02-10T10:31:00Z</time>
      </trkpt>
      <trkpt lat="43.41906" lon="2.17204">
        <ele>728</ele>
        <time>2019-02-10T10:31:01Z</time>
      </trkpt>
      <trkpt lat="43.41902" lon="2.17204">
        <ele>726</ele>
        <time>2019-02-10T10:31:03Z</time>
      </trkpt>
      <trkpt lat="43.41901" lon="2.17206">
        <ele>725</ele>
        <time>2019-02-10T10:31:04Z</time>
      </trkpt>
      <trkpt lat="43.419" lon="2.17208">
        <ele>725</ele>
        <time>2019-02-10T10:31:05Z</time>
      </trkpt>
      <trkpt lat="43.419" lon="2.1721">
        <ele>724</ele>
        <time>2019-02-10T10:31:06Z</time>
      </trkpt>
      <trkpt lat="43.419" lon="2.17213">
        <ele>723</ele>
        <time>2019-02-10T10:31:07Z</time>
      </trkpt>
      <trkpt lat="43.41898" lon="2.17216">
        <ele>723</ele>
        <time>2019-02-10T10:31:08Z</time>
      </trkpt>
      <trkpt lat="43.41894" lon="2.17222">
        <ele>722</ele>
        <time>2019-02-10T10:31:10Z</time>
      </trkpt>
      <trkpt lat="43.41889" lon="2.17224">
        <ele>721</ele>
        <time>2019-02-10T10:31:12Z</time>
      </trkpt>
      <trkpt lat="43.41886" lon="2.17224">
        <ele>720</ele>
        <time>2019-02-10T10:31:13Z</time>
      </trkpt>
      <trkpt lat="43.41882" lon="2.17226">
        <ele>719</ele>
        <time>2019-02-10T10:31:15Z</time>
      </trkpt>
      <trkpt lat="43.41878" lon="2.17232">
        <ele>717</ele>
        <time>2019-02-10T10:31:17Z</time>
      </trkpt>
      <trkpt lat="43.4187" lon="2.17243">
        <ele>716</ele>
        <time>2019-02-10T10:31:19Z</time>
      </trkpt>
      <trkpt lat="43.41867" lon="2.17249">
        <ele>715</ele>
        <time>2019-02-10T10:31:20Z</time>
      </trkpt>
      <trkpt lat="43.41864" lon="2.17254">
        <ele>715</ele>
        <time>2019-02-10T10:31:21Z</time>
      </trkpt>
      <trkpt lat="43.41863" lon="2.17258">
        <ele>714</ele>
        <time>2019-02-10T10:31:22Z</time>
      </trkpt>
      <trkpt lat="43.41862" lon="2.17261">
        <ele>714</ele>
        <time>2019-02-10T10:31:23Z</time>
      </trkpt>
      <trkpt lat="43.41854" lon="2.17274">
        <ele>714</ele>
        <time>2019-02-10T10:31:27Z</time>
      </trkpt>
      <trkpt lat="43.41853" lon="2.17281">
        <ele>714</ele>
        <time>2019-02-10T10:31:28Z</time>
      </trkpt>
      <trkpt lat="43.4185" lon="2.1729">
        <ele>714</ele>
        <time>2019-02-10T10:31:30Z</time>
      </trkpt>
      <trkpt lat="43.41845" lon="2.17302">
        <ele>714</ele>
        <time>2019-02-10T10:31:33Z</time>
      </trkpt>
      <trkpt lat="43.41842" lon="2.17309">
        <ele>714</ele>
        <time>2019-02-10T10:31:34Z</time>
      </trkpt>
      <trkpt lat="43.4184" lon="2.17315">
        <ele>713</ele>
        <time>2019-02-10T10:31:35Z</time>
      </trkpt>
      <trkpt lat="43.41828" lon="2.1734">
        <ele>712</ele>
        <time>2019-02-10T10:31:40Z</time>
      </trkpt>
      <trkpt lat="43.41823" lon="2.17358">
        <ele>712</ele>
        <time>2019-02-10T10:31:44Z</time>
      </trkpt>
      <trkpt lat="43.41816" lon="2.17372">
        <ele>711</ele>
        <time>2019-02-10T10:31:48Z</time>
      </trkpt>
      <trkpt lat="43.41814" lon="2.17376">
        <ele>711</ele>
        <time>2019-02-10T10:31:49Z</time>
      </trkpt>
      <trkpt lat="43.4181" lon="2.1739">
        <ele>711</ele>
        <time>2019-02-10T10:31:53Z</time>
      </trkpt>
      <trkpt lat="43.41805" lon="2.17403">
        <ele>710</ele>
        <time>2019-02-10T10:31:58Z</time>
      </trkpt>
      <trkpt lat="43.41794" lon="2.17427">
        <ele>710</ele>
        <time>2019-02-10T10:32:03Z</time>
      </trkpt>
      <trkpt lat="43.41789" lon="2.17436">
        <ele>710</ele>
        <time>2019-02-10T10:32:05Z</time>
      </trkpt>
      <trkpt lat="43.41784" lon="2.17446">
        <ele>710</ele>
        <time>2019-02-10T10:32:08Z</time>
      </trkpt>
      <trkpt lat="43.41775" lon="2.17459">
        <ele>709</ele>
        <time>2019-02-10T10:32:12Z</time>
      </trkpt>
      <trkpt lat="43.41771" lon="2.17468">
        <ele>709</ele>
        <time>2019-02-10T10:32:14Z</time>
      </trkpt>
      <trkpt lat="43.41765" lon="2.17477">
        <ele>708</ele>
        <time>2019-02-10T10:32:16Z</time>
      </trkpt>
      <trkpt lat="43.41759" lon="2.17485">
        <ele>708</ele>
        <time>2019-02-10T10:32:18Z</time>
      </trkpt>
      <trkpt lat="43.41756" lon="2.1749">
        <ele>708</ele>
        <time>2019-02-10T10:32:20Z</time>
      </trkpt>
      <trkpt lat="43.41747" lon="2.17498">
        <ele>707</ele>
        <time>2019-02-10T10:32:25Z</time>
      </trkpt>
      <trkpt lat="43.4173" lon="2.17513">
        <ele>707</ele>
        <time>2019-02-10T10:32:29Z</time>
      </trkpt>
      <trkpt lat="43.41726" lon="2.17517">
        <ele>707</ele>
        <time>2019-02-10T10:32:30Z</time>
      </trkpt>
      <trkpt lat="43.4171" lon="2.17528">
        <ele>705</ele>
        <time>2019-02-10T10:32:33Z</time>
      </trkpt>
      <trkpt lat="43.41705" lon="2.17531">
        <ele>705</ele>
        <time>2019-02-10T10:32:34Z</time>
      </trkpt>
      <trkpt lat="43.41701" lon="2.17533">
        <ele>704</ele>
        <time>2019-02-10T10:32:35Z</time>
      </trkpt>
      <trkpt lat="43.41688" lon="2.17542">
        <ele>702</ele>
        <time>2019-02-10T10:32:38Z</time>
      </trkpt>
      <trkpt lat="43.41682" lon="2.1755">
        <ele>700</ele>
        <time>2019-02-10T10:32:40Z</time>
      </trkpt>
      <trkpt lat="43.41674" lon="2.17555">
        <ele>699</ele>
        <time>2019-02-10T10:32:42Z</time>
      </trkpt>
      <trkpt lat="43.41669" lon="2.17559">
        <ele>698</ele>
        <time>2019-02-10T10:32:44Z</time>
      </trkpt>
      <trkpt lat="43.41664" lon="2.17562">
        <ele>696</ele>
        <time>2019-02-10T10:32:45Z</time>
      </trkpt>
      <trkpt lat="43.41659" lon="2.17565">
        <ele>695</ele>
        <time>2019-02-10T10:32:46Z</time>
      </trkpt>
      <trkpt lat="43.41649" lon="2.17571">
        <ele>694</ele>
        <time>2019-02-10T10:32:48Z</time>
      </trkpt>
      <trkpt lat="43.4164" lon="2.17577">
        <ele>694</ele>
        <time>2019-02-10T10:32:50Z</time>
      </trkpt>
      <trkpt lat="43.41629" lon="2.17577">
        <ele>694</ele>
        <time>2019-02-10T10:32:52Z</time>
      </trkpt>
      <trkpt lat="43.41618" lon="2.17568">
        <ele>695</ele>
        <time>2019-02-10T10:32:55Z</time>
      </trkpt>
      <trkpt lat="43.41614" lon="2.17564">
        <ele>695</ele>
        <time>2019-02-10T10:32:56Z</time>
      </trkpt>
      <trkpt lat="43.41607" lon="2.17555">
        <ele>695</ele>
        <time>2019-02-10T10:32:58Z</time>
      </trkpt>
      <trkpt lat="43.41599" lon="2.17546">
        <ele>696</ele>
        <time>2019-02-10T10:33:00Z</time>
      </trkpt>
      <trkpt lat="43.41595" lon="2.17542">
        <ele>696</ele>
        <time>2019-02-10T10:33:01Z</time>
      </trkpt>
      <trkpt lat="43.41591" lon="2.17538">
        <ele>696</ele>
        <time>2019-02-10T10:33:02Z</time>
      </trkpt>
      <trkpt lat="43.41581" lon="2.17528">
        <ele>697</ele>
        <time>2019-02-10T10:33:05Z</time>
      </trkpt>
      <trkpt lat="43.4157" lon="2.1752">
        <ele>698</ele>
        <time>2019-02-10T10:33:08Z</time>
      </trkpt>
      <trkpt lat="43.41563" lon="2.17514">
        <ele>698</ele>
        <time>2019-02-10T10:33:10Z</time>
      </trkpt>
      <trkpt lat="43.41556" lon="2.17509">
        <ele>699</ele>
        <time>2019-02-10T10:33:12Z</time>
      </trkpt>
      <trkpt lat="43.41552" lon="2.17506">
        <ele>699</ele>
        <time>2019-02-10T10:33:13Z</time>
      </trkpt>
      <trkpt lat="43.41542" lon="2.17501">
        <ele>699</ele>
        <time>2019-02-10T10:33:15Z</time>
      </trkpt>
      <trkpt lat="43.41527" lon="2.17491">
        <ele>700</ele>
        <time>2019-02-10T10:33:19Z</time>
      </trkpt>
      <trkpt lat="43.41516" lon="2.17487">
        <ele>701</ele>
        <time>2019-02-10T10:33:22Z</time>
      </trkpt>
      <trkpt lat="43.41512" lon="2.17487">
        <ele>701</ele>
        <time>2019-02-10T10:33:23Z</time>
      </trkpt>
      <trkpt lat="43.41498" lon="2.17488">
        <ele>702</ele>
        <time>2019-02-10T10:33:27Z</time>
      </trkpt>
      <trkpt lat="43.41486" lon="2.17485">
        <ele>702</ele>
        <time>2019-02-10T10:33:31Z</time>
      </trkpt>
      <trkpt lat="43.41477" lon="2.17476">
        <ele>702</ele>
        <time>2019-02-10T10:33:35Z</time>
      </trkpt>
      <trkpt lat="43.41471" lon="2.17457">
        <ele>702</ele>
        <time>2019-02-10T10:33:40Z</time>
      </trkpt>
      <trkpt lat="43.41462" lon="2.17439">
        <ele>702</ele>
        <time>2019-02-10T10:33:45Z</time>
      </trkpt>
      <trkpt lat="43.41451" lon="2.17419">
        <ele>702</ele>
        <time>2019-02-10T10:33:49Z</time>
      </trkpt>
      <trkpt lat="43.41442" lon="2.17409">
        <ele>701</ele>
        <time>2019-02-10T10:33:51Z</time>
      </trkpt>
      <trkpt lat="43.41432" lon="2.17403">
        <ele>700</ele>
        <time>2019-02-10T10:33:53Z</time>
      </trkpt>
      <trkpt lat="43.41425" lon="2.17402">
        <ele>700</ele>
        <time>2019-02-10T10:33:54Z</time>
      </trkpt>
      <trkpt lat="43.41405" lon="2.17403">
        <ele>699</ele>
        <time>2019-02-10T10:33:57Z</time>
      </trkpt>
      <trkpt lat="43.414" lon="2.17403">
        <ele>699</ele>
        <time>2019-02-10T10:33:58Z</time>
      </trkpt>
      <trkpt lat="43.41389" lon="2.17403">
        <ele>698</ele>
        <time>2019-02-10T10:34:00Z</time>
      </trkpt>
      <trkpt lat="43.41385" lon="2.17404">
        <ele>698</ele>
        <time>2019-02-10T10:34:01Z</time>
      </trkpt>
      <trkpt lat="43.4138" lon="2.17406">
        <ele>697</ele>
        <time>2019-02-10T10:34:02Z</time>
      </trkpt>
      <trkpt lat="43.41374" lon="2.17409">
        <ele>697</ele>
        <time>2019-02-10T10:34:03Z</time>
      </trkpt>
      <trkpt lat="43.41364" lon="2.17413">
        <ele>696</ele>
        <time>2019-02-10T10:34:05Z</time>
      </trkpt>
      <trkpt lat="43.41358" lon="2.17414">
        <ele>696</ele>
        <time>2019-02-10T10:34:06Z</time>
      </trkpt>
      <trkpt lat="43.4134" lon="2.17416">
        <ele>695</ele>
        <time>2019-02-10T10:34:09Z</time>
      </trkpt>
      <trkpt lat="43.41328" lon="2.17416">
        <ele>695</ele>
        <time>2019-02-10T10:34:11Z</time>
      </trkpt>
      <trkpt lat="43.41324" lon="2.17415">
        <ele>696</ele>
        <time>2019-02-10T10:34:12Z</time>
      </trkpt>
      <trkpt lat="43.41311" lon="2.17413">
        <ele>695</ele>
        <time>2019-02-10T10:34:15Z</time>
      </trkpt>
      <trkpt lat="43.41307" lon="2.1741">
        <ele>695</ele>
        <time>2019-02-10T10:34:16Z</time>
      </trkpt>
      <trkpt lat="43.413" lon="2.17397">
        <ele>694</ele>
        <time>2019-02-10T10:34:19Z</time>
      </trkpt>
      <trkpt lat="43.41297" lon="2.17389">
        <ele>693</ele>
        <time>2019-02-10T10:34:21Z</time>
      </trkpt>
      <trkpt lat="43.41295" lon="2.17386">
        <ele>693</ele>
        <time>2019-02-10T10:34:22Z</time>
      </trkpt>
      <trkpt lat="43.41292" lon="2.17384">
        <ele>692</ele>
        <time>2019-02-10T10:34:23Z</time>
      </trkpt>
      <trkpt lat="43.41281" lon="2.17383">
        <ele>692</ele>
        <time>2019-02-10T10:34:26Z</time>
      </trkpt>
      <trkpt lat="43.41278" lon="2.17384">
        <ele>692</ele>
        <time>2019-02-10T10:34:27Z</time>
      </trkpt>
      <trkpt lat="43.41262" lon="2.17391">
        <ele>691</ele>
        <time>2019-02-10T10:34:31Z</time>
      </trkpt>
      <trkpt lat="43.41258" lon="2.17394">
        <ele>691</ele>
        <time>2019-02-10T10:34:32Z</time>
      </trkpt>
      <trkpt lat="43.41254" lon="2.17397">
        <ele>690</ele>
        <time>2019-02-10T10:34:33Z</time>
      </trkpt>
      <trkpt lat="43.41242" lon="2.17408">
        <ele>690</ele>
        <time>2019-02-10T10:34:36Z</time>
      </trkpt>
      <trkpt lat="43.41223" lon="2.17426">
        <ele>690</ele>
        <time>2019-02-10T10:34:41Z</time>
      </trkpt>
      <trkpt lat="43.41208" lon="2.17432">
        <ele>690</ele>
        <time>2019-02-10T10:34:45Z</time>
      </trkpt>
      <trkpt lat="43.41192" lon="2.17441">
        <ele>689</ele>
        <time>2019-02-10T10:34:49Z</time>
      </trkpt>
      <trkpt lat="43.41178" lon="2.17447">
        <ele>689</ele>
        <time>2019-02-10T10:34:52Z</time>
      </trkpt>
      <trkpt lat="43.41167" lon="2.17454">
        <ele>689</ele>
        <time>2019-02-10T10:34:54Z</time>
      </trkpt>
      <trkpt lat="43.41156" lon="2.17461">
        <ele>688</ele>
        <time>2019-02-10T10:34:56Z</time>
      </trkpt>
      <trkpt lat="43.41145" lon="2.17467">
        <ele>687</ele>
        <time>2019-02-10T10:34:58Z</time>
      </trkpt>
      <trkpt lat="43.41139" lon="2.17471">
        <ele>686</ele>
        <time>2019-02-10T10:34:59Z</time>
      </trkpt>
      <trkpt lat="43.41118" lon="2.17482">
        <ele>685</ele>
        <time>2019-02-10T10:35:02Z</time>
      </trkpt>
      <trkpt lat="43.41111" lon="2.17486">
        <ele>684</ele>
        <time>2019-02-10T10:35:03Z</time>
      </trkpt>
      <trkpt lat="43.41098" lon="2.17494">
        <ele>683</ele>
        <time>2019-02-10T10:35:05Z</time>
      </trkpt>
      <trkpt lat="43.41083" lon="2.17505">
        <ele>682</ele>
        <time>2019-02-10T10:35:07Z</time>
      </trkpt>
      <trkpt lat="43.41075" lon="2.17513">
        <ele>680</ele>
        <time>2019-02-10T10:35:08Z</time>
      </trkpt>
      <trkpt lat="43.41067" lon="2.17521">
        <ele>679</ele>
        <time>2019-02-10T10:35:09Z</time>
      </trkpt>
      <trkpt lat="43.41052" lon="2.17533">
        <ele>677</ele>
        <time>2019-02-10T10:35:11Z</time>
      </trkpt>
      <trkpt lat="43.41045" lon="2.17538">
        <ele>676</ele>
        <time>2019-02-10T10:35:12Z</time>
      </trkpt>
      <trkpt lat="43.41038" lon="2.17542">
        <ele>676</ele>
        <time>2019-02-10T10:35:13Z</time>
      </trkpt>
      <trkpt lat="43.4102" lon="2.17551">
        <ele>675</ele>
        <time>2019-02-10T10:35:16Z</time>
      </trkpt>
      <trkpt lat="43.40999" lon="2.17562">
        <ele>675</ele>
        <time>2019-02-10T10:35:20Z</time>
      </trkpt>
      <trkpt lat="43.40995" lon="2.17566">
        <ele>675</ele>
        <time>2019-02-10T10:35:21Z</time>
      </trkpt>
      <trkpt lat="43.40988" lon="2.17574">
        <ele>675</ele>
        <time>2019-02-10T10:35:23Z</time>
      </trkpt>
      <trkpt lat="43.4098" lon="2.17586">
        <ele>676</ele>
        <time>2019-02-10T10:35:25Z</time>
      </trkpt>
      <trkpt lat="43.40971" lon="2.17601">
        <ele>677</ele>
        <time>2019-02-10T10:35:28Z</time>
      </trkpt>
      <trkpt lat="43.40968" lon="2.17607">
        <ele>677</ele>
        <time>2019-02-10T10:35:29Z</time>
      </trkpt>
      <trkpt lat="43.40956" lon="2.17616">
        <ele>677</ele>
        <time>2019-02-10T10:35:32Z</time>
      </trkpt>
      <trkpt lat="43.40941" lon="2.17628">
        <ele>678</ele>
        <time>2019-02-10T10:35:36Z</time>
      </trkpt>
      <trkpt lat="43.40932" lon="2.17634">
        <ele>678</ele>
        <time>2019-02-10T10:35:38Z</time>
      </trkpt>
      <trkpt lat="43.40928" lon="2.17637">
        <ele>678</ele>
        <time>2019-02-10T10:35:39Z</time>
      </trkpt>
      <trkpt lat="43.40916" lon="2.1764">
        <ele>678</ele>
        <time>2019-02-10T10:35:41Z</time>
      </trkpt>
      <trkpt lat="43.40906" lon="2.17641">
        <ele>678</ele>
        <time>2019-02-10T10:35:43Z</time>
      </trkpt>
      <trkpt lat="43.40891" lon="2.17642">
        <ele>677</ele>
        <time>2019-02-10T10:35:46Z</time>
      </trkpt>
      <trkpt lat="43.4088" lon="2.17643">
        <ele>677</ele>
        <time>2019-02-10T10:35:48Z</time>
      </trkpt>
      <trkpt lat="43.40871" lon="2.17644">
        <ele>676</ele>
        <time>2019-02-10T10:35:50Z</time>
      </trkpt>
      <trkpt lat="43.40861" lon="2.17647">
        <ele>676</ele>
        <time>2019-02-10T10:35:52Z</time>
      </trkpt>
      <trkpt lat="43.40852" lon="2.17652">
        <ele>674</ele>
        <time>2019-02-10T10:35:54Z</time>
      </trkpt>
      <trkpt lat="43.40848" lon="2.17654">
        <ele>674</ele>
        <time>2019-02-10T10:35:57Z</time>
      </trkpt>
      <trkpt lat="43.40846" lon="2.17656">
        <ele>672</ele>
        <time>2019-02-10T10:39:51Z</time>
      </trkpt>
      <trkpt lat="43.40845" lon="2.17657">
        <ele>672</ele>
        <time>2019-02-10T10:39:52Z</time>
      </trkpt>
      <trkpt lat="43.4084" lon="2.17661">
        <ele>672</ele>
        <time>2019-02-10T10:39:54Z</time>
      </trkpt>
      <trkpt lat="43.40832" lon="2.17672">
        <ele>671</ele>
        <time>2019-02-10T10:39:57Z</time>
      </trkpt>
      <trkpt lat="43.40829" lon="2.17678">
        <ele>670</ele>
        <time>2019-02-10T10:39:58Z</time>
      </trkpt>
      <trkpt lat="43.40826" lon="2.17684">
        <ele>670</ele>
        <time>2019-02-10T10:39:59Z</time>
      </trkpt>
      <trkpt lat="43.40821" lon="2.17691">
        <ele>670</ele>
        <time>2019-02-10T10:40:00Z</time>
      </trkpt>
      <trkpt lat="43.4081" lon="2.17704">
        <ele>668</ele>
        <time>2019-02-10T10:40:02Z</time>
      </trkpt>
      <trkpt lat="43.40804" lon="2.1771">
        <ele>667</ele>
        <time>2019-02-10T10:40:03Z</time>
      </trkpt>
      <trkpt lat="43.4079" lon="2.17723">
        <ele>666</ele>
        <time>2019-02-10T10:40:05Z</time>
      </trkpt>
      <trkpt lat="43.40783" lon="2.17727">
        <ele>665</ele>
        <time>2019-02-10T10:40:06Z</time>
      </trkpt>
      <trkpt lat="43.40776" lon="2.17728">
        <ele>664</ele>
        <time>2019-02-10T10:40:07Z</time>
      </trkpt>
      <trkpt lat="43.40761" lon="2.17734">
        <ele>663</ele>
        <time>2019-02-10T10:40:09Z</time>
      </trkpt>
      <trkpt lat="43.40754" lon="2.17737">
        <ele>663</ele>
        <time>2019-02-10T10:40:10Z</time>
      </trkpt>
      <trkpt lat="43.40741" lon="2.17744">
        <ele>662</ele>
        <time>2019-02-10T10:40:12Z</time>
      </trkpt>
      <trkpt lat="43.40734" lon="2.17747">
        <ele>662</ele>
        <time>2019-02-10T10:40:13Z</time>
      </trkpt>
      <trkpt lat="43.40727" lon="2.1775">
        <ele>662</ele>
        <time>2019-02-10T10:40:14Z</time>
      </trkpt>
      <trkpt lat="43.40699" lon="2.17757">
        <ele>661</ele>
        <time>2019-02-10T10:40:18Z</time>
      </trkpt>
      <trkpt lat="43.40676" lon="2.17764">
        <ele>660</ele>
        <time>2019-02-10T10:40:21Z</time>
      </trkpt>
      <trkpt lat="43.40669" lon="2.17766">
        <ele>659</ele>
        <time>2019-02-10T10:40:22Z</time>
      </trkpt>
      <trkpt lat="43.40663" lon="2.17767">
        <ele>658</ele>
        <time>2019-02-10T10:40:23Z</time>
      </trkpt>
      <trkpt lat="43.40652" lon="2.17767">
        <ele>656</ele>
        <time>2019-02-10T10:40:25Z</time>
      </trkpt>
      <trkpt lat="43.40646" lon="2.17767">
        <ele>655</ele>
        <time>2019-02-10T10:40:26Z</time>
      </trkpt>
      <trkpt lat="43.40641" lon="2.17767">
        <ele>655</ele>
        <time>2019-02-10T10:40:27Z</time>
      </trkpt>
      <trkpt lat="43.40635" lon="2.17767">
        <ele>654</ele>
        <time>2019-02-10T10:40:28Z</time>
      </trkpt>
      <trkpt lat="43.4063" lon="2.17768">
        <ele>653</ele>
        <time>2019-02-10T10:40:29Z</time>
      </trkpt>
      <trkpt lat="43.40626" lon="2.17769">
        <ele>652</ele>
        <time>2019-02-10T10:40:30Z</time>
      </trkpt>
      <trkpt lat="43.40621" lon="2.17769">
        <ele>651</ele>
        <time>2019-02-10T10:40:31Z</time>
      </trkpt>
      <trkpt lat="43.40615" lon="2.17767">
        <ele>649</ele>
        <time>2019-02-10T10:40:33Z</time>
      </trkpt>
      <trkpt lat="43.4061" lon="2.17767">
        <ele>647</ele>
        <time>2019-02-10T10:40:35Z</time>
      </trkpt>
      <trkpt lat="43.40607" lon="2.17768">
        <ele>647</ele>
        <time>2019-02-10T10:40:36Z</time>
      </trkpt>
      <trkpt lat="43.40602" lon="2.17771">
        <ele>646</ele>
        <time>2019-02-10T10:40:37Z</time>
      </trkpt>
      <trkpt lat="43.40592" lon="2.17776">
        <ele>645</ele>
        <time>2019-02-10T10:40:40Z</time>
      </trkpt>
      <trkpt lat="43.40587" lon="2.17779">
        <ele>644</ele>
        <time>2019-02-10T10:40:42Z</time>
      </trkpt>
      <trkpt lat="43.40585" lon="2.1778">
        <ele>643</ele>
        <time>2019-02-10T10:40:43Z</time>
      </trkpt>
      <trkpt lat="43.40583" lon="2.1778">
        <ele>642</ele>
        <time>2019-02-10T10:40:44Z</time>
      </trkpt>
      <trkpt lat="43.40574" lon="2.17771">
        <ele>641</ele>
        <time>2019-02-10T10:40:47Z</time>
      </trkpt>
      <trkpt lat="43.40567" lon="2.17762">
        <ele>639</ele>
        <time>2019-02-10T10:40:49Z</time>
      </trkpt>
      <trkpt lat="43.40565" lon="2.17759">
        <ele>639</ele>
        <time>2019-02-10T10:40:50Z</time>
      </trkpt>
      <trkpt lat="43.40564" lon="2.17756">
        <ele>638</ele>
        <time>2019-02-10T10:40:51Z</time>
      </trkpt>
      <trkpt lat="43.40563" lon="2.17744">
        <ele>638</ele>
        <time>2019-02-10T10:40:54Z</time>
      </trkpt>
      <trkpt lat="43.40561" lon="2.1774">
        <ele>638</ele>
        <time>2019-02-10T10:40:55Z</time>
      </trkpt>
      <trkpt lat="43.40559" lon="2.17725">
        <ele>637</ele>
        <time>2019-02-10T10:40:59Z</time>
      </trkpt>
      <trkpt lat="43.40558" lon="2.17716">
        <ele>637</ele>
        <time>2019-02-10T10:41:01Z</time>
      </trkpt>
      <trkpt lat="43.40554" lon="2.1771">
        <ele>637</ele>
        <time>2019-02-10T10:41:02Z</time>
      </trkpt>
      <trkpt lat="43.4055" lon="2.17706">
        <ele>637</ele>
        <time>2019-02-10T10:41:03Z</time>
      </trkpt>
      <trkpt lat="43.4054" lon="2.17696">
        <ele>637</ele>
        <time>2019-02-10T10:41:06Z</time>
      </trkpt>
      <trkpt lat="43.40528" lon="2.17679">
        <ele>637</ele>
        <time>2019-02-10T10:41:11Z</time>
      </trkpt>
      <trkpt lat="43.40521" lon="2.17662">
        <ele>638</ele>
        <time>2019-02-10T10:41:16Z</time>
      </trkpt>
      <trkpt lat="43.40518" lon="2.17656">
        <ele>638</ele>
        <time>2019-02-10T10:41:18Z</time>
      </trkpt>
      <trkpt lat="43.40515" lon="2.1765">
        <ele>639</ele>
        <time>2019-02-10T10:41:20Z</time>
      </trkpt>
      <trkpt lat="43.40507" lon="2.17644">
        <ele>638</ele>
        <time>2019-02-10T10:41:24Z</time>
      </trkpt>
      <trkpt lat="43.40504" lon="2.17643">
        <ele>638</ele>
        <time>2019-02-10T10:41:25Z</time>
      </trkpt>
      <trkpt lat="43.40497" lon="2.17643">
        <ele>639</ele>
        <time>2019-02-10T10:41:28Z</time>
      </trkpt>
      <trkpt lat="43.40494" lon="2.17643">
        <ele>640</ele>
        <time>2019-02-10T10:41:29Z</time>
      </trkpt>
      <trkpt lat="43.40489" lon="2.17643">
        <ele>640</ele>
        <time>2019-02-10T10:41:31Z</time>
      </trkpt>
      <trkpt lat="43.40482" lon="2.17642">
        <ele>641</ele>
        <time>2019-02-10T10:41:34Z</time>
      </trkpt>
      <trkpt lat="43.40475" lon="2.17644">
        <ele>641</ele>
        <time>2019-02-10T10:41:37Z</time>
      </trkpt>
      <trkpt lat="43.40464" lon="2.17647">
        <ele>642</ele>
        <time>2019-02-10T10:41:42Z</time>
      </trkpt>
      <trkpt lat="43.40462" lon="2.17647">
        <ele>642</ele>
        <time>2019-02-10T10:41:43Z</time>
      </trkpt>
      <trkpt lat="43.40456" lon="2.17648">
        <ele>643</ele>
        <time>2019-02-10T10:41:46Z</time>
      </trkpt>
      <trkpt lat="43.40454" lon="2.17649">
        <ele>643</ele>
        <time>2019-02-10T10:41:47Z</time>
      </trkpt>
      <trkpt lat="43.40444" lon="2.17653">
        <ele>643</ele>
        <time>2019-02-10T10:41:52Z</time>
      </trkpt>
      <trkpt lat="43.40441" lon="2.17654">
        <ele>643</ele>
        <time>2019-02-10T10:41:53Z</time>
      </trkpt>
      <trkpt lat="43.40431" lon="2.17658">
        <ele>644</ele>
        <time>2019-02-10T10:41:57Z</time>
      </trkpt>
      <trkpt lat="43.40424" lon="2.17661">
        <ele>644</ele>
        <time>2019-02-10T10:42:00Z</time>
      </trkpt>
      <trkpt lat="43.40418" lon="2.17664">
        <ele>644</ele>
        <time>2019-02-10T10:42:03Z</time>
      </trkpt>
      <trkpt lat="43.40413" lon="2.17669">
        <ele>645</ele>
        <time>2019-02-10T10:42:06Z</time>
      </trkpt>
      <trkpt lat="43.40408" lon="2.17676">
        <ele>645</ele>
        <time>2019-02-10T10:42:09Z</time>
      </trkpt>
      <trkpt lat="43.40399" lon="2.17689">
        <ele>646</ele>
        <time>2019-02-10T10:42:15Z</time>
      </trkpt>
      <trkpt lat="43.40396" lon="2.17693">
        <ele>646</ele>
        <time>2019-02-10T10:42:17Z</time>
      </trkpt>
      <trkpt lat="43.4039" lon="2.177">
        <ele>647</ele>
        <time>2019-02-10T10:42:21Z</time>
      </trkpt>
      <trkpt lat="43.40385" lon="2.17708">
        <ele>647</ele>
        <time>2019-02-10T10:42:25Z</time>
      </trkpt>
      <trkpt lat="43.40378" lon="2.17714">
        <ele>648</ele>
        <time>2019-02-10T10:42:28Z</time>
      </trkpt>
      <trkpt lat="43.40374" lon="2.17718">
        <ele>648</ele>
        <time>2019-02-10T10:42:30Z</time>
      </trkpt>
      <trkpt lat="43.40363" lon="2.17728">
        <ele>649</ele>
        <time>2019-02-10T10:42:35Z</time>
      </trkpt>
      <trkpt lat="43.4035" lon="2.17741">
        <ele>649</ele>
        <time>2019-02-10T10:42:41Z</time>
      </trkpt>
      <trkpt lat="43.40348" lon="2.17743">
        <ele>649</ele>
        <time>2019-02-10T10:42:42Z</time>
      </trkpt>
      <trkpt lat="43.40342" lon="2.17754">
        <ele>650</ele>
        <time>2019-02-10T10:42:46Z</time>
      </trkpt>
      <trkpt lat="43.40335" lon="2.17769">
        <ele>650</ele>
        <time>2019-02-10T10:42:51Z</time>
      </trkpt>
      <trkpt lat="43.40333" lon="2.17772">
        <ele>650</ele>
        <time>2019-02-10T10:42:52Z</time>
      </trkpt>
      <trkpt lat="43.40325" lon="2.17785">
        <ele>650</ele>
        <time>2019-02-10T10:42:57Z</time>
      </trkpt>
      <trkpt lat="43.40315" lon="2.17807">
        <ele>651</ele>
        <time>2019-02-10T10:43:04Z</time>
      </trkpt>
      <trkpt lat="43.4031" lon="2.17821">
        <ele>651</ele>
        <time>2019-02-10T10:43:08Z</time>
      </trkpt>
      <trkpt lat="43.40308" lon="2.17829">
        <ele>651</ele>
        <time>2019-02-10T10:43:10Z</time>
      </trkpt>
      <trkpt lat="43.40298" lon="2.17847">
        <ele>651</ele>
        <time>2019-02-10T10:43:15Z</time>
      </trkpt>
      <trkpt lat="43.40285" lon="2.17868">
        <ele>651</ele>
        <time>2019-02-10T10:43:21Z</time>
      </trkpt>
      <trkpt lat="43.40271" lon="2.17884">
        <ele>650</ele>
        <time>2019-02-10T10:43:26Z</time>
      </trkpt>
      <trkpt lat="43.40268" lon="2.17887">
        <ele>650</ele>
        <time>2019-02-10T10:43:27Z</time>
      </trkpt>
      <trkpt lat="43.40256" lon="2.17898">
        <ele>649</ele>
        <time>2019-02-10T10:43:31Z</time>
      </trkpt>
      <trkpt lat="43.40253" lon="2.17901">
        <ele>649</ele>
        <time>2019-02-10T10:43:32Z</time>
      </trkpt>
      <trkpt lat="43.40245" lon="2.17906">
        <ele>648</ele>
        <time>2019-02-10T10:43:34Z</time>
      </trkpt>
      <trkpt lat="43.40242" lon="2.17909">
        <ele>648</ele>
        <time>2019-02-10T10:43:35Z</time>
      </trkpt>
      <trkpt lat="43.40234" lon="2.17914">
        <ele>647</ele>
        <time>2019-02-10T10:43:37Z</time>
      </trkpt>
      <trkpt lat="43.4023" lon="2.17916">
        <ele>647</ele>
        <time>2019-02-10T10:43:38Z</time>
      </trkpt>
      <trkpt lat="43.40217" lon="2.17928">
        <ele>647</ele>
        <time>2019-02-10T10:43:42Z</time>
      </trkpt>
      <trkpt lat="43.4021" lon="2.17935">
        <ele>647</ele>
        <time>2019-02-10T10:43:47Z</time>
      </trkpt>
      <trkpt lat="43.40209" lon="2.17936">
        <ele>647</ele>
        <time>2019-02-10T10:43:48Z</time>
      </trkpt>
      <trkpt lat="43.40207" lon="2.17937">
        <ele>647</ele>
        <time>2019-02-10T10:43:49Z</time>
      </trkpt>
      <trkpt lat="43.402" lon="2.17941">
        <ele>647</ele>
        <time>2019-02-10T10:43:52Z</time>
      </trkpt>
      <trkpt lat="43.40195" lon="2.17945">
        <ele>647</ele>
        <time>2019-02-10T10:43:54Z</time>
      </trkpt>
      <trkpt lat="43.40183" lon="2.17949">
        <ele>646</ele>
        <time>2019-02-10T10:43:58Z</time>
      </trkpt>
      <trkpt lat="43.40169" lon="2.17954">
        <ele>648</ele>
        <time>2019-02-10T10:44:04Z</time>
      </trkpt>
      <trkpt lat="43.40166" lon="2.17955">
        <ele>648</ele>
        <time>2019-02-10T10:44:06Z</time>
      </trkpt>
      <trkpt lat="43.40164" lon="2.17956">
        <ele>648</ele>
        <time>2019-02-10T10:44:07Z</time>
      </trkpt>
      <trkpt lat="43.40157" lon="2.17964">
        <ele>648</ele>
        <time>2019-02-10T10:44:11Z</time>
      </trkpt>
      <trkpt lat="43.40161" lon="2.17969">
        <ele>648</ele>
        <time>2019-02-10T10:44:14Z</time>
      </trkpt>
      <trkpt lat="43.40164" lon="2.17974">
        <ele>648</ele>
        <time>2019-02-10T10:44:17Z</time>
      </trkpt>
      <trkpt lat="43.40165" lon="2.17976">
        <ele>648</ele>
        <time>2019-02-10T10:44:18Z</time>
      </trkpt>
      <trkpt lat="43.40172" lon="2.1798">
        <ele>648</ele>
        <time>2019-02-10T10:44:21Z</time>
      </trkpt>
      <trkpt lat="43.4019" lon="2.17993">
        <ele>648</ele>
        <time>2019-02-10T10:44:27Z</time>
      </trkpt>
      <trkpt lat="43.40211" lon="2.18006">
        <ele>649</ele>
        <time>2019-02-10T10:44:33Z</time>
      </trkpt>
      <trkpt lat="43.40214" lon="2.18008">
        <ele>649</ele>
        <time>2019-02-10T10:44:34Z</time>
      </trkpt>
      <trkpt lat="43.40232" lon="2.18022">
        <ele>650</ele>
        <time>2019-02-10T10:44:40Z</time>
      </trkpt>
      <trkpt lat="43.40235" lon="2.18024">
        <ele>650</ele>
        <time>2019-02-10T10:44:41Z</time>
      </trkpt>
      <trkpt lat="43.40253" lon="2.18042">
        <ele>650</ele>
        <time>2019-02-10T10:44:49Z</time>
      </trkpt>
      <trkpt lat="43.40256" lon="2.18047">
        <ele>651</ele>
        <time>2019-02-10T10:44:51Z</time>
      </trkpt>
      <trkpt lat="43.40263" lon="2.1806">
        <ele>652</ele>
        <time>2019-02-10T10:44:56Z</time>
      </trkpt>
      <trkpt lat="43.40269" lon="2.18071">
        <ele>652</ele>
        <time>2019-02-10T10:45:00Z</time>
      </trkpt>
      <trkpt lat="43.40274" lon="2.18083">
        <ele>652</ele>
        <time>2019-02-10T10:45:04Z</time>
      </trkpt>
      <trkpt lat="43.40284" lon="2.18099">
        <ele>653</ele>
        <time>2019-02-10T10:45:10Z</time>
      </trkpt>
      <trkpt lat="43.40287" lon="2.18102">
        <ele>653</ele>
        <time>2019-02-10T10:45:12Z</time>
      </trkpt>
      <trkpt lat="43.40296" lon="2.18109">
        <ele>654</ele>
        <time>2019-02-10T10:45:16Z</time>
      </trkpt>
      <trkpt lat="43.40302" lon="2.18113">
        <ele>655</ele>
        <time>2019-02-10T10:45:19Z</time>
      </trkpt>
      <trkpt lat="43.40306" lon="2.18114">
        <ele>655</ele>
        <time>2019-02-10T10:45:21Z</time>
      </trkpt>
      <trkpt lat="43.40322" lon="2.18119">
        <ele>656</ele>
        <time>2019-02-10T10:45:28Z</time>
      </trkpt>
      <trkpt lat="43.40326" lon="2.1812">
        <ele>656</ele>
        <time>2019-02-10T10:45:30Z</time>
      </trkpt>
      <trkpt lat="43.40338" lon="2.18122">
        <ele>657</ele>
        <time>2019-02-10T10:45:36Z</time>
      </trkpt>
      <trkpt lat="43.40342" lon="2.18122">
        <ele>658</ele>
        <time>2019-02-10T10:45:38Z</time>
      </trkpt>
      <trkpt lat="43.40349" lon="2.18123">
        <ele>658</ele>
        <time>2019-02-10T10:45:41Z</time>
      </trkpt>
      <trkpt lat="43.40361" lon="2.18125">
        <ele>659</ele>
        <time>2019-02-10T10:45:47Z</time>
      </trkpt>
      <trkpt lat="43.40363" lon="2.18124">
        <ele>659</ele>
        <time>2019-02-10T10:45:48Z</time>
      </trkpt>
      <trkpt lat="43.40377" lon="2.18124">
        <ele>660</ele>
        <time>2019-02-10T10:45:55Z</time>
      </trkpt>
      <trkpt lat="43.40388" lon="2.18123">
        <ele>661</ele>
        <time>2019-02-10T10:46:01Z</time>
      </trkpt>
      <trkpt lat="43.40399" lon="2.1812">
        <ele>662</ele>
        <time>2019-02-10T10:46:06Z</time>
      </trkpt>
      <trkpt lat="43.40401" lon="2.1812">
        <ele>662</ele>
        <time>2019-02-10T10:46:07Z</time>
      </trkpt>
      <trkpt lat="43.4041" lon="2.18116">
        <ele>663</ele>
        <time>2019-02-10T10:46:12Z</time>
      </trkpt>
      <trkpt lat="43.40412" lon="2.18116">
        <ele>664</ele>
        <time>2019-02-10T10:46:13Z</time>
      </trkpt>
      <trkpt lat="43.40419" lon="2.18117">
        <ele>664</ele>
        <time>2019-02-10T10:46:17Z</time>
      </trkpt>
      <trkpt lat="43.4042" lon="2.1812">
        <ele>664</ele>
        <time>2019-02-10T10:46:18Z</time>
      </trkpt>
      <trkpt lat="43.40419" lon="2.18125">
        <ele>665</ele>
        <time>2019-02-10T10:46:20Z</time>
      </trkpt>
      <trkpt lat="43.40416" lon="2.18132">
        <ele>665</ele>
        <time>2019-02-10T10:46:23Z</time>
      </trkpt>
      <trkpt lat="43.40414" lon="2.18136">
        <ele>666</ele>
        <time>2019-02-10T10:46:25Z</time>
      </trkpt>
      <trkpt lat="43.40412" lon="2.18138">
        <ele>666</ele>
        <time>2019-02-10T10:46:26Z</time>
      </trkpt>
      <trkpt lat="43.40406" lon="2.18147">
        <ele>666</ele>
        <time>2019-02-10T10:46:31Z</time>
      </trkpt>
      <trkpt lat="43.40401" lon="2.18155">
        <ele>667</ele>
        <time>2019-02-10T10:46:34Z</time>
      </trkpt>
      <trkpt lat="43.40393" lon="2.1817">
        <ele>668</ele>
        <time>2019-02-10T10:46:40Z</time>
      </trkpt>
      <trkpt lat="43.40385" lon="2.18189">
        <ele>669</ele>
        <time>2019-02-10T10:46:47Z</time>
      </trkpt>
      <trkpt lat="43.40378" lon="2.18207">
        <ele>670</ele>
        <time>2019-02-10T10:46:54Z</time>
      </trkpt>
      <trkpt lat="43.40375" lon="2.18215">
        <ele>670</ele>
        <time>2019-02-10T10:46:57Z</time>
      </trkpt>
      <trkpt lat="43.40373" lon="2.1822">
        <ele>671</ele>
        <time>2019-02-10T10:46:59Z</time>
      </trkpt>
      <trkpt lat="43.40365" lon="2.18235">
        <ele>671</ele>
        <time>2019-02-10T10:47:05Z</time>
      </trkpt>
      <trkpt lat="43.40361" lon="2.18241">
        <ele>672</ele>
        <time>2019-02-10T10:47:08Z</time>
      </trkpt>
      <trkpt lat="43.40355" lon="2.18248">
        <ele>673</ele>
        <time>2019-02-10T10:47:12Z</time>
      </trkpt>
      <trkpt lat="43.40353" lon="2.1825">
        <ele>673</ele>
        <time>2019-02-10T10:47:13Z</time>
      </trkpt>
      <trkpt lat="43.40342" lon="2.18263">
        <ele>674</ele>
        <time>2019-02-10T10:47:20Z</time>
      </trkpt>
      <trkpt lat="43.40341" lon="2.18265">
        <ele>675</ele>
        <time>2019-02-10T10:47:21Z</time>
      </trkpt>
      <trkpt lat="43.40331" lon="2.18277">
        <ele>675</ele>
        <time>2019-02-10T10:47:27Z</time>
      </trkpt>
      <trkpt lat="43.40327" lon="2.18283">
        <ele>676</ele>
        <time>2019-02-10T10:47:30Z</time>
      </trkpt>
      <trkpt lat="43.40317" lon="2.18295">
        <ele>676</ele>
        <time>2019-02-10T10:47:36Z</time>
      </trkpt>
      <trkpt lat="43.40312" lon="2.18302">
        <ele>677</ele>
        <time>2019-02-10T10:47:39Z</time>
      </trkpt>
      <trkpt lat="43.40307" lon="2.18313">
        <ele>678</ele>
        <time>2019-02-10T10:47:43Z</time>
      </trkpt>
      <trkpt lat="43.40306" lon="2.18321">
        <ele>678</ele>
        <time>2019-02-10T10:47:46Z</time>
      </trkpt>
      <trkpt lat="43.40305" lon="2.1833">
        <ele>679</ele>
        <time>2019-02-10T10:47:49Z</time>
      </trkpt>
      <trkpt lat="43.40306" lon="2.18345">
        <ele>679</ele>
        <time>2019-02-10T10:47:54Z</time>
      </trkpt>
      <trkpt lat="43.40306" lon="2.18358">
        <ele>680</ele>
        <time>2019-02-10T10:47:58Z</time>
      </trkpt>
      <trkpt lat="43.40307" lon="2.18373">
        <ele>681</ele>
        <time>2019-02-10T10:48:03Z</time>
      </trkpt>
      <trkpt lat="43.40311" lon="2.18401">
        <ele>682</ele>
        <time>2019-02-10T10:48:11Z</time>
      </trkpt>
      <trkpt lat="43.40318" lon="2.18434">
        <ele>682</ele>
        <time>2019-02-10T10:48:20Z</time>
      </trkpt>
      <trkpt lat="43.4032" lon="2.1845">
        <ele>682</ele>
        <time>2019-02-10T10:48:24Z</time>
      </trkpt>
      <trkpt lat="43.40325" lon="2.18483">
        <ele>682</ele>
        <time>2019-02-10T10:48:32Z</time>
      </trkpt>
      <trkpt lat="43.40328" lon="2.18512">
        <ele>683</ele>
        <time>2019-02-10T10:48:39Z</time>
      </trkpt>
      <trkpt lat="43.40329" lon="2.18524">
        <ele>683</ele>
        <time>2019-02-10T10:48:42Z</time>
      </trkpt>
      <trkpt lat="43.40331" lon="2.18539">
        <ele>684</ele>
        <time>2019-02-10T10:48:46Z</time>
      </trkpt>
      <trkpt lat="43.40332" lon="2.18551">
        <ele>685</ele>
        <time>2019-02-10T10:48:49Z</time>
      </trkpt>
      <trkpt lat="43.40333" lon="2.18558">
        <ele>685</ele>
        <time>2019-02-10T10:48:51Z</time>
      </trkpt>
      <trkpt lat="43.40337" lon="2.18584">
        <ele>687</ele>
        <time>2019-02-10T10:48:58Z</time>
      </trkpt>
      <trkpt lat="43.40341" lon="2.18612">
        <ele>687</ele>
        <time>2019-02-10T10:49:06Z</time>
      </trkpt>
      <trkpt lat="43.40348" lon="2.18638">
        <ele>689</ele>
        <time>2019-02-10T10:49:14Z</time>
      </trkpt>
      <trkpt lat="43.40349" lon="2.18641">
        <ele>689</ele>
        <time>2019-02-10T10:49:15Z</time>
      </trkpt>
      <trkpt lat="43.40357" lon="2.18654">
        <ele>690</ele>
        <time>2019-02-10T10:49:20Z</time>
      </trkpt>
      <trkpt lat="43.4036" lon="2.18658">
        <ele>690</ele>
        <time>2019-02-10T10:49:22Z</time>
      </trkpt>
      <trkpt lat="43.4037" lon="2.18664">
        <ele>691</ele>
        <time>2019-02-10T10:49:27Z</time>
      </trkpt>
      <trkpt lat="43.40372" lon="2.18666">
        <ele>691</ele>
        <time>2019-02-10T10:49:28Z</time>
      </trkpt>
      <trkpt lat="43.40375" lon="2.18668">
        <ele>692</ele>
        <time>2019-02-10T10:49:33Z</time>
      </trkpt>
      <trkpt lat="43.40376" lon="2.18667">
        <ele>691</ele>
        <time>2019-02-10T10:51:01Z</time>
      </trkpt>
      <trkpt lat="43.40377" lon="2.18667">
        <ele>691</ele>
        <time>2019-02-10T10:51:02Z</time>
      </trkpt>
      <trkpt lat="43.40381" lon="2.18668">
        <ele>691</ele>
        <time>2019-02-10T10:51:04Z</time>
      </trkpt>
      <trkpt lat="43.40384" lon="2.1867">
        <ele>691</ele>
        <time>2019-02-10T10:51:06Z</time>
      </trkpt>
      <trkpt lat="43.40387" lon="2.18674">
        <ele>692</ele>
        <time>2019-02-10T10:51:09Z</time>
      </trkpt>
      <trkpt lat="43.40389" lon="2.18677">
        <ele>692</ele>
        <time>2019-02-10T10:51:11Z</time>
      </trkpt>
      <trkpt lat="43.40395" lon="2.18683">
        <ele>692</ele>
        <time>2019-02-10T10:51:15Z</time>
      </trkpt>
      <trkpt lat="43.40403" lon="2.18693">
        <ele>693</ele>
        <time>2019-02-10T10:51:19Z</time>
      </trkpt>
      <trkpt lat="43.40406" lon="2.18699">
        <ele>693</ele>
        <time>2019-02-10T10:51:21Z</time>
      </trkpt>
      <trkpt lat="43.40408" lon="2.18701">
        <ele>693</ele>
        <time>2019-02-10T10:51:22Z</time>
      </trkpt>
      <trkpt lat="43.40416" lon="2.18716">
        <ele>694</ele>
        <time>2019-02-10T10:51:27Z</time>
      </trkpt>
      <trkpt lat="43.40417" lon="2.18719">
        <ele>694</ele>
        <time>2019-02-10T10:51:28Z</time>
      </trkpt>
      <trkpt lat="43.40418" lon="2.18728">
        <ele>694</ele>
        <time>2019-02-10T10:51:31Z</time>
      </trkpt>
      <trkpt lat="43.40418" lon="2.18731">
        <ele>695</ele>
        <time>2019-02-10T10:51:32Z</time>
      </trkpt>
      <trkpt lat="43.4042" lon="2.18737">
        <ele>695</ele>
        <time>2019-02-10T10:51:34Z</time>
      </trkpt>
      <trkpt lat="43.40427" lon="2.18751">
        <ele>695</ele>
        <time>2019-02-10T10:51:38Z</time>
      </trkpt>
      <trkpt lat="43.40429" lon="2.18754">
        <ele>696</ele>
        <time>2019-02-10T10:51:39Z</time>
      </trkpt>
      <trkpt lat="43.4043" lon="2.18757">
        <ele>696</ele>
        <time>2019-02-10T10:51:40Z</time>
      </trkpt>
      <trkpt lat="43.40436" lon="2.18768">
        <ele>696</ele>
        <time>2019-02-10T10:51:44Z</time>
      </trkpt>
      <trkpt lat="43.40447" lon="2.18777">
        <ele>697</ele>
        <time>2019-02-10T10:51:49Z</time>
      </trkpt>
      <trkpt lat="43.40451" lon="2.18778">
        <ele>697</ele>
        <time>2019-02-10T10:51:51Z</time>
      </trkpt>
      <trkpt lat="43.40455" lon="2.18779">
        <ele>698</ele>
        <time>2019-02-10T10:51:53Z</time>
      </trkpt>
      <trkpt lat="43.40463" lon="2.1878">
        <ele>698</ele>
        <time>2019-02-10T10:51:56Z</time>
      </trkpt>
      <trkpt lat="43.40469" lon="2.18782">
        <ele>699</ele>
        <time>2019-02-10T10:51:58Z</time>
      </trkpt>
      <trkpt lat="43.40474" lon="2.18783">
        <ele>700</ele>
        <time>2019-02-10T10:52:01Z</time>
      </trkpt>
      <trkpt lat="43.40475" lon="2.18783">
        <ele>700</ele>
        <time>2019-02-10T10:52:02Z</time>
      </trkpt>
      <trkpt lat="43.40483" lon="2.18788">
        <ele>701</ele>
        <time>2019-02-10T10:52:06Z</time>
      </trkpt>
      <trkpt lat="43.40485" lon="2.18789">
        <ele>701</ele>
        <time>2019-02-10T10:52:07Z</time>
      </trkpt>
      <trkpt lat="43.40496" lon="2.18795">
        <ele>702</ele>
        <time>2019-02-10T10:52:11Z</time>
      </trkpt>
      <trkpt lat="43.40502" lon="2.18798">
        <ele>702</ele>
        <time>2019-02-10T10:52:13Z</time>
      </trkpt>
      <trkpt lat="43.40511" lon="2.18804">
        <ele>703</ele>
        <time>2019-02-10T10:52:17Z</time>
      </trkpt>
      <trkpt lat="43.40517" lon="2.18808">
        <ele>703</ele>
        <time>2019-02-10T10:52:20Z</time>
      </trkpt>
      <trkpt lat="43.40522" lon="2.18812">
        <ele>704</ele>
        <time>2019-02-10T10:52:24Z</time>
      </trkpt>
      <trkpt lat="43.40525" lon="2.18813">
        <ele>704</ele>
        <time>2019-02-10T10:52:25Z</time>
      </trkpt>
      <trkpt lat="43.40527" lon="2.18814">
        <ele>704</ele>
        <time>2019-02-10T10:52:26Z</time>
      </trkpt>
      <trkpt lat="43.40539" lon="2.18819">
        <ele>705</ele>
        <time>2019-02-10T10:52:32Z</time>
      </trkpt>
      <trkpt lat="43.40543" lon="2.1882">
        <ele>705</ele>
        <time>2019-02-10T10:52:34Z</time>
      </trkpt>
      <trkpt lat="43.40549" lon="2.18822">
        <ele>706</ele>
        <time>2019-02-10T10:52:37Z</time>
      </trkpt>
      <trkpt lat="43.4056" lon="2.18828">
        <ele>706</ele>
        <time>2019-02-10T10:52:42Z</time>
      </trkpt>
      <trkpt lat="43.40562" lon="2.18829">
        <ele>706</ele>
        <time>2019-02-10T10:52:43Z</time>
      </trkpt>
      <trkpt lat="43.40574" lon="2.18843">
        <ele>707</ele>
        <time>2019-02-10T10:52:49Z</time>
      </trkpt>
      <trkpt lat="43.40574" lon="2.18845">
        <ele>707</ele>
        <time>2019-02-10T10:52:50Z</time>
      </trkpt>
      <trkpt lat="43.40577" lon="2.18851">
        <ele>708</ele>
        <time>2019-02-10T10:52:53Z</time>
      </trkpt>
      <trkpt lat="43.40577" lon="2.18856">
        <ele>708</ele>
        <time>2019-02-10T10:52:55Z</time>
      </trkpt>
      <trkpt lat="43.40575" lon="2.18861">
        <ele>708</ele>
        <time>2019-02-10T10:52:57Z</time>
      </trkpt>
      <trkpt lat="43.40576" lon="2.18862">
        <ele>709</ele>
        <time>2019-02-10T10:52:58Z</time>
      </trkpt>
      <trkpt lat="43.40578" lon="2.18867">
        <ele>709</ele>
        <time>2019-02-10T10:53:01Z</time>
      </trkpt>
      <trkpt lat="43.4058" lon="2.18873">
        <ele>709</ele>
        <time>2019-02-10T10:53:03Z</time>
      </trkpt>
      <trkpt lat="43.40583" lon="2.18895">
        <ele>709</ele>
        <time>2019-02-10T10:53:09Z</time>
      </trkpt>
      <trkpt lat="43.40588" lon="2.18906">
        <ele>709</ele>
        <time>2019-02-10T10:53:13Z</time>
      </trkpt>
      <trkpt lat="43.4059" lon="2.1891">
        <ele>709</ele>
        <time>2019-02-10T10:53:14Z</time>
      </trkpt>
      <trkpt lat="43.40592" lon="2.18912">
        <ele>709</ele>
        <time>2019-02-10T10:53:15Z</time>
      </trkpt>
      <trkpt lat="43.40598" lon="2.18919">
        <ele>709</ele>
        <time>2019-02-10T10:53:19Z</time>
      </trkpt>
      <trkpt lat="43.4061" lon="2.18928">
        <ele>709</ele>
        <time>2019-02-10T10:53:24Z</time>
      </trkpt>
      <trkpt lat="43.40615" lon="2.18932">
        <ele>709</ele>
        <time>2019-02-10T10:53:27Z</time>
      </trkpt>
      <trkpt lat="43.40616" lon="2.18933">
        <ele>710</ele>
        <time>2019-02-10T10:53:28Z</time>
      </trkpt>
      <trkpt lat="43.40618" lon="2.18935">
        <ele>710</ele>
        <time>2019-02-10T10:53:29Z</time>
      </trkpt>
      <trkpt lat="43.40625" lon="2.18939">
        <ele>710</ele>
        <time>2019-02-10T10:53:32Z</time>
      </trkpt>
      <trkpt lat="43.40629" lon="2.1894">
        <ele>710</ele>
        <time>2019-02-10T10:53:34Z</time>
      </trkpt>
      <trkpt lat="43.40635" lon="2.18943">
        <ele>710</ele>
        <time>2019-02-10T10:53:37Z</time>
      </trkpt>
      <trkpt lat="43.40649" lon="2.18945">
        <ele>710</ele>
        <time>2019-02-10T10:53:42Z</time>
      </trkpt>
      <trkpt lat="43.4066" lon="2.18944">
        <ele>711</ele>
        <time>2019-02-10T10:53:47Z</time>
      </trkpt>
      <trkpt lat="43.40677" lon="2.18941">
        <ele>712</ele>
        <time>2019-02-10T10:53:53Z</time>
      </trkpt>
      <trkpt lat="43.40683" lon="2.18939">
        <ele>712</ele>
        <time>2019-02-10T10:53:56Z</time>
      </trkpt>
      <trkpt lat="43.40687" lon="2.18935">
        <ele>712</ele>
        <time>2019-02-10T10:53:59Z</time>
      </trkpt>
      <trkpt lat="43.40697" lon="2.18922">
        <ele>713</ele>
        <time>2019-02-10T10:54:06Z</time>
      </trkpt>
      <trkpt lat="43.40699" lon="2.1892">
        <ele>713</ele>
        <time>2019-02-10T10:54:07Z</time>
      </trkpt>
      <trkpt lat="43.40707" lon="2.18907">
        <ele>713</ele>
        <time>2019-02-10T10:54:12Z</time>
      </trkpt>
      <trkpt lat="43.40716" lon="2.18895">
        <ele>714</ele>
        <time>2019-02-10T10:54:17Z</time>
      </trkpt>
      <trkpt lat="43.4072" lon="2.18889">
        <ele>714</ele>
        <time>2019-02-10T10:54:20Z</time>
      </trkpt>
      <trkpt lat="43.40729" lon="2.18881">
        <ele>715</ele>
        <time>2019-02-10T10:54:26Z</time>
      </trkpt>
      <trkpt lat="43.40734" lon="2.18878">
        <ele>715</ele>
        <time>2019-02-10T10:54:28Z</time>
      </trkpt>
      <trkpt lat="43.40745" lon="2.18871">
        <ele>715</ele>
        <time>2019-02-10T10:54:32Z</time>
      </trkpt>
      <trkpt lat="43.40759" lon="2.18865">
        <ele>716</ele>
        <time>2019-02-10T10:54:38Z</time>
      </trkpt>
      <trkpt lat="43.40763" lon="2.18863">
        <ele>716</ele>
        <time>2019-02-10T10:54:40Z</time>
      </trkpt>
      <trkpt lat="43.40773" lon="2.18861">
        <ele>716</ele>
        <time>2019-02-10T10:54:43Z</time>
      </trkpt>
      <trkpt lat="43.4079" lon="2.1886">
        <ele>717</ele>
        <time>2019-02-10T10:54:49Z</time>
      </trkpt>
      <trkpt lat="43.40796" lon="2.1886">
        <ele>717</ele>
        <time>2019-02-10T10:54:51Z</time>
      </trkpt>
      <trkpt lat="43.40806" lon="2.18862">
        <ele>718</ele>
        <time>2019-02-10T10:54:54Z</time>
      </trkpt>
      <trkpt lat="43.40814" lon="2.18865">
        <ele>718</ele>
        <time>2019-02-10T10:54:57Z</time>
      </trkpt>
      <trkpt lat="43.40828" lon="2.18869">
        <ele>719</ele>
        <time>2019-02-10T10:55:02Z</time>
      </trkpt>
      <trkpt lat="43.40831" lon="2.18871">
        <ele>719</ele>
        <time>2019-02-10T10:55:03Z</time>
      </trkpt>
      <trkpt lat="43.40848" lon="2.18876">
        <ele>720</ele>
        <time>2019-02-10T10:55:09Z</time>
      </trkpt>
      <trkpt lat="43.40851" lon="2.18877">
        <ele>720</ele>
        <time>2019-02-10T10:55:10Z</time>
      </trkpt>
      <trkpt lat="43.40868" lon="2.18883">
        <ele>721</ele>
        <time>2019-02-10T10:55:16Z</time>
      </trkpt>
      <trkpt lat="43.40877" lon="2.18885">
        <ele>721</ele>
        <time>2019-02-10T10:55:19Z</time>
      </trkpt>
      <trkpt lat="43.40888" lon="2.18889">
        <ele>722</ele>
        <time>2019-02-10T10:55:23Z</time>
      </trkpt>
      <trkpt lat="43.40906" lon="2.18895">
        <ele>723</ele>
        <time>2019-02-10T10:55:29Z</time>
      </trkpt>
      <trkpt lat="43.40925" lon="2.18901">
        <ele>724</ele>
        <time>2019-02-10T10:55:36Z</time>
      </trkpt>
      <trkpt lat="43.40936" lon="2.18906">
        <ele>725</ele>
        <time>2019-02-10T10:55:40Z</time>
      </trkpt>
      <trkpt lat="43.40947" lon="2.18911">
        <ele>725</ele>
        <time>2019-02-10T10:55:44Z</time>
      </trkpt>
      <trkpt lat="43.40963" lon="2.18916">
        <ele>727</ele>
        <time>2019-02-10T10:55:50Z</time>
      </trkpt>
      <trkpt lat="43.40965" lon="2.18917">
        <ele>727</ele>
        <time>2019-02-10T10:55:51Z</time>
      </trkpt>
      <trkpt lat="43.4098" lon="2.18922">
        <ele>728</ele>
        <time>2019-02-10T10:55:57Z</time>
      </trkpt>
      <trkpt lat="43.40982" lon="2.18923">
        <ele>728</ele>
        <time>2019-02-10T10:55:58Z</time>
      </trkpt>
      <trkpt lat="43.40992" lon="2.18935">
        <ele>728</ele>
        <time>2019-02-10T10:56:04Z</time>
      </trkpt>
      <trkpt lat="43.40992" lon="2.18938">
        <ele>729</ele>
        <time>2019-02-10T10:56:05Z</time>
      </trkpt>
      <trkpt lat="43.40986" lon="2.18948">
        <ele>729</ele>
        <time>2019-02-10T10:56:09Z</time>
      </trkpt>
      <trkpt lat="43.40983" lon="2.1895">
        <ele>729</ele>
        <time>2019-02-10T10:56:10Z</time>
      </trkpt>
      <trkpt lat="43.40976" lon="2.18956">
        <ele>730</ele>
        <time>2019-02-10T10:56:13Z</time>
      </trkpt>
      <trkpt lat="43.40964" lon="2.18965">
        <ele>731</ele>
        <time>2019-02-10T10:56:18Z</time>
      </trkpt>
      <trkpt lat="43.40946" lon="2.18977">
        <ele>732</ele>
        <time>2019-02-10T10:56:25Z</time>
      </trkpt>
      <trkpt lat="43.40941" lon="2.1898">
        <ele>732</ele>
        <time>2019-02-10T10:56:27Z</time>
      </trkpt>
      <trkpt lat="43.4093" lon="2.18986">
        <ele>733</ele>
        <time>2019-02-10T10:56:31Z</time>
      </trkpt>
      <trkpt lat="43.40922" lon="2.18992">
        <ele>733</ele>
        <time>2019-02-10T10:56:34Z</time>
      </trkpt>
      <trkpt lat="43.40908" lon="2.19006">
        <ele>734</ele>
        <time>2019-02-10T10:56:40Z</time>
      </trkpt>
      <trkpt lat="43.40902" lon="2.19014">
        <ele>734</ele>
        <time>2019-02-10T10:56:43Z</time>
      </trkpt>
      <trkpt lat="43.40892" lon="2.19033">
        <ele>735</ele>
        <time>2019-02-10T10:56:49Z</time>
      </trkpt>
      <trkpt lat="43.40889" lon="2.1904">
        <ele>735</ele>
        <time>2019-02-10T10:56:51Z</time>
      </trkpt>
      <trkpt lat="43.40881" lon="2.19065">
        <ele>736</ele>
        <time>2019-02-10T10:56:58Z</time>
      </trkpt>
      <trkpt lat="43.40879" lon="2.19076">
        <ele>737</ele>
        <time>2019-02-10T10:57:01Z</time>
      </trkpt>
      <trkpt lat="43.40879" lon="2.19088">
        <ele>737</ele>
        <time>2019-02-10T10:57:04Z</time>
      </trkpt>
      <trkpt lat="43.4088" lon="2.19104">
        <ele>738</ele>
        <time>2019-02-10T10:57:08Z</time>
      </trkpt>
      <trkpt lat="43.4089" lon="2.19124">
        <ele>738</ele>
        <time>2019-02-10T10:57:14Z</time>
      </trkpt>
      <trkpt lat="43.40891" lon="2.19127">
        <ele>738</ele>
        <time>2019-02-10T10:57:15Z</time>
      </trkpt>
      <trkpt lat="43.40905" lon="2.19139">
        <ele>739</ele>
        <time>2019-02-10T10:57:21Z</time>
      </trkpt>
      <trkpt lat="43.40908" lon="2.1914">
        <ele>739</ele>
        <time>2019-02-10T10:57:22Z</time>
      </trkpt>
      <trkpt lat="43.40925" lon="2.19145">
        <ele>740</ele>
        <time>2019-02-10T10:57:28Z</time>
      </trkpt>
      <trkpt lat="43.40946" lon="2.1915">
        <ele>740</ele>
        <time>2019-02-10T10:57:35Z</time>
      </trkpt>
      <trkpt lat="43.40968" lon="2.19161">
        <ele>741</ele>
        <time>2019-02-10T10:57:43Z</time>
      </trkpt>
      <trkpt lat="43.40975" lon="2.19167">
        <ele>741</ele>
        <time>2019-02-10T10:57:46Z</time>
      </trkpt>
      <trkpt lat="43.40985" lon="2.19174">
        <ele>742</ele>
        <time>2019-02-10T10:57:50Z</time>
      </trkpt>
      <trkpt lat="43.40993" lon="2.19178">
        <ele>742</ele>
        <time>2019-02-10T10:57:54Z</time>
      </trkpt>
      <trkpt lat="43.40997" lon="2.1918">
        <ele>743</ele>
        <time>2019-02-10T10:57:56Z</time>
      </trkpt>
      <trkpt lat="43.41" lon="2.19182">
        <ele>743</ele>
        <time>2019-02-10T10:57:58Z</time>
      </trkpt>
      <trkpt lat="43.41005" lon="2.19186">
        <ele>744</ele>
        <time>2019-02-10T10:58:02Z</time>
      </trkpt>
      <trkpt lat="43.41005" lon="2.19187">
        <ele>745</ele>
        <time>2019-02-10T10:58:04Z</time>
      </trkpt>
      <trkpt lat="43.41006" lon="2.19187">
        <ele>745</ele>
        <time>2019-02-10T10:58:07Z</time>
      </trkpt>
      <trkpt lat="43.41007" lon="2.19189">
        <ele>745</ele>
        <time>2019-02-10T10:58:09Z</time>
      </trkpt>
      <trkpt lat="43.41007" lon="2.19189">
        <ele>745</ele>
        <time>2019-02-10T10:58:10Z</time>
      </trkpt>
      <trkpt lat="43.41009" lon="2.19189">
        <ele>745</ele>
        <time>2019-02-10T10:58:13Z</time>
      </trkpt>
      <trkpt lat="43.41011" lon="2.1919">
        <ele>745</ele>
        <time>2019-02-10T10:58:17Z</time>
      </trkpt>
      <trkpt lat="43.41011" lon="2.1919">
        <ele>745</ele>
        <time>2019-02-10T10:58:18Z</time>
      </trkpt>
      <trkpt lat="43.41012" lon="2.19191">
        <ele>746</ele>
        <time>2019-02-10T10:59:15Z</time>
      </trkpt>
      <trkpt lat="43.41013" lon="2.19192">
        <ele>746</ele>
        <time>2019-02-10T10:59:16Z</time>
      </trkpt>
      <trkpt lat="43.41015" lon="2.19194">
        <ele>746</ele>
        <time>2019-02-10T10:59:18Z</time>
      </trkpt>
      <trkpt lat="43.41019" lon="2.19199">
        <ele>747</ele>
        <time>2019-02-10T10:59:21Z</time>
      </trkpt>
      <trkpt lat="43.41026" lon="2.19209">
        <ele>747</ele>
        <time>2019-02-10T10:59:26Z</time>
      </trkpt>
      <trkpt lat="43.41027" lon="2.19211">
        <ele>748</ele>
        <time>2019-02-10T10:59:27Z</time>
      </trkpt>
      <trkpt lat="43.41035" lon="2.19218">
        <ele>749</ele>
        <time>2019-02-10T10:59:32Z</time>
      </trkpt>
      <trkpt lat="43.41039" lon="2.1922">
        <ele>750</ele>
        <time>2019-02-10T10:59:35Z</time>
      </trkpt>
      <trkpt lat="43.41044" lon="2.19219">
        <ele>751</ele>
        <time>2019-02-10T10:59:38Z</time>
      </trkpt>
      <trkpt lat="43.41049" lon="2.19217">
        <ele>751</ele>
        <time>2019-02-10T10:59:41Z</time>
      </trkpt>
      <trkpt lat="43.4106" lon="2.1921">
        <ele>752</ele>
        <time>2019-02-10T10:59:47Z</time>
      </trkpt>
      <trkpt lat="43.41065" lon="2.19206">
        <ele>752</ele>
        <time>2019-02-10T10:59:50Z</time>
      </trkpt>
      <trkpt lat="43.41071" lon="2.19198">
        <ele>753</ele>
        <time>2019-02-10T10:59:54Z</time>
      </trkpt>
      <trkpt lat="43.41072" lon="2.19196">
        <ele>753</ele>
        <time>2019-02-10T10:59:55Z</time>
      </trkpt>
      <trkpt lat="43.41076" lon="2.19191">
        <ele>753</ele>
        <time>2019-02-10T10:59:58Z</time>
      </trkpt>
      <trkpt lat="43.41085" lon="2.19185">
        <ele>754</ele>
        <time>2019-02-10T11:00:03Z</time>
      </trkpt>
      <trkpt lat="43.41087" lon="2.19184">
        <ele>755</ele>
        <time>2019-02-10T11:00:04Z</time>
      </trkpt>
      <trkpt lat="43.411" lon="2.19178">
        <ele>756</ele>
        <time>2019-02-10T11:00:11Z</time>
      </trkpt>
      <trkpt lat="43.41113" lon="2.19178">
        <ele>757</ele>
        <time>2019-02-10T11:00:17Z</time>
      </trkpt>
      <trkpt lat="43.41117" lon="2.19179">
        <ele>758</ele>
        <time>2019-02-10T11:00:19Z</time>
      </trkpt>
      <trkpt lat="43.41127" lon="2.19183">
        <ele>758</ele>
        <time>2019-02-10T11:00:24Z</time>
      </trkpt>
      <trkpt lat="43.41133" lon="2.19189">
        <ele>759</ele>
        <time>2019-02-10T11:00:28Z</time>
      </trkpt>
      <trkpt lat="43.41136" lon="2.19193">
        <ele>759</ele>
        <time>2019-02-10T11:00:30Z</time>
      </trkpt>
      <trkpt lat="43.41141" lon="2.19208">
        <ele>760</ele>
        <time>2019-02-10T11:00:36Z</time>
      </trkpt>
      <trkpt lat="43.4114" lon="2.19216">
        <ele>760</ele>
        <time>2019-02-10T11:00:39Z</time>
      </trkpt>
      <trkpt lat="43.41137" lon="2.19227">
        <ele>761</ele>
        <time>2019-02-10T11:00:43Z</time>
      </trkpt>
      <trkpt lat="43.41135" lon="2.19232">
        <ele>761</ele>
        <time>2019-02-10T11:00:45Z</time>
      </trkpt>
      <trkpt lat="43.41131" lon="2.19249">
        <ele>762</ele>
        <time>2019-02-10T11:00:51Z</time>
      </trkpt>
      <trkpt lat="43.41128" lon="2.19266">
        <ele>763</ele>
        <time>2019-02-10T11:00:57Z</time>
      </trkpt>
      <trkpt lat="43.41127" lon="2.19277">
        <ele>764</ele>
        <time>2019-02-10T11:01:01Z</time>
      </trkpt>
      <trkpt lat="43.41127" lon="2.1928">
        <ele>765</ele>
        <time>2019-02-10T11:01:02Z</time>
      </trkpt>
      <trkpt lat="43.41125" lon="2.19294">
        <ele>766</ele>
        <time>2019-02-10T11:01:07Z</time>
      </trkpt>
      <trkpt lat="43.41124" lon="2.19305">
        <ele>766</ele>
        <time>2019-02-10T11:01:11Z</time>
      </trkpt>
      <trkpt lat="43.41123" lon="2.19316">
        <ele>767</ele>
        <time>2019-02-10T11:01:15Z</time>
      </trkpt>
      <trkpt lat="43.41121" lon="2.19327">
        <ele>768</ele>
        <time>2019-02-10T11:01:19Z</time>
      </trkpt>
      <trkpt lat="43.41121" lon="2.1933">
        <ele>768</ele>
        <time>2019-02-10T11:01:20Z</time>
      </trkpt>
      <trkpt lat="43.41119" lon="2.19345">
        <ele>769</ele>
        <time>2019-02-10T11:01:25Z</time>
      </trkpt>
      <trkpt lat="43.41119" lon="2.19351">
        <ele>769</ele>
        <time>2019-02-10T11:01:27Z</time>
      </trkpt>
      <trkpt lat="43.41121" lon="2.1936">
        <ele>770</ele>
        <time>2019-02-10T11:01:30Z</time>
      </trkpt>
      <trkpt lat="43.41123" lon="2.19375">
        <ele>771</ele>
        <time>2019-02-10T11:01:35Z</time>
      </trkpt>
      <trkpt lat="43.41124" lon="2.19377">
        <ele>771</ele>
        <time>2019-02-10T11:01:36Z</time>
      </trkpt>
      <trkpt lat="43.41127" lon="2.19388">
        <ele>772</ele>
        <time>2019-02-10T11:01:40Z</time>
      </trkpt>
      <trkpt lat="43.41128" lon="2.19391">
        <ele>773</ele>
        <time>2019-02-10T11:01:41Z</time>
      </trkpt>
      <trkpt lat="43.41133" lon="2.194">
        <ele>773</ele>
        <time>2019-02-10T11:01:45Z</time>
      </trkpt>
      <trkpt lat="43.41139" lon="2.19408">
        <ele>774</ele>
        <time>2019-02-10T11:01:49Z</time>
      </trkpt>
      <trkpt lat="43.41148" lon="2.19416">
        <ele>775</ele>
        <time>2019-02-10T11:01:54Z</time>
      </trkpt>
      <trkpt lat="43.41159" lon="2.19425">
        <ele>777</ele>
        <time>2019-02-10T11:02:00Z</time>
      </trkpt>
      <trkpt lat="43.41161" lon="2.19426">
        <ele>777</ele>
        <time>2019-02-10T11:02:01Z</time>
      </trkpt>
      <trkpt lat="43.41167" lon="2.19431">
        <ele>778</ele>
        <time>2019-02-10T11:02:04Z</time>
      </trkpt>
      <trkpt lat="43.41183" lon="2.19442">
        <ele>779</ele>
        <time>2019-02-10T11:02:12Z</time>
      </trkpt>
      <trkpt lat="43.41185" lon="2.19443">
        <ele>779</ele>
        <time>2019-02-10T11:02:13Z</time>
      </trkpt>
      <trkpt lat="43.41191" lon="2.19447">
        <ele>780</ele>
        <time>2019-02-10T11:02:16Z</time>
      </trkpt>
      <trkpt lat="43.412" lon="2.19453">
        <ele>781</ele>
        <time>2019-02-10T11:02:20Z</time>
      </trkpt>
      <trkpt lat="43.41211" lon="2.19461">
        <ele>781</ele>
        <time>2019-02-10T11:02:25Z</time>
      </trkpt>
      <trkpt lat="43.41221" lon="2.19467">
        <ele>781</ele>
        <time>2019-02-10T11:02:29Z</time>
      </trkpt>
      <trkpt lat="43.41237" lon="2.19477">
        <ele>782</ele>
        <time>2019-02-10T11:02:36Z</time>
      </trkpt>
      <trkpt lat="43.41242" lon="2.19479">
        <ele>782</ele>
        <time>2019-02-10T11:02:38Z</time>
      </trkpt>
      <trkpt lat="43.41262" lon="2.19487">
        <ele>783</ele>
        <time>2019-02-10T11:02:45Z</time>
      </trkpt>
      <trkpt lat="43.41271" lon="2.19489">
        <ele>783</ele>
        <time>2019-02-10T11:02:48Z</time>
      </trkpt>
      <trkpt lat="43.41282" lon="2.19492">
        <ele>784</ele>
        <time>2019-02-10T11:02:52Z</time>
      </trkpt>
      <trkpt lat="43.41293" lon="2.19495">
        <ele>784</ele>
        <time>2019-02-10T11:02:56Z</time>
      </trkpt>
      <trkpt lat="43.41299" lon="2.19496">
        <ele>784</ele>
        <time>2019-02-10T11:02:58Z</time>
      </trkpt>
      <trkpt lat="43.41307" lon="2.19498">
        <ele>785</ele>
        <time>2019-02-10T11:03:01Z</time>
      </trkpt>
      <trkpt lat="43.41313" lon="2.195">
        <ele>785</ele>
        <time>2019-02-10T11:03:03Z</time>
      </trkpt>
      <trkpt lat="43.41327" lon="2.19509">
        <ele>786</ele>
        <time>2019-02-10T11:03:08Z</time>
      </trkpt>
      <trkpt lat="43.41334" lon="2.19515">
        <ele>786</ele>
        <time>2019-02-10T11:03:11Z</time>
      </trkpt>
      <trkpt lat="43.41351" lon="2.19532">
        <ele>787</ele>
        <time>2019-02-10T11:03:18Z</time>
      </trkpt>
      <trkpt lat="43.41356" lon="2.19537">
        <ele>787</ele>
        <time>2019-02-10T11:03:20Z</time>
      </trkpt>
      <trkpt lat="43.41377" lon="2.19553">
        <ele>788</ele>
        <time>2019-02-10T11:03:28Z</time>
      </trkpt>
      <trkpt lat="43.41396" lon="2.19558">
        <ele>788</ele>
        <time>2019-02-10T11:03:34Z</time>
      </trkpt>
      <trkpt lat="43.41428" lon="2.19551">
        <ele>788</ele>
        <time>2019-02-10T11:03:43Z</time>
      </trkpt>
      <trkpt lat="43.41431" lon="2.1955">
        <ele>788</ele>
        <time>2019-02-10T11:03:44Z</time>
      </trkpt>
      <trkpt lat="43.41452" lon="2.19543">
        <ele>789</ele>
        <time>2019-02-10T11:03:50Z</time>
      </trkpt>
      <trkpt lat="43.41486" lon="2.19544">
        <ele>789</ele>
        <time>2019-02-10T11:03:59Z</time>
      </trkpt>
      <trkpt lat="43.41503" lon="2.19547">
        <ele>789</ele>
        <time>2019-02-10T11:04:04Z</time>
      </trkpt>
      <trkpt lat="43.4151" lon="2.19548">
        <ele>790</ele>
        <time>2019-02-10T11:04:06Z</time>
      </trkpt>
      <trkpt lat="43.4153" lon="2.19555">
        <ele>790</ele>
        <time>2019-02-10T11:04:12Z</time>
      </trkpt>
      <trkpt lat="43.41537" lon="2.19557">
        <ele>790</ele>
        <time>2019-02-10T11:04:14Z</time>
      </trkpt>
      <trkpt lat="43.41567" lon="2.19566">
        <ele>790</ele>
        <time>2019-02-10T11:04:21Z</time>
      </trkpt>
      <trkpt lat="43.41595" lon="2.19575">
        <ele>789</ele>
        <time>2019-02-10T11:04:27Z</time>
      </trkpt>
      <trkpt lat="43.416" lon="2.19576">
        <ele>789</ele>
        <time>2019-02-10T11:04:28Z</time>
      </trkpt>
      <trkpt lat="43.41604" lon="2.19577">
        <ele>788</ele>
        <time>2019-02-10T11:04:29Z</time>
      </trkpt>
      <trkpt lat="43.41613" lon="2.19579">
        <ele>788</ele>
        <time>2019-02-10T11:04:31Z</time>
      </trkpt>
      <trkpt lat="43.41617" lon="2.19581">
        <ele>788</ele>
        <time>2019-02-10T11:04:32Z</time>
      </trkpt>
      <trkpt lat="43.41626" lon="2.19584">
        <ele>788</ele>
        <time>2019-02-10T11:04:34Z</time>
      </trkpt>
      <trkpt lat="43.4163" lon="2.19585">
        <ele>788</ele>
        <time>2019-02-10T11:04:35Z</time>
      </trkpt>
      <trkpt lat="43.41659" lon="2.19593">
        <ele>788</ele>
        <time>2019-02-10T11:04:41Z</time>
      </trkpt>
      <trkpt lat="43.41685" lon="2.19599">
        <ele>789</ele>
        <time>2019-02-10T11:04:47Z</time>
      </trkpt>
      <trkpt lat="43.41693" lon="2.19601">
        <ele>789</ele>
        <time>2019-02-10T11:04:49Z</time>
      </trkpt>
      <trkpt lat="43.41704" lon="2.19606">
        <ele>789</ele>
        <time>2019-02-10T11:04:52Z</time>
      </trkpt>
      <trkpt lat="43.41718" lon="2.19615">
        <ele>790</ele>
        <time>2019-02-10T11:04:56Z</time>
      </trkpt>
      <trkpt lat="43.41726" lon="2.19619">
        <ele>791</ele>
        <time>2019-02-10T11:04:58Z</time>
      </trkpt>
      <trkpt lat="43.41741" lon="2.19628">
        <ele>791</ele>
        <time>2019-02-10T11:05:02Z</time>
      </trkpt>
      <trkpt lat="43.41749" lon="2.19632">
        <ele>792</ele>
        <time>2019-02-10T11:05:04Z</time>
      </trkpt>
      <trkpt lat="43.41753" lon="2.19634">
        <ele>793</ele>
        <time>2019-02-10T11:05:05Z</time>
      </trkpt>
      <trkpt lat="43.41757" lon="2.19635">
        <ele>793</ele>
        <time>2019-02-10T11:05:06Z</time>
      </trkpt>
      <trkpt lat="43.41761" lon="2.19637">
        <ele>794</ele>
        <time>2019-02-10T11:05:07Z</time>
      </trkpt>
      <trkpt lat="43.41773" lon="2.19641">
        <ele>794</ele>
        <time>2019-02-10T11:05:10Z</time>
      </trkpt>
      <trkpt lat="43.41786" lon="2.19644">
        <ele>795</ele>
        <time>2019-02-10T11:05:13Z</time>
      </trkpt>
      <trkpt lat="43.41796" lon="2.1965">
        <ele>796</ele>
        <time>2019-02-10T11:05:16Z</time>
      </trkpt>
      <trkpt lat="43.41804" lon="2.19654">
        <ele>797</ele>
        <time>2019-02-10T11:05:18Z</time>
      </trkpt>
      <trkpt lat="43.41814" lon="2.1966">
        <ele>798</ele>
        <time>2019-02-10T11:05:21Z</time>
      </trkpt>
      <trkpt lat="43.4183" lon="2.19668">
        <ele>800</ele>
        <time>2019-02-10T11:05:25Z</time>
      </trkpt>
      <trkpt lat="43.41843" lon="2.19673">
        <ele>801</ele>
        <time>2019-02-10T11:05:28Z</time>
      </trkpt>
      <trkpt lat="43.41873" lon="2.19683">
        <ele>802</ele>
        <time>2019-02-10T11:05:35Z</time>
      </trkpt>
      <trkpt lat="43.41878" lon="2.19683">
        <ele>802</ele>
        <time>2019-02-10T11:05:36Z</time>
      </trkpt>
      <trkpt lat="43.41897" lon="2.19686">
        <ele>802</ele>
        <time>2019-02-10T11:05:40Z</time>
      </trkpt>
      <trkpt lat="43.41902" lon="2.19686">
        <ele>802</ele>
        <time>2019-02-10T11:05:41Z</time>
      </trkpt>
      <trkpt lat="43.41935" lon="2.19681">
        <ele>802</ele>
        <time>2019-02-10T11:05:48Z</time>
      </trkpt>
      <trkpt lat="43.4194" lon="2.1968">
        <ele>802</ele>
        <time>2019-02-10T11:05:49Z</time>
      </trkpt>
      <trkpt lat="43.41959" lon="2.19675">
        <ele>802</ele>
        <time>2019-02-10T11:05:53Z</time>
      </trkpt>
      <trkpt lat="43.41963" lon="2.19675">
        <ele>802</ele>
        <time>2019-02-10T11:05:54Z</time>
      </trkpt>
      <trkpt lat="43.41972" lon="2.19673">
        <ele>803</ele>
        <time>2019-02-10T11:05:56Z</time>
      </trkpt>
      <trkpt lat="43.4198" lon="2.19674">
        <ele>803</ele>
        <time>2019-02-10T11:05:58Z</time>
      </trkpt>
      <trkpt lat="43.41984" lon="2.19674">
        <ele>804</ele>
        <time>2019-02-10T11:05:59Z</time>
      </trkpt>
      <trkpt lat="43.41993" lon="2.19675">
        <ele>804</ele>
        <time>2019-02-10T11:06:01Z</time>
      </trkpt>
      <trkpt lat="43.42005" lon="2.19677">
        <ele>805</ele>
        <time>2019-02-10T11:06:04Z</time>
      </trkpt>
      <trkpt lat="43.42017" lon="2.1968">
        <ele>806</ele>
        <time>2019-02-10T11:06:07Z</time>
      </trkpt>
      <trkpt lat="43.4202" lon="2.19681">
        <ele>806</ele>
        <time>2019-02-10T11:06:08Z</time>
      </trkpt>
      <trkpt lat="43.42031" lon="2.19685">
        <ele>808</ele>
        <time>2019-02-10T11:06:11Z</time>
      </trkpt>
      <trkpt lat="43.42042" lon="2.1969">
        <ele>809</ele>
        <time>2019-02-10T11:06:14Z</time>
      </trkpt>
      <trkpt lat="43.4206" lon="2.197">
        <ele>810</ele>
        <time>2019-02-10T11:06:19Z</time>
      </trkpt>
      <trkpt lat="43.42071" lon="2.19707">
        <ele>810</ele>
        <time>2019-02-10T11:06:22Z</time>
      </trkpt>
      <trkpt lat="43.42098" lon="2.19723">
        <ele>810</ele>
        <time>2019-02-10T11:06:29Z</time>
      </trkpt>
      <trkpt lat="43.42128" lon="2.19743">
        <ele>811</ele>
        <time>2019-02-10T11:06:37Z</time>
      </trkpt>
      <trkpt lat="43.42138" lon="2.19751">
        <ele>811</ele>
        <time>2019-02-10T11:06:40Z</time>
      </trkpt>
      <trkpt lat="43.42154" lon="2.1976">
        <ele>812</ele>
        <time>2019-02-10T11:06:44Z</time>
      </trkpt>
      <trkpt lat="43.42162" lon="2.19764">
        <ele>812</ele>
        <time>2019-02-10T11:06:46Z</time>
      </trkpt>
      <trkpt lat="43.42166" lon="2.19766">
        <ele>812</ele>
        <time>2019-02-10T11:06:47Z</time>
      </trkpt>
      <trkpt lat="43.42186" lon="2.19774">
        <ele>812</ele>
        <time>2019-02-10T11:06:52Z</time>
      </trkpt>
      <trkpt lat="43.42191" lon="2.19776">
        <ele>813</ele>
        <time>2019-02-10T11:06:53Z</time>
      </trkpt>
      <trkpt lat="43.42203" lon="2.19782">
        <ele>813</ele>
        <time>2019-02-10T11:06:56Z</time>
      </trkpt>
      <trkpt lat="43.42216" lon="2.19788">
        <ele>814</ele>
        <time>2019-02-10T11:06:59Z</time>
      </trkpt>
      <trkpt lat="43.42229" lon="2.19796">
        <ele>814</ele>
        <time>2019-02-10T11:07:02Z</time>
      </trkpt>
      <trkpt lat="43.42253" lon="2.19814">
        <ele>815</ele>
        <time>2019-02-10T11:07:08Z</time>
      </trkpt>
      <trkpt lat="43.42256" lon="2.19817">
        <ele>816</ele>
        <time>2019-02-10T11:07:09Z</time>
      </trkpt>
      <trkpt lat="43.4228" lon="2.19838">
        <ele>816</ele>
        <time>2019-02-10T11:07:15Z</time>
      </trkpt>
      <trkpt lat="43.42307" lon="2.19857">
        <ele>815</ele>
        <time>2019-02-10T11:07:20Z</time>
      </trkpt>
      <trkpt lat="43.42313" lon="2.1986">
        <ele>814</ele>
        <time>2019-02-10T11:07:21Z</time>
      </trkpt>
      <trkpt lat="43.42325" lon="2.19869">
        <ele>813</ele>
        <time>2019-02-10T11:07:23Z</time>
      </trkpt>
      <trkpt lat="43.42344" lon="2.19882">
        <ele>812</ele>
        <time>2019-02-10T11:07:26Z</time>
      </trkpt>
      <trkpt lat="43.42362" lon="2.19896">
        <ele>811</ele>
        <time>2019-02-10T11:07:29Z</time>
      </trkpt>
      <trkpt lat="43.42368" lon="2.199">
        <ele>811</ele>
        <time>2019-02-10T11:07:30Z</time>
      </trkpt>
      <trkpt lat="43.4239" lon="2.19919">
        <ele>810</ele>
        <time>2019-02-10T11:07:34Z</time>
      </trkpt>
      <trkpt lat="43.42394" lon="2.19925">
        <ele>810</ele>
        <time>2019-02-10T11:07:35Z</time>
      </trkpt>
      <trkpt lat="43.42396" lon="2.19944">
        <ele>810</ele>
        <time>2019-02-10T11:07:38Z</time>
      </trkpt>
      <trkpt lat="43.42393" lon="2.19958">
        <ele>810</ele>
        <time>2019-02-10T11:07:41Z</time>
      </trkpt>
      <trkpt lat="43.42393" lon="2.19961">
        <ele>810</ele>
        <time>2019-02-10T11:07:42Z</time>
      </trkpt>
      <trkpt lat="43.42392" lon="2.19964">
        <ele>810</ele>
        <time>2019-02-10T11:07:43Z</time>
      </trkpt>
      <trkpt lat="43.42391" lon="2.19967">
        <ele>809</ele>
        <time>2019-02-10T11:07:46Z</time>
      </trkpt>
      <trkpt lat="43.42391" lon="2.19969">
        <ele>807</ele>
        <time>2019-02-10T11:14:45Z</time>
      </trkpt>
      <trkpt lat="43.42392" lon="2.19971">
        <ele>807</ele>
        <time>2019-02-10T11:14:46Z</time>
      </trkpt>
      <trkpt lat="43.42393" lon="2.19974">
        <ele>807</ele>
        <time>2019-02-10T11:14:47Z</time>
      </trkpt>
      <trkpt lat="43.42399" lon="2.19985">
        <ele>806</ele>
        <time>2019-02-10T11:14:50Z</time>
      </trkpt>
      <trkpt lat="43.42403" lon="2.19988">
        <ele>806</ele>
        <time>2019-02-10T11:14:51Z</time>
      </trkpt>
      <trkpt lat="43.42408" lon="2.19992">
        <ele>806</ele>
        <time>2019-02-10T11:14:52Z</time>
      </trkpt>
      <trkpt lat="43.42419" lon="2.19999">
        <ele>804</ele>
        <time>2019-02-10T11:14:54Z</time>
      </trkpt>
      <trkpt lat="43.42423" lon="2.20003">
        <ele>804</ele>
        <time>2019-02-10T11:14:55Z</time>
      </trkpt>
      <trkpt lat="43.42427" lon="2.20009">
        <ele>803</ele>
        <time>2019-02-10T11:14:56Z</time>
      </trkpt>
      <trkpt lat="43.42431" lon="2.20024">
        <ele>802</ele>
        <time>2019-02-10T11:14:58Z</time>
      </trkpt>
      <trkpt lat="43.4243" lon="2.20041">
        <ele>801</ele>
        <time>2019-02-10T11:15:00Z</time>
      </trkpt>
      <trkpt lat="43.4243" lon="2.20049">
        <ele>800</ele>
        <time>2019-02-10T11:15:01Z</time>
      </trkpt>
      <trkpt lat="43.4243" lon="2.20057">
        <ele>800</ele>
        <time>2019-02-10T11:15:02Z</time>
      </trkpt>
      <trkpt lat="43.42437" lon="2.2007">
        <ele>799</ele>
        <time>2019-02-10T11:15:04Z</time>
      </trkpt>
      <trkpt lat="43.42442" lon="2.20075">
        <ele>798</ele>
        <time>2019-02-10T11:15:05Z</time>
      </trkpt>
      <trkpt lat="43.42447" lon="2.2008">
        <ele>798</ele>
        <time>2019-02-10T11:15:06Z</time>
      </trkpt>
      <trkpt lat="43.42453" lon="2.20084">
        <ele>798</ele>
        <time>2019-02-10T11:15:07Z</time>
      </trkpt>
      <trkpt lat="43.42464" lon="2.20093">
        <ele>797</ele>
        <time>2019-02-10T11:15:09Z</time>
      </trkpt>
      <trkpt lat="43.42477" lon="2.201">
        <ele>796</ele>
        <time>2019-02-10T11:15:11Z</time>
      </trkpt>
      <trkpt lat="43.42484" lon="2.20102">
        <ele>795</ele>
        <time>2019-02-10T11:15:12Z</time>
      </trkpt>
      <trkpt lat="43.4249" lon="2.20104">
        <ele>795</ele>
        <time>2019-02-10T11:15:13Z</time>
      </trkpt>
      <trkpt lat="43.42508" lon="2.20107">
        <ele>794</ele>
        <time>2019-02-10T11:15:16Z</time>
      </trkpt>
      <trkpt lat="43.42514" lon="2.20108">
        <ele>793</ele>
        <time>2019-02-10T11:15:17Z</time>
      </trkpt>
      <trkpt lat="43.42535" lon="2.20112">
        <ele>793</ele>
        <time>2019-02-10T11:15:20Z</time>
      </trkpt>
      <trkpt lat="43.42541" lon="2.20115">
        <ele>793</ele>
        <time>2019-02-10T11:15:21Z</time>
      </trkpt>
      <trkpt lat="43.4256" lon="2.20123">
        <ele>793</ele>
        <time>2019-02-10T11:15:24Z</time>
      </trkpt>
      <trkpt lat="43.42566" lon="2.20126">
        <ele>793</ele>
        <time>2019-02-10T11:15:25Z</time>
      </trkpt>
      <trkpt lat="43.42576" lon="2.20134">
        <ele>793</ele>
        <time>2019-02-10T11:15:27Z</time>
      </trkpt>
      <trkpt lat="43.4259" lon="2.20148">
        <ele>792</ele>
        <time>2019-02-10T11:15:30Z</time>
      </trkpt>
      <trkpt lat="43.426" lon="2.20157">
        <ele>793</ele>
        <time>2019-02-10T11:15:32Z</time>
      </trkpt>
      <trkpt lat="43.42609" lon="2.20164">
        <ele>793</ele>
        <time>2019-02-10T11:15:34Z</time>
      </trkpt>
      <trkpt lat="43.42613" lon="2.20168">
        <ele>794</ele>
        <time>2019-02-10T11:15:35Z</time>
      </trkpt>
      <trkpt lat="43.42626" lon="2.20176">
        <ele>795</ele>
        <time>2019-02-10T11:15:38Z</time>
      </trkpt>
      <trkpt lat="43.4263" lon="2.20179">
        <ele>796</ele>
        <time>2019-02-10T11:15:39Z</time>
      </trkpt>
      <trkpt lat="43.42638" lon="2.20184">
        <ele>797</ele>
        <time>2019-02-10T11:15:41Z</time>
      </trkpt>
      <trkpt lat="43.4265" lon="2.20189">
        <ele>798</ele>
        <time>2019-02-10T11:15:44Z</time>
      </trkpt>
      <trkpt lat="43.42665" lon="2.20195">
        <ele>798</ele>
        <time>2019-02-10T11:15:48Z</time>
      </trkpt>
      <trkpt lat="43.4267" lon="2.20195">
        <ele>799</ele>
        <time>2019-02-10T11:15:49Z</time>
      </trkpt>
      <trkpt lat="43.42694" lon="2.20195">
        <ele>798</ele>
        <time>2019-02-10T11:15:54Z</time>
      </trkpt>
      <trkpt lat="43.42699" lon="2.20195">
        <ele>798</ele>
        <time>2019-02-10T11:15:55Z</time>
      </trkpt>
      <trkpt lat="43.42713" lon="2.20196">
        <ele>797</ele>
        <time>2019-02-10T11:15:58Z</time>
      </trkpt>
      <trkpt lat="43.42722" lon="2.20198">
        <ele>797</ele>
        <time>2019-02-10T11:16:00Z</time>
      </trkpt>
      <trkpt lat="43.4274" lon="2.20204">
        <ele>798</ele>
        <time>2019-02-10T11:16:05Z</time>
      </trkpt>
      <trkpt lat="43.42747" lon="2.20206">
        <ele>799</ele>
        <time>2019-02-10T11:16:07Z</time>
      </trkpt>
      <trkpt lat="43.42753" lon="2.20208">
        <ele>800</ele>
        <time>2019-02-10T11:16:09Z</time>
      </trkpt>
      <trkpt lat="43.4276" lon="2.2021">
        <ele>801</ele>
        <time>2019-02-10T11:16:11Z</time>
      </trkpt>
      <trkpt lat="43.42772" lon="2.20213">
        <ele>801</ele>
        <time>2019-02-10T11:16:14Z</time>
      </trkpt>
      <trkpt lat="43.4278" lon="2.20215">
        <ele>802</ele>
        <time>2019-02-10T11:16:16Z</time>
      </trkpt>
      <trkpt lat="43.428" lon="2.20215">
        <ele>802</ele>
        <time>2019-02-10T11:16:20Z</time>
      </trkpt>
      <trkpt lat="43.42806" lon="2.20214">
        <ele>802</ele>
        <time>2019-02-10T11:16:21Z</time>
      </trkpt>
      <trkpt lat="43.42822" lon="2.20207">
        <ele>802</ele>
        <time>2019-02-10T11:16:24Z</time>
      </trkpt>
      <trkpt lat="43.42827" lon="2.20203">
        <ele>801</ele>
        <time>2019-02-10T11:16:25Z</time>
      </trkpt>
      <trkpt lat="43.42845" lon="2.20187">
        <ele>801</ele>
        <time>2019-02-10T11:16:29Z</time>
      </trkpt>
      <trkpt lat="43.42858" lon="2.20173">
        <ele>800</ele>
        <time>2019-02-10T11:16:32Z</time>
      </trkpt>
      <trkpt lat="43.42863" lon="2.20169">
        <ele>799</ele>
        <time>2019-02-10T11:16:33Z</time>
      </trkpt>
      <trkpt lat="43.42868" lon="2.20164">
        <ele>799</ele>
        <time>2019-02-10T11:16:34Z</time>
      </trkpt>
      <trkpt lat="43.42873" lon="2.20161">
        <ele>798</ele>
        <time>2019-02-10T11:16:35Z</time>
      </trkpt>
      <trkpt lat="43.42886" lon="2.20158">
        <ele>798</ele>
        <time>2019-02-10T11:16:37Z</time>
      </trkpt>
      <trkpt lat="43.42899" lon="2.20159">
        <ele>797</ele>
        <time>2019-02-10T11:16:39Z</time>
      </trkpt>
      <trkpt lat="43.42924" lon="2.20164">
        <ele>796</ele>
        <time>2019-02-10T11:16:43Z</time>
      </trkpt>
      <trkpt lat="43.42951" lon="2.2017">
        <ele>795</ele>
        <time>2019-02-10T11:16:48Z</time>
      </trkpt>
      <trkpt lat="43.4297" lon="2.20169">
        <ele>795</ele>
        <time>2019-02-10T11:16:53Z</time>
      </trkpt>
      <trkpt lat="43.42974" lon="2.20168">
        <ele>795</ele>
        <time>2019-02-10T11:16:54Z</time>
      </trkpt>
      <trkpt lat="43.42988" lon="2.20164">
        <ele>795</ele>
        <time>2019-02-10T11:16:57Z</time>
      </trkpt>
      <trkpt lat="43.42992" lon="2.20162">
        <ele>795</ele>
        <time>2019-02-10T11:16:58Z</time>
      </trkpt>
      <trkpt lat="43.43011" lon="2.20157">
        <ele>795</ele>
        <time>2019-02-10T11:17:02Z</time>
      </trkpt>
      <trkpt lat="43.43024" lon="2.20154">
        <ele>795</ele>
        <time>2019-02-10T11:17:06Z</time>
      </trkpt>
      <trkpt lat="43.43031" lon="2.2015">
        <ele>795</ele>
        <time>2019-02-10T11:17:08Z</time>
      </trkpt>
      <trkpt lat="43.43038" lon="2.20141">
        <ele>795</ele>
        <time>2019-02-10T11:17:10Z</time>
      </trkpt>
      <trkpt lat="43.43045" lon="2.2013">
        <ele>795</ele>
        <time>2019-02-10T11:17:12Z</time>
      </trkpt>
      <trkpt lat="43.43052" lon="2.20118">
        <ele>794</ele>
        <time>2019-02-10T11:17:14Z</time>
      </trkpt>
      <trkpt lat="43.43059" lon="2.20106">
        <ele>794</ele>
        <time>2019-02-10T11:17:16Z</time>
      </trkpt>
      <trkpt lat="43.43068" lon="2.20094">
        <ele>793</ele>
        <time>2019-02-10T11:17:18Z</time>
      </trkpt>
      <trkpt lat="43.43072" lon="2.20087">
        <ele>793</ele>
        <time>2019-02-10T11:17:19Z</time>
      </trkpt>
      <trkpt lat="43.43075" lon="2.20079">
        <ele>793</ele>
        <time>2019-02-10T11:17:20Z</time>
      </trkpt>
      <trkpt lat="43.43082" lon="2.20064">
        <ele>791</ele>
        <time>2019-02-10T11:17:22Z</time>
      </trkpt>
      <trkpt lat="43.43086" lon="2.20056">
        <ele>790</ele>
        <time>2019-02-10T11:17:23Z</time>
      </trkpt>
      <trkpt lat="43.43095" lon="2.20043">
        <ele>788</ele>
        <time>2019-02-10T11:17:25Z</time>
      </trkpt>
      <trkpt lat="43.43102" lon="2.20036">
        <ele>788</ele>
        <time>2019-02-10T11:17:26Z</time>
      </trkpt>
      <trkpt lat="43.43109" lon="2.2003">
        <ele>787</ele>
        <time>2019-02-10T11:17:27Z</time>
      </trkpt>
      <trkpt lat="43.43121" lon="2.20021">
        <ele>786</ele>
        <time>2019-02-10T11:17:29Z</time>
      </trkpt>
      <trkpt lat="43.43126" lon="2.20018">
        <ele>785</ele>
        <time>2019-02-10T11:17:30Z</time>
      </trkpt>
      <trkpt lat="43.43137" lon="2.20008">
        <ele>785</ele>
        <time>2019-02-10T11:17:33Z</time>
      </trkpt>
      <trkpt lat="43.4314" lon="2.20003">
        <ele>784</ele>
        <time>2019-02-10T11:17:34Z</time>
      </trkpt>
      <trkpt lat="43.43144" lon="2.19998">
        <ele>784</ele>
        <time>2019-02-10T11:17:35Z</time>
      </trkpt>
      <trkpt lat="43.43158" lon="2.19987">
        <ele>783</ele>
        <time>2019-02-10T11:17:38Z</time>
      </trkpt>
      <trkpt lat="43.43172" lon="2.19975">
        <ele>782</ele>
        <time>2019-02-10T11:17:41Z</time>
      </trkpt>
      <trkpt lat="43.43178" lon="2.19971">
        <ele>781</ele>
        <time>2019-02-10T11:17:42Z</time>
      </trkpt>
      <trkpt lat="43.43186" lon="2.19966">
        <ele>781</ele>
        <time>2019-02-10T11:17:43Z</time>
      </trkpt>
      <trkpt lat="43.43194" lon="2.19961">
        <ele>780</ele>
        <time>2019-02-10T11:17:44Z</time>
      </trkpt>
      <trkpt lat="43.43209" lon="2.19955">
        <ele>779</ele>
        <time>2019-02-10T11:17:46Z</time>
      </trkpt>
      <trkpt lat="43.43226" lon="2.19949">
        <ele>778</ele>
        <time>2019-02-10T11:17:48Z</time>
      </trkpt>
      <trkpt lat="43.43242" lon="2.1994">
        <ele>777</ele>
        <time>2019-02-10T11:17:50Z</time>
      </trkpt>
      <trkpt lat="43.43258" lon="2.19927">
        <ele>776</ele>
        <time>2019-02-10T11:17:52Z</time>
      </trkpt>
      <trkpt lat="43.43274" lon="2.19911">
        <ele>774</ele>
        <time>2019-02-10T11:17:54Z</time>
      </trkpt>
      <trkpt lat="43.43283" lon="2.19903">
        <ele>773</ele>
        <time>2019-02-10T11:17:55Z</time>
      </trkpt>
      <trkpt lat="43.43289" lon="2.19894">
        <ele>772</ele>
        <time>2019-02-10T11:17:56Z</time>
      </trkpt>
      <trkpt lat="43.43293" lon="2.19883">
        <ele>771</ele>
        <time>2019-02-10T11:17:57Z</time>
      </trkpt>
      <trkpt lat="43.43297" lon="2.19872">
        <ele>770</ele>
        <time>2019-02-10T11:17:58Z</time>
      </trkpt>
      <trkpt lat="43.43305" lon="2.19849">
        <ele>768</ele>
        <time>2019-02-10T11:18:00Z</time>
      </trkpt>
      <trkpt lat="43.43308" lon="2.19837">
        <ele>768</ele>
        <time>2019-02-10T11:18:01Z</time>
      </trkpt>
      <trkpt lat="43.4331" lon="2.19825">
        <ele>767</ele>
        <time>2019-02-10T11:18:02Z</time>
      </trkpt>
      <trkpt lat="43.43316" lon="2.1979">
        <ele>766</ele>
        <time>2019-02-10T11:18:05Z</time>
      </trkpt>
      <trkpt lat="43.43321" lon="2.19768">
        <ele>765</ele>
        <time>2019-02-10T11:18:07Z</time>
      </trkpt>
      <trkpt lat="43.4333" lon="2.19747">
        <ele>764</ele>
        <time>2019-02-10T11:18:09Z</time>
      </trkpt>
      <trkpt lat="43.43333" lon="2.19735">
        <ele>763</ele>
        <time>2019-02-10T11:18:10Z</time>
      </trkpt>
      <trkpt lat="43.43339" lon="2.1971">
        <ele>762</ele>
        <time>2019-02-10T11:18:12Z</time>
      </trkpt>
      <trkpt lat="43.43341" lon="2.19697">
        <ele>762</ele>
        <time>2019-02-10T11:18:13Z</time>
      </trkpt>
      <trkpt lat="43.43343" lon="2.19671">
        <ele>760</ele>
        <time>2019-02-10T11:18:15Z</time>
      </trkpt>
      <trkpt lat="43.43345" lon="2.19646">
        <ele>759</ele>
        <time>2019-02-10T11:18:17Z</time>
      </trkpt>
      <trkpt lat="43.43346" lon="2.19633">
        <ele>757</ele>
        <time>2019-02-10T11:18:18Z</time>
      </trkpt>
      <trkpt lat="43.43345" lon="2.1962">
        <ele>756</ele>
        <time>2019-02-10T11:18:19Z</time>
      </trkpt>
      <trkpt lat="43.43344" lon="2.19607">
        <ele>755</ele>
        <time>2019-02-10T11:18:20Z</time>
      </trkpt>
      <trkpt lat="43.43351" lon="2.19585">
        <ele>755</ele>
        <time>2019-02-10T11:18:22Z</time>
      </trkpt>
      <trkpt lat="43.43364" lon="2.19569">
        <ele>753</ele>
        <time>2019-02-10T11:18:24Z</time>
      </trkpt>
      <trkpt lat="43.43373" lon="2.19563">
        <ele>752</ele>
        <time>2019-02-10T11:18:25Z</time>
      </trkpt>
      <trkpt lat="43.43381" lon="2.19557">
        <ele>750</ele>
        <time>2019-02-10T11:18:26Z</time>
      </trkpt>
      <trkpt lat="43.43389" lon="2.19552">
        <ele>749</ele>
        <time>2019-02-10T11:18:27Z</time>
      </trkpt>
      <trkpt lat="43.43398" lon="2.19548">
        <ele>748</ele>
        <time>2019-02-10T11:18:28Z</time>
      </trkpt>
      <trkpt lat="43.43408" lon="2.19545">
        <ele>747</ele>
        <time>2019-02-10T11:18:29Z</time>
      </trkpt>
      <trkpt lat="43.43417" lon="2.19545">
        <ele>746</ele>
        <time>2019-02-10T11:18:30Z</time>
      </trkpt>
      <trkpt lat="43.43434" lon="2.19549">
        <ele>746</ele>
        <time>2019-02-10T11:18:32Z</time>
      </trkpt>
      <trkpt lat="43.4344" lon="2.19552">
        <ele>745</ele>
        <time>2019-02-10T11:18:33Z</time>
      </trkpt>
      <trkpt lat="43.43445" lon="2.19553">
        <ele>745</ele>
        <time>2019-02-10T11:18:34Z</time>
      </trkpt>
      <trkpt lat="43.43464" lon="2.19539">
        <ele>743</ele>
        <time>2019-02-10T11:18:37Z</time>
      </trkpt>
      <trkpt lat="43.43471" lon="2.19531">
        <ele>743</ele>
        <time>2019-02-10T11:18:38Z</time>
      </trkpt>
      <trkpt lat="43.43479" lon="2.19522">
        <ele>742</ele>
        <time>2019-02-10T11:18:39Z</time>
      </trkpt>
      <trkpt lat="43.43488" lon="2.19514">
        <ele>742</ele>
        <time>2019-02-10T11:18:40Z</time>
      </trkpt>
      <trkpt lat="43.43498" lon="2.19505">
        <ele>741</ele>
        <time>2019-02-10T11:18:41Z</time>
      </trkpt>
      <trkpt lat="43.43506" lon="2.19496">
        <ele>740</ele>
        <time>2019-02-10T11:18:42Z</time>
      </trkpt>
      <trkpt lat="43.43515" lon="2.19487">
        <ele>739</ele>
        <time>2019-02-10T11:18:43Z</time>
      </trkpt>
      <trkpt lat="43.43523" lon="2.19478">
        <ele>737</ele>
        <time>2019-02-10T11:18:44Z</time>
      </trkpt>
      <trkpt lat="43.43532" lon="2.1947">
        <ele>737</ele>
        <time>2019-02-10T11:18:45Z</time>
      </trkpt>
      <trkpt lat="43.4354" lon="2.19462">
        <ele>736</ele>
        <time>2019-02-10T11:18:46Z</time>
      </trkpt>
      <trkpt lat="43.43558" lon="2.19447">
        <ele>734</ele>
        <time>2019-02-10T11:18:48Z</time>
      </trkpt>
      <trkpt lat="43.43567" lon="2.19439">
        <ele>734</ele>
        <time>2019-02-10T11:18:49Z</time>
      </trkpt>
      <trkpt lat="43.43576" lon="2.19432">
        <ele>733</ele>
        <time>2019-02-10T11:18:50Z</time>
      </trkpt>
      <trkpt lat="43.43596" lon="2.19419">
        <ele>731</ele>
        <time>2019-02-10T11:18:52Z</time>
      </trkpt>
      <trkpt lat="43.43604" lon="2.19413">
        <ele>730</ele>
        <time>2019-02-10T11:18:53Z</time>
      </trkpt>
      <trkpt lat="43.43613" lon="2.19409">
        <ele>729</ele>
        <time>2019-02-10T11:18:54Z</time>
      </trkpt>
      <trkpt lat="43.43623" lon="2.19406">
        <ele>729</ele>
        <time>2019-02-10T11:18:55Z</time>
      </trkpt>
      <trkpt lat="43.43633" lon="2.19404">
        <ele>728</ele>
        <time>2019-02-10T11:18:56Z</time>
      </trkpt>
      <trkpt lat="43.43643" lon="2.19403">
        <ele>728</ele>
        <time>2019-02-10T11:18:57Z</time>
      </trkpt>
      <trkpt lat="43.43653" lon="2.19402">
        <ele>727</ele>
        <time>2019-02-10T11:18:58Z</time>
      </trkpt>
      <trkpt lat="43.43661" lon="2.19404">
        <ele>725</ele>
        <time>2019-02-10T11:18:59Z</time>
      </trkpt>
      <trkpt lat="43.43669" lon="2.19405">
        <ele>724</ele>
        <time>2019-02-10T11:19:00Z</time>
      </trkpt>
      <trkpt lat="43.43689" lon="2.19411">
        <ele>722</ele>
        <time>2019-02-10T11:19:02Z</time>
      </trkpt>
      <trkpt lat="43.43699" lon="2.19415">
        <ele>722</ele>
        <time>2019-02-10T11:19:03Z</time>
      </trkpt>
      <trkpt lat="43.43709" lon="2.19419">
        <ele>721</ele>
        <time>2019-02-10T11:19:04Z</time>
      </trkpt>
      <trkpt lat="43.43718" lon="2.19424">
        <ele>720</ele>
        <time>2019-02-10T11:19:05Z</time>
      </trkpt>
      <trkpt lat="43.43728" lon="2.19429">
        <ele>719</ele>
        <time>2019-02-10T11:19:06Z</time>
      </trkpt>
      <trkpt lat="43.43738" lon="2.19434">
        <ele>718</ele>
        <time>2019-02-10T11:19:07Z</time>
      </trkpt>
      <trkpt lat="43.43748" lon="2.19438">
        <ele>717</ele>
        <time>2019-02-10T11:19:08Z</time>
      </trkpt>
      <trkpt lat="43.43769" lon="2.19444">
        <ele>715</ele>
        <time>2019-02-10T11:19:10Z</time>
      </trkpt>
      <trkpt lat="43.4378" lon="2.19445">
        <ele>714</ele>
        <time>2019-02-10T11:19:11Z</time>
      </trkpt>
      <trkpt lat="43.43791" lon="2.19445">
        <ele>714</ele>
        <time>2019-02-10T11:19:12Z</time>
      </trkpt>
      <trkpt lat="43.43803" lon="2.19446">
        <ele>714</ele>
        <time>2019-02-10T11:19:13Z</time>
      </trkpt>
      <trkpt lat="43.43824" lon="2.19449">
        <ele>713</ele>
        <time>2019-02-10T11:19:15Z</time>
      </trkpt>
      <trkpt lat="43.43835" lon="2.1945">
        <ele>712</ele>
        <time>2019-02-10T11:19:16Z</time>
      </trkpt>
      <trkpt lat="43.43845" lon="2.19451">
        <ele>712</ele>
        <time>2019-02-10T11:19:17Z</time>
      </trkpt>
      <trkpt lat="43.43855" lon="2.19451">
        <ele>711</ele>
        <time>2019-02-10T11:19:18Z</time>
      </trkpt>
      <trkpt lat="43.43866" lon="2.1945">
        <ele>710</ele>
        <time>2019-02-10T11:19:19Z</time>
      </trkpt>
      <trkpt lat="43.43885" lon="2.19448">
        <ele>709</ele>
        <time>2019-02-10T11:19:21Z</time>
      </trkpt>
      <trkpt lat="43.43894" lon="2.19445">
        <ele>709</ele>
        <time>2019-02-10T11:19:22Z</time>
      </trkpt>
      <trkpt lat="43.43905" lon="2.19441">
        <ele>708</ele>
        <time>2019-02-10T11:19:23Z</time>
      </trkpt>
      <trkpt lat="43.43925" lon="2.19432">
        <ele>706</ele>
        <time>2019-02-10T11:19:25Z</time>
      </trkpt>
      <trkpt lat="43.43942" lon="2.19425">
        <ele>705</ele>
        <time>2019-02-10T11:19:27Z</time>
      </trkpt>
      <trkpt lat="43.43969" lon="2.19414">
        <ele>703</ele>
        <time>2019-02-10T11:19:30Z</time>
      </trkpt>
      <trkpt lat="43.43986" lon="2.19409">
        <ele>702</ele>
        <time>2019-02-10T11:19:32Z</time>
      </trkpt>
      <trkpt lat="43.43992" lon="2.19408">
        <ele>702</ele>
        <time>2019-02-10T11:19:33Z</time>
      </trkpt>
      <trkpt lat="43.44003" lon="2.19413">
        <ele>702</ele>
        <time>2019-02-10T11:19:36Z</time>
      </trkpt>
      <trkpt lat="43.44004" lon="2.19417">
        <ele>702</ele>
        <time>2019-02-10T11:19:38Z</time>
      </trkpt>
      <trkpt lat="43.44005" lon="2.19418">
        <ele>703</ele>
        <time>2019-02-10T11:19:40Z</time>
      </trkpt>
      <trkpt lat="43.44005" lon="2.19418">
        <ele>703</ele>
        <time>2019-02-10T11:19:41Z</time>
      </trkpt>
      <trkpt lat="43.44006" lon="2.19418">
        <ele>702</ele>
        <time>2019-02-10T11:20:11Z</time>
      </trkpt>
      <trkpt lat="43.44006" lon="2.19419">
        <ele>702</ele>
        <time>2019-02-10T11:20:12Z</time>
      </trkpt>
      <trkpt lat="43.44006" lon="2.19423">
        <ele>702</ele>
        <time>2019-02-10T11:20:14Z</time>
      </trkpt>
      <trkpt lat="43.44006" lon="2.19425">
        <ele>702</ele>
        <time>2019-02-10T11:20:15Z</time>
      </trkpt>
      <trkpt lat="43.44006" lon="2.19431">
        <ele>702</ele>
        <time>2019-02-10T11:20:17Z</time>
      </trkpt>
      <trkpt lat="43.44007" lon="2.19442">
        <ele>702</ele>
        <time>2019-02-10T11:20:20Z</time>
      </trkpt>
      <trkpt lat="43.44008" lon="2.19446">
        <ele>702</ele>
        <time>2019-02-10T11:20:21Z</time>
      </trkpt>
      <trkpt lat="43.44011" lon="2.19462">
        <ele>702</ele>
        <time>2019-02-10T11:20:25Z</time>
      </trkpt>
      <trkpt lat="43.44012" lon="2.19466">
        <ele>702</ele>
        <time>2019-02-10T11:20:26Z</time>
      </trkpt>
      <trkpt lat="43.44016" lon="2.19494">
        <ele>702</ele>
        <time>2019-02-10T11:20:32Z</time>
      </trkpt>
      <trkpt lat="43.44019" lon="2.19518">
        <ele>702</ele>
        <time>2019-02-10T11:20:37Z</time>
      </trkpt>
      <trkpt lat="43.44021" lon="2.1955">
        <ele>703</ele>
        <time>2019-02-10T11:20:43Z</time>
      </trkpt>
      <trkpt lat="43.44022" lon="2.19571">
        <ele>703</ele>
        <time>2019-02-10T11:20:47Z</time>
      </trkpt>
      <trkpt lat="43.44023" lon="2.19591">
        <ele>704</ele>
        <time>2019-02-10T11:20:51Z</time>
      </trkpt>
      <trkpt lat="43.44024" lon="2.19623">
        <ele>704</ele>
        <time>2019-02-10T11:20:57Z</time>
      </trkpt>
      <trkpt lat="43.44023" lon="2.19628">
        <ele>704</ele>
        <time>2019-02-10T11:20:58Z</time>
      </trkpt>
      <trkpt lat="43.44024" lon="2.19653">
        <ele>705</ele>
        <time>2019-02-10T11:21:03Z</time>
      </trkpt>
      <trkpt lat="43.44025" lon="2.19668">
        <ele>706</ele>
        <time>2019-02-10T11:21:06Z</time>
      </trkpt>
      <trkpt lat="43.44029" lon="2.19688">
        <ele>706</ele>
        <time>2019-02-10T11:21:10Z</time>
      </trkpt>
      <trkpt lat="43.4403" lon="2.19692">
        <ele>706</ele>
        <time>2019-02-10T11:21:11Z</time>
      </trkpt>
      <trkpt lat="43.44031" lon="2.19697">
        <ele>706</ele>
        <time>2019-02-10T11:21:12Z</time>
      </trkpt>
      <trkpt lat="43.44035" lon="2.19719">
        <ele>707</ele>
        <time>2019-02-10T11:21:16Z</time>
      </trkpt>
      <trkpt lat="43.44036" lon="2.19724">
        <ele>707</ele>
        <time>2019-02-10T11:21:17Z</time>
      </trkpt>
      <trkpt lat="43.44036" lon="2.1973">
        <ele>707</ele>
        <time>2019-02-10T11:21:18Z</time>
      </trkpt>
      <trkpt lat="43.44038" lon="2.19745">
        <ele>708</ele>
        <time>2019-02-10T11:21:21Z</time>
      </trkpt>
      <trkpt lat="43.44045" lon="2.19783">
        <ele>708</ele>
        <time>2019-02-10T11:21:28Z</time>
      </trkpt>
      <trkpt lat="43.44051" lon="2.19813">
        <ele>707</ele>
        <time>2019-02-10T11:21:33Z</time>
      </trkpt>
      <trkpt lat="43.44055" lon="2.19826">
        <ele>706</ele>
        <time>2019-02-10T11:21:35Z</time>
      </trkpt>
      <trkpt lat="43.44057" lon="2.19833">
        <ele>706</ele>
        <time>2019-02-10T11:21:36Z</time>
      </trkpt>
      <trkpt lat="43.44064" lon="2.19845">
        <ele>706</ele>
        <time>2019-02-10T11:21:38Z</time>
      </trkpt>
      <trkpt lat="43.44069" lon="2.1985">
        <ele>705</ele>
        <time>2019-02-10T11:21:39Z</time>
      </trkpt>
      <trkpt lat="43.44084" lon="2.19858">
        <ele>705</ele>
        <time>2019-02-10T11:21:42Z</time>
      </trkpt>
      <trkpt lat="43.44096" lon="2.19863">
        <ele>704</ele>
        <time>2019-02-10T11:21:44Z</time>
      </trkpt>
      <trkpt lat="43.44116" lon="2.19869">
        <ele>703</ele>
        <time>2019-02-10T11:21:47Z</time>
      </trkpt>
      <trkpt lat="43.44159" lon="2.19873">
        <ele>703</ele>
        <time>2019-02-10T11:21:53Z</time>
      </trkpt>
      <trkpt lat="43.44166" lon="2.19873">
        <ele>702</ele>
        <time>2019-02-10T11:21:54Z</time>
      </trkpt>
      <trkpt lat="43.44174" lon="2.19873">
        <ele>701</ele>
        <time>2019-02-10T11:21:55Z</time>
      </trkpt>
      <trkpt lat="43.44188" lon="2.19868">
        <ele>701</ele>
        <time>2019-02-10T11:21:57Z</time>
      </trkpt>
      <trkpt lat="43.44195" lon="2.19864">
        <ele>700</ele>
        <time>2019-02-10T11:21:58Z</time>
      </trkpt>
      <trkpt lat="43.44207" lon="2.19852">
        <ele>700</ele>
        <time>2019-02-10T11:22:00Z</time>
      </trkpt>
      <trkpt lat="43.44217" lon="2.19839">
        <ele>699</ele>
        <time>2019-02-10T11:22:02Z</time>
      </trkpt>
      <trkpt lat="43.44228" lon="2.19827">
        <ele>699</ele>
        <time>2019-02-10T11:22:04Z</time>
      </trkpt>
      <trkpt lat="43.4424" lon="2.19821">
        <ele>699</ele>
        <time>2019-02-10T11:22:06Z</time>
      </trkpt>
      <trkpt lat="43.44247" lon="2.19818">
        <ele>698</ele>
        <time>2019-02-10T11:22:07Z</time>
      </trkpt>
      <trkpt lat="43.4426" lon="2.19817">
        <ele>698</ele>
        <time>2019-02-10T11:22:09Z</time>
      </trkpt>
      <trkpt lat="43.44274" lon="2.19817">
        <ele>698</ele>
        <time>2019-02-10T11:22:11Z</time>
      </trkpt>
      <trkpt lat="43.44281" lon="2.19817">
        <ele>698</ele>
        <time>2019-02-10T11:22:12Z</time>
      </trkpt>
      <trkpt lat="43.44287" lon="2.19817">
        <ele>698</ele>
        <time>2019-02-10T11:22:13Z</time>
      </trkpt>
      <trkpt lat="43.44295" lon="2.19818">
        <ele>697</ele>
        <time>2019-02-10T11:22:14Z</time>
      </trkpt>
      <trkpt lat="43.44316" lon="2.1982">
        <ele>696</ele>
        <time>2019-02-10T11:22:17Z</time>
      </trkpt>
      <trkpt lat="43.44329" lon="2.19821">
        <ele>696</ele>
        <time>2019-02-10T11:22:19Z</time>
      </trkpt>
      <trkpt lat="43.44343" lon="2.19821">
        <ele>696</ele>
        <time>2019-02-10T11:22:21Z</time>
      </trkpt>
      <trkpt lat="43.44364" lon="2.19815">
        <ele>695</ele>
        <time>2019-02-10T11:22:24Z</time>
      </trkpt>
      <trkpt lat="43.44394" lon="2.19799">
        <ele>695</ele>
        <time>2019-02-10T11:22:29Z</time>
      </trkpt>
      <trkpt lat="43.444" lon="2.19796">
        <ele>695</ele>
        <time>2019-02-10T11:22:30Z</time>
      </trkpt>
      <trkpt lat="43.44412" lon="2.19791">
        <ele>694</ele>
        <time>2019-02-10T11:22:32Z</time>
      </trkpt>
      <trkpt lat="43.44431" lon="2.19783">
        <ele>694</ele>
        <time>2019-02-10T11:22:35Z</time>
      </trkpt>
      <trkpt lat="43.44445" lon="2.19776">
        <ele>693</ele>
        <time>2019-02-10T11:22:37Z</time>
      </trkpt>
      <trkpt lat="43.44459" lon="2.19769">
        <ele>692</ele>
        <time>2019-02-10T11:22:39Z</time>
      </trkpt>
      <trkpt lat="43.44466" lon="2.19766">
        <ele>692</ele>
        <time>2019-02-10T11:22:40Z</time>
      </trkpt>
      <trkpt lat="43.4448" lon="2.1976">
        <ele>691</ele>
        <time>2019-02-10T11:22:42Z</time>
      </trkpt>
      <trkpt lat="43.44487" lon="2.19756">
        <ele>691</ele>
        <time>2019-02-10T11:22:43Z</time>
      </trkpt>
      <trkpt lat="43.44504" lon="2.19745">
        <ele>691</ele>
        <time>2019-02-10T11:22:46Z</time>
      </trkpt>
      <trkpt lat="43.44509" lon="2.19741">
        <ele>691</ele>
        <time>2019-02-10T11:22:47Z</time>
      </trkpt>
      <trkpt lat="43.44523" lon="2.19727">
        <ele>691</ele>
        <time>2019-02-10T11:22:50Z</time>
      </trkpt>
      <trkpt lat="43.44549" lon="2.19709">
        <ele>691</ele>
        <time>2019-02-10T11:22:55Z</time>
      </trkpt>
      <trkpt lat="43.44554" lon="2.19708">
        <ele>691</ele>
        <time>2019-02-10T11:22:56Z</time>
      </trkpt>
      <trkpt lat="43.44564" lon="2.19707">
        <ele>692</ele>
        <time>2019-02-10T11:22:58Z</time>
      </trkpt>
      <trkpt lat="43.4457" lon="2.19707">
        <ele>692</ele>
        <time>2019-02-10T11:22:59Z</time>
      </trkpt>
      <trkpt lat="43.44586" lon="2.19708">
        <ele>693</ele>
        <time>2019-02-10T11:23:02Z</time>
      </trkpt>
      <trkpt lat="43.4459" lon="2.19708">
        <ele>693</ele>
        <time>2019-02-10T11:23:03Z</time>
      </trkpt>
      <trkpt lat="43.44599" lon="2.19708">
        <ele>694</ele>
        <time>2019-02-10T11:23:05Z</time>
      </trkpt>
      <trkpt lat="43.44604" lon="2.19708">
        <ele>694</ele>
        <time>2019-02-10T11:23:06Z</time>
      </trkpt>
      <trkpt lat="43.44612" lon="2.19707">
        <ele>695</ele>
        <time>2019-02-10T11:23:08Z</time>
      </trkpt>
      <trkpt lat="43.4462" lon="2.19706">
        <ele>696</ele>
        <time>2019-02-10T11:23:10Z</time>
      </trkpt>
      <trkpt lat="43.44624" lon="2.19705">
        <ele>696</ele>
        <time>2019-02-10T11:23:11Z</time>
      </trkpt>
      <trkpt lat="43.44629" lon="2.19704">
        <ele>696</ele>
        <time>2019-02-10T11:23:12Z</time>
      </trkpt>
      <trkpt lat="43.44647" lon="2.197">
        <ele>697</ele>
        <time>2019-02-10T11:23:16Z</time>
      </trkpt>
      <trkpt lat="43.44651" lon="2.19699">
        <ele>698</ele>
        <time>2019-02-10T11:23:17Z</time>
      </trkpt>
      <trkpt lat="43.44669" lon="2.19693">
        <ele>699</ele>
        <time>2019-02-10T11:23:21Z</time>
      </trkpt>
      <trkpt lat="43.44686" lon="2.19687">
        <ele>700</ele>
        <time>2019-02-10T11:23:25Z</time>
      </trkpt>
      <trkpt lat="43.44702" lon="2.19683">
        <ele>701</ele>
        <time>2019-02-10T11:23:29Z</time>
      </trkpt>
      <trkpt lat="43.44717" lon="2.19678">
        <ele>702</ele>
        <time>2019-02-10T11:23:33Z</time>
      </trkpt>
      <trkpt lat="43.4472" lon="2.19676">
        <ele>702</ele>
        <time>2019-02-10T11:23:34Z</time>
      </trkpt>
      <trkpt lat="43.44734" lon="2.19671">
        <ele>703</ele>
        <time>2019-02-10T11:23:38Z</time>
      </trkpt>
      <trkpt lat="43.44748" lon="2.19663">
        <ele>703</ele>
        <time>2019-02-10T11:23:42Z</time>
      </trkpt>
      <trkpt lat="43.44752" lon="2.19662">
        <ele>704</ele>
        <time>2019-02-10T11:23:43Z</time>
      </trkpt>
      <trkpt lat="43.4477" lon="2.19658">
        <ele>703</ele>
        <time>2019-02-10T11:23:47Z</time>
      </trkpt>
      <trkpt lat="43.44803" lon="2.19654">
        <ele>702</ele>
        <time>2019-02-10T11:23:53Z</time>
      </trkpt>
      <trkpt lat="43.44808" lon="2.19654">
        <ele>702</ele>
        <time>2019-02-10T11:23:54Z</time>
      </trkpt>
      <trkpt lat="43.44813" lon="2.19652">
        <ele>701</ele>
        <time>2019-02-10T11:23:55Z</time>
      </trkpt>
      <trkpt lat="43.44844" lon="2.19642">
        <ele>701</ele>
        <time>2019-02-10T11:24:01Z</time>
      </trkpt>
      <trkpt lat="43.44879" lon="2.19624">
        <ele>701</ele>
        <time>2019-02-10T11:24:08Z</time>
      </trkpt>
      <trkpt lat="43.44922" lon="2.19589">
        <ele>701</ele>
        <time>2019-02-10T11:24:17Z</time>
      </trkpt>
      <trkpt lat="43.44957" lon="2.19556">
        <ele>702</ele>
        <time>2019-02-10T11:24:25Z</time>
      </trkpt>
      <trkpt lat="43.4498" lon="2.19531">
        <ele>703</ele>
        <time>2019-02-10T11:24:31Z</time>
      </trkpt>
      <trkpt lat="43.44983" lon="2.19529">
        <ele>703</ele>
        <time>2019-02-10T11:24:32Z</time>
      </trkpt>
      <trkpt lat="43.44994" lon="2.19521">
        <ele>704</ele>
        <time>2019-02-10T11:24:35Z</time>
      </trkpt>
      <trkpt lat="43.45008" lon="2.19514">
        <ele>705</ele>
        <time>2019-02-10T11:24:39Z</time>
      </trkpt>
      <trkpt lat="43.45014" lon="2.19511">
        <ele>706</ele>
        <time>2019-02-10T11:24:41Z</time>
      </trkpt>
      <trkpt lat="43.45026" lon="2.19503">
        <ele>708</ele>
        <time>2019-02-10T11:24:45Z</time>
      </trkpt>
      <trkpt lat="43.45032" lon="2.19499">
        <ele>708</ele>
        <time>2019-02-10T11:24:47Z</time>
      </trkpt>
      <trkpt lat="43.45037" lon="2.19495">
        <ele>709</ele>
        <time>2019-02-10T11:24:49Z</time>
      </trkpt>
      <trkpt lat="43.45045" lon="2.19483">
        <ele>709</ele>
        <time>2019-02-10T11:24:53Z</time>
      </trkpt>
      <trkpt lat="43.45049" lon="2.19472">
        <ele>710</ele>
        <time>2019-02-10T11:24:56Z</time>
      </trkpt>
      <trkpt lat="43.45051" lon="2.19461">
        <ele>710</ele>
        <time>2019-02-10T11:24:59Z</time>
      </trkpt>
      <trkpt lat="43.4505" lon="2.1945">
        <ele>711</ele>
        <time>2019-02-10T11:25:02Z</time>
      </trkpt>
      <trkpt lat="43.45048" lon="2.19443">
        <ele>711</ele>
        <time>2019-02-10T11:25:04Z</time>
      </trkpt>
      <trkpt lat="43.45046" lon="2.19425">
        <ele>712</ele>
        <time>2019-02-10T11:25:09Z</time>
      </trkpt>
      <trkpt lat="43.45047" lon="2.19422">
        <ele>712</ele>
        <time>2019-02-10T11:25:10Z</time>
      </trkpt>
      <trkpt lat="43.45055" lon="2.19419">
        <ele>713</ele>
        <time>2019-02-10T11:25:13Z</time>
      </trkpt>
      <trkpt lat="43.45057" lon="2.19419">
        <ele>713</ele>
        <time>2019-02-10T11:25:14Z</time>
      </trkpt>
      <trkpt lat="43.45065" lon="2.19428">
        <ele>714</ele>
        <time>2019-02-10T11:25:18Z</time>
      </trkpt>
      <trkpt lat="43.45068" lon="2.19434">
        <ele>714</ele>
        <time>2019-02-10T11:25:20Z</time>
      </trkpt>
      <trkpt lat="43.4507" lon="2.19436">
        <ele>714</ele>
        <time>2019-02-10T11:25:21Z</time>
      </trkpt>
      <trkpt lat="43.4508" lon="2.19448">
        <ele>715</ele>
        <time>2019-02-10T11:25:26Z</time>
      </trkpt>
      <trkpt lat="43.45095" lon="2.19456">
        <ele>716</ele>
        <time>2019-02-10T11:25:32Z</time>
      </trkpt>
      <trkpt lat="43.45101" lon="2.19458">
        <ele>716</ele>
        <time>2019-02-10T11:25:34Z</time>
      </trkpt>
      <trkpt lat="43.45115" lon="2.1946">
        <ele>718</ele>
        <time>2019-02-10T11:25:39Z</time>
      </trkpt>
      <trkpt lat="43.45118" lon="2.1946">
        <ele>718</ele>
        <time>2019-02-10T11:25:40Z</time>
      </trkpt>
      <trkpt lat="43.45129" lon="2.19461">
        <ele>719</ele>
        <time>2019-02-10T11:25:44Z</time>
      </trkpt>
      <trkpt lat="43.4514" lon="2.1946">
        <ele>719</ele>
        <time>2019-02-10T11:25:48Z</time>
      </trkpt>
      <trkpt lat="43.45145" lon="2.19461">
        <ele>720</ele>
        <time>2019-02-10T11:25:50Z</time>
      </trkpt>
      <trkpt lat="43.45158" lon="2.19461">
        <ele>721</ele>
        <time>2019-02-10T11:25:55Z</time>
      </trkpt>
      <trkpt lat="43.45164" lon="2.19461">
        <ele>721</ele>
        <time>2019-02-10T11:25:57Z</time>
      </trkpt>
      <trkpt lat="43.45172" lon="2.19461">
        <ele>722</ele>
        <time>2019-02-10T11:26:00Z</time>
      </trkpt>
      <trkpt lat="43.45187" lon="2.19461">
        <ele>723</ele>
        <time>2019-02-10T11:26:05Z</time>
      </trkpt>
      <trkpt lat="43.45209" lon="2.19459">
        <ele>724</ele>
        <time>2019-02-10T11:26:12Z</time>
      </trkpt>
      <trkpt lat="43.45213" lon="2.19459">
        <ele>724</ele>
        <time>2019-02-10T11:26:13Z</time>
      </trkpt>
      <trkpt lat="43.45235" lon="2.19462">
        <ele>724</ele>
        <time>2019-02-10T11:26:19Z</time>
      </trkpt>
      <trkpt lat="43.45265" lon="2.19463">
        <ele>723</ele>
        <time>2019-02-10T11:26:25Z</time>
      </trkpt>
      <trkpt lat="43.45271" lon="2.19463">
        <ele>723</ele>
        <time>2019-02-10T11:26:26Z</time>
      </trkpt>
      <trkpt lat="43.45293" lon="2.1946">
        <ele>722</ele>
        <time>2019-02-10T11:26:30Z</time>
      </trkpt>
      <trkpt lat="43.45303" lon="2.19459">
        <ele>722</ele>
        <time>2019-02-10T11:26:32Z</time>
      </trkpt>
      <trkpt lat="43.45318" lon="2.19459">
        <ele>722</ele>
        <time>2019-02-10T11:26:35Z</time>
      </trkpt>
      <trkpt lat="43.45328" lon="2.19457">
        <ele>722</ele>
        <time>2019-02-10T11:26:37Z</time>
      </trkpt>
      <trkpt lat="43.4536" lon="2.19451">
        <ele>723</ele>
        <time>2019-02-10T11:26:44Z</time>
      </trkpt>
      <trkpt lat="43.45365" lon="2.19451">
        <ele>723</ele>
        <time>2019-02-10T11:26:45Z</time>
      </trkpt>
      <trkpt lat="43.45378" lon="2.19449">
        <ele>724</ele>
        <time>2019-02-10T11:26:48Z</time>
      </trkpt>
      <trkpt lat="43.45396" lon="2.19447">
        <ele>725</ele>
        <time>2019-02-10T11:26:52Z</time>
      </trkpt>
      <trkpt lat="43.45404" lon="2.19446">
        <ele>726</ele>
        <time>2019-02-10T11:26:54Z</time>
      </trkpt>
      <trkpt lat="43.45412" lon="2.19445">
        <ele>726</ele>
        <time>2019-02-10T11:26:56Z</time>
      </trkpt>
      <trkpt lat="43.45432" lon="2.19443">
        <ele>727</ele>
        <time>2019-02-10T11:27:01Z</time>
      </trkpt>
      <trkpt lat="43.45445" lon="2.19441">
        <ele>728</ele>
        <time>2019-02-10T11:27:04Z</time>
      </trkpt>
      <trkpt lat="43.45457" lon="2.1944">
        <ele>728</ele>
        <time>2019-02-10T11:27:07Z</time>
      </trkpt>
      <trkpt lat="43.45461" lon="2.19439">
        <ele>729</ele>
        <time>2019-02-10T11:27:08Z</time>
      </trkpt>
      <trkpt lat="43.4547" lon="2.19438">
        <ele>730</ele>
        <time>2019-02-10T11:27:10Z</time>
      </trkpt>
      <trkpt lat="43.45474" lon="2.19437">
        <ele>730</ele>
        <time>2019-02-10T11:27:11Z</time>
      </trkpt>
      <trkpt lat="43.45505" lon="2.19433">
        <ele>731</ele>
        <time>2019-02-10T11:27:18Z</time>
      </trkpt>
      <trkpt lat="43.45513" lon="2.19431">
        <ele>731</ele>
        <time>2019-02-10T11:27:20Z</time>
      </trkpt>
      <trkpt lat="43.45527" lon="2.19426">
        <ele>732</ele>
        <time>2019-02-10T11:27:23Z</time>
      </trkpt>
      <trkpt lat="43.45549" lon="2.19419">
        <ele>733</ele>
        <time>2019-02-10T11:27:28Z</time>
      </trkpt>
      <trkpt lat="43.45566" lon="2.19414">
        <ele>733</ele>
        <time>2019-02-10T11:27:32Z</time>
      </trkpt>
      <trkpt lat="43.45587" lon="2.19409">
        <ele>734</ele>
        <time>2019-02-10T11:27:37Z</time>
      </trkpt>
      <trkpt lat="43.45591" lon="2.19408">
        <ele>734</ele>
        <time>2019-02-10T11:27:38Z</time>
      </trkpt>
      <trkpt lat="43.4562" lon="2.19396">
        <ele>735</ele>
        <time>2019-02-10T11:27:46Z</time>
      </trkpt>
      <trkpt lat="43.4563" lon="2.19386">
        <ele>735</ele>
        <time>2019-02-10T11:27:50Z</time>
      </trkpt>
      <trkpt lat="43.45631" lon="2.19383">
        <ele>735</ele>
        <time>2019-02-10T11:27:51Z</time>
      </trkpt>
      <trkpt lat="43.45632" lon="2.1938">
        <ele>735</ele>
        <time>2019-02-10T11:27:52Z</time>
      </trkpt>
      <trkpt lat="43.4563" lon="2.19371">
        <ele>735</ele>
        <time>2019-02-10T11:27:55Z</time>
      </trkpt>
      <trkpt lat="43.45625" lon="2.19365">
        <ele>735</ele>
        <time>2019-02-10T11:27:58Z</time>
      </trkpt>
      <trkpt lat="43.4562" lon="2.1936">
        <ele>735</ele>
        <time>2019-02-10T11:28:01Z</time>
      </trkpt>
      <trkpt lat="43.45614" lon="2.19354">
        <ele>735</ele>
        <time>2019-02-10T11:28:06Z</time>
      </trkpt>
      <trkpt lat="43.45611" lon="2.19352">
        <ele>735</ele>
        <time>2019-02-10T11:28:08Z</time>
      </trkpt>
      <trkpt lat="43.45607" lon="2.19347">
        <ele>735</ele>
        <time>2019-02-10T11:28:14Z</time>
      </trkpt>
      <trkpt lat="43.45607" lon="2.19347">
        <ele>735</ele>
        <time>2019-02-10T11:28:15Z</time>
      </trkpt>
      <trkpt lat="43.45607" lon="2.19345">
        <ele>735</ele>
        <time>2019-02-10T11:30:09Z</time>
      </trkpt>
      <trkpt lat="43.45607" lon="2.19344">
        <ele>735</ele>
        <time>2019-02-10T11:30:10Z</time>
      </trkpt>
      <trkpt lat="43.45606" lon="2.19344">
        <ele>735</ele>
        <time>2019-02-10T11:30:12Z</time>
      </trkpt>
      <trkpt lat="43.45605" lon="2.19343">
        <ele>735</ele>
        <time>2019-02-10T11:30:30Z</time>
      </trkpt>
      <trkpt lat="43.45604" lon="2.19342">
        <ele>735</ele>
        <time>2019-02-10T11:30:32Z</time>
      </trkpt>
      <trkpt lat="43.45602" lon="2.19339">
        <ele>735</ele>
        <time>2019-02-10T11:30:34Z</time>
      </trkpt>
      <trkpt lat="43.45591" lon="2.19322">
        <ele>734</ele>
        <time>2019-02-10T11:30:40Z</time>
      </trkpt>
      <trkpt lat="43.45578" lon="2.19295">
        <ele>735</ele>
        <time>2019-02-10T11:30:47Z</time>
      </trkpt>
      <trkpt lat="43.45567" lon="2.19274">
        <ele>734</ele>
        <time>2019-02-10T11:30:52Z</time>
      </trkpt>
      <trkpt lat="43.45557" lon="2.19258">
        <ele>734</ele>
        <time>2019-02-10T11:30:56Z</time>
      </trkpt>
      <trkpt lat="43.45538" lon="2.19224">
        <ele>735</ele>
        <time>2019-02-10T11:31:04Z</time>
      </trkpt>
      <trkpt lat="43.45523" lon="2.19187">
        <ele>736</ele>
        <time>2019-02-10T11:31:13Z</time>
      </trkpt>
      <trkpt lat="43.45517" lon="2.19175">
        <ele>736</ele>
        <time>2019-02-10T11:31:16Z</time>
      </trkpt>
      <trkpt lat="43.45507" lon="2.19156">
        <ele>735</ele>
        <time>2019-02-10T11:31:21Z</time>
      </trkpt>
      <trkpt lat="43.45488" lon="2.19125">
        <ele>736</ele>
        <time>2019-02-10T11:31:29Z</time>
      </trkpt>
      <trkpt lat="43.45472" lon="2.19092">
        <ele>735</ele>
        <time>2019-02-10T11:31:36Z</time>
      </trkpt>
      <trkpt lat="43.4547" lon="2.19087">
        <ele>734</ele>
        <time>2019-02-10T11:31:37Z</time>
      </trkpt>
      <trkpt lat="43.45457" lon="2.19057">
        <ele>733</ele>
        <time>2019-02-10T11:31:42Z</time>
      </trkpt>
      <trkpt lat="43.45453" lon="2.1905">
        <ele>733</ele>
        <time>2019-02-10T11:31:43Z</time>
      </trkpt>
      <trkpt lat="43.45447" lon="2.19036">
        <ele>732</ele>
        <time>2019-02-10T11:31:45Z</time>
      </trkpt>
      <trkpt lat="43.45437" lon="2.19015">
        <ele>731</ele>
        <time>2019-02-10T11:31:48Z</time>
      </trkpt>
      <trkpt lat="43.45427" lon="2.18994">
        <ele>730</ele>
        <time>2019-02-10T11:31:51Z</time>
      </trkpt>
      <trkpt lat="43.45423" lon="2.18987">
        <ele>730</ele>
        <time>2019-02-10T11:31:52Z</time>
      </trkpt>
      <trkpt lat="43.45402" lon="2.18949">
        <ele>729</ele>
        <time>2019-02-10T11:31:58Z</time>
      </trkpt>
      <trkpt lat="43.45384" lon="2.18916">
        <ele>729</ele>
        <time>2019-02-10T11:32:04Z</time>
      </trkpt>
      <trkpt lat="43.45373" lon="2.18895">
        <ele>731</ele>
        <time>2019-02-10T11:32:08Z</time>
      </trkpt>
      <trkpt lat="43.4537" lon="2.18889">
        <ele>731</ele>
        <time>2019-02-10T11:32:09Z</time>
      </trkpt>
      <trkpt lat="43.45365" lon="2.18879">
        <ele>732</ele>
        <time>2019-02-10T11:32:11Z</time>
      </trkpt>
      <trkpt lat="43.45359" lon="2.18862">
        <ele>733</ele>
        <time>2019-02-10T11:32:14Z</time>
      </trkpt>
      <trkpt lat="43.45357" lon="2.18857">
        <ele>733</ele>
        <time>2019-02-10T11:32:15Z</time>
      </trkpt>
      <trkpt lat="43.45354" lon="2.18846">
        <ele>734</ele>
        <time>2019-02-10T11:32:17Z</time>
      </trkpt>
      <trkpt lat="43.45351" lon="2.18829">
        <ele>734</ele>
        <time>2019-02-10T11:32:20Z</time>
      </trkpt>
      <trkpt lat="43.45346" lon="2.18801">
        <ele>735</ele>
        <time>2019-02-10T11:32:25Z</time>
      </trkpt>
      <trkpt lat="43.45345" lon="2.18795">
        <ele>735</ele>
        <time>2019-02-10T11:32:26Z</time>
      </trkpt>
      <trkpt lat="43.45342" lon="2.18773">
        <ele>736</ele>
        <time>2019-02-10T11:32:30Z</time>
      </trkpt>
      <trkpt lat="43.45342" lon="2.18768">
        <ele>736</ele>
        <time>2019-02-10T11:32:31Z</time>
      </trkpt>
      <trkpt lat="43.4534" lon="2.18757">
        <ele>736</ele>
        <time>2019-02-10T11:32:33Z</time>
      </trkpt>
      <trkpt lat="43.4534" lon="2.18751">
        <ele>736</ele>
        <time>2019-02-10T11:32:34Z</time>
      </trkpt>
      <trkpt lat="43.4534" lon="2.18718">
        <ele>737</ele>
        <time>2019-02-10T11:32:41Z</time>
      </trkpt>
      <trkpt lat="43.45339" lon="2.18713">
        <ele>738</ele>
        <time>2019-02-10T11:32:42Z</time>
      </trkpt>
      <trkpt lat="43.45339" lon="2.18703">
        <ele>738</ele>
        <time>2019-02-10T11:32:44Z</time>
      </trkpt>
      <trkpt lat="43.45339" lon="2.18698">
        <ele>738</ele>
        <time>2019-02-10T11:32:45Z</time>
      </trkpt>
      <trkpt lat="43.45336" lon="2.1867">
        <ele>738</ele>
        <time>2019-02-10T11:32:51Z</time>
      </trkpt>
      <trkpt lat="43.4533" lon="2.18639">
        <ele>738</ele>
        <time>2019-02-10T11:32:58Z</time>
      </trkpt>
      <trkpt lat="43.45327" lon="2.18612">
        <ele>738</ele>
        <time>2019-02-10T11:33:04Z</time>
      </trkpt>
      <trkpt lat="43.45327" lon="2.18608">
        <ele>739</ele>
        <time>2019-02-10T11:33:05Z</time>
      </trkpt>
      <trkpt lat="43.45327" lon="2.18584">
        <ele>740</ele>
        <time>2019-02-10T11:33:11Z</time>
      </trkpt>
      <trkpt lat="43.45328" lon="2.18572">
        <ele>740</ele>
        <time>2019-02-10T11:33:14Z</time>
      </trkpt>
      <trkpt lat="43.45329" lon="2.18559">
        <ele>741</ele>
        <time>2019-02-10T11:33:17Z</time>
      </trkpt>
      <trkpt lat="43.45331" lon="2.18551">
        <ele>741</ele>
        <time>2019-02-10T11:33:19Z</time>
      </trkpt>
      <trkpt lat="43.45334" lon="2.18537">
        <ele>741</ele>
        <time>2019-02-10T11:33:23Z</time>
      </trkpt>
      <trkpt lat="43.45344" lon="2.18519">
        <ele>741</ele>
        <time>2019-02-10T11:33:28Z</time>
      </trkpt>
      <trkpt lat="43.45362" lon="2.18502">
        <ele>741</ele>
        <time>2019-02-10T11:33:34Z</time>
      </trkpt>
      <trkpt lat="43.45377" lon="2.18492">
        <ele>740</ele>
        <time>2019-02-10T11:33:39Z</time>
      </trkpt>
      <trkpt lat="43.45393" lon="2.1848">
        <ele>740</ele>
        <time>2019-02-10T11:33:45Z</time>
      </trkpt>
      <trkpt lat="43.45395" lon="2.18479">
        <ele>740</ele>
        <time>2019-02-10T11:33:46Z</time>
      </trkpt>
      <trkpt lat="43.45409" lon="2.18467">
        <ele>740</ele>
        <time>2019-02-10T11:33:51Z</time>
      </trkpt>
      <trkpt lat="43.45418" lon="2.18458">
        <ele>740</ele>
        <time>2019-02-10T11:33:54Z</time>
      </trkpt>
      <trkpt lat="43.45421" lon="2.18454">
        <ele>739</ele>
        <time>2019-02-10T11:33:55Z</time>
      </trkpt>
      <trkpt lat="43.45434" lon="2.18437">
        <ele>738</ele>
        <time>2019-02-10T11:33:59Z</time>
      </trkpt>
      <trkpt lat="43.45437" lon="2.18432">
        <ele>738</ele>
        <time>2019-02-10T11:34:00Z</time>
      </trkpt>
      <trkpt lat="43.45443" lon="2.18422">
        <ele>737</ele>
        <time>2019-02-10T11:34:02Z</time>
      </trkpt>
      <trkpt lat="43.45455" lon="2.18406">
        <ele>736</ele>
        <time>2019-02-10T11:34:05Z</time>
      </trkpt>
      <trkpt lat="43.45459" lon="2.184">
        <ele>735</ele>
        <time>2019-02-10T11:34:06Z</time>
      </trkpt>
      <trkpt lat="43.45468" lon="2.18389">
        <ele>735</ele>
        <time>2019-02-10T11:34:08Z</time>
      </trkpt>
      <trkpt lat="43.45473" lon="2.18384">
        <ele>735</ele>
        <time>2019-02-10T11:34:09Z</time>
      </trkpt>
      <trkpt lat="43.45478" lon="2.18379">
        <ele>735</ele>
        <time>2019-02-10T11:34:10Z</time>
      </trkpt>
      <trkpt lat="43.45484" lon="2.18374">
        <ele>734</ele>
        <time>2019-02-10T11:34:11Z</time>
      </trkpt>
      <trkpt lat="43.45499" lon="2.18359">
        <ele>734</ele>
        <time>2019-02-10T11:34:14Z</time>
      </trkpt>
      <trkpt lat="43.45513" lon="2.18343">
        <ele>733</ele>
        <time>2019-02-10T11:34:17Z</time>
      </trkpt>
      <trkpt lat="43.45517" lon="2.18337">
        <ele>732</ele>
        <time>2019-02-10T11:34:18Z</time>
      </trkpt>
      <trkpt lat="43.45534" lon="2.18316">
        <ele>732</ele>
        <time>2019-02-10T11:34:22Z</time>
      </trkpt>
      <trkpt lat="43.45545" lon="2.18304">
        <ele>731</ele>
        <time>2019-02-10T11:34:25Z</time>
      </trkpt>
      <trkpt lat="43.45555" lon="2.18294">
        <ele>730</ele>
        <time>2019-02-10T11:34:28Z</time>
      </trkpt>
      <trkpt lat="43.45567" lon="2.18286">
        <ele>729</ele>
        <time>2019-02-10T11:34:33Z</time>
      </trkpt>
      <trkpt lat="43.45569" lon="2.18283">
        <ele>728</ele>
        <time>2019-02-10T11:34:36Z</time>
      </trkpt>
      <trkpt lat="43.4557" lon="2.18281">
        <ele>728</ele>
        <time>2019-02-10T11:34:41Z</time>
      </trkpt>
      <trkpt lat="43.45572" lon="2.18265">
        <ele>728</ele>
        <time>2019-02-10T11:34:47Z</time>
      </trkpt>
      <trkpt lat="43.45572" lon="2.18262">
        <ele>728</ele>
        <time>2019-02-10T11:34:48Z</time>
      </trkpt>
      <trkpt lat="43.45573" lon="2.18259">
        <ele>728</ele>
        <time>2019-02-10T11:34:49Z</time>
      </trkpt>
      <trkpt lat="43.45577" lon="2.18235">
        <ele>727</ele>
        <time>2019-02-10T11:34:56Z</time>
      </trkpt>
      <trkpt lat="43.45584" lon="2.18205">
        <ele>727</ele>
        <time>2019-02-10T11:35:02Z</time>
      </trkpt>
      <trkpt lat="43.45585" lon="2.18198">
        <ele>727</ele>
        <time>2019-02-10T11:35:03Z</time>
      </trkpt>
      <trkpt lat="43.4559" lon="2.18177">
        <ele>725</ele>
        <time>2019-02-10T11:35:06Z</time>
      </trkpt>
      <trkpt lat="43.45593" lon="2.1816">
        <ele>724</ele>
        <time>2019-02-10T11:35:08Z</time>
      </trkpt>
      <trkpt lat="43.45598" lon="2.18135">
        <ele>723</ele>
        <time>2019-02-10T11:35:11Z</time>
      </trkpt>
      <trkpt lat="43.45603" lon="2.18108">
        <ele>722</ele>
        <time>2019-02-10T11:35:14Z</time>
      </trkpt>
      <trkpt lat="43.45605" lon="2.18098">
        <ele>722</ele>
        <time>2019-02-10T11:35:15Z</time>
      </trkpt>
      <trkpt lat="43.45606" lon="2.18088">
        <ele>721</ele>
        <time>2019-02-10T11:35:16Z</time>
      </trkpt>
      <trkpt lat="43.45608" lon="2.18066">
        <ele>720</ele>
        <time>2019-02-10T11:35:18Z</time>
      </trkpt>
      <trkpt lat="43.45609" lon="2.18044">
        <ele>719</ele>
        <time>2019-02-10T11:35:20Z</time>
      </trkpt>
      <trkpt lat="43.45607" lon="2.1801">
        <ele>718</ele>
        <time>2019-02-10T11:35:23Z</time>
      </trkpt>
      <trkpt lat="43.45607" lon="2.18">
        <ele>718</ele>
        <time>2019-02-10T11:35:24Z</time>
      </trkpt>
      <trkpt lat="43.45606" lon="2.17989">
        <ele>718</ele>
        <time>2019-02-10T11:35:25Z</time>
      </trkpt>
      <trkpt lat="43.45604" lon="2.1796">
        <ele>718</ele>
        <time>2019-02-10T11:35:28Z</time>
      </trkpt>
      <trkpt lat="43.45599" lon="2.17913">
        <ele>718</ele>
        <time>2019-02-10T11:35:33Z</time>
      </trkpt>
      <trkpt lat="43.45596" lon="2.1789">
        <ele>719</ele>
        <time>2019-02-10T11:35:36Z</time>
      </trkpt>
      <trkpt lat="43.45595" lon="2.17884">
        <ele>719</ele>
        <time>2019-02-10T11:35:37Z</time>
      </trkpt>
      <trkpt lat="43.45594" lon="2.17879">
        <ele>719</ele>
        <time>2019-02-10T11:35:38Z</time>
      </trkpt>
      <trkpt lat="43.4559" lon="2.1787">
        <ele>720</ele>
        <time>2019-02-10T11:35:40Z</time>
      </trkpt>
      <trkpt lat="43.45587" lon="2.17863">
        <ele>721</ele>
        <time>2019-02-10T11:35:42Z</time>
      </trkpt>
      <trkpt lat="43.4558" lon="2.17851">
        <ele>722</ele>
        <time>2019-02-10T11:35:46Z</time>
      </trkpt>
      <trkpt lat="43.45578" lon="2.17848">
        <ele>722</ele>
        <time>2019-02-10T11:35:47Z</time>
      </trkpt>
      <trkpt lat="43.45572" lon="2.17839">
        <ele>724</ele>
        <time>2019-02-10T11:35:50Z</time>
      </trkpt>
      <trkpt lat="43.4557" lon="2.17834">
        <ele>724</ele>
        <time>2019-02-10T11:35:52Z</time>
      </trkpt>
      <trkpt lat="43.45565" lon="2.17825">
        <ele>725</ele>
        <time>2019-02-10T11:35:55Z</time>
      </trkpt>
      <trkpt lat="43.45563" lon="2.1782">
        <ele>725</ele>
        <time>2019-02-10T11:35:57Z</time>
      </trkpt>
      <trkpt lat="43.45561" lon="2.17815">
        <ele>726</ele>
        <time>2019-02-10T11:35:59Z</time>
      </trkpt>
      <trkpt lat="43.45561" lon="2.1781">
        <ele>726</ele>
        <time>2019-02-10T11:36:01Z</time>
      </trkpt>
      <trkpt lat="43.45562" lon="2.17799">
        <ele>727</ele>
        <time>2019-02-10T11:36:06Z</time>
      </trkpt>
      <trkpt lat="43.45562" lon="2.17796">
        <ele>727</ele>
        <time>2019-02-10T11:36:07Z</time>
      </trkpt>
      <trkpt lat="43.45563" lon="2.17782">
        <ele>728</ele>
        <time>2019-02-10T11:36:13Z</time>
      </trkpt>
      <trkpt lat="43.45563" lon="2.17779">
        <ele>728</ele>
        <time>2019-02-10T11:36:14Z</time>
      </trkpt>
      <trkpt lat="43.45563" lon="2.17777">
        <ele>728</ele>
        <time>2019-02-10T11:36:15Z</time>
      </trkpt>
      <trkpt lat="43.45564" lon="2.17772">
        <ele>728</ele>
        <time>2019-02-10T11:36:17Z</time>
      </trkpt>
      <trkpt lat="43.45563" lon="2.17764">
        <ele>729</ele>
        <time>2019-02-10T11:36:20Z</time>
      </trkpt>
      <trkpt lat="43.45562" lon="2.17756">
        <ele>729</ele>
        <time>2019-02-10T11:36:23Z</time>
      </trkpt>
      <trkpt lat="43.45557" lon="2.17738">
        <ele>730</ele>
        <time>2019-02-10T11:36:30Z</time>
      </trkpt>
      <trkpt lat="43.45556" lon="2.17735">
        <ele>730</ele>
        <time>2019-02-10T11:36:31Z</time>
      </trkpt>
      <trkpt lat="43.45551" lon="2.17722">
        <ele>731</ele>
        <time>2019-02-10T11:36:37Z</time>
      </trkpt>
      <trkpt lat="43.4555" lon="2.17719">
        <ele>731</ele>
        <time>2019-02-10T11:36:38Z</time>
      </trkpt>
      <trkpt lat="43.45547" lon="2.1771">
        <ele>732</ele>
        <time>2019-02-10T11:36:43Z</time>
      </trkpt>
      <trkpt lat="43.45547" lon="2.17707">
        <ele>732</ele>
        <time>2019-02-10T11:36:44Z</time>
      </trkpt>
      <trkpt lat="43.45548" lon="2.17702">
        <ele>733</ele>
        <time>2019-02-10T11:36:47Z</time>
      </trkpt>
      <trkpt lat="43.45549" lon="2.17692">
        <ele>733</ele>
        <time>2019-02-10T11:36:51Z</time>
      </trkpt>
      <trkpt lat="43.45553" lon="2.17681">
        <ele>733</ele>
        <time>2019-02-10T11:36:56Z</time>
      </trkpt>
      <trkpt lat="43.45554" lon="2.17678">
        <ele>733</ele>
        <time>2019-02-10T11:36:57Z</time>
      </trkpt>
      <trkpt lat="43.45555" lon="2.17675">
        <ele>733</ele>
        <time>2019-02-10T11:36:58Z</time>
      </trkpt>
      <trkpt lat="43.4556" lon="2.17664">
        <ele>734</ele>
        <time>2019-02-10T11:37:03Z</time>
      </trkpt>
      <trkpt lat="43.45561" lon="2.17662">
        <ele>735</ele>
        <time>2019-02-10T11:37:04Z</time>
      </trkpt>
      <trkpt lat="43.45567" lon="2.17654">
        <ele>735</ele>
        <time>2019-02-10T11:37:08Z</time>
      </trkpt>
      <trkpt lat="43.45568" lon="2.17652">
        <ele>735</ele>
        <time>2019-02-10T11:37:09Z</time>
      </trkpt>
      <trkpt lat="43.45573" lon="2.17641">
        <ele>735</ele>
        <time>2019-02-10T11:37:13Z</time>
      </trkpt>
      <trkpt lat="43.45577" lon="2.17635">
        <ele>735</ele>
        <time>2019-02-10T11:37:15Z</time>
      </trkpt>
      <trkpt lat="43.45589" lon="2.17615">
        <ele>734</ele>
        <time>2019-02-10T11:37:20Z</time>
      </trkpt>
      <trkpt lat="43.45591" lon="2.17608">
        <ele>734</ele>
        <time>2019-02-10T11:37:21Z</time>
      </trkpt>
      <trkpt lat="43.45596" lon="2.17587">
        <ele>733</ele>
        <time>2019-02-10T11:37:24Z</time>
      </trkpt>
      <trkpt lat="43.45596" lon="2.17578">
        <ele>733</ele>
        <time>2019-02-10T11:37:25Z</time>
      </trkpt>
      <trkpt lat="43.45596" lon="2.1757">
        <ele>732</ele>
        <time>2019-02-10T11:37:26Z</time>
      </trkpt>
      <trkpt lat="43.45596" lon="2.17562">
        <ele>732</ele>
        <time>2019-02-10T11:37:27Z</time>
      </trkpt>
      <trkpt lat="43.45593" lon="2.17531">
        <ele>731</ele>
        <time>2019-02-10T11:37:31Z</time>
      </trkpt>
      <trkpt lat="43.45591" lon="2.17517">
        <ele>731</ele>
        <time>2019-02-10T11:37:33Z</time>
      </trkpt>
      <trkpt lat="43.4559" lon="2.17498">
        <ele>731</ele>
        <time>2019-02-10T11:37:36Z</time>
      </trkpt>
      <trkpt lat="43.4559" lon="2.17491">
        <ele>731</ele>
        <time>2019-02-10T11:37:37Z</time>
      </trkpt>
      <trkpt lat="43.45592" lon="2.17463">
        <ele>731</ele>
        <time>2019-02-10T11:37:42Z</time>
      </trkpt>
      <trkpt lat="43.45593" lon="2.17457">
        <ele>731</ele>
        <time>2019-02-10T11:37:43Z</time>
      </trkpt>
      <trkpt lat="43.45594" lon="2.17446">
        <ele>731</ele>
        <time>2019-02-10T11:37:45Z</time>
      </trkpt>
      <trkpt lat="43.45596" lon="2.17431">
        <ele>732</ele>
        <time>2019-02-10T11:37:48Z</time>
      </trkpt>
      <trkpt lat="43.45598" lon="2.17402">
        <ele>732</ele>
        <time>2019-02-10T11:37:54Z</time>
      </trkpt>
      <trkpt lat="43.456" lon="2.1737">
        <ele>733</ele>
        <time>2019-02-10T11:38:01Z</time>
      </trkpt>
      <trkpt lat="43.45605" lon="2.17339">
        <ele>734</ele>
        <time>2019-02-10T11:38:09Z</time>
      </trkpt>
      <trkpt lat="43.45605" lon="2.17336">
        <ele>734</ele>
        <time>2019-02-10T11:38:10Z</time>
      </trkpt>
      <trkpt lat="43.45607" lon="2.17319">
        <ele>735</ele>
        <time>2019-02-10T11:38:16Z</time>
      </trkpt>
      <trkpt lat="43.45607" lon="2.17311">
        <ele>735</ele>
        <time>2019-02-10T11:38:19Z</time>
      </trkpt>
      <trkpt lat="43.45608" lon="2.17305">
        <ele>736</ele>
        <time>2019-02-10T11:38:21Z</time>
      </trkpt>
      <trkpt lat="43.45611" lon="2.17284">
        <ele>736</ele>
        <time>2019-02-10T11:38:29Z</time>
      </trkpt>
      <trkpt lat="43.45613" lon="2.17263">
        <ele>737</ele>
        <time>2019-02-10T11:38:37Z</time>
      </trkpt>
      <trkpt lat="43.45613" lon="2.17257">
        <ele>737</ele>
        <time>2019-02-10T11:38:39Z</time>
      </trkpt>
      <trkpt lat="43.45616" lon="2.17238">
        <ele>738</ele>
        <time>2019-02-10T11:38:46Z</time>
      </trkpt>
      <trkpt lat="43.45619" lon="2.17223">
        <ele>738</ele>
        <time>2019-02-10T11:38:51Z</time>
      </trkpt>
      <trkpt lat="43.4562" lon="2.17214">
        <ele>739</ele>
        <time>2019-02-10T11:38:54Z</time>
      </trkpt>
      <trkpt lat="43.45621" lon="2.17198">
        <ele>739</ele>
        <time>2019-02-10T11:38:59Z</time>
      </trkpt>
      <trkpt lat="43.45624" lon="2.17178">
        <ele>739</ele>
        <time>2019-02-10T11:39:05Z</time>
      </trkpt>
      <trkpt lat="43.45624" lon="2.17171">
        <ele>739</ele>
        <time>2019-02-10T11:39:08Z</time>
      </trkpt>
      <trkpt lat="43.45625" lon="2.17159">
        <ele>739</ele>
        <time>2019-02-10T11:39:12Z</time>
      </trkpt>
      <trkpt lat="43.45628" lon="2.17138">
        <ele>739</ele>
        <time>2019-02-10T11:39:18Z</time>
      </trkpt>
      <trkpt lat="43.45633" lon="2.17112">
        <ele>738</ele>
        <time>2019-02-10T11:39:24Z</time>
      </trkpt>
      <trkpt lat="43.45636" lon="2.17103">
        <ele>738</ele>
        <time>2019-02-10T11:39:26Z</time>
      </trkpt>
      <trkpt lat="43.45642" lon="2.17091">
        <ele>738</ele>
        <time>2019-02-10T11:39:29Z</time>
      </trkpt>
      <trkpt lat="43.45646" lon="2.17083">
        <ele>738</ele>
        <time>2019-02-10T11:39:31Z</time>
      </trkpt>
      <trkpt lat="43.45648" lon="2.1708">
        <ele>738</ele>
        <time>2019-02-10T11:39:32Z</time>
      </trkpt>
      <trkpt lat="43.45657" lon="2.17071">
        <ele>739</ele>
        <time>2019-02-10T11:39:37Z</time>
      </trkpt>
      <trkpt lat="43.4567" lon="2.17063">
        <ele>740</ele>
        <time>2019-02-10T11:39:42Z</time>
      </trkpt>
      <trkpt lat="43.45691" lon="2.17051">
        <ele>740</ele>
        <time>2019-02-10T11:39:48Z</time>
      </trkpt>
      <trkpt lat="43.4571" lon="2.17033">
        <ele>740</ele>
        <time>2019-02-10T11:39:54Z</time>
      </trkpt>
      <trkpt lat="43.45716" lon="2.17011">
        <ele>739</ele>
        <time>2019-02-10T11:39:59Z</time>
      </trkpt>
      <trkpt lat="43.45712" lon="2.16987">
        <ele>739</ele>
        <time>2019-02-10T11:40:04Z</time>
      </trkpt>
      <trkpt lat="43.45703" lon="2.16953">
        <ele>739</ele>
        <time>2019-02-10T11:40:11Z</time>
      </trkpt>
      <trkpt lat="43.45702" lon="2.16949">
        <ele>739</ele>
        <time>2019-02-10T11:40:12Z</time>
      </trkpt>
      <trkpt lat="43.45701" lon="2.16939">
        <ele>739</ele>
        <time>2019-02-10T11:40:14Z</time>
      </trkpt>
      <trkpt lat="43.45699" lon="2.16928">
        <ele>739</ele>
        <time>2019-02-10T11:40:16Z</time>
      </trkpt>
      <trkpt lat="43.45697" lon="2.16918">
        <ele>738</ele>
        <time>2019-02-10T11:40:18Z</time>
      </trkpt>
      <trkpt lat="43.45696" lon="2.16913">
        <ele>738</ele>
        <time>2019-02-10T11:40:19Z</time>
      </trkpt>
      <trkpt lat="43.45694" lon="2.169">
        <ele>738</ele>
        <time>2019-02-10T11:40:22Z</time>
      </trkpt>
      <trkpt lat="43.45693" lon="2.16895">
        <ele>738</ele>
        <time>2019-02-10T11:40:23Z</time>
      </trkpt>
      <trkpt lat="43.4569" lon="2.16889">
        <ele>737</ele>
        <time>2019-02-10T11:40:24Z</time>
      </trkpt>
      <trkpt lat="43.45685" lon="2.16877">
        <ele>737</ele>
        <time>2019-02-10T11:40:26Z</time>
      </trkpt>
      <trkpt lat="43.45682" lon="2.1687">
        <ele>737</ele>
        <time>2019-02-10T11:40:27Z</time>
      </trkpt>
      <trkpt lat="43.45676" lon="2.16849">
        <ele>736</ele>
        <time>2019-02-10T11:40:30Z</time>
      </trkpt>
      <trkpt lat="43.45674" lon="2.16842">
        <ele>736</ele>
        <time>2019-02-10T11:40:31Z</time>
      </trkpt>
      <trkpt lat="43.45671" lon="2.16836">
        <ele>736</ele>
        <time>2019-02-10T11:40:32Z</time>
      </trkpt>
      <trkpt lat="43.45667" lon="2.16822">
        <ele>736</ele>
        <time>2019-02-10T11:40:34Z</time>
      </trkpt>
      <trkpt lat="43.45663" lon="2.16808">
        <ele>735</ele>
        <time>2019-02-10T11:40:36Z</time>
      </trkpt>
      <trkpt lat="43.45653" lon="2.16779">
        <ele>735</ele>
        <time>2019-02-10T11:40:40Z</time>
      </trkpt>
      <trkpt lat="43.4565" lon="2.16773">
        <ele>735</ele>
        <time>2019-02-10T11:40:41Z</time>
      </trkpt>
      <trkpt lat="43.45648" lon="2.16768">
        <ele>735</ele>
        <time>2019-02-10T11:40:42Z</time>
      </trkpt>
      <trkpt lat="43.45639" lon="2.16749">
        <ele>734</ele>
        <time>2019-02-10T11:40:45Z</time>
      </trkpt>
      <trkpt lat="43.45627" lon="2.16716">
        <ele>734</ele>
        <time>2019-02-10T11:40:50Z</time>
      </trkpt>
      <trkpt lat="43.45623" lon="2.16704">
        <ele>734</ele>
        <time>2019-02-10T11:40:52Z</time>
      </trkpt>
      <trkpt lat="43.45614" lon="2.16676">
        <ele>734</ele>
        <time>2019-02-10T11:40:57Z</time>
      </trkpt>
      <trkpt lat="43.45615" lon="2.16655">
        <ele>735</ele>
        <time>2019-02-10T11:41:01Z</time>
      </trkpt>
      <trkpt lat="43.45616" lon="2.1665">
        <ele>735</ele>
        <time>2019-02-10T11:41:02Z</time>
      </trkpt>
      <trkpt lat="43.45624" lon="2.1663">
        <ele>735</ele>
        <time>2019-02-10T11:41:06Z</time>
      </trkpt>
      <trkpt lat="43.45626" lon="2.16625">
        <ele>735</ele>
        <time>2019-02-10T11:41:07Z</time>
      </trkpt>
      <trkpt lat="43.45638" lon="2.16603">
        <ele>734</ele>
        <time>2019-02-10T11:41:11Z</time>
      </trkpt>
      <trkpt lat="43.4564" lon="2.166">
        <ele>734</ele>
        <time>2019-02-10T11:41:12Z</time>
      </trkpt>
      <trkpt lat="43.45644" lon="2.16597">
        <ele>733</ele>
        <time>2019-02-10T11:41:14Z</time>
      </trkpt>
      <trkpt lat="43.45655" lon="2.16599">
        <ele>733</ele>
        <time>2019-02-10T11:41:19Z</time>
      </trkpt>
      <trkpt lat="43.45664" lon="2.16607">
        <ele>732</ele>
        <time>2019-02-10T11:41:23Z</time>
      </trkpt>
      <trkpt lat="43.45679" lon="2.16621">
        <ele>731</ele>
        <time>2019-02-10T11:41:28Z</time>
      </trkpt>
      <trkpt lat="43.45683" lon="2.16624">
        <ele>731</ele>
        <time>2019-02-10T11:41:29Z</time>
      </trkpt>
      <trkpt lat="43.4569" lon="2.16631">
        <ele>731</ele>
        <time>2019-02-10T11:41:31Z</time>
      </trkpt>
      <trkpt lat="43.45706" lon="2.16646">
        <ele>731</ele>
        <time>2019-02-10T11:41:35Z</time>
      </trkpt>
      <trkpt lat="43.4572" lon="2.16652">
        <ele>730</ele>
        <time>2019-02-10T11:41:38Z</time>
      </trkpt>
      <trkpt lat="43.45725" lon="2.16654">
        <ele>730</ele>
        <time>2019-02-10T11:41:39Z</time>
      </trkpt>
      <trkpt lat="43.45739" lon="2.1666">
        <ele>730</ele>
        <time>2019-02-10T11:41:42Z</time>
      </trkpt>
      <trkpt lat="43.45761" lon="2.16664">
        <ele>729</ele>
        <time>2019-02-10T11:41:46Z</time>
      </trkpt>
      <trkpt lat="43.45767" lon="2.16666">
        <ele>729</ele>
        <time>2019-02-10T11:41:47Z</time>
      </trkpt>
      <trkpt lat="43.45773" lon="2.16668">
        <ele>729</ele>
        <time>2019-02-10T11:41:48Z</time>
      </trkpt>
      <trkpt lat="43.45779" lon="2.16671">
        <ele>728</ele>
        <time>2019-02-10T11:41:49Z</time>
      </trkpt>
      <trkpt lat="43.45785" lon="2.16673">
        <ele>727</ele>
        <time>2019-02-10T11:41:50Z</time>
      </trkpt>
      <trkpt lat="43.45812" lon="2.16683">
        <ele>727</ele>
        <time>2019-02-10T11:41:54Z</time>
      </trkpt>
      <trkpt lat="43.45826" lon="2.16681">
        <ele>726</ele>
        <time>2019-02-10T11:41:56Z</time>
      </trkpt>
      <trkpt lat="43.45833" lon="2.16679">
        <ele>725</ele>
        <time>2019-02-10T11:41:57Z</time>
      </trkpt>
      <trkpt lat="43.45841" lon="2.16677">
        <ele>723</ele>
        <time>2019-02-10T11:41:58Z</time>
      </trkpt>
      <trkpt lat="43.45849" lon="2.16675">
        <ele>722</ele>
        <time>2019-02-10T11:41:59Z</time>
      </trkpt>
      <trkpt lat="43.45858" lon="2.16673">
        <ele>721</ele>
        <time>2019-02-10T11:42:00Z</time>
      </trkpt>
      <trkpt lat="43.45866" lon="2.16673">
        <ele>720</ele>
        <time>2019-02-10T11:42:01Z</time>
      </trkpt>
      <trkpt lat="43.45873" lon="2.16674">
        <ele>719</ele>
        <time>2019-02-10T11:42:02Z</time>
      </trkpt>
      <trkpt lat="43.45881" lon="2.16677">
        <ele>719</ele>
        <time>2019-02-10T11:42:03Z</time>
      </trkpt>
      <trkpt lat="43.45888" lon="2.16681">
        <ele>718</ele>
        <time>2019-02-10T11:42:04Z</time>
      </trkpt>
      <trkpt lat="43.45899" lon="2.16686">
        <ele>718</ele>
        <time>2019-02-10T11:42:06Z</time>
      </trkpt>
      <trkpt lat="43.45903" lon="2.16688">
        <ele>718</ele>
        <time>2019-02-10T11:42:07Z</time>
      </trkpt>
      <trkpt lat="43.45907" lon="2.1669">
        <ele>718</ele>
        <time>2019-02-10T11:42:08Z</time>
      </trkpt>
      <trkpt lat="43.45915" lon="2.16688">
        <ele>718</ele>
        <time>2019-02-10T11:42:11Z</time>
      </trkpt>
      <trkpt lat="43.45924" lon="2.16676">
        <ele>718</ele>
        <time>2019-02-10T11:42:15Z</time>
      </trkpt>
      <trkpt lat="43.45936" lon="2.16663">
        <ele>716</ele>
        <time>2019-02-10T11:42:18Z</time>
      </trkpt>
      <trkpt lat="43.45939" lon="2.16657">
        <ele>716</ele>
        <time>2019-02-10T11:42:19Z</time>
      </trkpt>
      <trkpt lat="43.45943" lon="2.16651">
        <ele>715</ele>
        <time>2019-02-10T11:42:20Z</time>
      </trkpt>
      <trkpt lat="43.45953" lon="2.16643">
        <ele>713</ele>
        <time>2019-02-10T11:42:22Z</time>
      </trkpt>
      <trkpt lat="43.45964" lon="2.16634">
        <ele>712</ele>
        <time>2019-02-10T11:42:24Z</time>
      </trkpt>
      <trkpt lat="43.45969" lon="2.16631">
        <ele>712</ele>
        <time>2019-02-10T11:42:25Z</time>
      </trkpt>
      <trkpt lat="43.45974" lon="2.16628">
        <ele>710</ele>
        <time>2019-02-10T11:42:26Z</time>
      </trkpt>
      <trkpt lat="43.45986" lon="2.16623">
        <ele>709</ele>
        <time>2019-02-10T11:42:28Z</time>
      </trkpt>
      <trkpt lat="43.45991" lon="2.1662">
        <ele>709</ele>
        <time>2019-02-10T11:42:29Z</time>
      </trkpt>
      <trkpt lat="43.45998" lon="2.16611">
        <ele>708</ele>
        <time>2019-02-10T11:42:31Z</time>
      </trkpt>
      <trkpt lat="43.46003" lon="2.16601">
        <ele>707</ele>
        <time>2019-02-10T11:42:33Z</time>
      </trkpt>
      <trkpt lat="43.46005" lon="2.16597">
        <ele>706</ele>
        <time>2019-02-10T11:42:34Z</time>
      </trkpt>
      <trkpt lat="43.4601" lon="2.16592">
        <ele>704</ele>
        <time>2019-02-10T11:42:35Z</time>
      </trkpt>
      <trkpt lat="43.46014" lon="2.16586">
        <ele>703</ele>
        <time>2019-02-10T11:42:36Z</time>
      </trkpt>
      <trkpt lat="43.46018" lon="2.16581">
        <ele>702</ele>
        <time>2019-02-10T11:42:37Z</time>
      </trkpt>
      <trkpt lat="43.46023" lon="2.16578">
        <ele>701</ele>
        <time>2019-02-10T11:42:38Z</time>
      </trkpt>
      <trkpt lat="43.46028" lon="2.16575">
        <ele>700</ele>
        <time>2019-02-10T11:42:39Z</time>
      </trkpt>
      <trkpt lat="43.46036" lon="2.16573">
        <ele>699</ele>
        <time>2019-02-10T11:42:41Z</time>
      </trkpt>
      <trkpt lat="43.46039" lon="2.16571">
        <ele>699</ele>
        <time>2019-02-10T11:42:42Z</time>
      </trkpt>
      <trkpt lat="43.46042" lon="2.16569">
        <ele>698</ele>
        <time>2019-02-10T11:42:43Z</time>
      </trkpt>
      <trkpt lat="43.46046" lon="2.16565">
        <ele>698</ele>
        <time>2019-02-10T11:42:44Z</time>
      </trkpt>
      <trkpt lat="43.46049" lon="2.1656">
        <ele>697</ele>
        <time>2019-02-10T11:42:45Z</time>
      </trkpt>
      <trkpt lat="43.46052" lon="2.16555">
        <ele>696</ele>
        <time>2019-02-10T11:42:46Z</time>
      </trkpt>
      <trkpt lat="43.46067" lon="2.16536">
        <ele>695</ele>
        <time>2019-02-10T11:42:50Z</time>
      </trkpt>
      <trkpt lat="43.46072" lon="2.16528">
        <ele>693</ele>
        <time>2019-02-10T11:42:52Z</time>
      </trkpt>
      <trkpt lat="43.46074" lon="2.16523">
        <ele>692</ele>
        <time>2019-02-10T11:42:53Z</time>
      </trkpt>
      <trkpt lat="43.46076" lon="2.16517">
        <ele>690</ele>
        <time>2019-02-10T11:42:54Z</time>
      </trkpt>
      <trkpt lat="43.46077" lon="2.16503">
        <ele>688</ele>
        <time>2019-02-10T11:42:56Z</time>
      </trkpt>
      <trkpt lat="43.46079" lon="2.16498">
        <ele>687</ele>
        <time>2019-02-10T11:42:57Z</time>
      </trkpt>
      <trkpt lat="43.4608" lon="2.16492">
        <ele>686</ele>
        <time>2019-02-10T11:42:58Z</time>
      </trkpt>
      <trkpt lat="43.46083" lon="2.16486">
        <ele>686</ele>
        <time>2019-02-10T11:42:59Z</time>
      </trkpt>
      <trkpt lat="43.4609" lon="2.16472">
        <ele>685</ele>
        <time>2019-02-10T11:43:01Z</time>
      </trkpt>
      <trkpt lat="43.46093" lon="2.16464">
        <ele>684</ele>
        <time>2019-02-10T11:43:02Z</time>
      </trkpt>
      <trkpt lat="43.46097" lon="2.16457">
        <ele>682</ele>
        <time>2019-02-10T11:43:03Z</time>
      </trkpt>
      <trkpt lat="43.46101" lon="2.16449">
        <ele>681</ele>
        <time>2019-02-10T11:43:04Z</time>
      </trkpt>
      <trkpt lat="43.46105" lon="2.16444">
        <ele>680</ele>
        <time>2019-02-10T11:43:05Z</time>
      </trkpt>
      <trkpt lat="43.46107" lon="2.16438">
        <ele>680</ele>
        <time>2019-02-10T11:43:06Z</time>
      </trkpt>
      <trkpt lat="43.4611" lon="2.16432">
        <ele>678</ele>
        <time>2019-02-10T11:43:07Z</time>
      </trkpt>
      <trkpt lat="43.46113" lon="2.16428">
        <ele>677</ele>
        <time>2019-02-10T11:43:08Z</time>
      </trkpt>
      <trkpt lat="43.46117" lon="2.16425">
        <ele>677</ele>
        <time>2019-02-10T11:43:09Z</time>
      </trkpt>
      <trkpt lat="43.46124" lon="2.16426">
        <ele>676</ele>
        <time>2019-02-10T11:43:11Z</time>
      </trkpt>
      <trkpt lat="43.46127" lon="2.16427">
        <ele>675</ele>
        <time>2019-02-10T11:43:12Z</time>
      </trkpt>
      <trkpt lat="43.46131" lon="2.16429">
        <ele>675</ele>
        <time>2019-02-10T11:43:13Z</time>
      </trkpt>
      <trkpt lat="43.4614" lon="2.16436">
        <ele>674</ele>
        <time>2019-02-10T11:43:15Z</time>
      </trkpt>
      <trkpt lat="43.46145" lon="2.16439">
        <ele>674</ele>
        <time>2019-02-10T11:43:16Z</time>
      </trkpt>
      <trkpt lat="43.46155" lon="2.16443">
        <ele>673</ele>
        <time>2019-02-10T11:43:18Z</time>
      </trkpt>
      <trkpt lat="43.4616" lon="2.16447">
        <ele>672</ele>
        <time>2019-02-10T11:43:20Z</time>
      </trkpt>
      <trkpt lat="43.46167" lon="2.16453">
        <ele>672</ele>
        <time>2019-02-10T11:43:24Z</time>
      </trkpt>
      <trkpt lat="43.46174" lon="2.1646">
        <ele>672</ele>
        <time>2019-02-10T11:43:26Z</time>
      </trkpt>
      <trkpt lat="43.46177" lon="2.16464">
        <ele>671</ele>
        <time>2019-02-10T11:43:27Z</time>
      </trkpt>
      <trkpt lat="43.46181" lon="2.16469">
        <ele>671</ele>
        <time>2019-02-10T11:43:28Z</time>
      </trkpt>
      <trkpt lat="43.46186" lon="2.16473">
        <ele>671</ele>
        <time>2019-02-10T11:43:29Z</time>
      </trkpt>
      <trkpt lat="43.46191" lon="2.16476">
        <ele>670</ele>
        <time>2019-02-10T11:43:30Z</time>
      </trkpt>
      <trkpt lat="43.46197" lon="2.16477">
        <ele>670</ele>
        <time>2019-02-10T11:43:31Z</time>
      </trkpt>
      <trkpt lat="43.46206" lon="2.1648">
        <ele>668</ele>
        <time>2019-02-10T11:43:33Z</time>
      </trkpt>
      <trkpt lat="43.46208" lon="2.16482">
        <ele>668</ele>
        <time>2019-02-10T11:43:34Z</time>
      </trkpt>
      <trkpt lat="43.46212" lon="2.16486">
        <ele>667</ele>
        <time>2019-02-10T11:43:36Z</time>
      </trkpt>
      <trkpt lat="43.46218" lon="2.16492">
        <ele>667</ele>
        <time>2019-02-10T11:43:38Z</time>
      </trkpt>
      <trkpt lat="43.4623" lon="2.16497">
        <ele>666</ele>
        <time>2019-02-10T11:43:41Z</time>
      </trkpt>
      <trkpt lat="43.46237" lon="2.16513">
        <ele>664</ele>
        <time>2019-02-10T11:43:44Z</time>
      </trkpt>
      <trkpt lat="43.46238" lon="2.16519">
        <ele>664</ele>
        <time>2019-02-10T11:43:45Z</time>
      </trkpt>
      <trkpt lat="43.46239" lon="2.16529">
        <ele>663</ele>
        <time>2019-02-10T11:43:47Z</time>
      </trkpt>
      <trkpt lat="43.46243" lon="2.16538">
        <ele>662</ele>
        <time>2019-02-10T11:43:49Z</time>
      </trkpt>
      <trkpt lat="43.46245" lon="2.16543">
        <ele>662</ele>
        <time>2019-02-10T11:43:50Z</time>
      </trkpt>
      <trkpt lat="43.46252" lon="2.16554">
        <ele>659</ele>
        <time>2019-02-10T11:43:52Z</time>
      </trkpt>
      <trkpt lat="43.46256" lon="2.16561">
        <ele>657</ele>
        <time>2019-02-10T11:43:53Z</time>
      </trkpt>
      <trkpt lat="43.4626" lon="2.16568">
        <ele>655</ele>
        <time>2019-02-10T11:43:54Z</time>
      </trkpt>
      <trkpt lat="43.46262" lon="2.16574">
        <ele>653</ele>
        <time>2019-02-10T11:43:55Z</time>
      </trkpt>
      <trkpt lat="43.46263" lon="2.16578">
        <ele>651</ele>
        <time>2019-02-10T11:43:56Z</time>
      </trkpt>
      <trkpt lat="43.46267" lon="2.16582">
        <ele>650</ele>
        <time>2019-02-10T11:43:57Z</time>
      </trkpt>
      <trkpt lat="43.46275" lon="2.16592">
        <ele>648</ele>
        <time>2019-02-10T11:43:59Z</time>
      </trkpt>
      <trkpt lat="43.46279" lon="2.16595">
        <ele>647</ele>
        <time>2019-02-10T11:44:00Z</time>
      </trkpt>
      <trkpt lat="43.46283" lon="2.16596">
        <ele>646</ele>
        <time>2019-02-10T11:44:01Z</time>
      </trkpt>
      <trkpt lat="43.46289" lon="2.16595">
        <ele>644</ele>
        <time>2019-02-10T11:44:02Z</time>
      </trkpt>
      <trkpt lat="43.46296" lon="2.16593">
        <ele>642</ele>
        <time>2019-02-10T11:44:03Z</time>
      </trkpt>
      <trkpt lat="43.46307" lon="2.16586">
        <ele>641</ele>
        <time>2019-02-10T11:44:05Z</time>
      </trkpt>
      <trkpt lat="43.46317" lon="2.16578">
        <ele>640</ele>
        <time>2019-02-10T11:44:07Z</time>
      </trkpt>
      <trkpt lat="43.46326" lon="2.16569">
        <ele>640</ele>
        <time>2019-02-10T11:44:09Z</time>
      </trkpt>
      <trkpt lat="43.46334" lon="2.1656">
        <ele>638</ele>
        <time>2019-02-10T11:44:11Z</time>
      </trkpt>
      <trkpt lat="43.46338" lon="2.16555">
        <ele>637</ele>
        <time>2019-02-10T11:44:12Z</time>
      </trkpt>
      <trkpt lat="43.46342" lon="2.1655">
        <ele>637</ele>
        <time>2019-02-10T11:44:13Z</time>
      </trkpt>
      <trkpt lat="43.46345" lon="2.16544">
        <ele>636</ele>
        <time>2019-02-10T11:44:14Z</time>
      </trkpt>
      <trkpt lat="43.46348" lon="2.16538">
        <ele>636</ele>
        <time>2019-02-10T11:44:15Z</time>
      </trkpt>
      <trkpt lat="43.4635" lon="2.16533">
        <ele>635</ele>
        <time>2019-02-10T11:44:16Z</time>
      </trkpt>
      <trkpt lat="43.46356" lon="2.16521">
        <ele>634</ele>
        <time>2019-02-10T11:44:18Z</time>
      </trkpt>
      <trkpt lat="43.46361" lon="2.16508">
        <ele>632</ele>
        <time>2019-02-10T11:44:20Z</time>
      </trkpt>
      <trkpt lat="43.46364" lon="2.16503">
        <ele>631</ele>
        <time>2019-02-10T11:44:21Z</time>
      </trkpt>
      <trkpt lat="43.46366" lon="2.16498">
        <ele>630</ele>
        <time>2019-02-10T11:44:22Z</time>
      </trkpt>
      <trkpt lat="43.46369" lon="2.16494">
        <ele>630</ele>
        <time>2019-02-10T11:44:23Z</time>
      </trkpt>
      <trkpt lat="43.46374" lon="2.16486">
        <ele>628</ele>
        <time>2019-02-10T11:44:25Z</time>
      </trkpt>
      <trkpt lat="43.46381" lon="2.16478">
        <ele>628</ele>
        <time>2019-02-10T11:44:27Z</time>
      </trkpt>
      <trkpt lat="43.46385" lon="2.16473">
        <ele>627</ele>
        <time>2019-02-10T11:44:28Z</time>
      </trkpt>
      <trkpt lat="43.46389" lon="2.16468">
        <ele>626</ele>
        <time>2019-02-10T11:44:29Z</time>
      </trkpt>
      <trkpt lat="43.46391" lon="2.16462">
        <ele>625</ele>
        <time>2019-02-10T11:44:30Z</time>
      </trkpt>
      <trkpt lat="43.46392" lon="2.16455">
        <ele>624</ele>
        <time>2019-02-10T11:44:31Z</time>
      </trkpt>
      <trkpt lat="43.46394" lon="2.1644">
        <ele>623</ele>
        <time>2019-02-10T11:44:33Z</time>
      </trkpt>
      <trkpt lat="43.46394" lon="2.16434">
        <ele>623</ele>
        <time>2019-02-10T11:44:34Z</time>
      </trkpt>
      <trkpt lat="43.46399" lon="2.16415">
        <ele>621</ele>
        <time>2019-02-10T11:44:37Z</time>
      </trkpt>
      <trkpt lat="43.46403" lon="2.16411">
        <ele>620</ele>
        <time>2019-02-10T11:44:38Z</time>
      </trkpt>
      <trkpt lat="43.46409" lon="2.16401">
        <ele>618</ele>
        <time>2019-02-10T11:44:40Z</time>
      </trkpt>
      <trkpt lat="43.46411" lon="2.16397">
        <ele>618</ele>
        <time>2019-02-10T11:44:41Z</time>
      </trkpt>
      <trkpt lat="43.46414" lon="2.16392">
        <ele>617</ele>
        <time>2019-02-10T11:44:42Z</time>
      </trkpt>
      <trkpt lat="43.46416" lon="2.16388">
        <ele>616</ele>
        <time>2019-02-10T11:44:43Z</time>
      </trkpt>
      <trkpt lat="43.46418" lon="2.16384">
        <ele>615</ele>
        <time>2019-02-10T11:44:44Z</time>
      </trkpt>
      <trkpt lat="43.4642" lon="2.1638">
        <ele>614</ele>
        <time>2019-02-10T11:44:45Z</time>
      </trkpt>
      <trkpt lat="43.46422" lon="2.16376">
        <ele>613</ele>
        <time>2019-02-10T11:44:46Z</time>
      </trkpt>
      <trkpt lat="43.46424" lon="2.16367">
        <ele>611</ele>
        <time>2019-02-10T11:44:48Z</time>
      </trkpt>
      <trkpt lat="43.46425" lon="2.16363">
        <ele>610</ele>
        <time>2019-02-10T11:44:49Z</time>
      </trkpt>
      <trkpt lat="43.46428" lon="2.16361">
        <ele>609</ele>
        <time>2019-02-10T11:44:51Z</time>
      </trkpt>
      <trkpt lat="43.46432" lon="2.16358">
        <ele>607</ele>
        <time>2019-02-10T11:44:53Z</time>
      </trkpt>
      <trkpt lat="43.46433" lon="2.16357">
        <ele>606</ele>
        <time>2019-02-10T11:44:54Z</time>
      </trkpt>
      <trkpt lat="43.46433" lon="2.16356">
        <ele>605</ele>
        <time>2019-02-10T11:44:55Z</time>
      </trkpt>
      <trkpt lat="43.46433" lon="2.1635">
        <ele>604</ele>
        <time>2019-02-10T11:45:11Z</time>
      </trkpt>
      <trkpt lat="43.46433" lon="2.16345">
        <ele>603</ele>
        <time>2019-02-10T11:45:14Z</time>
      </trkpt>
      <trkpt lat="43.46423" lon="2.16322">
        <ele>597</ele>
        <time>2019-02-10T11:46:16Z</time>
      </trkpt>
      <trkpt lat="43.46418" lon="2.16317">
        <ele>596</ele>
        <time>2019-02-10T11:46:19Z</time>
      </trkpt>
      <trkpt lat="43.46414" lon="2.1631">
        <ele>595</ele>
        <time>2019-02-10T11:46:21Z</time>
      </trkpt>
      <trkpt lat="43.46411" lon="2.16306">
        <ele>594</ele>
        <time>2019-02-10T11:46:22Z</time>
      </trkpt>
      <trkpt lat="43.46409" lon="2.16302">
        <ele>593</ele>
        <time>2019-02-10T11:46:23Z</time>
      </trkpt>
      <trkpt lat="43.46405" lon="2.16295">
        <ele>592</ele>
        <time>2019-02-10T11:46:25Z</time>
      </trkpt>
      <trkpt lat="43.46403" lon="2.16291">
        <ele>591</ele>
        <time>2019-02-10T11:46:26Z</time>
      </trkpt>
      <trkpt lat="43.46401" lon="2.16288">
        <ele>590</ele>
        <time>2019-02-10T11:46:27Z</time>
      </trkpt>
      <trkpt lat="43.46398" lon="2.16284">
        <ele>589</ele>
        <time>2019-02-10T11:46:29Z</time>
      </trkpt>
      <trkpt lat="43.46397" lon="2.16281">
        <ele>589</ele>
        <time>2019-02-10T11:46:30Z</time>
      </trkpt>
      <trkpt lat="43.46399" lon="2.16275">
        <ele>588</ele>
        <time>2019-02-10T11:46:33Z</time>
      </trkpt>
      <trkpt lat="43.46403" lon="2.16276">
        <ele>587</ele>
        <time>2019-02-10T11:46:35Z</time>
      </trkpt>
      <trkpt lat="43.46408" lon="2.16277">
        <ele>585</ele>
        <time>2019-02-10T11:46:37Z</time>
      </trkpt>
      <trkpt lat="43.46413" lon="2.1628">
        <ele>584</ele>
        <time>2019-02-10T11:46:39Z</time>
      </trkpt>
      <trkpt lat="43.46416" lon="2.1628">
        <ele>584</ele>
        <time>2019-02-10T11:46:40Z</time>
      </trkpt>
      <trkpt lat="43.4642" lon="2.16281">
        <ele>583</ele>
        <time>2019-02-10T11:46:41Z</time>
      </trkpt>
      <trkpt lat="43.46424" lon="2.16282">
        <ele>582</ele>
        <time>2019-02-10T11:46:42Z</time>
      </trkpt>
      <trkpt lat="43.46427" lon="2.16282">
        <ele>582</ele>
        <time>2019-02-10T11:46:43Z</time>
      </trkpt>
      <trkpt lat="43.4643" lon="2.16281">
        <ele>581</ele>
        <time>2019-02-10T11:46:44Z</time>
      </trkpt>
      <trkpt lat="43.46432" lon="2.1628">
        <ele>580</ele>
        <time>2019-02-10T11:46:45Z</time>
      </trkpt>
      <trkpt lat="43.46436" lon="2.16281">
        <ele>579</ele>
        <time>2019-02-10T11:46:46Z</time>
      </trkpt>
      <trkpt lat="43.46443" lon="2.16284">
        <ele>577</ele>
        <time>2019-02-10T11:46:48Z</time>
      </trkpt>
      <trkpt lat="43.46445" lon="2.16284">
        <ele>576</ele>
        <time>2019-02-10T11:46:49Z</time>
      </trkpt>
      <trkpt lat="43.46448" lon="2.16285">
        <ele>575</ele>
        <time>2019-02-10T11:46:50Z</time>
      </trkpt>
      <trkpt lat="43.46453" lon="2.16285">
        <ele>574</ele>
        <time>2019-02-10T11:46:52Z</time>
      </trkpt>
      <trkpt lat="43.46458" lon="2.16284">
        <ele>572</ele>
        <time>2019-02-10T11:46:54Z</time>
      </trkpt>
      <trkpt lat="43.46459" lon="2.16282">
        <ele>571</ele>
        <time>2019-02-10T11:46:55Z</time>
      </trkpt>
      <trkpt lat="43.46459" lon="2.1628">
        <ele>571</ele>
        <time>2019-02-10T11:46:56Z</time>
      </trkpt>
      <trkpt lat="43.46456" lon="2.16274">
        <ele>570</ele>
        <time>2019-02-10T11:46:58Z</time>
      </trkpt>
      <trkpt lat="43.46453" lon="2.1627">
        <ele>568</ele>
        <time>2019-02-10T11:47:00Z</time>
      </trkpt>
      <trkpt lat="43.46453" lon="2.16269">
        <ele>568</ele>
        <time>2019-02-10T11:47:01Z</time>
      </trkpt>
      <trkpt lat="43.46448" lon="2.16255">
        <ele>567</ele>
        <time>2019-02-10T11:47:04Z</time>
      </trkpt>
      <trkpt lat="43.4644" lon="2.16246">
        <ele>566</ele>
        <time>2019-02-10T11:47:06Z</time>
      </trkpt>
      <trkpt lat="43.46437" lon="2.16242">
        <ele>565</ele>
        <time>2019-02-10T11:47:07Z</time>
      </trkpt>
      <trkpt lat="43.46435" lon="2.16238">
        <ele>565</ele>
        <time>2019-02-10T11:47:08Z</time>
      </trkpt>
      <trkpt lat="43.46426" lon="2.16227">
        <ele>563</ele>
        <time>2019-02-10T11:47:10Z</time>
      </trkpt>
      <trkpt lat="43.46422" lon="2.16221">
        <ele>562</ele>
        <time>2019-02-10T11:47:11Z</time>
      </trkpt>
      <trkpt lat="43.46418" lon="2.16214">
        <ele>561</ele>
        <time>2019-02-10T11:47:12Z</time>
      </trkpt>
      <trkpt lat="43.46415" lon="2.16208">
        <ele>560</ele>
        <time>2019-02-10T11:47:13Z</time>
      </trkpt>
      <trkpt lat="43.46412" lon="2.16204">
        <ele>560</ele>
        <time>2019-02-10T11:47:14Z</time>
      </trkpt>
      <trkpt lat="43.46408" lon="2.16195">
        <ele>559</ele>
        <time>2019-02-10T11:47:17Z</time>
      </trkpt>
      <trkpt lat="43.46406" lon="2.16192">
        <ele>559</ele>
        <time>2019-02-10T11:47:21Z</time>
      </trkpt>
      <trkpt lat="43.46406" lon="2.1619">
        <ele>559</ele>
        <time>2019-02-10T11:47:22Z</time>
      </trkpt>
      <trkpt lat="43.46401" lon="2.16176">
        <ele>558</ele>
        <time>2019-02-10T11:47:32Z</time>
      </trkpt>
      <trkpt lat="43.46398" lon="2.16169">
        <ele>558</ele>
        <time>2019-02-10T11:47:34Z</time>
      </trkpt>
      <trkpt lat="43.46394" lon="2.16156">
        <ele>557</ele>
        <time>2019-02-10T11:47:37Z</time>
      </trkpt>
      <trkpt lat="43.46391" lon="2.16151">
        <ele>557</ele>
        <time>2019-02-10T11:47:38Z</time>
      </trkpt>
      <trkpt lat="43.46388" lon="2.16142">
        <ele>556</ele>
        <time>2019-02-10T11:47:40Z</time>
      </trkpt>
      <trkpt lat="43.46385" lon="2.16127">
        <ele>555</ele>
        <time>2019-02-10T11:47:43Z</time>
      </trkpt>
      <trkpt lat="43.46383" lon="2.16115">
        <ele>554</ele>
        <time>2019-02-10T11:47:46Z</time>
      </trkpt>
      <trkpt lat="43.46382" lon="2.16107">
        <ele>553</ele>
        <time>2019-02-10T11:47:48Z</time>
      </trkpt>
      <trkpt lat="43.46381" lon="2.16103">
        <ele>553</ele>
        <time>2019-02-10T11:47:49Z</time>
      </trkpt>
      <trkpt lat="43.4638" lon="2.16099">
        <ele>551</ele>
        <time>2019-02-10T11:47:50Z</time>
      </trkpt>
      <trkpt lat="43.46378" lon="2.16091">
        <ele>550</ele>
        <time>2019-02-10T11:47:52Z</time>
      </trkpt>
      <trkpt lat="43.46371" lon="2.16075">
        <ele>548</ele>
        <time>2019-02-10T11:47:55Z</time>
      </trkpt>
      <trkpt lat="43.46368" lon="2.1607">
        <ele>548</ele>
        <time>2019-02-10T11:47:56Z</time>
      </trkpt>
      <trkpt lat="43.46366" lon="2.16066">
        <ele>547</ele>
        <time>2019-02-10T11:47:57Z</time>
      </trkpt>
      <trkpt lat="43.46363" lon="2.16058">
        <ele>545</ele>
        <time>2019-02-10T11:47:59Z</time>
      </trkpt>
      <trkpt lat="43.46361" lon="2.16054">
        <ele>545</ele>
        <time>2019-02-10T11:48:00Z</time>
      </trkpt>
      <trkpt lat="43.46352" lon="2.16039">
        <ele>544</ele>
        <time>2019-02-10T11:48:03Z</time>
      </trkpt>
      <trkpt lat="43.46349" lon="2.16029">
        <ele>542</ele>
        <time>2019-02-10T11:48:05Z</time>
      </trkpt>
      <trkpt lat="43.46348" lon="2.16023">
        <ele>541</ele>
        <time>2019-02-10T11:48:06Z</time>
      </trkpt>
      <trkpt lat="43.46347" lon="2.16017">
        <ele>541</ele>
        <time>2019-02-10T11:48:07Z</time>
      </trkpt>
      <trkpt lat="43.46338" lon="2.16004">
        <ele>540</ele>
        <time>2019-02-10T11:48:10Z</time>
      </trkpt>
      <trkpt lat="43.46335" lon="2.15997">
        <ele>539</ele>
        <time>2019-02-10T11:48:12Z</time>
      </trkpt>
      <trkpt lat="43.46335" lon="2.15993">
        <ele>539</ele>
        <time>2019-02-10T11:48:13Z</time>
      </trkpt>
      <trkpt lat="43.46335" lon="2.15989">
        <ele>539</ele>
        <time>2019-02-10T11:48:14Z</time>
      </trkpt>
      <trkpt lat="43.46335" lon="2.15985">
        <ele>538</ele>
        <time>2019-02-10T11:48:15Z</time>
      </trkpt>
      <trkpt lat="43.46334" lon="2.15978">
        <ele>537</ele>
        <time>2019-02-10T11:48:17Z</time>
      </trkpt>
      <trkpt lat="43.46333" lon="2.15977">
        <ele>537</ele>
        <time>2019-02-10T11:48:18Z</time>
      </trkpt>
      <trkpt lat="43.46331" lon="2.15972">
        <ele>536</ele>
        <time>2019-02-10T11:48:22Z</time>
      </trkpt>
      <trkpt lat="43.46332" lon="2.15963">
        <ele>536</ele>
        <time>2019-02-10T11:48:29Z</time>
      </trkpt>
      <trkpt lat="43.46332" lon="2.15959">
        <ele>535</ele>
        <time>2019-02-10T11:48:30Z</time>
      </trkpt>
      <trkpt lat="43.46332" lon="2.1595">
        <ele>533</ele>
        <time>2019-02-10T11:48:32Z</time>
      </trkpt>
      <trkpt lat="43.46332" lon="2.15946">
        <ele>532</ele>
        <time>2019-02-10T11:48:33Z</time>
      </trkpt>
      <trkpt lat="43.46332" lon="2.15943">
        <ele>531</ele>
        <time>2019-02-10T11:48:34Z</time>
      </trkpt>
      <trkpt lat="43.46333" lon="2.15941">
        <ele>530</ele>
        <time>2019-02-10T11:48:35Z</time>
      </trkpt>
      <trkpt lat="43.46332" lon="2.15936">
        <ele>530</ele>
        <time>2019-02-10T11:48:36Z</time>
      </trkpt>
      <trkpt lat="43.46333" lon="2.15934">
        <ele>529</ele>
        <time>2019-02-10T11:48:37Z</time>
      </trkpt>
      <trkpt lat="43.46335" lon="2.15932">
        <ele>528</ele>
        <time>2019-02-10T11:48:38Z</time>
      </trkpt>
      <trkpt lat="43.46335" lon="2.15926">
        <ele>527</ele>
        <time>2019-02-10T11:48:40Z</time>
      </trkpt>
      <trkpt lat="43.46334" lon="2.15922">
        <ele>526</ele>
        <time>2019-02-10T11:48:41Z</time>
      </trkpt>
      <trkpt lat="43.46333" lon="2.15918">
        <ele>525</ele>
        <time>2019-02-10T11:48:42Z</time>
      </trkpt>
      <trkpt lat="43.46331" lon="2.15913">
        <ele>524</ele>
        <time>2019-02-10T11:48:43Z</time>
      </trkpt>
      <trkpt lat="43.46327" lon="2.15905">
        <ele>523</ele>
        <time>2019-02-10T11:48:45Z</time>
      </trkpt>
      <trkpt lat="43.46325" lon="2.15899">
        <ele>521</ele>
        <time>2019-02-10T11:48:47Z</time>
      </trkpt>
      <trkpt lat="43.46322" lon="2.15894">
        <ele>519</ele>
        <time>2019-02-10T11:48:49Z</time>
      </trkpt>
      <trkpt lat="43.46322" lon="2.15892">
        <ele>519</ele>
        <time>2019-02-10T11:48:50Z</time>
      </trkpt>
      <trkpt lat="43.46321" lon="2.15874">
        <ele>518</ele>
        <time>2019-02-10T11:49:30Z</time>
      </trkpt>
      <trkpt lat="43.46324" lon="2.15874">
        <ele>518</ele>
        <time>2019-02-10T11:49:36Z</time>
      </trkpt>
      <trkpt lat="43.46326" lon="2.15874">
        <ele>518</ele>
        <time>2019-02-10T11:49:39Z</time>
      </trkpt>
      <trkpt lat="43.46329" lon="2.15871">
        <ele>518</ele>
        <time>2019-02-10T11:52:02Z</time>
      </trkpt>
      <trkpt lat="43.4633" lon="2.15871">
        <ele>518</ele>
        <time>2019-02-10T11:52:03Z</time>
      </trkpt>
      <trkpt lat="43.46334" lon="2.15873">
        <ele>518</ele>
        <time>2019-02-10T11:52:05Z</time>
      </trkpt>
      <trkpt lat="43.46345" lon="2.15882">
        <ele>518</ele>
        <time>2019-02-10T11:52:10Z</time>
      </trkpt>
      <trkpt lat="43.46347" lon="2.15884">
        <ele>518</ele>
        <time>2019-02-10T11:52:11Z</time>
      </trkpt>
      <trkpt lat="43.46353" lon="2.15892">
        <ele>517</ele>
        <time>2019-02-10T11:52:14Z</time>
      </trkpt>
      <trkpt lat="43.46356" lon="2.15894">
        <ele>517</ele>
        <time>2019-02-10T11:52:15Z</time>
      </trkpt>
      <trkpt lat="43.46361" lon="2.15898">
        <ele>517</ele>
        <time>2019-02-10T11:52:17Z</time>
      </trkpt>
      <trkpt lat="43.46368" lon="2.159">
        <ele>517</ele>
        <time>2019-02-10T11:52:19Z</time>
      </trkpt>
      <trkpt lat="43.46376" lon="2.15901">
        <ele>518</ele>
        <time>2019-02-10T11:52:22Z</time>
      </trkpt>
      <trkpt lat="43.46384" lon="2.15906">
        <ele>519</ele>
        <time>2019-02-10T11:52:25Z</time>
      </trkpt>
      <trkpt lat="43.46386" lon="2.15909">
        <ele>519</ele>
        <time>2019-02-10T11:52:26Z</time>
      </trkpt>
      <trkpt lat="43.46393" lon="2.15916">
        <ele>520</ele>
        <time>2019-02-10T11:52:29Z</time>
      </trkpt>
      <trkpt lat="43.46395" lon="2.15918">
        <ele>520</ele>
        <time>2019-02-10T11:52:30Z</time>
      </trkpt>
      <trkpt lat="43.46397" lon="2.1592">
        <ele>520</ele>
        <time>2019-02-10T11:52:31Z</time>
      </trkpt>
      <trkpt lat="43.46401" lon="2.15923">
        <ele>521</ele>
        <time>2019-02-10T11:52:33Z</time>
      </trkpt>
      <trkpt lat="43.46402" lon="2.15924">
        <ele>521</ele>
        <time>2019-02-10T11:52:34Z</time>
      </trkpt>
      <trkpt lat="43.46407" lon="2.15924">
        <ele>522</ele>
        <time>2019-02-10T11:52:36Z</time>
      </trkpt>
      <trkpt lat="43.46408" lon="2.15925">
        <ele>522</ele>
        <time>2019-02-10T11:52:37Z</time>
      </trkpt>
      <trkpt lat="43.46414" lon="2.15929">
        <ele>523</ele>
        <time>2019-02-10T11:52:40Z</time>
      </trkpt>
      <trkpt lat="43.46416" lon="2.1593">
        <ele>523</ele>
        <time>2019-02-10T11:52:41Z</time>
      </trkpt>
      <trkpt lat="43.46425" lon="2.15934">
        <ele>524</ele>
        <time>2019-02-10T11:52:45Z</time>
      </trkpt>
      <trkpt lat="43.46427" lon="2.15934">
        <ele>524</ele>
        <time>2019-02-10T11:52:46Z</time>
      </trkpt>
      <trkpt lat="43.46438" lon="2.15937">
        <ele>525</ele>
        <time>2019-02-10T11:52:51Z</time>
      </trkpt>
      <trkpt lat="43.4644" lon="2.15937">
        <ele>525</ele>
        <time>2019-02-10T11:52:52Z</time>
      </trkpt>
      <trkpt lat="43.46447" lon="2.15939">
        <ele>526</ele>
        <time>2019-02-10T11:52:56Z</time>
      </trkpt>
      <trkpt lat="43.46456" lon="2.15941">
        <ele>526</ele>
        <time>2019-02-10T11:53:00Z</time>
      </trkpt>
      <trkpt lat="43.46465" lon="2.15944">
        <ele>527</ele>
        <time>2019-02-10T11:53:04Z</time>
      </trkpt>
      <trkpt lat="43.46468" lon="2.15944">
        <ele>527</ele>
        <time>2019-02-10T11:53:05Z</time>
      </trkpt>
      <trkpt lat="43.4648" lon="2.15948">
        <ele>528</ele>
        <time>2019-02-10T11:53:10Z</time>
      </trkpt>
      <trkpt lat="43.46485" lon="2.15949">
        <ele>528</ele>
        <time>2019-02-10T11:53:12Z</time>
      </trkpt>
      <trkpt lat="43.46492" lon="2.15951">
        <ele>529</ele>
        <time>2019-02-10T11:53:15Z</time>
      </trkpt>
      <trkpt lat="43.46495" lon="2.15951">
        <ele>529</ele>
        <time>2019-02-10T11:53:17Z</time>
      </trkpt>
      <trkpt lat="43.46497" lon="2.15951">
        <ele>530</ele>
        <time>2019-02-10T11:53:18Z</time>
      </trkpt>
      <trkpt lat="43.46504" lon="2.15952">
        <ele>530</ele>
        <time>2019-02-10T11:53:22Z</time>
      </trkpt>
      <trkpt lat="43.46514" lon="2.15953">
        <ele>531</ele>
        <time>2019-02-10T11:53:26Z</time>
      </trkpt>
      <trkpt lat="43.46516" lon="2.15954">
        <ele>531</ele>
        <time>2019-02-10T11:53:27Z</time>
      </trkpt>
      <trkpt lat="43.46528" lon="2.15956">
        <ele>532</ele>
        <time>2019-02-10T11:53:31Z</time>
      </trkpt>
      <trkpt lat="43.46531" lon="2.15956">
        <ele>532</ele>
        <time>2019-02-10T11:53:32Z</time>
      </trkpt>
      <trkpt lat="43.46549" lon="2.15962">
        <ele>532</ele>
        <time>2019-02-10T11:53:38Z</time>
      </trkpt>
      <trkpt lat="43.46565" lon="2.15968">
        <ele>532</ele>
        <time>2019-02-10T11:53:42Z</time>
      </trkpt>
      <trkpt lat="43.46585" lon="2.15975">
        <ele>531</ele>
        <time>2019-02-10T11:53:47Z</time>
      </trkpt>
      <trkpt lat="43.46599" lon="2.1598">
        <ele>530</ele>
        <time>2019-02-10T11:53:50Z</time>
      </trkpt>
      <trkpt lat="43.46604" lon="2.15982">
        <ele>530</ele>
        <time>2019-02-10T11:53:51Z</time>
      </trkpt>
      <trkpt lat="43.46608" lon="2.15984">
        <ele>529</ele>
        <time>2019-02-10T11:53:52Z</time>
      </trkpt>
      <trkpt lat="43.46613" lon="2.15987">
        <ele>529</ele>
        <time>2019-02-10T11:53:53Z</time>
      </trkpt>
      <trkpt lat="43.46626" lon="2.15994">
        <ele>528</ele>
        <time>2019-02-10T11:53:56Z</time>
      </trkpt>
      <trkpt lat="43.46631" lon="2.15996">
        <ele>529</ele>
        <time>2019-02-10T11:53:57Z</time>
      </trkpt>
      <trkpt lat="43.46648" lon="2.16003">
        <ele>529</ele>
        <time>2019-02-10T11:54:01Z</time>
      </trkpt>
      <trkpt lat="43.46652" lon="2.16005">
        <ele>529</ele>
        <time>2019-02-10T11:54:02Z</time>
      </trkpt>
      <trkpt lat="43.46663" lon="2.16009">
        <ele>528</ele>
        <time>2019-02-10T11:54:05Z</time>
      </trkpt>
      <trkpt lat="43.46681" lon="2.16013">
        <ele>529</ele>
        <time>2019-02-10T11:54:09Z</time>
      </trkpt>
      <trkpt lat="43.4669" lon="2.16016">
        <ele>529</ele>
        <time>2019-02-10T11:54:11Z</time>
      </trkpt>
      <trkpt lat="43.46702" lon="2.16019">
        <ele>529</ele>
        <time>2019-02-10T11:54:14Z</time>
      </trkpt>
      <trkpt lat="43.46714" lon="2.16022">
        <ele>530</ele>
        <time>2019-02-10T11:54:17Z</time>
      </trkpt>
      <trkpt lat="43.46718" lon="2.16023">
        <ele>531</ele>
        <time>2019-02-10T11:54:18Z</time>
      </trkpt>
      <trkpt lat="43.46725" lon="2.16025">
        <ele>532</ele>
        <time>2019-02-10T11:54:20Z</time>
      </trkpt>
      <trkpt lat="43.46734" lon="2.16028">
        <ele>533</ele>
        <time>2019-02-10T11:54:23Z</time>
      </trkpt>
      <trkpt lat="43.46737" lon="2.16029">
        <ele>533</ele>
        <time>2019-02-10T11:54:24Z</time>
      </trkpt>
      <trkpt lat="43.46748" lon="2.16034">
        <ele>534</ele>
        <time>2019-02-10T11:54:28Z</time>
      </trkpt>
      <trkpt lat="43.46751" lon="2.16035">
        <ele>534</ele>
        <time>2019-02-10T11:54:29Z</time>
      </trkpt>
      <trkpt lat="43.46762" lon="2.16041">
        <ele>535</ele>
        <time>2019-02-10T11:54:33Z</time>
      </trkpt>
      <trkpt lat="43.46768" lon="2.16045">
        <ele>535</ele>
        <time>2019-02-10T11:54:35Z</time>
      </trkpt>
      <trkpt lat="43.46778" lon="2.16052">
        <ele>535</ele>
        <time>2019-02-10T11:54:39Z</time>
      </trkpt>
      <trkpt lat="43.46784" lon="2.16056">
        <ele>536</ele>
        <time>2019-02-10T11:54:41Z</time>
      </trkpt>
      <trkpt lat="43.46788" lon="2.16058">
        <ele>536</ele>
        <time>2019-02-10T11:54:43Z</time>
      </trkpt>
      <trkpt lat="43.46799" lon="2.16064">
        <ele>537</ele>
        <time>2019-02-10T11:54:47Z</time>
      </trkpt>
      <trkpt lat="43.46802" lon="2.16065">
        <ele>537</ele>
        <time>2019-02-10T11:54:48Z</time>
      </trkpt>
      <trkpt lat="43.46811" lon="2.16073">
        <ele>538</ele>
        <time>2019-02-10T11:54:52Z</time>
      </trkpt>
      <trkpt lat="43.46819" lon="2.16077">
        <ele>538</ele>
        <time>2019-02-10T11:54:55Z</time>
      </trkpt>
      <trkpt lat="43.46822" lon="2.16078">
        <ele>538</ele>
        <time>2019-02-10T11:54:56Z</time>
      </trkpt>
      <trkpt lat="43.46834" lon="2.16086">
        <ele>539</ele>
        <time>2019-02-10T11:55:01Z</time>
      </trkpt>
      <trkpt lat="43.46837" lon="2.16087">
        <ele>539</ele>
        <time>2019-02-10T11:55:02Z</time>
      </trkpt>
      <trkpt lat="43.46845" lon="2.1609">
        <ele>540</ele>
        <time>2019-02-10T11:55:05Z</time>
      </trkpt>
      <trkpt lat="43.46847" lon="2.16091">
        <ele>540</ele>
        <time>2019-02-10T11:55:06Z</time>
      </trkpt>
      <trkpt lat="43.46858" lon="2.16095">
        <ele>541</ele>
        <time>2019-02-10T11:55:10Z</time>
      </trkpt>
      <trkpt lat="43.46861" lon="2.16096">
        <ele>542</ele>
        <time>2019-02-10T11:55:11Z</time>
      </trkpt>
      <trkpt lat="43.46864" lon="2.16097">
        <ele>542</ele>
        <time>2019-02-10T11:55:12Z</time>
      </trkpt>
      <trkpt lat="43.46873" lon="2.161">
        <ele>543</ele>
        <time>2019-02-10T11:55:15Z</time>
      </trkpt>
      <trkpt lat="43.46878" lon="2.16102">
        <ele>543</ele>
        <time>2019-02-10T11:55:17Z</time>
      </trkpt>
      <trkpt lat="43.4688" lon="2.16103">
        <ele>543</ele>
        <time>2019-02-10T11:55:18Z</time>
      </trkpt>
      <trkpt lat="43.46885" lon="2.16103">
        <ele>544</ele>
        <time>2019-02-10T11:55:20Z</time>
      </trkpt>
      <trkpt lat="43.4689" lon="2.16105">
        <ele>544</ele>
        <time>2019-02-10T11:55:22Z</time>
      </trkpt>
      <trkpt lat="43.46892" lon="2.16105">
        <ele>544</ele>
        <time>2019-02-10T11:55:23Z</time>
      </trkpt>
      <trkpt lat="43.46898" lon="2.16106">
        <ele>545</ele>
        <time>2019-02-10T11:55:26Z</time>
      </trkpt>
      <trkpt lat="43.46901" lon="2.16106">
        <ele>545</ele>
        <time>2019-02-10T11:55:27Z</time>
      </trkpt>
      <trkpt lat="43.46905" lon="2.16109">
        <ele>546</ele>
        <time>2019-02-10T11:55:29Z</time>
      </trkpt>
      <trkpt lat="43.46915" lon="2.16112">
        <ele>547</ele>
        <time>2019-02-10T11:55:33Z</time>
      </trkpt>
      <trkpt lat="43.4692" lon="2.16115">
        <ele>547</ele>
        <time>2019-02-10T11:55:35Z</time>
      </trkpt>
      <trkpt lat="43.46926" lon="2.16119">
        <ele>548</ele>
        <time>2019-02-10T11:55:38Z</time>
      </trkpt>
      <trkpt lat="43.46928" lon="2.16121">
        <ele>548</ele>
        <time>2019-02-10T11:55:39Z</time>
      </trkpt>
      <trkpt lat="43.46936" lon="2.16126">
        <ele>549</ele>
        <time>2019-02-10T11:55:43Z</time>
      </trkpt>
      <trkpt lat="43.46938" lon="2.16128">
        <ele>549</ele>
        <time>2019-02-10T11:55:44Z</time>
      </trkpt>
      <trkpt lat="43.46947" lon="2.16133">
        <ele>550</ele>
        <time>2019-02-10T11:55:48Z</time>
      </trkpt>
      <trkpt lat="43.46949" lon="2.16134">
        <ele>550</ele>
        <time>2019-02-10T11:55:49Z</time>
      </trkpt>
      <trkpt lat="43.46954" lon="2.16139">
        <ele>551</ele>
        <time>2019-02-10T11:55:52Z</time>
      </trkpt>
      <trkpt lat="43.46956" lon="2.1614">
        <ele>551</ele>
        <time>2019-02-10T11:55:53Z</time>
      </trkpt>
      <trkpt lat="43.46962" lon="2.16146">
        <ele>552</ele>
        <time>2019-02-10T11:55:56Z</time>
      </trkpt>
      <trkpt lat="43.46966" lon="2.16148">
        <ele>553</ele>
        <time>2019-02-10T11:55:58Z</time>
      </trkpt>
      <trkpt lat="43.46972" lon="2.16151">
        <ele>553</ele>
        <time>2019-02-10T11:56:01Z</time>
      </trkpt>
      <trkpt lat="43.46977" lon="2.16153">
        <ele>554</ele>
        <time>2019-02-10T11:56:03Z</time>
      </trkpt>
      <trkpt lat="43.46982" lon="2.16155">
        <ele>554</ele>
        <time>2019-02-10T11:56:05Z</time>
      </trkpt>
      <trkpt lat="43.46989" lon="2.16158">
        <ele>555</ele>
        <time>2019-02-10T11:56:08Z</time>
      </trkpt>
      <trkpt lat="43.46991" lon="2.16159">
        <ele>556</ele>
        <time>2019-02-10T11:56:09Z</time>
      </trkpt>
      <trkpt lat="43.47003" lon="2.16162">
        <ele>556</ele>
        <time>2019-02-10T11:56:14Z</time>
      </trkpt>
      <trkpt lat="43.47007" lon="2.16162">
        <ele>557</ele>
        <time>2019-02-10T11:56:16Z</time>
      </trkpt>
      <trkpt lat="43.47013" lon="2.16162">
        <ele>558</ele>
        <time>2019-02-10T11:56:19Z</time>
      </trkpt>
      <trkpt lat="43.47015" lon="2.16162">
        <ele>558</ele>
        <time>2019-02-10T11:56:20Z</time>
      </trkpt>
      <trkpt lat="43.47019" lon="2.16163">
        <ele>559</ele>
        <time>2019-02-10T11:56:23Z</time>
      </trkpt>
      <trkpt lat="43.47023" lon="2.16164">
        <ele>559</ele>
        <time>2019-02-10T11:56:25Z</time>
      </trkpt>
      <trkpt lat="43.47031" lon="2.16167">
        <ele>560</ele>
        <time>2019-02-10T11:56:28Z</time>
      </trkpt>
      <trkpt lat="43.47035" lon="2.1617">
        <ele>560</ele>
        <time>2019-02-10T11:56:30Z</time>
      </trkpt>
      <trkpt lat="43.47038" lon="2.16171">
        <ele>560</ele>
        <time>2019-02-10T11:56:31Z</time>
      </trkpt>
      <trkpt lat="43.47055" lon="2.16183">
        <ele>561</ele>
        <time>2019-02-10T11:56:38Z</time>
      </trkpt>
      <trkpt lat="43.4706" lon="2.16185">
        <ele>561</ele>
        <time>2019-02-10T11:56:40Z</time>
      </trkpt>
      <trkpt lat="43.47069" lon="2.16188">
        <ele>562</ele>
        <time>2019-02-10T11:56:44Z</time>
      </trkpt>
      <trkpt lat="43.47077" lon="2.16189">
        <ele>563</ele>
        <time>2019-02-10T11:56:47Z</time>
      </trkpt>
      <trkpt lat="43.47082" lon="2.1619">
        <ele>564</ele>
        <time>2019-02-10T11:56:49Z</time>
      </trkpt>
      <trkpt lat="43.4709" lon="2.1619">
        <ele>564</ele>
        <time>2019-02-10T11:56:52Z</time>
      </trkpt>
      <trkpt lat="43.47095" lon="2.16188">
        <ele>564</ele>
        <time>2019-02-10T11:56:54Z</time>
      </trkpt>
      <trkpt lat="43.47114" lon="2.16179">
        <ele>565</ele>
        <time>2019-02-10T11:57:02Z</time>
      </trkpt>
      <trkpt lat="43.47116" lon="2.16177">
        <ele>565</ele>
        <time>2019-02-10T11:57:03Z</time>
      </trkpt>
      <trkpt lat="43.47127" lon="2.16169">
        <ele>566</ele>
        <time>2019-02-10T11:57:08Z</time>
      </trkpt>
      <trkpt lat="43.47132" lon="2.16165">
        <ele>566</ele>
        <time>2019-02-10T11:57:10Z</time>
      </trkpt>
      <trkpt lat="43.47139" lon="2.16156">
        <ele>567</ele>
        <time>2019-02-10T11:57:14Z</time>
      </trkpt>
      <trkpt lat="43.4715" lon="2.16144">
        <ele>567</ele>
        <time>2019-02-10T11:57:19Z</time>
      </trkpt>
      <trkpt lat="43.47151" lon="2.16142">
        <ele>567</ele>
        <time>2019-02-10T11:57:20Z</time>
      </trkpt>
      <trkpt lat="43.47162" lon="2.16133">
        <ele>568</ele>
        <time>2019-02-10T11:57:25Z</time>
      </trkpt>
      <trkpt lat="43.4717" lon="2.1613">
        <ele>568</ele>
        <time>2019-02-10T11:57:28Z</time>
      </trkpt>
      <trkpt lat="43.47175" lon="2.16129">
        <ele>568</ele>
        <time>2019-02-10T11:57:30Z</time>
      </trkpt>
      <trkpt lat="43.4719" lon="2.16128">
        <ele>569</ele>
        <time>2019-02-10T11:57:35Z</time>
      </trkpt>
      <trkpt lat="43.47193" lon="2.16128">
        <ele>570</ele>
        <time>2019-02-10T11:57:36Z</time>
      </trkpt>
      <trkpt lat="43.47202" lon="2.16123">
        <ele>570</ele>
        <time>2019-02-10T11:57:40Z</time>
      </trkpt>
      <trkpt lat="43.47215" lon="2.16116">
        <ele>570</ele>
        <time>2019-02-10T11:57:45Z</time>
      </trkpt>
      <trkpt lat="43.47218" lon="2.16115">
        <ele>571</ele>
        <time>2019-02-10T11:57:46Z</time>
      </trkpt>
      <trkpt lat="43.47229" lon="2.16107">
        <ele>571</ele>
        <time>2019-02-10T11:57:50Z</time>
      </trkpt>
      <trkpt lat="43.4724" lon="2.16104">
        <ele>572</ele>
        <time>2019-02-10T11:57:53Z</time>
      </trkpt>
      <trkpt lat="43.47246" lon="2.16102">
        <ele>572</ele>
        <time>2019-02-10T11:57:55Z</time>
      </trkpt>
      <trkpt lat="43.4726" lon="2.16095">
        <ele>572</ele>
        <time>2019-02-10T11:57:59Z</time>
      </trkpt>
      <trkpt lat="43.47275" lon="2.16078">
        <ele>573</ele>
        <time>2019-02-10T11:58:04Z</time>
      </trkpt>
      <trkpt lat="43.47277" lon="2.16074">
        <ele>573</ele>
        <time>2019-02-10T11:58:05Z</time>
      </trkpt>
      <trkpt lat="43.47285" lon="2.16052">
        <ele>573</ele>
        <time>2019-02-10T11:58:11Z</time>
      </trkpt>
      <trkpt lat="43.47286" lon="2.1605">
        <ele>573</ele>
        <time>2019-02-10T11:58:12Z</time>
      </trkpt>
      <trkpt lat="43.4729" lon="2.16044">
        <ele>574</ele>
        <time>2019-02-10T11:58:16Z</time>
      </trkpt>
      <trkpt lat="43.47291" lon="2.16043">
        <ele>574</ele>
        <time>2019-02-10T11:58:17Z</time>
      </trkpt>
      <trkpt lat="43.47296" lon="2.1604">
        <ele>574</ele>
        <time>2019-02-10T11:58:22Z</time>
      </trkpt>
      <trkpt lat="43.47297" lon="2.16039">
        <ele>574</ele>
        <time>2019-02-10T11:58:25Z</time>
      </trkpt>
      <trkpt lat="43.47297" lon="2.16029">
        <ele>574</ele>
        <time>2019-02-10T12:02:07Z</time>
      </trkpt>
      <trkpt lat="43.47299" lon="2.1603">
        <ele>574</ele>
        <time>2019-02-10T12:02:08Z</time>
      </trkpt>
      <trkpt lat="43.47305" lon="2.16032">
        <ele>574</ele>
        <time>2019-02-10T12:02:12Z</time>
      </trkpt>
      <trkpt lat="43.47318" lon="2.16035">
        <ele>574</ele>
        <time>2019-02-10T12:02:16Z</time>
      </trkpt>
      <trkpt lat="43.47321" lon="2.16037">
        <ele>573</ele>
        <time>2019-02-10T12:02:17Z</time>
      </trkpt>
      <trkpt lat="43.47331" lon="2.16041">
        <ele>573</ele>
        <time>2019-02-10T12:02:20Z</time>
      </trkpt>
      <trkpt lat="43.47338" lon="2.16043">
        <ele>573</ele>
        <time>2019-02-10T12:02:22Z</time>
      </trkpt>
      <trkpt lat="43.47355" lon="2.16052">
        <ele>573</ele>
        <time>2019-02-10T12:02:27Z</time>
      </trkpt>
      <trkpt lat="43.47374" lon="2.16061">
        <ele>573</ele>
        <time>2019-02-10T12:02:32Z</time>
      </trkpt>
      <trkpt lat="43.47392" lon="2.16076">
        <ele>572</ele>
        <time>2019-02-10T12:02:37Z</time>
      </trkpt>
      <trkpt lat="43.47396" lon="2.16079">
        <ele>572</ele>
        <time>2019-02-10T12:02:38Z</time>
      </trkpt>
      <trkpt lat="43.47403" lon="2.1609">
        <ele>572</ele>
        <time>2019-02-10T12:02:40Z</time>
      </trkpt>
      <trkpt lat="43.47405" lon="2.16096">
        <ele>572</ele>
        <time>2019-02-10T12:02:41Z</time>
      </trkpt>
      <trkpt lat="43.47412" lon="2.16118">
        <ele>571</ele>
        <time>2019-02-10T12:02:44Z</time>
      </trkpt>
      <trkpt lat="43.47418" lon="2.16134">
        <ele>570</ele>
        <time>2019-02-10T12:02:46Z</time>
      </trkpt>
      <trkpt lat="43.47425" lon="2.1615">
        <ele>569</ele>
        <time>2019-02-10T12:02:48Z</time>
      </trkpt>
      <trkpt lat="43.47435" lon="2.16168">
        <ele>568</ele>
        <time>2019-02-10T12:02:50Z</time>
      </trkpt>
      <trkpt lat="43.47446" lon="2.16186">
        <ele>566</ele>
        <time>2019-02-10T12:02:52Z</time>
      </trkpt>
      <trkpt lat="43.47466" lon="2.16212">
        <ele>565</ele>
        <time>2019-02-10T12:02:55Z</time>
      </trkpt>
      <trkpt lat="43.47474" lon="2.16221">
        <ele>563</ele>
        <time>2019-02-10T12:02:56Z</time>
      </trkpt>
      <trkpt lat="43.47491" lon="2.16238">
        <ele>561</ele>
        <time>2019-02-10T12:02:58Z</time>
      </trkpt>
      <trkpt lat="43.475" lon="2.16245">
        <ele>560</ele>
        <time>2019-02-10T12:02:59Z</time>
      </trkpt>
      <trkpt lat="43.4751" lon="2.16251">
        <ele>559</ele>
        <time>2019-02-10T12:03:00Z</time>
      </trkpt>
      <trkpt lat="43.47519" lon="2.16257">
        <ele>559</ele>
        <time>2019-02-10T12:03:01Z</time>
      </trkpt>
      <trkpt lat="43.47528" lon="2.1626">
        <ele>558</ele>
        <time>2019-02-10T12:03:02Z</time>
      </trkpt>
      <trkpt lat="43.47537" lon="2.16262">
        <ele>558</ele>
        <time>2019-02-10T12:03:03Z</time>
      </trkpt>
      <trkpt lat="43.47555" lon="2.16262">
        <ele>557</ele>
        <time>2019-02-10T12:03:05Z</time>
      </trkpt>
      <trkpt lat="43.47571" lon="2.16263">
        <ele>556</ele>
        <time>2019-02-10T12:03:07Z</time>
      </trkpt>
      <trkpt lat="43.47586" lon="2.1627">
        <ele>555</ele>
        <time>2019-02-10T12:03:09Z</time>
      </trkpt>
      <trkpt lat="43.47593" lon="2.16275">
        <ele>554</ele>
        <time>2019-02-10T12:03:10Z</time>
      </trkpt>
      <trkpt lat="43.47608" lon="2.16284">
        <ele>553</ele>
        <time>2019-02-10T12:03:12Z</time>
      </trkpt>
      <trkpt lat="43.47625" lon="2.1629">
        <ele>551</ele>
        <time>2019-02-10T12:03:14Z</time>
      </trkpt>
      <trkpt lat="43.47642" lon="2.16294">
        <ele>550</ele>
        <time>2019-02-10T12:03:16Z</time>
      </trkpt>
      <trkpt lat="43.47659" lon="2.16301">
        <ele>548</ele>
        <time>2019-02-10T12:03:18Z</time>
      </trkpt>
      <trkpt lat="43.47667" lon="2.16306">
        <ele>548</ele>
        <time>2019-02-10T12:03:19Z</time>
      </trkpt>
      <trkpt lat="43.47674" lon="2.16312">
        <ele>547</ele>
        <time>2019-02-10T12:03:20Z</time>
      </trkpt>
      <trkpt lat="43.47685" lon="2.16327">
        <ele>546</ele>
        <time>2019-02-10T12:03:22Z</time>
      </trkpt>
      <trkpt lat="43.4769" lon="2.16334">
        <ele>546</ele>
        <time>2019-02-10T12:03:23Z</time>
      </trkpt>
      <trkpt lat="43.47695" lon="2.1634">
        <ele>546</ele>
        <time>2019-02-10T12:03:24Z</time>
      </trkpt>
      <trkpt lat="43.47705" lon="2.16351">
        <ele>546</ele>
        <time>2019-02-10T12:03:26Z</time>
      </trkpt>
      <trkpt lat="43.47721" lon="2.16372">
        <ele>547</ele>
        <time>2019-02-10T12:03:30Z</time>
      </trkpt>
      <trkpt lat="43.47724" lon="2.16378">
        <ele>547</ele>
        <time>2019-02-10T12:03:31Z</time>
      </trkpt>
      <trkpt lat="43.47732" lon="2.16392">
        <ele>548</ele>
        <time>2019-02-10T12:03:34Z</time>
      </trkpt>
      <trkpt lat="43.47737" lon="2.16402">
        <ele>549</ele>
        <time>2019-02-10T12:03:36Z</time>
      </trkpt>
      <trkpt lat="43.47747" lon="2.16414">
        <ele>549</ele>
        <time>2019-02-10T12:03:39Z</time>
      </trkpt>
      <trkpt lat="43.47761" lon="2.16427">
        <ele>551</ele>
        <time>2019-02-10T12:03:43Z</time>
      </trkpt>
      <trkpt lat="43.47764" lon="2.1643">
        <ele>551</ele>
        <time>2019-02-10T12:03:44Z</time>
      </trkpt>
      <trkpt lat="43.47768" lon="2.16433">
        <ele>551</ele>
        <time>2019-02-10T12:03:45Z</time>
      </trkpt>
      <trkpt lat="43.47779" lon="2.16445">
        <ele>552</ele>
        <time>2019-02-10T12:03:48Z</time>
      </trkpt>
      <trkpt lat="43.4779" lon="2.16457">
        <ele>551</ele>
        <time>2019-02-10T12:03:51Z</time>
      </trkpt>
      <trkpt lat="43.47793" lon="2.16461">
        <ele>551</ele>
        <time>2019-02-10T12:03:52Z</time>
      </trkpt>
      <trkpt lat="43.47808" lon="2.16476">
        <ele>552</ele>
        <time>2019-02-10T12:03:57Z</time>
      </trkpt>
      <trkpt lat="43.47815" lon="2.16481">
        <ele>553</ele>
        <time>2019-02-10T12:03:59Z</time>
      </trkpt>
      <trkpt lat="43.47818" lon="2.16483">
        <ele>553</ele>
        <time>2019-02-10T12:04:00Z</time>
      </trkpt>
      <trkpt lat="43.47847" lon="2.16501">
        <ele>553</ele>
        <time>2019-02-10T12:04:08Z</time>
      </trkpt>
      <trkpt lat="43.47873" lon="2.16508">
        <ele>553</ele>
        <time>2019-02-10T12:04:15Z</time>
      </trkpt>
      <trkpt lat="43.47886" lon="2.165">
        <ele>553</ele>
        <time>2019-02-10T12:04:20Z</time>
      </trkpt>
      <trkpt lat="43.47895" lon="2.16484">
        <ele>554</ele>
        <time>2019-02-10T12:04:25Z</time>
      </trkpt>
      <trkpt lat="43.47899" lon="2.16477">
        <ele>554</ele>
        <time>2019-02-10T12:04:27Z</time>
      </trkpt>
      <trkpt lat="43.47912" lon="2.16448">
        <ele>554</ele>
        <time>2019-02-10T12:04:34Z</time>
      </trkpt>
      <trkpt lat="43.47919" lon="2.16428">
        <ele>553</ele>
        <time>2019-02-10T12:04:38Z</time>
      </trkpt>
      <trkpt lat="43.47924" lon="2.1641">
        <ele>553</ele>
        <time>2019-02-10T12:04:41Z</time>
      </trkpt>
      <trkpt lat="43.47929" lon="2.16396">
        <ele>552</ele>
        <time>2019-02-10T12:04:43Z</time>
      </trkpt>
      <trkpt lat="43.47934" lon="2.16372">
        <ele>551</ele>
        <time>2019-02-10T12:04:46Z</time>
      </trkpt>
      <trkpt lat="43.47935" lon="2.16355">
        <ele>549</ele>
        <time>2019-02-10T12:04:48Z</time>
      </trkpt>
      <trkpt lat="43.47934" lon="2.16339">
        <ele>548</ele>
        <time>2019-02-10T12:04:50Z</time>
      </trkpt>
      <trkpt lat="43.47935" lon="2.16331">
        <ele>548</ele>
        <time>2019-02-10T12:04:51Z</time>
      </trkpt>
      <trkpt lat="43.47936" lon="2.16313">
        <ele>547</ele>
        <time>2019-02-10T12:04:53Z</time>
      </trkpt>
      <trkpt lat="43.47936" lon="2.16304">
        <ele>546</ele>
        <time>2019-02-10T12:04:54Z</time>
      </trkpt>
      <trkpt lat="43.47938" lon="2.16296">
        <ele>545</ele>
        <time>2019-02-10T12:04:55Z</time>
      </trkpt>
      <trkpt lat="43.47943" lon="2.1628">
        <ele>543</ele>
        <time>2019-02-10T12:04:57Z</time>
      </trkpt>
      <trkpt lat="43.47951" lon="2.16267">
        <ele>542</ele>
        <time>2019-02-10T12:04:59Z</time>
      </trkpt>
      <trkpt lat="43.47954" lon="2.16261">
        <ele>542</ele>
        <time>2019-02-10T12:05:00Z</time>
      </trkpt>
      <trkpt lat="43.4796" lon="2.16251">
        <ele>541</ele>
        <time>2019-02-10T12:05:02Z</time>
      </trkpt>
      <trkpt lat="43.47963" lon="2.16243">
        <ele>540</ele>
        <time>2019-02-10T12:05:03Z</time>
      </trkpt>
      <trkpt lat="43.47965" lon="2.16235">
        <ele>538</ele>
        <time>2019-02-10T12:05:04Z</time>
      </trkpt>
      <trkpt lat="43.47968" lon="2.16227">
        <ele>537</ele>
        <time>2019-02-10T12:05:05Z</time>
      </trkpt>
      <trkpt lat="43.47969" lon="2.16218">
        <ele>536</ele>
        <time>2019-02-10T12:05:06Z</time>
      </trkpt>
      <trkpt lat="43.47969" lon="2.16209">
        <ele>535</ele>
        <time>2019-02-10T12:05:07Z</time>
      </trkpt>
      <trkpt lat="43.47968" lon="2.16199">
        <ele>534</ele>
        <time>2019-02-10T12:05:08Z</time>
      </trkpt>
      <trkpt lat="43.47962" lon="2.16182">
        <ele>532</ele>
        <time>2019-02-10T12:05:10Z</time>
      </trkpt>
      <trkpt lat="43.47958" lon="2.16175">
        <ele>531</ele>
        <time>2019-02-10T12:05:11Z</time>
      </trkpt>
      <trkpt lat="43.47954" lon="2.16167">
        <ele>529</ele>
        <time>2019-02-10T12:05:12Z</time>
      </trkpt>
      <trkpt lat="43.47945" lon="2.1615">
        <ele>528</ele>
        <time>2019-02-10T12:05:14Z</time>
      </trkpt>
      <trkpt lat="43.47936" lon="2.16135">
        <ele>526</ele>
        <time>2019-02-10T12:05:16Z</time>
      </trkpt>
      <trkpt lat="43.47932" lon="2.16129">
        <ele>526</ele>
        <time>2019-02-10T12:05:17Z</time>
      </trkpt>
      <trkpt lat="43.47929" lon="2.16121">
        <ele>526</ele>
        <time>2019-02-10T12:05:18Z</time>
      </trkpt>
      <trkpt lat="43.47924" lon="2.16107">
        <ele>526</ele>
        <time>2019-02-10T12:05:20Z</time>
      </trkpt>
      <trkpt lat="43.47918" lon="2.16082">
        <ele>525</ele>
        <time>2019-02-10T12:05:23Z</time>
      </trkpt>
      <trkpt lat="43.47913" lon="2.16072">
        <ele>524</ele>
        <time>2019-02-10T12:05:24Z</time>
      </trkpt>
      <trkpt lat="43.47908" lon="2.16063">
        <ele>522</ele>
        <time>2019-02-10T12:05:25Z</time>
      </trkpt>
      <trkpt lat="43.47903" lon="2.16052">
        <ele>520</ele>
        <time>2019-02-10T12:05:26Z</time>
      </trkpt>
      <trkpt lat="43.47899" lon="2.16042">
        <ele>519</ele>
        <time>2019-02-10T12:05:27Z</time>
      </trkpt>
      <trkpt lat="43.47895" lon="2.1603">
        <ele>518</ele>
        <time>2019-02-10T12:05:28Z</time>
      </trkpt>
      <trkpt lat="43.47892" lon="2.16017">
        <ele>517</ele>
        <time>2019-02-10T12:05:29Z</time>
      </trkpt>
      <trkpt lat="43.4789" lon="2.16004">
        <ele>515</ele>
        <time>2019-02-10T12:05:30Z</time>
      </trkpt>
      <trkpt lat="43.4789" lon="2.1599">
        <ele>514</ele>
        <time>2019-02-10T12:05:31Z</time>
      </trkpt>
      <trkpt lat="43.4789" lon="2.15978">
        <ele>513</ele>
        <time>2019-02-10T12:05:32Z</time>
      </trkpt>
      <trkpt lat="43.47888" lon="2.15966">
        <ele>512</ele>
        <time>2019-02-10T12:05:33Z</time>
      </trkpt>
      <trkpt lat="43.47885" lon="2.15947">
        <ele>512</ele>
        <time>2019-02-10T12:05:35Z</time>
      </trkpt>
      <trkpt lat="43.47885" lon="2.15939">
        <ele>512</ele>
        <time>2019-02-10T12:05:36Z</time>
      </trkpt>
      <trkpt lat="43.47884" lon="2.15925">
        <ele>512</ele>
        <time>2019-02-10T12:05:38Z</time>
      </trkpt>
      <trkpt lat="43.47881" lon="2.15913">
        <ele>513</ele>
        <time>2019-02-10T12:05:40Z</time>
      </trkpt>
      <trkpt lat="43.47877" lon="2.15904">
        <ele>514</ele>
        <time>2019-02-10T12:05:42Z</time>
      </trkpt>
      <trkpt lat="43.4787" lon="2.15889">
        <ele>515</ele>
        <time>2019-02-10T12:05:46Z</time>
      </trkpt>
      <trkpt lat="43.47863" lon="2.15875">
        <ele>516</ele>
        <time>2019-02-10T12:05:51Z</time>
      </trkpt>
      <trkpt lat="43.4786" lon="2.1587">
        <ele>516</ele>
        <time>2019-02-10T12:05:53Z</time>
      </trkpt>
      <trkpt lat="43.47857" lon="2.15867">
        <ele>516</ele>
        <time>2019-02-10T12:05:57Z</time>
      </trkpt>
      <trkpt lat="43.47857" lon="2.15867">
        <ele>516</ele>
        <time>2019-02-10T12:06:04Z</time>
      </trkpt>
      <trkpt lat="43.47856" lon="2.15865">
        <ele>516</ele>
        <time>2019-02-10T12:06:08Z</time>
      </trkpt>
      <trkpt lat="43.47856" lon="2.15865">
        <ele>516</ele>
        <time>2019-02-10T12:06:09Z</time>
      </trkpt>
      <trkpt lat="43.47856" lon="2.15864">
        <ele>516</ele>
        <time>2019-02-10T12:06:15Z</time>
      </trkpt>
      <trkpt lat="43.47856" lon="2.15863">
        <ele>516</ele>
        <time>2019-02-10T12:06:17Z</time>
      </trkpt>
      <trkpt lat="43.47856" lon="2.15862">
        <ele>516</ele>
        <time>2019-02-10T12:06:22Z</time>
      </trkpt>
      <trkpt lat="43.47856" lon="2.1586">
        <ele>516</ele>
        <time>2019-02-10T12:06:24Z</time>
      </trkpt>
      <trkpt lat="43.47856" lon="2.1586">
        <ele>516</ele>
        <time>2019-02-10T12:06:25Z</time>
      </trkpt>
      <trkpt lat="43.47857" lon="2.15858">
        <ele>516</ele>
        <time>2019-02-10T12:06:58Z</time>
      </trkpt>
      <trkpt lat="43.47858" lon="2.15855">
        <ele>516</ele>
        <time>2019-02-10T12:06:59Z</time>
      </trkpt>
      <trkpt lat="43.47859" lon="2.1585">
        <ele>516</ele>
        <time>2019-02-10T12:07:00Z</time>
      </trkpt>
      <trkpt lat="43.47861" lon="2.1584">
        <ele>515</ele>
        <time>2019-02-10T12:07:02Z</time>
      </trkpt>
      <trkpt lat="43.47864" lon="2.15824">
        <ele>513</ele>
        <time>2019-02-10T12:07:05Z</time>
      </trkpt>
      <trkpt lat="43.47866" lon="2.15819">
        <ele>512</ele>
        <time>2019-02-10T12:07:06Z</time>
      </trkpt>
      <trkpt lat="43.47868" lon="2.15815">
        <ele>512</ele>
        <time>2019-02-10T12:07:07Z</time>
      </trkpt>
      <trkpt lat="43.47871" lon="2.15812">
        <ele>510</ele>
        <time>2019-02-10T12:07:08Z</time>
      </trkpt>
      <trkpt lat="43.47873" lon="2.1581">
        <ele>509</ele>
        <time>2019-02-10T12:07:09Z</time>
      </trkpt>
      <trkpt lat="43.47875" lon="2.15809">
        <ele>508</ele>
        <time>2019-02-10T12:07:10Z</time>
      </trkpt>
      <trkpt lat="43.47876" lon="2.15807">
        <ele>507</ele>
        <time>2019-02-10T12:07:12Z</time>
      </trkpt>
      <trkpt lat="43.47876" lon="2.15807">
        <ele>505</ele>
        <time>2019-02-10T12:07:14Z</time>
      </trkpt>
      <trkpt lat="43.47878" lon="2.15807">
        <ele>505</ele>
        <time>2019-02-10T12:08:13Z</time>
      </trkpt>
      <trkpt lat="43.47878" lon="2.15807">
        <ele>505</ele>
        <time>2019-02-10T12:08:14Z</time>
      </trkpt>
      <trkpt lat="43.47881" lon="2.15809">
        <ele>505</ele>
        <time>2019-02-10T12:08:20Z</time>
      </trkpt>
      <trkpt lat="43.47882" lon="2.1581">
        <ele>504</ele>
        <time>2019-02-10T12:08:22Z</time>
      </trkpt>
      <trkpt lat="43.47882" lon="2.1581">
        <ele>503</ele>
        <time>2019-02-10T12:08:24Z</time>
      </trkpt>
      <trkpt lat="43.47885" lon="2.15812">
        <ele>503</ele>
        <time>2019-02-10T12:08:26Z</time>
      </trkpt>
      <trkpt lat="43.47895" lon="2.15819">
        <ele>501</ele>
        <time>2019-02-10T12:08:30Z</time>
      </trkpt>
      <trkpt lat="43.47896" lon="2.15821">
        <ele>501</ele>
        <time>2019-02-10T12:08:31Z</time>
      </trkpt>
      <trkpt lat="43.47898" lon="2.15824">
        <ele>501</ele>
        <time>2019-02-10T12:08:34Z</time>
      </trkpt>
      <trkpt lat="43.47901" lon="2.15827">
        <ele>500</ele>
        <time>2019-02-10T12:08:37Z</time>
      </trkpt>
      <trkpt lat="43.47903" lon="2.15829">
        <ele>500</ele>
        <time>2019-02-10T12:08:38Z</time>
      </trkpt>
      <trkpt lat="43.4791" lon="2.15834">
        <ele>500</ele>
        <time>2019-02-10T12:08:40Z</time>
      </trkpt>
      <trkpt lat="43.47914" lon="2.15836">
        <ele>499</ele>
        <time>2019-02-10T12:08:41Z</time>
      </trkpt>
      <trkpt lat="43.47917" lon="2.15839">
        <ele>498</ele>
        <time>2019-02-10T12:08:42Z</time>
      </trkpt>
      <trkpt lat="43.47921" lon="2.15841">
        <ele>498</ele>
        <time>2019-02-10T12:08:43Z</time>
      </trkpt>
      <trkpt lat="43.47924" lon="2.15844">
        <ele>497</ele>
        <time>2019-02-10T12:08:44Z</time>
      </trkpt>
      <trkpt lat="43.47926" lon="2.15847">
        <ele>496</ele>
        <time>2019-02-10T12:08:45Z</time>
      </trkpt>
      <trkpt lat="43.47928" lon="2.15849">
        <ele>495</ele>
        <time>2019-02-10T12:08:46Z</time>
      </trkpt>
      <trkpt lat="43.47932" lon="2.15857">
        <ele>494</ele>
        <time>2019-02-10T12:08:50Z</time>
      </trkpt>
      <trkpt lat="43.47933" lon="2.15858">
        <ele>494</ele>
        <time>2019-02-10T12:08:52Z</time>
      </trkpt>
      <trkpt lat="43.47934" lon="2.15861">
        <ele>494</ele>
        <time>2019-02-10T12:09:20Z</time>
      </trkpt>
      <trkpt lat="43.47935" lon="2.15864">
        <ele>494</ele>
        <time>2019-02-10T12:09:21Z</time>
      </trkpt>
      <trkpt lat="43.4794" lon="2.15878">
        <ele>493</ele>
        <time>2019-02-10T12:09:24Z</time>
      </trkpt>
      <trkpt lat="43.47942" lon="2.15884">
        <ele>492</ele>
        <time>2019-02-10T12:09:25Z</time>
      </trkpt>
      <trkpt lat="43.47948" lon="2.15896">
        <ele>491</ele>
        <time>2019-02-10T12:09:27Z</time>
      </trkpt>
      <trkpt lat="43.47952" lon="2.15903">
        <ele>490</ele>
        <time>2019-02-10T12:09:28Z</time>
      </trkpt>
      <trkpt lat="43.47956" lon="2.15909">
        <ele>489</ele>
        <time>2019-02-10T12:09:29Z</time>
      </trkpt>
      <trkpt lat="43.47961" lon="2.15916">
        <ele>487</ele>
        <time>2019-02-10T12:09:30Z</time>
      </trkpt>
      <trkpt lat="43.47966" lon="2.15923">
        <ele>486</ele>
        <time>2019-02-10T12:09:31Z</time>
      </trkpt>
      <trkpt lat="43.4797" lon="2.15928">
        <ele>485</ele>
        <time>2019-02-10T12:09:32Z</time>
      </trkpt>
      <trkpt lat="43.4798" lon="2.15937">
        <ele>484</ele>
        <time>2019-02-10T12:09:34Z</time>
      </trkpt>
      <trkpt lat="43.47989" lon="2.15945">
        <ele>482</ele>
        <time>2019-02-10T12:09:36Z</time>
      </trkpt>
      <trkpt lat="43.47995" lon="2.15947">
        <ele>481</ele>
        <time>2019-02-10T12:09:37Z</time>
      </trkpt>
      <trkpt lat="43.48" lon="2.15948">
        <ele>480</ele>
        <time>2019-02-10T12:09:38Z</time>
      </trkpt>
      <trkpt lat="43.48006" lon="2.15951">
        <ele>479</ele>
        <time>2019-02-10T12:09:40Z</time>
      </trkpt>
      <trkpt lat="43.48012" lon="2.15953">
        <ele>479</ele>
        <time>2019-02-10T12:09:42Z</time>
      </trkpt>
      <trkpt lat="43.48027" lon="2.15958">
        <ele>480</ele>
        <time>2019-02-10T12:09:48Z</time>
      </trkpt>
      <trkpt lat="43.48044" lon="2.15963">
        <ele>479</ele>
        <time>2019-02-10T12:09:54Z</time>
      </trkpt>
      <trkpt lat="43.4807" lon="2.1597">
        <ele>479</ele>
        <time>2019-02-10T12:10:01Z</time>
      </trkpt>
      <trkpt lat="43.48074" lon="2.1597">
        <ele>479</ele>
        <time>2019-02-10T12:10:02Z</time>
      </trkpt>
      <trkpt lat="43.48084" lon="2.15966">
        <ele>478</ele>
        <time>2019-02-10T12:10:04Z</time>
      </trkpt>
      <trkpt lat="43.4809" lon="2.15964">
        <ele>477</ele>
        <time>2019-02-10T12:10:05Z</time>
      </trkpt>
      <trkpt lat="43.48102" lon="2.15959">
        <ele>475</ele>
        <time>2019-02-10T12:10:07Z</time>
      </trkpt>
      <trkpt lat="43.48109" lon="2.15955">
        <ele>473</ele>
        <time>2019-02-10T12:10:08Z</time>
      </trkpt>
      <trkpt lat="43.48117" lon="2.1595">
        <ele>470</ele>
        <time>2019-02-10T12:10:09Z</time>
      </trkpt>
      <trkpt lat="43.48126" lon="2.15944">
        <ele>468</ele>
        <time>2019-02-10T12:10:10Z</time>
      </trkpt>
      <trkpt lat="43.48134" lon="2.15938">
        <ele>466</ele>
        <time>2019-02-10T12:10:11Z</time>
      </trkpt>
      <trkpt lat="43.48142" lon="2.15932">
        <ele>464</ele>
        <time>2019-02-10T12:10:12Z</time>
      </trkpt>
      <trkpt lat="43.48149" lon="2.15927">
        <ele>462</ele>
        <time>2019-02-10T12:10:13Z</time>
      </trkpt>
      <trkpt lat="43.48155" lon="2.15925">
        <ele>461</ele>
        <time>2019-02-10T12:10:14Z</time>
      </trkpt>
      <trkpt lat="43.48166" lon="2.15927">
        <ele>460</ele>
        <time>2019-02-10T12:10:16Z</time>
      </trkpt>
      <trkpt lat="43.4817" lon="2.15932">
        <ele>460</ele>
        <time>2019-02-10T12:10:17Z</time>
      </trkpt>
      <trkpt lat="43.48174" lon="2.15946">
        <ele>459</ele>
        <time>2019-02-10T12:10:19Z</time>
      </trkpt>
      <trkpt lat="43.48175" lon="2.15956">
        <ele>458</ele>
        <time>2019-02-10T12:10:20Z</time>
      </trkpt>
      <trkpt lat="43.48176" lon="2.15968">
        <ele>458</ele>
        <time>2019-02-10T12:10:21Z</time>
      </trkpt>
      <trkpt lat="43.48177" lon="2.1598">
        <ele>457</ele>
        <time>2019-02-10T12:10:22Z</time>
      </trkpt>
      <trkpt lat="43.48177" lon="2.15993">
        <ele>454</ele>
        <time>2019-02-10T12:10:23Z</time>
      </trkpt>
      <trkpt lat="43.48178" lon="2.16006">
        <ele>452</ele>
        <time>2019-02-10T12:10:24Z</time>
      </trkpt>
      <trkpt lat="43.48179" lon="2.16018">
        <ele>449</ele>
        <time>2019-02-10T12:10:25Z</time>
      </trkpt>
      <trkpt lat="43.4818" lon="2.16031">
        <ele>447</ele>
        <time>2019-02-10T12:10:26Z</time>
      </trkpt>
      <trkpt lat="43.48182" lon="2.16042">
        <ele>446</ele>
        <time>2019-02-10T12:10:27Z</time>
      </trkpt>
      <trkpt lat="43.48185" lon="2.16054">
        <ele>444</ele>
        <time>2019-02-10T12:10:28Z</time>
      </trkpt>
      <trkpt lat="43.48189" lon="2.16065">
        <ele>442</ele>
        <time>2019-02-10T12:10:29Z</time>
      </trkpt>
      <trkpt lat="43.48198" lon="2.16084">
        <ele>440</ele>
        <time>2019-02-10T12:10:31Z</time>
      </trkpt>
      <trkpt lat="43.48204" lon="2.1609">
        <ele>439</ele>
        <time>2019-02-10T12:10:32Z</time>
      </trkpt>
      <trkpt lat="43.48211" lon="2.16092">
        <ele>438</ele>
        <time>2019-02-10T12:10:33Z</time>
      </trkpt>
      <trkpt lat="43.48218" lon="2.16091">
        <ele>437</ele>
        <time>2019-02-10T12:10:34Z</time>
      </trkpt>
      <trkpt lat="43.48224" lon="2.16087">
        <ele>436</ele>
        <time>2019-02-10T12:10:35Z</time>
      </trkpt>
      <trkpt lat="43.4823" lon="2.16081">
        <ele>434</ele>
        <time>2019-02-10T12:10:36Z</time>
      </trkpt>
      <trkpt lat="43.48234" lon="2.16075">
        <ele>433</ele>
        <time>2019-02-10T12:10:37Z</time>
      </trkpt>
      <trkpt lat="43.48239" lon="2.16061">
        <ele>432</ele>
        <time>2019-02-10T12:10:39Z</time>
      </trkpt>
      <trkpt lat="43.48242" lon="2.16055">
        <ele>431</ele>
        <time>2019-02-10T12:10:40Z</time>
      </trkpt>
      <trkpt lat="43.48246" lon="2.1605">
        <ele>429</ele>
        <time>2019-02-10T12:10:41Z</time>
      </trkpt>
      <trkpt lat="43.48259" lon="2.16042">
        <ele>428</ele>
        <time>2019-02-10T12:10:43Z</time>
      </trkpt>
      <trkpt lat="43.48267" lon="2.16041">
        <ele>427</ele>
        <time>2019-02-10T12:10:44Z</time>
      </trkpt>
      <trkpt lat="43.48275" lon="2.1604">
        <ele>425</ele>
        <time>2019-02-10T12:10:45Z</time>
      </trkpt>
      <trkpt lat="43.48284" lon="2.16039">
        <ele>424</ele>
        <time>2019-02-10T12:10:46Z</time>
      </trkpt>
      <trkpt lat="43.48292" lon="2.16037">
        <ele>422</ele>
        <time>2019-02-10T12:10:47Z</time>
      </trkpt>
      <trkpt lat="43.48301" lon="2.16034">
        <ele>420</ele>
        <time>2019-02-10T12:10:48Z</time>
      </trkpt>
      <trkpt lat="43.48309" lon="2.16031">
        <ele>418</ele>
        <time>2019-02-10T12:10:49Z</time>
      </trkpt>
      <trkpt lat="43.48317" lon="2.16026">
        <ele>417</ele>
        <time>2019-02-10T12:10:50Z</time>
      </trkpt>
      <trkpt lat="43.48325" lon="2.16022">
        <ele>416</ele>
        <time>2019-02-10T12:10:51Z</time>
      </trkpt>
      <trkpt lat="43.48332" lon="2.16018">
        <ele>415</ele>
        <time>2019-02-10T12:10:52Z</time>
      </trkpt>
      <trkpt lat="43.48347" lon="2.16009">
        <ele>413</ele>
        <time>2019-02-10T12:10:54Z</time>
      </trkpt>
      <trkpt lat="43.48355" lon="2.16005">
        <ele>413</ele>
        <time>2019-02-10T12:10:55Z</time>
      </trkpt>
      <trkpt lat="43.48364" lon="2.16003">
        <ele>412</ele>
        <time>2019-02-10T12:10:56Z</time>
      </trkpt>
      <trkpt lat="43.48373" lon="2.16001">
        <ele>410</ele>
        <time>2019-02-10T12:10:57Z</time>
      </trkpt>
      <trkpt lat="43.48382" lon="2.15999">
        <ele>409</ele>
        <time>2019-02-10T12:10:58Z</time>
      </trkpt>
      <trkpt lat="43.48392" lon="2.15996">
        <ele>406</ele>
        <time>2019-02-10T12:10:59Z</time>
      </trkpt>
      <trkpt lat="43.48401" lon="2.15993">
        <ele>405</ele>
        <time>2019-02-10T12:11:00Z</time>
      </trkpt>
      <trkpt lat="43.4841" lon="2.15989">
        <ele>403</ele>
        <time>2019-02-10T12:11:01Z</time>
      </trkpt>
      <trkpt lat="43.48419" lon="2.15987">
        <ele>402</ele>
        <time>2019-02-10T12:11:02Z</time>
      </trkpt>
      <trkpt lat="43.48428" lon="2.15985">
        <ele>402</ele>
        <time>2019-02-10T12:11:03Z</time>
      </trkpt>
      <trkpt lat="43.48436" lon="2.15984">
        <ele>400</ele>
        <time>2019-02-10T12:11:04Z</time>
      </trkpt>
      <trkpt lat="43.48444" lon="2.15984">
        <ele>399</ele>
        <time>2019-02-10T12:11:05Z</time>
      </trkpt>
      <trkpt lat="43.48452" lon="2.15984">
        <ele>397</ele>
        <time>2019-02-10T12:11:06Z</time>
      </trkpt>
      <trkpt lat="43.4846" lon="2.15983">
        <ele>396</ele>
        <time>2019-02-10T12:11:07Z</time>
      </trkpt>
      <trkpt lat="43.48468" lon="2.15981">
        <ele>395</ele>
        <time>2019-02-10T12:11:08Z</time>
      </trkpt>
      <trkpt lat="43.48486" lon="2.15977">
        <ele>393</ele>
        <time>2019-02-10T12:11:10Z</time>
      </trkpt>
      <trkpt lat="43.48496" lon="2.15975">
        <ele>392</ele>
        <time>2019-02-10T12:11:11Z</time>
      </trkpt>
      <trkpt lat="43.48504" lon="2.15975">
        <ele>391</ele>
        <time>2019-02-10T12:11:12Z</time>
      </trkpt>
      <trkpt lat="43.48513" lon="2.15976">
        <ele>389</ele>
        <time>2019-02-10T12:11:13Z</time>
      </trkpt>
      <trkpt lat="43.48521" lon="2.15979">
        <ele>388</ele>
        <time>2019-02-10T12:11:14Z</time>
      </trkpt>
      <trkpt lat="43.4853" lon="2.15981">
        <ele>387</ele>
        <time>2019-02-10T12:11:15Z</time>
      </trkpt>
      <trkpt lat="43.48538" lon="2.15985">
        <ele>386</ele>
        <time>2019-02-10T12:11:16Z</time>
      </trkpt>
      <trkpt lat="43.48546" lon="2.15989">
        <ele>385</ele>
        <time>2019-02-10T12:11:17Z</time>
      </trkpt>
      <trkpt lat="43.48554" lon="2.15994">
        <ele>383</ele>
        <time>2019-02-10T12:11:18Z</time>
      </trkpt>
      <trkpt lat="43.48561" lon="2.15999">
        <ele>382</ele>
        <time>2019-02-10T12:11:19Z</time>
      </trkpt>
      <trkpt lat="43.48568" lon="2.16004">
        <ele>381</ele>
        <time>2019-02-10T12:11:20Z</time>
      </trkpt>
      <trkpt lat="43.48575" lon="2.1601">
        <ele>380</ele>
        <time>2019-02-10T12:11:21Z</time>
      </trkpt>
      <trkpt lat="43.48588" lon="2.16019">
        <ele>378</ele>
        <time>2019-02-10T12:11:23Z</time>
      </trkpt>
      <trkpt lat="43.48593" lon="2.16025">
        <ele>377</ele>
        <time>2019-02-10T12:11:24Z</time>
      </trkpt>
      <trkpt lat="43.48598" lon="2.1603">
        <ele>377</ele>
        <time>2019-02-10T12:11:25Z</time>
      </trkpt>
      <trkpt lat="43.48609" lon="2.1604">
        <ele>375</ele>
        <time>2019-02-10T12:11:27Z</time>
      </trkpt>
      <trkpt lat="43.48613" lon="2.16046">
        <ele>374</ele>
        <time>2019-02-10T12:11:28Z</time>
      </trkpt>
      <trkpt lat="43.48619" lon="2.16051">
        <ele>373</ele>
        <time>2019-02-10T12:11:29Z</time>
      </trkpt>
      <trkpt lat="43.48624" lon="2.16056">
        <ele>372</ele>
        <time>2019-02-10T12:11:30Z</time>
      </trkpt>
      <trkpt lat="43.4863" lon="2.1606">
        <ele>370</ele>
        <time>2019-02-10T12:11:31Z</time>
      </trkpt>
      <trkpt lat="43.48637" lon="2.16062">
        <ele>369</ele>
        <time>2019-02-10T12:11:32Z</time>
      </trkpt>
      <trkpt lat="43.48645" lon="2.16065">
        <ele>368</ele>
        <time>2019-02-10T12:11:33Z</time>
      </trkpt>
      <trkpt lat="43.48651" lon="2.16069">
        <ele>367</ele>
        <time>2019-02-10T12:11:34Z</time>
      </trkpt>
      <trkpt lat="43.48657" lon="2.16072">
        <ele>365</ele>
        <time>2019-02-10T12:11:35Z</time>
      </trkpt>
      <trkpt lat="43.48663" lon="2.16074">
        <ele>364</ele>
        <time>2019-02-10T12:11:36Z</time>
      </trkpt>
      <trkpt lat="43.48671" lon="2.16076">
        <ele>363</ele>
        <time>2019-02-10T12:11:37Z</time>
      </trkpt>
      <trkpt lat="43.48679" lon="2.16078">
        <ele>362</ele>
        <time>2019-02-10T12:11:38Z</time>
      </trkpt>
      <trkpt lat="43.48695" lon="2.1608">
        <ele>360</ele>
        <time>2019-02-10T12:11:40Z</time>
      </trkpt>
      <trkpt lat="43.48706" lon="2.16082">
        <ele>359</ele>
        <time>2019-02-10T12:11:42Z</time>
      </trkpt>
      <trkpt lat="43.48709" lon="2.16083">
        <ele>358</ele>
        <time>2019-02-10T12:11:44Z</time>
      </trkpt>
      <trkpt lat="43.4871" lon="2.16083">
        <ele>358</ele>
        <time>2019-02-10T12:11:45Z</time>
      </trkpt>
      <trkpt lat="43.48718" lon="2.16089">
        <ele>358</ele>
        <time>2019-02-10T12:12:30Z</time>
      </trkpt>
      <trkpt lat="43.48719" lon="2.1609">
        <ele>358</ele>
        <time>2019-02-10T12:12:31Z</time>
      </trkpt>
      <trkpt lat="43.48721" lon="2.16092">
        <ele>358</ele>
        <time>2019-02-10T12:12:32Z</time>
      </trkpt>
      <trkpt lat="43.48729" lon="2.16095">
        <ele>358</ele>
        <time>2019-02-10T12:12:34Z</time>
      </trkpt>
      <trkpt lat="43.48733" lon="2.16097">
        <ele>357</ele>
        <time>2019-02-10T12:12:35Z</time>
      </trkpt>
      <trkpt lat="43.48738" lon="2.16101">
        <ele>356</ele>
        <time>2019-02-10T12:12:36Z</time>
      </trkpt>
      <trkpt lat="43.48748" lon="2.16105">
        <ele>354</ele>
        <time>2019-02-10T12:12:38Z</time>
      </trkpt>
      <trkpt lat="43.48754" lon="2.16105">
        <ele>353</ele>
        <time>2019-02-10T12:12:39Z</time>
      </trkpt>
      <trkpt lat="43.48759" lon="2.16105">
        <ele>352</ele>
        <time>2019-02-10T12:12:40Z</time>
      </trkpt>
      <trkpt lat="43.48765" lon="2.16105">
        <ele>351</ele>
        <time>2019-02-10T12:12:41Z</time>
      </trkpt>
      <trkpt lat="43.48772" lon="2.16104">
        <ele>350</ele>
        <time>2019-02-10T12:12:42Z</time>
      </trkpt>
      <trkpt lat="43.48778" lon="2.16103">
        <ele>349</ele>
        <time>2019-02-10T12:12:43Z</time>
      </trkpt>
      <trkpt lat="43.48794" lon="2.16098">
        <ele>349</ele>
        <time>2019-02-10T12:12:46Z</time>
      </trkpt>
      <trkpt lat="43.488" lon="2.16096">
        <ele>348</ele>
        <time>2019-02-10T12:12:48Z</time>
      </trkpt>
      <trkpt lat="43.48805" lon="2.16093">
        <ele>347</ele>
        <time>2019-02-10T12:12:50Z</time>
      </trkpt>
      <trkpt lat="43.4881" lon="2.16089">
        <ele>346</ele>
        <time>2019-02-10T12:12:52Z</time>
      </trkpt>
      <trkpt lat="43.48815" lon="2.16084">
        <ele>344</ele>
        <time>2019-02-10T12:12:54Z</time>
      </trkpt>
      <trkpt lat="43.48818" lon="2.16081">
        <ele>344</ele>
        <time>2019-02-10T12:12:55Z</time>
      </trkpt>
      <trkpt lat="43.4882" lon="2.16078">
        <ele>343</ele>
        <time>2019-02-10T12:12:56Z</time>
      </trkpt>
      <trkpt lat="43.48824" lon="2.16071">
        <ele>341</ele>
        <time>2019-02-10T12:12:58Z</time>
      </trkpt>
      <trkpt lat="43.48825" lon="2.16066">
        <ele>340</ele>
        <time>2019-02-10T12:12:59Z</time>
      </trkpt>
      <trkpt lat="43.48825" lon="2.16061">
        <ele>339</ele>
        <time>2019-02-10T12:13:00Z</time>
      </trkpt>
      <trkpt lat="43.48826" lon="2.16053">
        <ele>338</ele>
        <time>2019-02-10T12:13:02Z</time>
      </trkpt>
      <trkpt lat="43.48827" lon="2.16048">
        <ele>338</ele>
        <time>2019-02-10T12:13:03Z</time>
      </trkpt>
      <trkpt lat="43.48828" lon="2.16042">
        <ele>337</ele>
        <time>2019-02-10T12:13:04Z</time>
      </trkpt>
      <trkpt lat="43.48832" lon="2.16033">
        <ele>335</ele>
        <time>2019-02-10T12:13:06Z</time>
      </trkpt>
      <trkpt lat="43.48836" lon="2.1603">
        <ele>334</ele>
        <time>2019-02-10T12:13:07Z</time>
      </trkpt>
      <trkpt lat="43.48838" lon="2.16026">
        <ele>333</ele>
        <time>2019-02-10T12:13:08Z</time>
      </trkpt>
      <trkpt lat="43.48842" lon="2.1602">
        <ele>331</ele>
        <time>2019-02-10T12:13:10Z</time>
      </trkpt>
      <trkpt lat="43.48844" lon="2.16015">
        <ele>329</ele>
        <time>2019-02-10T12:13:11Z</time>
      </trkpt>
      <trkpt lat="43.48846" lon="2.16011">
        <ele>328</ele>
        <time>2019-02-10T12:13:12Z</time>
      </trkpt>
      <trkpt lat="43.4885" lon="2.16001">
        <ele>326</ele>
        <time>2019-02-10T12:13:14Z</time>
      </trkpt>
      <trkpt lat="43.48852" lon="2.15995">
        <ele>326</ele>
        <time>2019-02-10T12:13:15Z</time>
      </trkpt>
      <trkpt lat="43.48854" lon="2.15991">
        <ele>325</ele>
        <time>2019-02-10T12:13:16Z</time>
      </trkpt>
      <trkpt lat="43.48856" lon="2.15987">
        <ele>324</ele>
        <time>2019-02-10T12:13:17Z</time>
      </trkpt>
      <trkpt lat="43.48859" lon="2.15985">
        <ele>323</ele>
        <time>2019-02-10T12:13:18Z</time>
      </trkpt>
      <trkpt lat="43.48861" lon="2.15981">
        <ele>322</ele>
        <time>2019-02-10T12:13:19Z</time>
      </trkpt>
      <trkpt lat="43.48864" lon="2.15977">
        <ele>321</ele>
        <time>2019-02-10T12:13:20Z</time>
      </trkpt>
      <trkpt lat="43.48867" lon="2.15973">
        <ele>319</ele>
        <time>2019-02-10T12:13:21Z</time>
      </trkpt>
      <trkpt lat="43.48869" lon="2.15969">
        <ele>318</ele>
        <time>2019-02-10T12:13:22Z</time>
      </trkpt>
      <trkpt lat="43.48871" lon="2.15965">
        <ele>317</ele>
        <time>2019-02-10T12:13:23Z</time>
      </trkpt>
      <trkpt lat="43.48874" lon="2.1596">
        <ele>317</ele>
        <time>2019-02-10T12:13:24Z</time>
      </trkpt>
      <trkpt lat="43.48879" lon="2.15952">
        <ele>316</ele>
        <time>2019-02-10T12:13:26Z</time>
      </trkpt>
      <trkpt lat="43.48885" lon="2.15944">
        <ele>315</ele>
        <time>2019-02-10T12:13:28Z</time>
      </trkpt>
      <trkpt lat="43.48887" lon="2.15941">
        <ele>314</ele>
        <time>2019-02-10T12:13:29Z</time>
      </trkpt>
      <trkpt lat="43.48889" lon="2.15938">
        <ele>313</ele>
        <time>2019-02-10T12:13:30Z</time>
      </trkpt>
      <trkpt lat="43.48894" lon="2.15929">
        <ele>311</ele>
        <time>2019-02-10T12:13:32Z</time>
      </trkpt>
      <trkpt lat="43.48901" lon="2.15925">
        <ele>310</ele>
        <time>2019-02-10T12:13:34Z</time>
      </trkpt>
      <trkpt lat="43.48906" lon="2.1592">
        <ele>308</ele>
        <time>2019-02-10T12:13:36Z</time>
      </trkpt>
      <trkpt lat="43.48908" lon="2.15917">
        <ele>308</ele>
        <time>2019-02-10T12:13:37Z</time>
      </trkpt>
      <trkpt lat="43.4891" lon="2.15915">
        <ele>307</ele>
        <time>2019-02-10T12:13:38Z</time>
      </trkpt>
      <trkpt lat="43.48912" lon="2.15913">
        <ele>307</ele>
        <time>2019-02-10T12:13:39Z</time>
      </trkpt>
      <trkpt lat="43.48916" lon="2.15909">
        <ele>307</ele>
        <time>2019-02-10T12:13:41Z</time>
      </trkpt>
      <trkpt lat="43.48919" lon="2.15905">
        <ele>306</ele>
        <time>2019-02-10T12:13:43Z</time>
      </trkpt>
      <trkpt lat="43.48919" lon="2.15901">
        <ele>306</ele>
        <time>2019-02-10T12:13:45Z</time>
      </trkpt>
      <trkpt lat="43.48918" lon="2.15899">
        <ele>305</ele>
        <time>2019-02-10T12:13:48Z</time>
      </trkpt>
      <trkpt lat="43.48918" lon="2.15894">
        <ele>304</ele>
        <time>2019-02-10T12:13:54Z</time>
      </trkpt>
      <trkpt lat="43.48917" lon="2.15892">
        <ele>304</ele>
        <time>2019-02-10T12:13:55Z</time>
      </trkpt>
      <trkpt lat="43.48914" lon="2.15889">
        <ele>305</ele>
        <time>2019-02-10T12:13:57Z</time>
      </trkpt>
      <trkpt lat="43.48911" lon="2.15886">
        <ele>305</ele>
        <time>2019-02-10T12:13:59Z</time>
      </trkpt>
      <trkpt lat="43.48908" lon="2.15883">
        <ele>305</ele>
        <time>2019-02-10T12:14:01Z</time>
      </trkpt>
      <trkpt lat="43.48905" lon="2.1588">
        <ele>305</ele>
        <time>2019-02-10T12:14:03Z</time>
      </trkpt>
      <trkpt lat="43.48902" lon="2.15878">
        <ele>305</ele>
        <time>2019-02-10T12:14:05Z</time>
      </trkpt>
      <trkpt lat="43.48898" lon="2.15874">
        <ele>306</ele>
        <time>2019-02-10T12:14:07Z</time>
      </trkpt>
      <trkpt lat="43.48892" lon="2.1587">
        <ele>306</ele>
        <time>2019-02-10T12:14:09Z</time>
      </trkpt>
      <trkpt lat="43.48886" lon="2.15867">
        <ele>306</ele>
        <time>2019-02-10T12:14:11Z</time>
      </trkpt>
      <trkpt lat="43.48876" lon="2.15858">
        <ele>306</ele>
        <time>2019-02-10T12:14:14Z</time>
      </trkpt>
      <trkpt lat="43.4886" lon="2.15846">
        <ele>305</ele>
        <time>2019-02-10T12:14:18Z</time>
      </trkpt>
      <trkpt lat="43.48848" lon="2.15834">
        <ele>305</ele>
        <time>2019-02-10T12:14:21Z</time>
      </trkpt>
      <trkpt lat="43.48839" lon="2.15827">
        <ele>304</ele>
        <time>2019-02-10T12:14:23Z</time>
      </trkpt>
      <trkpt lat="43.48821" lon="2.15812">
        <ele>304</ele>
        <time>2019-02-10T12:14:27Z</time>
      </trkpt>
      <trkpt lat="43.48816" lon="2.15809">
        <ele>303</ele>
        <time>2019-02-10T12:14:28Z</time>
      </trkpt>
      <trkpt lat="43.48793" lon="2.15796">
        <ele>302</ele>
        <time>2019-02-10T12:14:32Z</time>
      </trkpt>
      <trkpt lat="43.48786" lon="2.15794">
        <ele>302</ele>
        <time>2019-02-10T12:14:33Z</time>
      </trkpt>
      <trkpt lat="43.48773" lon="2.15789">
        <ele>301</ele>
        <time>2019-02-10T12:14:35Z</time>
      </trkpt>
      <trkpt lat="43.4874" lon="2.15777">
        <ele>300</ele>
        <time>2019-02-10T12:14:40Z</time>
      </trkpt>
      <trkpt lat="43.48726" lon="2.1577">
        <ele>299</ele>
        <time>2019-02-10T12:14:42Z</time>
      </trkpt>
      <trkpt lat="43.4872" lon="2.15764">
        <ele>298</ele>
        <time>2019-02-10T12:14:43Z</time>
      </trkpt>
      <trkpt lat="43.48716" lon="2.15756">
        <ele>298</ele>
        <time>2019-02-10T12:14:44Z</time>
      </trkpt>
      <trkpt lat="43.48713" lon="2.15729">
        <ele>298</ele>
        <time>2019-02-10T12:14:47Z</time>
      </trkpt>
      <trkpt lat="43.48713" lon="2.15684">
        <ele>299</ele>
        <time>2019-02-10T12:14:53Z</time>
      </trkpt>
      <trkpt lat="43.48712" lon="2.15665">
        <ele>300</ele>
        <time>2019-02-10T12:14:56Z</time>
      </trkpt>
      <trkpt lat="43.4871" lon="2.15654">
        <ele>300</ele>
        <time>2019-02-10T12:14:58Z</time>
      </trkpt>
      <trkpt lat="43.48709" lon="2.15649">
        <ele>300</ele>
        <time>2019-02-10T12:14:59Z</time>
      </trkpt>
      <trkpt lat="43.48708" lon="2.15644">
        <ele>300</ele>
        <time>2019-02-10T12:15:00Z</time>
      </trkpt>
      <trkpt lat="43.48705" lon="2.15633">
        <ele>300</ele>
        <time>2019-02-10T12:15:02Z</time>
      </trkpt>
      <trkpt lat="43.48702" lon="2.15622">
        <ele>300</ele>
        <time>2019-02-10T12:15:04Z</time>
      </trkpt>
      <trkpt lat="43.48701" lon="2.15597">
        <ele>300</ele>
        <time>2019-02-10T12:15:10Z</time>
      </trkpt>
      <trkpt lat="43.48703" lon="2.15596">
        <ele>300</ele>
        <time>2019-02-10T12:15:13Z</time>
      </trkpt>
      <trkpt lat="43.48707" lon="2.15598">
        <ele>299</ele>
        <time>2019-02-10T12:15:22Z</time>
      </trkpt>
      <trkpt lat="43.48711" lon="2.15605">
        <ele>299</ele>
        <time>2019-02-10T12:15:24Z</time>
      </trkpt>
      <trkpt lat="43.48715" lon="2.15607">
        <ele>298</ele>
        <time>2019-02-10T12:15:25Z</time>
      </trkpt>
      <trkpt lat="43.4872" lon="2.15606">
        <ele>297</ele>
        <time>2019-02-10T12:15:26Z</time>
      </trkpt>
      <trkpt lat="43.48726" lon="2.15604">
        <ele>296</ele>
        <time>2019-02-10T12:15:27Z</time>
      </trkpt>
      <trkpt lat="43.48733" lon="2.15601">
        <ele>295</ele>
        <time>2019-02-10T12:15:28Z</time>
      </trkpt>
      <trkpt lat="43.4874" lon="2.15597">
        <ele>294</ele>
        <time>2019-02-10T12:15:29Z</time>
      </trkpt>
      <trkpt lat="43.48748" lon="2.15592">
        <ele>291</ele>
        <time>2019-02-10T12:15:30Z</time>
      </trkpt>
      <trkpt lat="43.48756" lon="2.15588">
        <ele>290</ele>
        <time>2019-02-10T12:15:31Z</time>
      </trkpt>
      <trkpt lat="43.48772" lon="2.15584">
        <ele>289</ele>
        <time>2019-02-10T12:15:33Z</time>
      </trkpt>
      <trkpt lat="43.4878" lon="2.15582">
        <ele>289</ele>
        <time>2019-02-10T12:15:34Z</time>
      </trkpt>
      <trkpt lat="43.48788" lon="2.15579">
        <ele>289</ele>
        <time>2019-02-10T12:15:35Z</time>
      </trkpt>
      <trkpt lat="43.48802" lon="2.15575">
        <ele>289</ele>
        <time>2019-02-10T12:15:37Z</time>
      </trkpt>
      <trkpt lat="43.48816" lon="2.15572">
        <ele>290</ele>
        <time>2019-02-10T12:15:40Z</time>
      </trkpt>
      <trkpt lat="43.48819" lon="2.15572">
        <ele>290</ele>
        <time>2019-02-10T12:15:41Z</time>
      </trkpt>
      <trkpt lat="43.4883" lon="2.15569">
        <ele>291</ele>
        <time>2019-02-10T12:15:44Z</time>
      </trkpt>
      <trkpt lat="43.48835" lon="2.15566">
        <ele>291</ele>
        <time>2019-02-10T12:15:45Z</time>
      </trkpt>
      <trkpt lat="43.48847" lon="2.15558">
        <ele>289</ele>
        <time>2019-02-10T12:15:47Z</time>
      </trkpt>
      <trkpt lat="43.48854" lon="2.15552">
        <ele>288</ele>
        <time>2019-02-10T12:15:48Z</time>
      </trkpt>
      <trkpt lat="43.48861" lon="2.15547">
        <ele>287</ele>
        <time>2019-02-10T12:15:49Z</time>
      </trkpt>
      <trkpt lat="43.48869" lon="2.15541">
        <ele>285</ele>
        <time>2019-02-10T12:15:50Z</time>
      </trkpt>
      <trkpt lat="43.48892" lon="2.15523">
        <ele>284</ele>
        <time>2019-02-10T12:15:53Z</time>
      </trkpt>
      <trkpt lat="43.489" lon="2.15517">
        <ele>283</ele>
        <time>2019-02-10T12:15:54Z</time>
      </trkpt>
      <trkpt lat="43.48908" lon="2.1551">
        <ele>283</ele>
        <time>2019-02-10T12:15:55Z</time>
      </trkpt>
      <trkpt lat="43.48926" lon="2.15497">
        <ele>281</ele>
        <time>2019-02-10T12:15:57Z</time>
      </trkpt>
      <trkpt lat="43.48944" lon="2.15485">
        <ele>279</ele>
        <time>2019-02-10T12:15:59Z</time>
      </trkpt>
      <trkpt lat="43.48959" lon="2.15473">
        <ele>277</ele>
        <time>2019-02-10T12:16:01Z</time>
      </trkpt>
      <trkpt lat="43.48967" lon="2.15467">
        <ele>276</ele>
        <time>2019-02-10T12:16:02Z</time>
      </trkpt>
      <trkpt lat="43.48976" lon="2.15462">
        <ele>275</ele>
        <time>2019-02-10T12:16:03Z</time>
      </trkpt>
      <trkpt lat="43.48984" lon="2.15457">
        <ele>274</ele>
        <time>2019-02-10T12:16:04Z</time>
      </trkpt>
      <trkpt lat="43.48999" lon="2.15447">
        <ele>272</ele>
        <time>2019-02-10T12:16:06Z</time>
      </trkpt>
      <trkpt lat="43.49013" lon="2.15437">
        <ele>272</ele>
        <time>2019-02-10T12:16:08Z</time>
      </trkpt>
      <trkpt lat="43.4902" lon="2.15431">
        <ele>272</ele>
        <time>2019-02-10T12:16:09Z</time>
      </trkpt>
      <trkpt lat="43.49033" lon="2.15422">
        <ele>271</ele>
        <time>2019-02-10T12:16:11Z</time>
      </trkpt>
      <trkpt lat="43.49037" lon="2.1542">
        <ele>271</ele>
        <time>2019-02-10T12:16:12Z</time>
      </trkpt>
      <trkpt lat="43.49038" lon="2.15418">
        <ele>271</ele>
        <time>2019-02-10T12:16:13Z</time>
      </trkpt>
      <trkpt lat="43.49038" lon="2.15414">
        <ele>271</ele>
        <time>2019-02-10T12:16:15Z</time>
      </trkpt>
      <trkpt lat="43.49036" lon="2.15405">
        <ele>271</ele>
        <time>2019-02-10T12:16:19Z</time>
      </trkpt>
      <trkpt lat="43.49036" lon="2.15402">
        <ele>271</ele>
        <time>2019-02-10T12:16:20Z</time>
      </trkpt>
      <trkpt lat="43.49035" lon="2.15395">
        <ele>270</ele>
        <time>2019-02-10T12:16:23Z</time>
      </trkpt>
      <trkpt lat="43.49034" lon="2.15389">
        <ele>270</ele>
        <time>2019-02-10T12:16:25Z</time>
      </trkpt>
      <trkpt lat="43.49034" lon="2.15386">
        <ele>270</ele>
        <time>2019-02-10T12:16:26Z</time>
      </trkpt>
      <trkpt lat="43.49031" lon="2.15379">
        <ele>269</ele>
        <time>2019-02-10T12:16:29Z</time>
      </trkpt>
      <trkpt lat="43.49031" lon="2.15376">
        <ele>269</ele>
        <time>2019-02-10T12:16:30Z</time>
      </trkpt>
      <trkpt lat="43.49031" lon="2.15374">
        <ele>269</ele>
        <time>2019-02-10T12:16:31Z</time>
      </trkpt>
      <trkpt lat="43.4903" lon="2.15366">
        <ele>268</ele>
        <time>2019-02-10T12:16:34Z</time>
      </trkpt>
      <trkpt lat="43.49029" lon="2.1536">
        <ele>267</ele>
        <time>2019-02-10T12:16:36Z</time>
      </trkpt>
      <trkpt lat="43.49029" lon="2.15356">
        <ele>267</ele>
        <time>2019-02-10T12:16:37Z</time>
      </trkpt>
      <trkpt lat="43.4903" lon="2.15349">
        <ele>265</ele>
        <time>2019-02-10T12:16:39Z</time>
      </trkpt>
      <trkpt lat="43.49032" lon="2.15341">
        <ele>264</ele>
        <time>2019-02-10T12:16:41Z</time>
      </trkpt>
      <trkpt lat="43.49033" lon="2.15336">
        <ele>263</ele>
        <time>2019-02-10T12:16:42Z</time>
      </trkpt>
      <trkpt lat="43.49036" lon="2.15329">
        <ele>262</ele>
        <time>2019-02-10T12:16:44Z</time>
      </trkpt>
      <trkpt lat="43.49038" lon="2.15322">
        <ele>260</ele>
        <time>2019-02-10T12:16:46Z</time>
      </trkpt>
      <trkpt lat="43.4904" lon="2.15315">
        <ele>259</ele>
        <time>2019-02-10T12:16:48Z</time>
      </trkpt>
      <trkpt lat="43.49043" lon="2.15308">
        <ele>257</ele>
        <time>2019-02-10T12:16:50Z</time>
      </trkpt>
      <trkpt lat="43.49044" lon="2.15298">
        <ele>256</ele>
        <time>2019-02-10T12:16:52Z</time>
      </trkpt>
      <trkpt lat="43.49045" lon="2.15294">
        <ele>255</ele>
        <time>2019-02-10T12:16:53Z</time>
      </trkpt>
      <trkpt lat="43.49046" lon="2.1529">
        <ele>254</ele>
        <time>2019-02-10T12:16:54Z</time>
      </trkpt>
      <trkpt lat="43.49048" lon="2.15282">
        <ele>253</ele>
        <time>2019-02-10T12:16:56Z</time>
      </trkpt>
      <trkpt lat="43.49049" lon="2.15278">
        <ele>252</ele>
        <time>2019-02-10T12:16:57Z</time>
      </trkpt>
      <trkpt lat="43.4905" lon="2.15274">
        <ele>251</ele>
        <time>2019-02-10T12:16:58Z</time>
      </trkpt>
      <trkpt lat="43.49051" lon="2.15271">
        <ele>250</ele>
        <time>2019-02-10T12:16:59Z</time>
      </trkpt>
      <trkpt lat="43.49051" lon="2.15266">
        <ele>250</ele>
        <time>2019-02-10T12:17:01Z</time>
      </trkpt>
      <trkpt lat="43.49052" lon="2.15262">
        <ele>249</ele>
        <time>2019-02-10T12:17:03Z</time>
      </trkpt>
      <trkpt lat="43.49052" lon="2.15261">
        <ele>249</ele>
        <time>2019-02-10T12:17:04Z</time>
      </trkpt>
      <trkpt lat="43.49052" lon="2.15258">
        <ele>249</ele>
        <time>2019-02-10T12:17:05Z</time>
      </trkpt>
      <trkpt lat="43.49054" lon="2.1525">
        <ele>248</ele>
        <time>2019-02-10T12:17:08Z</time>
      </trkpt>
      <trkpt lat="43.49055" lon="2.15246">
        <ele>248</ele>
        <time>2019-02-10T12:17:09Z</time>
      </trkpt>
      <trkpt lat="43.49056" lon="2.1524">
        <ele>247</ele>
        <time>2019-02-10T12:17:10Z</time>
      </trkpt>
      <trkpt lat="43.49056" lon="2.15225">
        <ele>246</ele>
        <time>2019-02-10T12:17:13Z</time>
      </trkpt>
      <trkpt lat="43.49054" lon="2.15207">
        <ele>245</ele>
        <time>2019-02-10T12:17:16Z</time>
      </trkpt>
      <trkpt lat="43.49052" lon="2.152">
        <ele>244</ele>
        <time>2019-02-10T12:17:17Z</time>
      </trkpt>
      <trkpt lat="43.49051" lon="2.15192">
        <ele>244</ele>
        <time>2019-02-10T12:17:18Z</time>
      </trkpt>
      <trkpt lat="43.4905" lon="2.15184">
        <ele>243</ele>
        <time>2019-02-10T12:17:19Z</time>
      </trkpt>
      <trkpt lat="43.49049" lon="2.15177">
        <ele>242</ele>
        <time>2019-02-10T12:17:20Z</time>
      </trkpt>
      <trkpt lat="43.49048" lon="2.1517">
        <ele>242</ele>
        <time>2019-02-10T12:17:21Z</time>
      </trkpt>
      <trkpt lat="43.49047" lon="2.15164">
        <ele>241</ele>
        <time>2019-02-10T12:17:22Z</time>
      </trkpt>
      <trkpt lat="43.4905" lon="2.15151">
        <ele>240</ele>
        <time>2019-02-10T12:17:25Z</time>
      </trkpt>
      <trkpt lat="43.49068" lon="2.15143">
        <ele>240</ele>
        <time>2019-02-10T12:17:30Z</time>
      </trkpt>
      <trkpt lat="43.49084" lon="2.15135">
        <ele>239</ele>
        <time>2019-02-10T12:17:34Z</time>
      </trkpt>
      <trkpt lat="43.49088" lon="2.15133">
        <ele>239</ele>
        <time>2019-02-10T12:17:35Z</time>
      </trkpt>
      <trkpt lat="43.49103" lon="2.15126">
        <ele>239</ele>
        <time>2019-02-10T12:17:39Z</time>
      </trkpt>
      <trkpt lat="43.49107" lon="2.15125">
        <ele>239</ele>
        <time>2019-02-10T12:17:40Z</time>
      </trkpt>
      <trkpt lat="43.49125" lon="2.15118">
        <ele>238</ele>
        <time>2019-02-10T12:17:44Z</time>
      </trkpt>
      <trkpt lat="43.49134" lon="2.15114">
        <ele>238</ele>
        <time>2019-02-10T12:17:46Z</time>
      </trkpt>
      <trkpt lat="43.49158" lon="2.15103">
        <ele>238</ele>
        <time>2019-02-10T12:17:51Z</time>
      </trkpt>
      <trkpt lat="43.49167" lon="2.15098">
        <ele>238</ele>
        <time>2019-02-10T12:17:53Z</time>
      </trkpt>
      <trkpt lat="43.49182" lon="2.15093">
        <ele>238</ele>
        <time>2019-02-10T12:17:56Z</time>
      </trkpt>
      <trkpt lat="43.49205" lon="2.15089">
        <ele>237</ele>
        <time>2019-02-10T12:18:00Z</time>
      </trkpt>
      <trkpt lat="43.49216" lon="2.15089">
        <ele>237</ele>
        <time>2019-02-10T12:18:02Z</time>
      </trkpt>
      <trkpt lat="43.49254" lon="2.15088">
        <ele>238</ele>
        <time>2019-02-10T12:18:10Z</time>
      </trkpt>
      <trkpt lat="43.49295" lon="2.15086">
        <ele>238</ele>
        <time>2019-02-10T12:18:19Z</time>
      </trkpt>
      <trkpt lat="43.49325" lon="2.15086">
        <ele>237</ele>
        <time>2019-02-10T12:18:25Z</time>
      </trkpt>
      <trkpt lat="43.49335" lon="2.15086">
        <ele>236</ele>
        <time>2019-02-10T12:18:27Z</time>
      </trkpt>
      <trkpt lat="43.49358" lon="2.15088">
        <ele>234</ele>
        <time>2019-02-10T12:18:31Z</time>
      </trkpt>
      <trkpt lat="43.49364" lon="2.1509">
        <ele>234</ele>
        <time>2019-02-10T12:18:32Z</time>
      </trkpt>
      <trkpt lat="43.4937" lon="2.15092">
        <ele>233</ele>
        <time>2019-02-10T12:18:33Z</time>
      </trkpt>
      <trkpt lat="43.49381" lon="2.15098">
        <ele>232</ele>
        <time>2019-02-10T12:18:35Z</time>
      </trkpt>
      <trkpt lat="43.49386" lon="2.15103">
        <ele>231</ele>
        <time>2019-02-10T12:18:36Z</time>
      </trkpt>
      <trkpt lat="43.49391" lon="2.15108">
        <ele>231</ele>
        <time>2019-02-10T12:18:37Z</time>
      </trkpt>
      <trkpt lat="43.49396" lon="2.15113">
        <ele>231</ele>
        <time>2019-02-10T12:18:38Z</time>
      </trkpt>
      <trkpt lat="43.49401" lon="2.15119">
        <ele>231</ele>
        <time>2019-02-10T12:18:39Z</time>
      </trkpt>
      <trkpt lat="43.49405" lon="2.15126">
        <ele>230</ele>
        <time>2019-02-10T12:18:40Z</time>
      </trkpt>
      <trkpt lat="43.49408" lon="2.15133">
        <ele>230</ele>
        <time>2019-02-10T12:18:41Z</time>
      </trkpt>
      <trkpt lat="43.49412" lon="2.15156">
        <ele>229</ele>
        <time>2019-02-10T12:18:44Z</time>
      </trkpt>
      <trkpt lat="43.49413" lon="2.15172">
        <ele>229</ele>
        <time>2019-02-10T12:18:46Z</time>
      </trkpt>
      <trkpt lat="43.49414" lon="2.152">
        <ele>230</ele>
        <time>2019-02-10T12:18:50Z</time>
      </trkpt>
      <trkpt lat="43.49415" lon="2.15205">
        <ele>231</ele>
        <time>2019-02-10T12:18:51Z</time>
      </trkpt>
      <trkpt lat="43.4942" lon="2.15212">
        <ele>231</ele>
        <time>2019-02-10T12:18:53Z</time>
      </trkpt>
      <trkpt lat="43.49427" lon="2.15213">
        <ele>232</ele>
        <time>2019-02-10T12:18:55Z</time>
      </trkpt>
      <trkpt lat="43.49435" lon="2.15211">
        <ele>232</ele>
        <time>2019-02-10T12:18:57Z</time>
      </trkpt>
      <trkpt lat="43.49439" lon="2.1521">
        <ele>232</ele>
        <time>2019-02-10T12:18:58Z</time>
      </trkpt>
      <trkpt lat="43.49455" lon="2.15207">
        <ele>232</ele>
        <time>2019-02-10T12:19:02Z</time>
      </trkpt>
      <trkpt lat="43.49478" lon="2.15204">
        <ele>231</ele>
        <time>2019-02-10T12:19:07Z</time>
      </trkpt>
      <trkpt lat="43.49482" lon="2.15206">
        <ele>231</ele>
        <time>2019-02-10T12:19:08Z</time>
      </trkpt>
      <trkpt lat="43.49496" lon="2.15213">
        <ele>231</ele>
        <time>2019-02-10T12:19:11Z</time>
      </trkpt>
      <trkpt lat="43.495" lon="2.15217">
        <ele>231</ele>
        <time>2019-02-10T12:19:12Z</time>
      </trkpt>
      <trkpt lat="43.49503" lon="2.15221">
        <ele>231</ele>
        <time>2019-02-10T12:19:13Z</time>
      </trkpt>
      <trkpt lat="43.49507" lon="2.15224">
        <ele>231</ele>
        <time>2019-02-10T12:19:14Z</time>
      </trkpt>
      <trkpt lat="43.49516" lon="2.15223">
        <ele>231</ele>
        <time>2019-02-10T12:19:16Z</time>
      </trkpt>
      <trkpt lat="43.49532" lon="2.15217">
        <ele>232</ele>
        <time>2019-02-10T12:19:20Z</time>
      </trkpt>
      <trkpt lat="43.4954" lon="2.15213">
        <ele>232</ele>
        <time>2019-02-10T12:19:22Z</time>
      </trkpt>
      <trkpt lat="43.49548" lon="2.1521">
        <ele>232</ele>
        <time>2019-02-10T12:19:24Z</time>
      </trkpt>
      <trkpt lat="43.49559" lon="2.15204">
        <ele>232</ele>
        <time>2019-02-10T12:19:27Z</time>
      </trkpt>
      <trkpt lat="43.49581" lon="2.15183">
        <ele>232</ele>
        <time>2019-02-10T12:19:35Z</time>
      </trkpt>
      <trkpt lat="43.49584" lon="2.15177">
        <ele>231</ele>
        <time>2019-02-10T12:19:38Z</time>
      </trkpt>
      <trkpt lat="43.49584" lon="2.15173">
        <ele>230</ele>
        <time>2019-02-10T12:19:39Z</time>
      </trkpt>
      <trkpt lat="43.49576" lon="2.15157">
        <ele>229</ele>
        <time>2019-02-10T12:19:43Z</time>
      </trkpt>
      <trkpt lat="43.49574" lon="2.15152">
        <ele>229</ele>
        <time>2019-02-10T12:19:44Z</time>
      </trkpt>
      <trkpt lat="43.49558" lon="2.1513">
        <ele>228</ele>
        <time>2019-02-10T12:19:49Z</time>
      </trkpt>
      <trkpt lat="43.49555" lon="2.15124">
        <ele>228</ele>
        <time>2019-02-10T12:19:50Z</time>
      </trkpt>
      <trkpt lat="43.49548" lon="2.15114">
        <ele>227</ele>
        <time>2019-02-10T12:19:52Z</time>
      </trkpt>
      <trkpt lat="43.49541" lon="2.15103">
        <ele>227</ele>
        <time>2019-02-10T12:19:54Z</time>
      </trkpt>
      <trkpt lat="43.4954" lon="2.15092">
        <ele>226</ele>
        <time>2019-02-10T12:19:56Z</time>
      </trkpt>
      <trkpt lat="43.49541" lon="2.15087">
        <ele>226</ele>
        <time>2019-02-10T12:19:57Z</time>
      </trkpt>
      <trkpt lat="43.49544" lon="2.15081">
        <ele>226</ele>
        <time>2019-02-10T12:19:59Z</time>
      </trkpt>
      <trkpt lat="43.4955" lon="2.15075">
        <ele>225</ele>
        <time>2019-02-10T12:20:04Z</time>
      </trkpt>
      <trkpt lat="43.4955" lon="2.15075">
        <ele>225</ele>
        <time>2019-02-10T12:20:05Z</time>
      </trkpt>
    </trkseg>
  </trk>
</gpx>